<?xml version="1.0" encoding="UTF-8" standalone="no" ?>
<gpx xmlns="http://www.topografix.com/GPX/1/1" xmlns:xsi="http://www.w3.org/2001/XMLSchema-instance" xsi:schemaLocation="http://www.topografix.com/GPX/1/1 http://www.topografix.com/GPX/1/1/gpx.xsd" version="1.1" creator="VisuGPX - https://www.visugpx.com">
  <metadata>
    <name>8 mai - Course Résistance - circuit moyen 1</name>
    <desc><![CDATA[Cours de la Résistance - circuit moyen 1
Mens / MONESTIER / Gresse / Clelles / Tréminis / Mens]]></desc>
  </metadata>
  <wpt lat="44.81687" lon="5.75037">
    <ele>777</ele>
    <name><![CDATA[Course résistance - CM1]]></name>
    <type><![CDATA[Generic]]></type>
  </wpt>
  <trk>
    <name><![CDATA[Course résistance - CM1]]></name>
    <trkseg>
      <trkpt lat="44.81687" lon="5.75037">
        <ele>777</ele>
        <time>2017-11-21T18:27:14Z</time>
      </trkpt>
      <trkpt lat="44.81695" lon="5.75057">
        <ele>778</ele>
        <time>2017-11-21T18:27:20Z</time>
      </trkpt>
      <trkpt lat="44.81703" lon="5.75082">
        <ele>778</ele>
        <time>2017-11-21T18:27:29Z</time>
      </trkpt>
      <trkpt lat="44.81721" lon="5.75168">
        <ele>781</ele>
        <time>2017-11-21T18:27:39Z</time>
      </trkpt>
      <trkpt lat="44.81729" lon="5.75177">
        <ele>782</ele>
        <time>2017-11-21T18:27:41Z</time>
      </trkpt>
      <trkpt lat="44.81761" lon="5.75205">
        <ele>783</ele>
        <time>2017-11-21T18:28:01Z</time>
      </trkpt>
      <trkpt lat="44.81782" lon="5.75219">
        <ele>783</ele>
        <time>2017-11-21T18:28:19Z</time>
      </trkpt>
      <trkpt lat="44.81806" lon="5.75223">
        <ele>783</ele>
        <time>2017-11-21T18:28:28Z</time>
      </trkpt>
      <trkpt lat="44.81825" lon="5.75223">
        <ele>783</ele>
        <time>2017-11-21T18:28:40Z</time>
      </trkpt>
      <trkpt lat="44.81845" lon="5.75223">
        <ele>783</ele>
        <time>2017-11-21T18:28:51Z</time>
      </trkpt>
      <trkpt lat="44.81864" lon="5.75225">
        <ele>783</ele>
        <time>2017-11-21T18:29:00Z</time>
      </trkpt>
      <trkpt lat="44.81932" lon="5.75236">
        <ele>781</ele>
        <time>2017-11-21T18:29:10Z</time>
      </trkpt>
      <trkpt lat="44.81976" lon="5.75245">
        <ele>780</ele>
        <time>2017-11-21T18:29:23Z</time>
      </trkpt>
      <trkpt lat="44.82023" lon="5.75258">
        <ele>777</ele>
        <time>2017-11-21T18:29:27Z</time>
      </trkpt>
      <trkpt lat="44.8205" lon="5.75266">
        <ele>775</ele>
        <time>2017-11-21T18:29:29Z</time>
      </trkpt>
      <trkpt lat="44.8208" lon="5.75272">
        <ele>774</ele>
        <time>2017-11-21T18:29:32Z</time>
      </trkpt>
      <trkpt lat="44.82091" lon="5.75272">
        <ele>773</ele>
        <time>2017-11-21T18:29:49Z</time>
      </trkpt>
      <trkpt lat="44.821" lon="5.75271">
        <ele>773</ele>
        <time>2017-11-21T18:30:07Z</time>
      </trkpt>
      <trkpt lat="44.82109" lon="5.75267">
        <ele>774</ele>
        <time>2017-11-21T18:30:15Z</time>
      </trkpt>
      <trkpt lat="44.8212" lon="5.75256">
        <ele>774</ele>
        <time>2017-11-21T18:30:32Z</time>
      </trkpt>
      <trkpt lat="44.82125" lon="5.75243">
        <ele>776</ele>
        <time>2017-11-21T18:30:41Z</time>
      </trkpt>
      <trkpt lat="44.82126" lon="5.75223">
        <ele>777</ele>
        <time>2017-11-21T18:30:44Z</time>
      </trkpt>
      <trkpt lat="44.82113" lon="5.75126">
        <ele>780</ele>
        <time>2017-11-21T18:31:01Z</time>
      </trkpt>
      <trkpt lat="44.82095" lon="5.75013">
        <ele>779</ele>
        <time>2017-11-21T18:31:21Z</time>
      </trkpt>
      <trkpt lat="44.82092" lon="5.74984">
        <ele>779</ele>
        <time>2017-11-21T18:31:36Z</time>
      </trkpt>
      <trkpt lat="44.82094" lon="5.74941">
        <ele>780</ele>
        <time>2017-11-21T18:31:49Z</time>
      </trkpt>
      <trkpt lat="44.82099" lon="5.74915">
        <ele>779</ele>
        <time>2017-11-21T18:31:53Z</time>
      </trkpt>
      <trkpt lat="44.82105" lon="5.74895">
        <ele>781</ele>
        <time>2017-11-21T18:32:05Z</time>
      </trkpt>
      <trkpt lat="44.82118" lon="5.74864">
        <ele>782</ele>
        <time>2017-11-21T18:32:16Z</time>
      </trkpt>
      <trkpt lat="44.82132" lon="5.74841">
        <ele>783</ele>
        <time>2017-11-21T18:32:30Z</time>
      </trkpt>
      <trkpt lat="44.8215" lon="5.74823">
        <ele>784</ele>
        <time>2017-11-21T18:32:32Z</time>
      </trkpt>
      <trkpt lat="44.82172" lon="5.74806">
        <ele>788</ele>
        <time>2017-11-21T18:32:41Z</time>
      </trkpt>
      <trkpt lat="44.8222" lon="5.74774">
        <ele>787</ele>
        <time>2017-11-21T18:32:54Z</time>
      </trkpt>
      <trkpt lat="44.82246" lon="5.74764">
        <ele>786</ele>
        <time>2017-11-21T18:32:59Z</time>
      </trkpt>
      <trkpt lat="44.82272" lon="5.74762">
        <ele>788</ele>
        <time>2017-11-21T18:33:06Z</time>
      </trkpt>
      <trkpt lat="44.82298" lon="5.74767">
        <ele>789</ele>
        <time>2017-11-21T18:33:24Z</time>
      </trkpt>
      <trkpt lat="44.82323" lon="5.74778">
        <ele>789</ele>
        <time>2017-11-21T18:33:38Z</time>
      </trkpt>
      <trkpt lat="44.82375" lon="5.74801">
        <ele>792</ele>
        <time>2017-11-21T18:33:40Z</time>
      </trkpt>
      <trkpt lat="44.82429" lon="5.74825">
        <ele>795</ele>
        <time>2017-11-21T18:33:43Z</time>
      </trkpt>
      <trkpt lat="44.82456" lon="5.74837">
        <ele>802</ele>
        <time>2017-11-21T18:33:49Z</time>
      </trkpt>
      <trkpt lat="44.82494" lon="5.74849">
        <ele>801</ele>
        <time>2017-11-21T18:34:00Z</time>
      </trkpt>
      <trkpt lat="44.82554" lon="5.74863">
        <ele>803</ele>
        <time>2017-11-21T18:34:10Z</time>
      </trkpt>
      <trkpt lat="44.82583" lon="5.74871">
        <ele>804</ele>
        <time>2017-11-21T18:34:12Z</time>
      </trkpt>
      <trkpt lat="44.82595" lon="5.74877">
        <ele>803</ele>
        <time>2017-11-21T18:34:18Z</time>
      </trkpt>
      <trkpt lat="44.82606" lon="5.74884">
        <ele>803</ele>
        <time>2017-11-21T18:34:34Z</time>
      </trkpt>
      <trkpt lat="44.82616" lon="5.74895">
        <ele>803</ele>
        <time>2017-11-21T18:34:50Z</time>
      </trkpt>
      <trkpt lat="44.8263" lon="5.74914">
        <ele>803</ele>
        <time>2017-11-21T18:35:08Z</time>
      </trkpt>
      <trkpt lat="44.82658" lon="5.74956">
        <ele>811</ele>
        <time>2017-11-21T18:35:11Z</time>
      </trkpt>
      <trkpt lat="44.82677" lon="5.74971">
        <ele>809</ele>
        <time>2017-11-21T18:35:20Z</time>
      </trkpt>
      <trkpt lat="44.8269" lon="5.7498">
        <ele>809</ele>
        <time>2017-11-21T18:35:35Z</time>
      </trkpt>
      <trkpt lat="44.82716" lon="5.74997">
        <ele>808</ele>
        <time>2017-11-21T18:35:53Z</time>
      </trkpt>
      <trkpt lat="44.82728" lon="5.75007">
        <ele>814</ele>
        <time>2017-11-21T18:36:00Z</time>
      </trkpt>
      <trkpt lat="44.8274" lon="5.75019">
        <ele>814</ele>
        <time>2017-11-21T18:36:16Z</time>
      </trkpt>
      <trkpt lat="44.8275" lon="5.75034">
        <ele>810</ele>
        <time>2017-11-21T18:36:33Z</time>
      </trkpt>
      <trkpt lat="44.82758" lon="5.75051">
        <ele>811</ele>
        <time>2017-11-21T18:36:48Z</time>
      </trkpt>
      <trkpt lat="44.82768" lon="5.75089">
        <ele>817</ele>
        <time>2017-11-21T18:37:04Z</time>
      </trkpt>
      <trkpt lat="44.82771" lon="5.75128">
        <ele>818</ele>
        <time>2017-11-21T18:37:17Z</time>
      </trkpt>
      <trkpt lat="44.82773" lon="5.75154">
        <ele>820</ele>
        <time>2017-11-21T18:37:32Z</time>
      </trkpt>
      <trkpt lat="44.82781" lon="5.75176">
        <ele>825</ele>
        <time>2017-11-21T18:37:42Z</time>
      </trkpt>
      <trkpt lat="44.8279" lon="5.75192">
        <ele>825</ele>
        <time>2017-11-21T18:37:44Z</time>
      </trkpt>
      <trkpt lat="44.82802" lon="5.75204">
        <ele>825</ele>
        <time>2017-11-21T18:37:54Z</time>
      </trkpt>
      <trkpt lat="44.82815" lon="5.75213">
        <ele>825</ele>
        <time>2017-11-21T18:37:57Z</time>
      </trkpt>
      <trkpt lat="44.8283" lon="5.75218">
        <ele>825</ele>
        <time>2017-11-21T18:38:03Z</time>
      </trkpt>
      <trkpt lat="44.82859" lon="5.75227">
        <ele>823</ele>
        <time>2017-11-21T18:38:06Z</time>
      </trkpt>
      <trkpt lat="44.82889" lon="5.75235">
        <ele>824</ele>
        <time>2017-11-21T18:38:12Z</time>
      </trkpt>
      <trkpt lat="44.82904" lon="5.75236">
        <ele>825</ele>
        <time>2017-11-21T18:38:22Z</time>
      </trkpt>
      <trkpt lat="44.8292" lon="5.75234">
        <ele>829</ele>
        <time>2017-11-21T18:38:34Z</time>
      </trkpt>
      <trkpt lat="44.82934" lon="5.75228">
        <ele>829</ele>
        <time>2017-11-21T18:38:48Z</time>
      </trkpt>
      <trkpt lat="44.82948" lon="5.75218">
        <ele>830</ele>
        <time>2017-11-21T18:39:07Z</time>
      </trkpt>
      <trkpt lat="44.8296" lon="5.75204">
        <ele>830</ele>
        <time>2017-11-21T18:39:10Z</time>
      </trkpt>
      <trkpt lat="44.8298" lon="5.7517">
        <ele>830</ele>
        <time>2017-11-21T18:39:27Z</time>
      </trkpt>
      <trkpt lat="44.83003" lon="5.75138">
        <ele>831</ele>
        <time>2017-11-21T18:39:42Z</time>
      </trkpt>
      <trkpt lat="44.83016" lon="5.75126">
        <ele>830</ele>
        <time>2017-11-21T18:39:44Z</time>
      </trkpt>
      <trkpt lat="44.83031" lon="5.75117">
        <ele>830</ele>
        <time>2017-11-21T18:39:54Z</time>
      </trkpt>
      <trkpt lat="44.83046" lon="5.7511">
        <ele>830</ele>
        <time>2017-11-21T18:39:58Z</time>
      </trkpt>
      <trkpt lat="44.83062" lon="5.75107">
        <ele>831</ele>
        <time>2017-11-21T18:40:18Z</time>
      </trkpt>
      <trkpt lat="44.83077" lon="5.75106">
        <ele>831</ele>
        <time>2017-11-21T18:40:28Z</time>
      </trkpt>
      <trkpt lat="44.83092" lon="5.75109">
        <ele>834</ele>
        <time>2017-11-21T18:40:35Z</time>
      </trkpt>
      <trkpt lat="44.83107" lon="5.75114">
        <ele>835</ele>
        <time>2017-11-21T18:40:51Z</time>
      </trkpt>
      <trkpt lat="44.83121" lon="5.75122">
        <ele>835</ele>
        <time>2017-11-21T18:40:56Z</time>
      </trkpt>
      <trkpt lat="44.83147" lon="5.75143">
        <ele>838</ele>
        <time>2017-11-21T18:41:16Z</time>
      </trkpt>
      <trkpt lat="44.8317" lon="5.75167">
        <ele>844</ele>
        <time>2017-11-21T18:41:34Z</time>
      </trkpt>
      <trkpt lat="44.83195" lon="5.75189">
        <ele>847</ele>
        <time>2017-11-21T18:41:37Z</time>
      </trkpt>
      <trkpt lat="44.83208" lon="5.75194">
        <ele>848</ele>
        <time>2017-11-21T18:41:42Z</time>
      </trkpt>
      <trkpt lat="44.83222" lon="5.75196">
        <ele>848</ele>
        <time>2017-11-21T18:41:55Z</time>
      </trkpt>
      <trkpt lat="44.83235" lon="5.75192">
        <ele>847</ele>
        <time>2017-11-21T18:42:06Z</time>
      </trkpt>
      <trkpt lat="44.83247" lon="5.75184">
        <ele>846</ele>
        <time>2017-11-21T18:42:10Z</time>
      </trkpt>
      <trkpt lat="44.83262" lon="5.75167">
        <ele>847</ele>
        <time>2017-11-21T18:42:17Z</time>
      </trkpt>
      <trkpt lat="44.83272" lon="5.75153">
        <ele>847</ele>
        <time>2017-11-21T18:42:37Z</time>
      </trkpt>
      <trkpt lat="44.833" lon="5.75105">
        <ele>850</ele>
        <time>2017-11-21T18:42:55Z</time>
      </trkpt>
      <trkpt lat="44.83304" lon="5.75089">
        <ele>850</ele>
        <time>2017-11-21T18:43:07Z</time>
      </trkpt>
      <trkpt lat="44.83306" lon="5.75072">
        <ele>850</ele>
        <time>2017-11-21T18:43:20Z</time>
      </trkpt>
      <trkpt lat="44.83303" lon="5.75034">
        <ele>850</ele>
        <time>2017-11-21T18:43:22Z</time>
      </trkpt>
      <trkpt lat="44.83292" lon="5.74957">
        <ele>851</ele>
        <time>2017-11-21T18:43:31Z</time>
      </trkpt>
      <trkpt lat="44.83288" lon="5.74908">
        <ele>852</ele>
        <time>2017-11-21T18:43:38Z</time>
      </trkpt>
      <trkpt lat="44.83293" lon="5.74868">
        <ele>853</ele>
        <time>2017-11-21T18:43:43Z</time>
      </trkpt>
      <trkpt lat="44.83299" lon="5.7484">
        <ele>854</ele>
        <time>2017-11-21T18:44:00Z</time>
      </trkpt>
      <trkpt lat="44.83309" lon="5.74813">
        <ele>854</ele>
        <time>2017-11-21T18:44:05Z</time>
      </trkpt>
      <trkpt lat="44.83325" lon="5.7478">
        <ele>855</ele>
        <time>2017-11-21T18:44:12Z</time>
      </trkpt>
      <trkpt lat="44.83342" lon="5.74738">
        <ele>862</ele>
        <time>2017-11-21T18:44:19Z</time>
      </trkpt>
      <trkpt lat="44.83351" lon="5.74705">
        <ele>864</ele>
        <time>2017-11-21T18:44:30Z</time>
      </trkpt>
      <trkpt lat="44.83355" lon="5.7468">
        <ele>864</ele>
        <time>2017-11-21T18:44:35Z</time>
      </trkpt>
      <trkpt lat="44.83359" lon="5.74631">
        <ele>866</ele>
        <time>2017-11-21T18:44:52Z</time>
      </trkpt>
      <trkpt lat="44.83359" lon="5.74573">
        <ele>865</ele>
        <time>2017-11-21T18:45:05Z</time>
      </trkpt>
      <trkpt lat="44.83361" lon="5.74546">
        <ele>866</ele>
        <time>2017-11-21T18:45:10Z</time>
      </trkpt>
      <trkpt lat="44.83365" lon="5.74527">
        <ele>866</ele>
        <time>2017-11-21T18:45:18Z</time>
      </trkpt>
      <trkpt lat="44.83373" lon="5.74499">
        <ele>866</ele>
        <time>2017-11-21T18:45:25Z</time>
      </trkpt>
      <trkpt lat="44.83384" lon="5.74474">
        <ele>867</ele>
        <time>2017-11-21T18:45:45Z</time>
      </trkpt>
      <trkpt lat="44.83399" lon="5.74449">
        <ele>868</ele>
        <time>2017-11-21T18:46:05Z</time>
      </trkpt>
      <trkpt lat="44.83415" lon="5.74428">
        <ele>869</ele>
        <time>2017-11-21T18:46:09Z</time>
      </trkpt>
      <trkpt lat="44.83428" lon="5.74405">
        <ele>873</ele>
        <time>2017-11-21T18:46:24Z</time>
      </trkpt>
      <trkpt lat="44.8344" lon="5.74379">
        <ele>875</ele>
        <time>2017-11-21T18:46:27Z</time>
      </trkpt>
      <trkpt lat="44.83449" lon="5.74338">
        <ele>875</ele>
        <time>2017-11-21T18:46:40Z</time>
      </trkpt>
      <trkpt lat="44.83451" lon="5.74303">
        <ele>876</ele>
        <time>2017-11-21T18:46:45Z</time>
      </trkpt>
      <trkpt lat="44.83451" lon="5.74256">
        <ele>877</ele>
        <time>2017-11-21T18:46:59Z</time>
      </trkpt>
      <trkpt lat="44.83456" lon="5.74209">
        <ele>879</ele>
        <time>2017-11-21T18:47:18Z</time>
      </trkpt>
      <trkpt lat="44.83464" lon="5.7418">
        <ele>880</ele>
        <time>2017-11-21T18:47:37Z</time>
      </trkpt>
      <trkpt lat="44.83479" lon="5.74143">
        <ele>881</ele>
        <time>2017-11-21T18:47:44Z</time>
      </trkpt>
      <trkpt lat="44.83498" lon="5.74098">
        <ele>882</ele>
        <time>2017-11-21T18:47:46Z</time>
      </trkpt>
      <trkpt lat="44.83517" lon="5.74053">
        <ele>885</ele>
        <time>2017-11-21T18:48:01Z</time>
      </trkpt>
      <trkpt lat="44.83532" lon="5.74016">
        <ele>886</ele>
        <time>2017-11-21T18:48:16Z</time>
      </trkpt>
      <trkpt lat="44.83541" lon="5.73983">
        <ele>887</ele>
        <time>2017-11-21T18:48:31Z</time>
      </trkpt>
      <trkpt lat="44.8355" lon="5.73938">
        <ele>888</ele>
        <time>2017-11-21T18:48:38Z</time>
      </trkpt>
      <trkpt lat="44.8357" lon="5.73824">
        <ele>894</ele>
        <time>2017-11-21T18:48:49Z</time>
      </trkpt>
      <trkpt lat="44.83577" lon="5.73796">
        <ele>894</ele>
        <time>2017-11-21T18:49:01Z</time>
      </trkpt>
      <trkpt lat="44.83589" lon="5.73767">
        <ele>895</ele>
        <time>2017-11-21T18:49:18Z</time>
      </trkpt>
      <trkpt lat="44.83602" lon="5.73751">
        <ele>895</ele>
        <time>2017-11-21T18:49:32Z</time>
      </trkpt>
      <trkpt lat="44.83615" lon="5.73742">
        <ele>892</ele>
        <time>2017-11-21T18:49:36Z</time>
      </trkpt>
      <trkpt lat="44.8363" lon="5.73738">
        <ele>892</ele>
        <time>2017-11-21T18:49:39Z</time>
      </trkpt>
      <trkpt lat="44.83644" lon="5.73738">
        <ele>891</ele>
        <time>2017-11-21T18:49:47Z</time>
      </trkpt>
      <trkpt lat="44.83657" lon="5.73741">
        <ele>891</ele>
        <time>2017-11-21T18:49:54Z</time>
      </trkpt>
      <trkpt lat="44.8367" lon="5.73748">
        <ele>891</ele>
        <time>2017-11-21T18:49:56Z</time>
      </trkpt>
      <trkpt lat="44.83707" lon="5.73772">
        <ele>892</ele>
        <time>2017-11-21T18:49:59Z</time>
      </trkpt>
      <trkpt lat="44.83723" lon="5.73783">
        <ele>892</ele>
        <time>2017-11-21T18:50:13Z</time>
      </trkpt>
      <trkpt lat="44.83742" lon="5.73791">
        <ele>892</ele>
        <time>2017-11-21T18:50:28Z</time>
      </trkpt>
      <trkpt lat="44.83737" lon="5.73777">
        <ele>891</ele>
        <time>2017-11-21T18:50:35Z</time>
      </trkpt>
      <trkpt lat="44.8372" lon="5.73765">
        <ele>891</ele>
        <time>2017-11-21T18:50:54Z</time>
      </trkpt>
      <trkpt lat="44.83701" lon="5.73751">
        <ele>892</ele>
        <time>2017-11-21T18:51:10Z</time>
      </trkpt>
      <trkpt lat="44.8368" lon="5.73733">
        <ele>886</ele>
        <time>2017-11-21T18:51:28Z</time>
      </trkpt>
      <trkpt lat="44.83665" lon="5.73719">
        <ele>890</ele>
        <time>2017-11-21T18:51:45Z</time>
      </trkpt>
      <trkpt lat="44.83651" lon="5.73703">
        <ele>889</ele>
        <time>2017-11-21T18:51:47Z</time>
      </trkpt>
      <trkpt lat="44.83636" lon="5.73675">
        <ele>889</ele>
        <time>2017-11-21T18:52:05Z</time>
      </trkpt>
      <trkpt lat="44.83632" lon="5.73661">
        <ele>886</ele>
        <time>2017-11-21T18:52:21Z</time>
      </trkpt>
      <trkpt lat="44.83629" lon="5.73645">
        <ele>887</ele>
        <time>2017-11-21T18:52:37Z</time>
      </trkpt>
      <trkpt lat="44.83623" lon="5.7361">
        <ele>886</ele>
        <time>2017-11-21T18:52:47Z</time>
      </trkpt>
      <trkpt lat="44.83621" lon="5.73578">
        <ele>884</ele>
        <time>2017-11-21T18:53:01Z</time>
      </trkpt>
      <trkpt lat="44.83623" lon="5.7355">
        <ele>884</ele>
        <time>2017-11-21T18:53:05Z</time>
      </trkpt>
      <trkpt lat="44.83635" lon="5.73522">
        <ele>883</ele>
        <time>2017-11-21T18:53:11Z</time>
      </trkpt>
      <trkpt lat="44.83698" lon="5.73448">
        <ele>879</ele>
        <time>2017-11-21T18:53:24Z</time>
      </trkpt>
      <trkpt lat="44.83729" lon="5.73411">
        <ele>880</ele>
        <time>2017-11-21T18:53:28Z</time>
      </trkpt>
      <trkpt lat="44.83749" lon="5.73388">
        <ele>880</ele>
        <time>2017-11-21T18:53:30Z</time>
      </trkpt>
      <trkpt lat="44.83774" lon="5.73364">
        <ele>876</ele>
        <time>2017-11-21T18:53:49Z</time>
      </trkpt>
      <trkpt lat="44.83803" lon="5.73345">
        <ele>876</ele>
        <time>2017-11-21T18:53:53Z</time>
      </trkpt>
      <trkpt lat="44.8384" lon="5.73326">
        <ele>878</ele>
        <time>2017-11-21T18:54:02Z</time>
      </trkpt>
      <trkpt lat="44.83866" lon="5.73312">
        <ele>879</ele>
        <time>2017-11-21T18:54:19Z</time>
      </trkpt>
      <trkpt lat="44.83892" lon="5.73299">
        <ele>878</ele>
        <time>2017-11-21T18:54:39Z</time>
      </trkpt>
      <trkpt lat="44.83918" lon="5.73289">
        <ele>877</ele>
        <time>2017-11-21T18:54:45Z</time>
      </trkpt>
      <trkpt lat="44.83946" lon="5.73287">
        <ele>877</ele>
        <time>2017-11-21T18:55:01Z</time>
      </trkpt>
      <trkpt lat="44.83974" lon="5.73294">
        <ele>877</ele>
        <time>2017-11-21T18:55:04Z</time>
      </trkpt>
      <trkpt lat="44.83987" lon="5.73299">
        <ele>877</ele>
        <time>2017-11-21T18:55:22Z</time>
      </trkpt>
      <trkpt lat="44.83999" lon="5.73307">
        <ele>876</ele>
        <time>2017-11-21T18:55:31Z</time>
      </trkpt>
      <trkpt lat="44.8401" lon="5.73318">
        <ele>877</ele>
        <time>2017-11-21T18:55:49Z</time>
      </trkpt>
      <trkpt lat="44.84019" lon="5.73331">
        <ele>877</ele>
        <time>2017-11-21T18:56:08Z</time>
      </trkpt>
      <trkpt lat="44.84034" lon="5.7336">
        <ele>869</ele>
        <time>2017-11-21T18:56:25Z</time>
      </trkpt>
      <trkpt lat="44.84042" lon="5.73372">
        <ele>868</ele>
        <time>2017-11-21T18:56:40Z</time>
      </trkpt>
      <trkpt lat="44.8405" lon="5.73381">
        <ele>867</ele>
        <time>2017-11-21T18:56:54Z</time>
      </trkpt>
      <trkpt lat="44.8406" lon="5.73386">
        <ele>866</ele>
        <time>2017-11-21T18:56:59Z</time>
      </trkpt>
      <trkpt lat="44.84069" lon="5.73386">
        <ele>866</ele>
        <time>2017-11-21T18:57:12Z</time>
      </trkpt>
      <trkpt lat="44.84078" lon="5.73382">
        <ele>867</ele>
        <time>2017-11-21T18:57:22Z</time>
      </trkpt>
      <trkpt lat="44.84087" lon="5.73375">
        <ele>863</ele>
        <time>2017-11-21T18:57:34Z</time>
      </trkpt>
      <trkpt lat="44.84107" lon="5.73353">
        <ele>865</ele>
        <time>2017-11-21T18:57:50Z</time>
      </trkpt>
      <trkpt lat="44.84129" lon="5.73328">
        <ele>872</ele>
        <time>2017-11-21T18:58:01Z</time>
      </trkpt>
      <trkpt lat="44.84152" lon="5.73301">
        <ele>871</ele>
        <time>2017-11-21T18:58:06Z</time>
      </trkpt>
      <trkpt lat="44.8417" lon="5.73273">
        <ele>861</ele>
        <time>2017-11-21T18:58:22Z</time>
      </trkpt>
      <trkpt lat="44.84183" lon="5.73245">
        <ele>866</ele>
        <time>2017-11-21T18:58:31Z</time>
      </trkpt>
      <trkpt lat="44.84191" lon="5.73217">
        <ele>864</ele>
        <time>2017-11-21T18:58:34Z</time>
      </trkpt>
      <trkpt lat="44.84192" lon="5.73203">
        <ele>864</ele>
        <time>2017-11-21T18:58:48Z</time>
      </trkpt>
      <trkpt lat="44.8419" lon="5.7319">
        <ele>864</ele>
        <time>2017-11-21T18:58:50Z</time>
      </trkpt>
      <trkpt lat="44.8418" lon="5.73163">
        <ele>867</ele>
        <time>2017-11-21T18:58:53Z</time>
      </trkpt>
      <trkpt lat="44.84169" lon="5.73135">
        <ele>865</ele>
        <time>2017-11-21T18:59:02Z</time>
      </trkpt>
      <trkpt lat="44.84159" lon="5.73102">
        <ele>870</ele>
        <time>2017-11-21T18:59:11Z</time>
      </trkpt>
      <trkpt lat="44.84147" lon="5.73021">
        <ele>868</ele>
        <time>2017-11-21T18:59:18Z</time>
      </trkpt>
      <trkpt lat="44.84135" lon="5.72933">
        <ele>867</ele>
        <time>2017-11-21T18:59:32Z</time>
      </trkpt>
      <trkpt lat="44.84113" lon="5.72759">
        <ele>863</ele>
        <time>2017-11-21T18:59:51Z</time>
      </trkpt>
      <trkpt lat="44.84111" lon="5.72731">
        <ele>862</ele>
        <time>2017-11-21T19:00:00Z</time>
      </trkpt>
      <trkpt lat="44.84114" lon="5.72693">
        <ele>862</ele>
        <time>2017-11-21T19:00:07Z</time>
      </trkpt>
      <trkpt lat="44.84118" lon="5.72642">
        <ele>860</ele>
        <time>2017-11-21T19:00:24Z</time>
      </trkpt>
      <trkpt lat="44.84116" lon="5.72613">
        <ele>860</ele>
        <time>2017-11-21T19:00:32Z</time>
      </trkpt>
      <trkpt lat="44.84108" lon="5.72584">
        <ele>861</ele>
        <time>2017-11-21T19:00:47Z</time>
      </trkpt>
      <trkpt lat="44.84073" lon="5.72497">
        <ele>860</ele>
        <time>2017-11-21T19:00:56Z</time>
      </trkpt>
      <trkpt lat="44.8406" lon="5.72463">
        <ele>861</ele>
        <time>2017-11-21T19:01:00Z</time>
      </trkpt>
      <trkpt lat="44.84052" lon="5.72428">
        <ele>860</ele>
        <time>2017-11-21T19:01:16Z</time>
      </trkpt>
      <trkpt lat="44.84048" lon="5.72385">
        <ele>856</ele>
        <time>2017-11-21T19:01:33Z</time>
      </trkpt>
      <trkpt lat="44.8404" lon="5.72234">
        <ele>854</ele>
        <time>2017-11-21T19:01:44Z</time>
      </trkpt>
      <trkpt lat="44.84034" lon="5.72121">
        <ele>855</ele>
        <time>2017-11-21T19:01:55Z</time>
      </trkpt>
      <trkpt lat="44.84028" lon="5.72069">
        <ele>856</ele>
        <time>2017-11-21T19:02:06Z</time>
      </trkpt>
      <trkpt lat="44.84013" lon="5.72045">
        <ele>856</ele>
        <time>2017-11-21T19:02:13Z</time>
      </trkpt>
      <trkpt lat="44.83991" lon="5.72016">
        <ele>856</ele>
        <time>2017-11-21T19:02:24Z</time>
      </trkpt>
      <trkpt lat="44.83974" lon="5.7199">
        <ele>856</ele>
        <time>2017-11-21T19:02:32Z</time>
      </trkpt>
      <trkpt lat="44.83965" lon="5.71977">
        <ele>856</ele>
        <time>2017-11-21T19:02:38Z</time>
      </trkpt>
      <trkpt lat="44.83976" lon="5.71967">
        <ele>856</ele>
        <time>2017-11-21T19:02:46Z</time>
      </trkpt>
      <trkpt lat="44.83998" lon="5.71939">
        <ele>857</ele>
        <time>2017-11-21T19:02:59Z</time>
      </trkpt>
      <trkpt lat="44.84015" lon="5.71909">
        <ele>858</ele>
        <time>2017-11-21T19:03:09Z</time>
      </trkpt>
      <trkpt lat="44.84031" lon="5.71873">
        <ele>858</ele>
        <time>2017-11-21T19:03:22Z</time>
      </trkpt>
      <trkpt lat="44.84044" lon="5.71832">
        <ele>860</ele>
        <time>2017-11-21T19:03:24Z</time>
      </trkpt>
      <trkpt lat="44.84051" lon="5.71798">
        <ele>860</ele>
        <time>2017-11-21T19:03:31Z</time>
      </trkpt>
      <trkpt lat="44.84055" lon="5.71763">
        <ele>861</ele>
        <time>2017-11-21T19:03:43Z</time>
      </trkpt>
      <trkpt lat="44.84055" lon="5.71719">
        <ele>864</ele>
        <time>2017-11-21T19:04:03Z</time>
      </trkpt>
      <trkpt lat="44.84051" lon="5.7163">
        <ele>867</ele>
        <time>2017-11-21T19:04:10Z</time>
      </trkpt>
      <trkpt lat="44.84047" lon="5.71431">
        <ele>873</ele>
        <time>2017-11-21T19:04:18Z</time>
      </trkpt>
      <trkpt lat="44.84045" lon="5.71318">
        <ele>880</ele>
        <time>2017-11-21T19:04:26Z</time>
      </trkpt>
      <trkpt lat="44.84044" lon="5.7124">
        <ele>883</ele>
        <time>2017-11-21T19:04:42Z</time>
      </trkpt>
      <trkpt lat="44.84041" lon="5.71203">
        <ele>883</ele>
        <time>2017-11-21T19:04:45Z</time>
      </trkpt>
      <trkpt lat="44.84019" lon="5.7112">
        <ele>883</ele>
        <time>2017-11-21T19:04:48Z</time>
      </trkpt>
      <trkpt lat="44.84007" lon="5.71069">
        <ele>883</ele>
        <time>2017-11-21T19:04:57Z</time>
      </trkpt>
      <trkpt lat="44.8401" lon="5.71015">
        <ele>885</ele>
        <time>2017-11-21T19:05:10Z</time>
      </trkpt>
      <trkpt lat="44.84031" lon="5.70945">
        <ele>884</ele>
        <time>2017-11-21T19:05:15Z</time>
      </trkpt>
      <trkpt lat="44.84035" lon="5.70909">
        <ele>882</ele>
        <time>2017-11-21T19:05:30Z</time>
      </trkpt>
      <trkpt lat="44.84035" lon="5.70877">
        <ele>881</ele>
        <time>2017-11-21T19:05:40Z</time>
      </trkpt>
      <trkpt lat="44.8403" lon="5.70845">
        <ele>882</ele>
        <time>2017-11-21T19:05:51Z</time>
      </trkpt>
      <trkpt lat="44.84019" lon="5.708">
        <ele>879</ele>
        <time>2017-11-21T19:05:58Z</time>
      </trkpt>
      <trkpt lat="44.84008" lon="5.70747">
        <ele>880</ele>
        <time>2017-11-21T19:06:07Z</time>
      </trkpt>
      <trkpt lat="44.84006" lon="5.7066">
        <ele>875</ele>
        <time>2017-11-21T19:06:20Z</time>
      </trkpt>
      <trkpt lat="44.84008" lon="5.70545">
        <ele>866</ele>
        <time>2017-11-21T19:06:30Z</time>
      </trkpt>
      <trkpt lat="44.8401" lon="5.70469">
        <ele>862</ele>
        <time>2017-11-21T19:06:37Z</time>
      </trkpt>
      <trkpt lat="44.84015" lon="5.70433">
        <ele>860</ele>
        <time>2017-11-21T19:06:51Z</time>
      </trkpt>
      <trkpt lat="44.84025" lon="5.70401">
        <ele>858</ele>
        <time>2017-11-21T19:07:01Z</time>
      </trkpt>
      <trkpt lat="44.84099" lon="5.70221">
        <ele>852</ele>
        <time>2017-11-21T19:07:08Z</time>
      </trkpt>
      <trkpt lat="44.8419" lon="5.70003">
        <ele>841</ele>
        <time>2017-11-21T19:07:22Z</time>
      </trkpt>
      <trkpt lat="44.84218" lon="5.69933">
        <ele>840</ele>
        <time>2017-11-21T19:07:39Z</time>
      </trkpt>
      <trkpt lat="44.84243" lon="5.69885">
        <ele>841</ele>
        <time>2017-11-21T19:07:49Z</time>
      </trkpt>
      <trkpt lat="44.84263" lon="5.6986">
        <ele>829</ele>
        <time>2017-11-21T19:07:51Z</time>
      </trkpt>
      <trkpt lat="44.84283" lon="5.69841">
        <ele>827</ele>
        <time>2017-11-21T19:07:54Z</time>
      </trkpt>
      <trkpt lat="44.84413" lon="5.69742">
        <ele>817</ele>
        <time>2017-11-21T19:08:12Z</time>
      </trkpt>
      <trkpt lat="44.8458" lon="5.69616">
        <ele>806</ele>
        <time>2017-11-21T19:08:18Z</time>
      </trkpt>
      <trkpt lat="44.84674" lon="5.69548">
        <ele>792</ele>
        <time>2017-11-21T19:08:28Z</time>
      </trkpt>
      <trkpt lat="44.84692" lon="5.69528">
        <ele>792</ele>
        <time>2017-11-21T19:08:33Z</time>
      </trkpt>
      <trkpt lat="44.84705" lon="5.69512">
        <ele>791</ele>
        <time>2017-11-21T19:08:35Z</time>
      </trkpt>
      <trkpt lat="44.84722" lon="5.69483">
        <ele>794</ele>
        <time>2017-11-21T19:08:48Z</time>
      </trkpt>
      <trkpt lat="44.8474" lon="5.69445">
        <ele>795</ele>
        <time>2017-11-21T19:09:07Z</time>
      </trkpt>
      <trkpt lat="44.84758" lon="5.69412">
        <ele>791</ele>
        <time>2017-11-21T19:09:24Z</time>
      </trkpt>
      <trkpt lat="44.84781" lon="5.69381">
        <ele>790</ele>
        <time>2017-11-21T19:09:27Z</time>
      </trkpt>
      <trkpt lat="44.84808" lon="5.69352">
        <ele>788</ele>
        <time>2017-11-21T19:09:40Z</time>
      </trkpt>
      <trkpt lat="44.8489" lon="5.69277">
        <ele>780</ele>
        <time>2017-11-21T19:09:47Z</time>
      </trkpt>
      <trkpt lat="44.84939" lon="5.69229">
        <ele>779</ele>
        <time>2017-11-21T19:09:55Z</time>
      </trkpt>
      <trkpt lat="44.84959" lon="5.69214">
        <ele>779</ele>
        <time>2017-11-21T19:10:14Z</time>
      </trkpt>
      <trkpt lat="44.84974" lon="5.69206">
        <ele>779</ele>
        <time>2017-11-21T19:10:17Z</time>
      </trkpt>
      <trkpt lat="44.84985" lon="5.69204">
        <ele>779</ele>
        <time>2017-11-21T19:10:37Z</time>
      </trkpt>
      <trkpt lat="44.85004" lon="5.69208">
        <ele>771</ele>
        <time>2017-11-21T19:10:42Z</time>
      </trkpt>
      <trkpt lat="44.85024" lon="5.69217">
        <ele>770</ele>
        <time>2017-11-21T19:10:47Z</time>
      </trkpt>
      <trkpt lat="44.85048" lon="5.69224">
        <ele>768</ele>
        <time>2017-11-21T19:11:06Z</time>
      </trkpt>
      <trkpt lat="44.85067" lon="5.69223">
        <ele>767</ele>
        <time>2017-11-21T19:11:14Z</time>
      </trkpt>
      <trkpt lat="44.85117" lon="5.69202">
        <ele>760</ele>
        <time>2017-11-21T19:11:25Z</time>
      </trkpt>
      <trkpt lat="44.85136" lon="5.69193">
        <ele>759</ele>
        <time>2017-11-21T19:11:31Z</time>
      </trkpt>
      <trkpt lat="44.85145" lon="5.69186">
        <ele>758</ele>
        <time>2017-11-21T19:11:40Z</time>
      </trkpt>
      <trkpt lat="44.85161" lon="5.69166">
        <ele>760</ele>
        <time>2017-11-21T19:11:47Z</time>
      </trkpt>
      <trkpt lat="44.85172" lon="5.69145">
        <ele>753</ele>
        <time>2017-11-21T19:12:02Z</time>
      </trkpt>
      <trkpt lat="44.8518" lon="5.69124">
        <ele>753</ele>
        <time>2017-11-21T19:12:16Z</time>
      </trkpt>
      <trkpt lat="44.85191" lon="5.6909">
        <ele>756</ele>
        <time>2017-11-21T19:12:24Z</time>
      </trkpt>
      <trkpt lat="44.85207" lon="5.69055">
        <ele>761</ele>
        <time>2017-11-21T19:12:38Z</time>
      </trkpt>
      <trkpt lat="44.8522" lon="5.69034">
        <ele>761</ele>
        <time>2017-11-21T19:12:41Z</time>
      </trkpt>
      <trkpt lat="44.85236" lon="5.69014">
        <ele>758</ele>
        <time>2017-11-21T19:12:57Z</time>
      </trkpt>
      <trkpt lat="44.85303" lon="5.68944">
        <ele>752</ele>
        <time>2017-11-21T19:13:11Z</time>
      </trkpt>
      <trkpt lat="44.85394" lon="5.68854">
        <ele>746</ele>
        <time>2017-11-21T19:13:16Z</time>
      </trkpt>
      <trkpt lat="44.85451" lon="5.68794">
        <ele>744</ele>
        <time>2017-11-21T19:13:29Z</time>
      </trkpt>
      <trkpt lat="44.85489" lon="5.68757">
        <ele>740</ele>
        <time>2017-11-21T19:13:38Z</time>
      </trkpt>
      <trkpt lat="44.85508" lon="5.68737">
        <ele>737</ele>
        <time>2017-11-21T19:13:50Z</time>
      </trkpt>
      <trkpt lat="44.85547" lon="5.68699">
        <ele>736</ele>
        <time>2017-11-21T19:13:52Z</time>
      </trkpt>
      <trkpt lat="44.85593" lon="5.68649">
        <ele>727</ele>
        <time>2017-11-21T19:14:01Z</time>
      </trkpt>
      <trkpt lat="44.85615" lon="5.68622">
        <ele>727</ele>
        <time>2017-11-21T19:14:16Z</time>
      </trkpt>
      <trkpt lat="44.85635" lon="5.68593">
        <ele>725</ele>
        <time>2017-11-21T19:14:24Z</time>
      </trkpt>
      <trkpt lat="44.85741" lon="5.68467">
        <ele>723</ele>
        <time>2017-11-21T19:14:36Z</time>
      </trkpt>
      <trkpt lat="44.85775" lon="5.68424">
        <ele>707</ele>
        <time>2017-11-21T19:14:46Z</time>
      </trkpt>
      <trkpt lat="44.85787" lon="5.68401">
        <ele>711</ele>
        <time>2017-11-21T19:14:55Z</time>
      </trkpt>
      <trkpt lat="44.85793" lon="5.6838">
        <ele>711</ele>
        <time>2017-11-21T19:15:13Z</time>
      </trkpt>
      <trkpt lat="44.85802" lon="5.68358">
        <ele>710</ele>
        <time>2017-11-21T19:15:24Z</time>
      </trkpt>
      <trkpt lat="44.85819" lon="5.68342">
        <ele>704</ele>
        <time>2017-11-21T19:15:30Z</time>
      </trkpt>
      <trkpt lat="44.85837" lon="5.68337">
        <ele>694</ele>
        <time>2017-11-21T19:15:47Z</time>
      </trkpt>
      <trkpt lat="44.85897" lon="5.68341">
        <ele>687</ele>
        <time>2017-11-21T19:16:01Z</time>
      </trkpt>
      <trkpt lat="44.85963" lon="5.68344">
        <ele>681</ele>
        <time>2017-11-21T19:16:19Z</time>
      </trkpt>
      <trkpt lat="44.85981" lon="5.68343">
        <ele>680</ele>
        <time>2017-11-21T19:16:22Z</time>
      </trkpt>
      <trkpt lat="44.85994" lon="5.68339">
        <ele>679</ele>
        <time>2017-11-21T19:16:40Z</time>
      </trkpt>
      <trkpt lat="44.86002" lon="5.68331">
        <ele>677</ele>
        <time>2017-11-21T19:16:48Z</time>
      </trkpt>
      <trkpt lat="44.8601" lon="5.68318">
        <ele>675</ele>
        <time>2017-11-21T19:17:02Z</time>
      </trkpt>
      <trkpt lat="44.86015" lon="5.68299">
        <ele>673</ele>
        <time>2017-11-21T19:17:09Z</time>
      </trkpt>
      <trkpt lat="44.86016" lon="5.68265">
        <ele>672</ele>
        <time>2017-11-21T19:17:18Z</time>
      </trkpt>
      <trkpt lat="44.86018" lon="5.68237">
        <ele>672</ele>
        <time>2017-11-21T19:17:28Z</time>
      </trkpt>
      <trkpt lat="44.86023" lon="5.68213">
        <ele>672</ele>
        <time>2017-11-21T19:17:47Z</time>
      </trkpt>
      <trkpt lat="44.86035" lon="5.68191">
        <ele>672</ele>
        <time>2017-11-21T19:17:51Z</time>
      </trkpt>
      <trkpt lat="44.86053" lon="5.68176">
        <ele>670</ele>
        <time>2017-11-21T19:17:56Z</time>
      </trkpt>
      <trkpt lat="44.8607" lon="5.68168">
        <ele>668</ele>
        <time>2017-11-21T19:18:12Z</time>
      </trkpt>
      <trkpt lat="44.86136" lon="5.68145">
        <ele>662</ele>
        <time>2017-11-21T19:18:27Z</time>
      </trkpt>
      <trkpt lat="44.86156" lon="5.68135">
        <ele>661</ele>
        <time>2017-11-21T19:18:31Z</time>
      </trkpt>
      <trkpt lat="44.8617" lon="5.68125">
        <ele>655</ele>
        <time>2017-11-21T19:18:44Z</time>
      </trkpt>
      <trkpt lat="44.86184" lon="5.6811">
        <ele>655</ele>
        <time>2017-11-21T19:19:02Z</time>
      </trkpt>
      <trkpt lat="44.8621" lon="5.68072">
        <ele>657</ele>
        <time>2017-11-21T19:19:18Z</time>
      </trkpt>
      <trkpt lat="44.86245" lon="5.68012">
        <ele>655</ele>
        <time>2017-11-21T19:19:28Z</time>
      </trkpt>
      <trkpt lat="44.86276" lon="5.67955">
        <ele>650</ele>
        <time>2017-11-21T19:19:34Z</time>
      </trkpt>
      <trkpt lat="44.86286" lon="5.67935">
        <ele>649</ele>
        <time>2017-11-21T19:19:54Z</time>
      </trkpt>
      <trkpt lat="44.86305" lon="5.67888">
        <ele>649</ele>
        <time>2017-11-21T19:20:05Z</time>
      </trkpt>
      <trkpt lat="44.86344" lon="5.67796">
        <ele>635</ele>
        <time>2017-11-21T19:20:24Z</time>
      </trkpt>
      <trkpt lat="44.86395" lon="5.67681">
        <ele>631</ele>
        <time>2017-11-21T19:20:38Z</time>
      </trkpt>
      <trkpt lat="44.86423" lon="5.67614">
        <ele>623</ele>
        <time>2017-11-21T19:20:49Z</time>
      </trkpt>
      <trkpt lat="44.86431" lon="5.67585">
        <ele>625</ele>
        <time>2017-11-21T19:20:52Z</time>
      </trkpt>
      <trkpt lat="44.86433" lon="5.67554">
        <ele>621</ele>
        <time>2017-11-21T19:21:09Z</time>
      </trkpt>
      <trkpt lat="44.86436" lon="5.67539">
        <ele>620</ele>
        <time>2017-11-21T19:21:21Z</time>
      </trkpt>
      <trkpt lat="44.86439" lon="5.67536">
        <ele>620</ele>
        <time>2017-11-21T19:21:29Z</time>
      </trkpt>
      <trkpt lat="44.86444" lon="5.67535">
        <ele>620</ele>
        <time>2017-11-21T19:21:42Z</time>
      </trkpt>
      <trkpt lat="44.8645" lon="5.67538">
        <ele>619</ele>
        <time>2017-11-21T19:21:45Z</time>
      </trkpt>
      <trkpt lat="44.86453" lon="5.67552">
        <ele>619</ele>
        <time>2017-11-21T19:21:53Z</time>
      </trkpt>
      <trkpt lat="44.86466" lon="5.67631">
        <ele>618</ele>
        <time>2017-11-21T19:21:58Z</time>
      </trkpt>
      <trkpt lat="44.86478" lon="5.67687">
        <ele>615</ele>
        <time>2017-11-21T19:22:11Z</time>
      </trkpt>
      <trkpt lat="44.86488" lon="5.67726">
        <ele>615</ele>
        <time>2017-11-21T19:22:16Z</time>
      </trkpt>
      <trkpt lat="44.86491" lon="5.6773">
        <ele>614</ele>
        <time>2017-11-21T19:22:20Z</time>
      </trkpt>
      <trkpt lat="44.86497" lon="5.67731">
        <ele>614</ele>
        <time>2017-11-21T19:22:38Z</time>
      </trkpt>
      <trkpt lat="44.86504" lon="5.67727">
        <ele>607</ele>
        <time>2017-11-21T19:22:56Z</time>
      </trkpt>
      <trkpt lat="44.86511" lon="5.67713">
        <ele>606</ele>
        <time>2017-11-21T19:23:14Z</time>
      </trkpt>
      <trkpt lat="44.86517" lon="5.67693">
        <ele>606</ele>
        <time>2017-11-21T19:23:17Z</time>
      </trkpt>
      <trkpt lat="44.86532" lon="5.67636">
        <ele>605</ele>
        <time>2017-11-21T19:23:23Z</time>
      </trkpt>
      <trkpt lat="44.86558" lon="5.67575">
        <ele>602</ele>
        <time>2017-11-21T19:23:28Z</time>
      </trkpt>
      <trkpt lat="44.86584" lon="5.67511">
        <ele>595</ele>
        <time>2017-11-21T19:23:44Z</time>
      </trkpt>
      <trkpt lat="44.866" lon="5.6747">
        <ele>592</ele>
        <time>2017-11-21T19:23:52Z</time>
      </trkpt>
      <trkpt lat="44.86606" lon="5.67439">
        <ele>592</ele>
        <time>2017-11-21T19:24:12Z</time>
      </trkpt>
      <trkpt lat="44.86606" lon="5.67417">
        <ele>592</ele>
        <time>2017-11-21T19:24:16Z</time>
      </trkpt>
      <trkpt lat="44.86599" lon="5.6738">
        <ele>588</ele>
        <time>2017-11-21T19:24:36Z</time>
      </trkpt>
      <trkpt lat="44.86598" lon="5.67369">
        <ele>587</ele>
        <time>2017-11-21T19:24:45Z</time>
      </trkpt>
      <trkpt lat="44.86601" lon="5.67361">
        <ele>587</ele>
        <time>2017-11-21T19:25:01Z</time>
      </trkpt>
      <trkpt lat="44.86609" lon="5.67355">
        <ele>586</ele>
        <time>2017-11-21T19:25:21Z</time>
      </trkpt>
      <trkpt lat="44.86617" lon="5.67359">
        <ele>586</ele>
        <time>2017-11-21T19:25:23Z</time>
      </trkpt>
      <trkpt lat="44.86623" lon="5.67369">
        <ele>586</ele>
        <time>2017-11-21T19:25:33Z</time>
      </trkpt>
      <trkpt lat="44.8664" lon="5.6742">
        <ele>588</ele>
        <time>2017-11-21T19:25:50Z</time>
      </trkpt>
      <trkpt lat="44.8669" lon="5.67553">
        <ele>579</ele>
        <time>2017-11-21T19:26:08Z</time>
      </trkpt>
      <trkpt lat="44.86701" lon="5.67586">
        <ele>580</ele>
        <time>2017-11-21T19:26:18Z</time>
      </trkpt>
      <trkpt lat="44.86703" lon="5.67603">
        <ele>580</ele>
        <time>2017-11-21T19:26:28Z</time>
      </trkpt>
      <trkpt lat="44.86704" lon="5.67655">
        <ele>581</ele>
        <time>2017-11-21T19:26:39Z</time>
      </trkpt>
      <trkpt lat="44.8671" lon="5.67665">
        <ele>581</ele>
        <time>2017-11-21T19:26:59Z</time>
      </trkpt>
      <trkpt lat="44.86716" lon="5.67666">
        <ele>581</ele>
        <time>2017-11-21T19:27:06Z</time>
      </trkpt>
      <trkpt lat="44.86722" lon="5.67657">
        <ele>581</ele>
        <time>2017-11-21T19:27:10Z</time>
      </trkpt>
      <trkpt lat="44.86726" lon="5.67613">
        <ele>579</ele>
        <time>2017-11-21T19:27:21Z</time>
      </trkpt>
      <trkpt lat="44.86726" lon="5.67592">
        <ele>579</ele>
        <time>2017-11-21T19:27:29Z</time>
      </trkpt>
      <trkpt lat="44.86723" lon="5.67566">
        <ele>578</ele>
        <time>2017-11-21T19:27:36Z</time>
      </trkpt>
      <trkpt lat="44.86712" lon="5.67505">
        <ele>578</ele>
        <time>2017-11-21T19:27:48Z</time>
      </trkpt>
      <trkpt lat="44.86712" lon="5.67466">
        <ele>577</ele>
        <time>2017-11-21T19:27:58Z</time>
      </trkpt>
      <trkpt lat="44.86715" lon="5.67432">
        <ele>577</ele>
        <time>2017-11-21T19:28:04Z</time>
      </trkpt>
      <trkpt lat="44.86715" lon="5.6742">
        <ele>577</ele>
        <time>2017-11-21T19:28:20Z</time>
      </trkpt>
      <trkpt lat="44.86718" lon="5.67346">
        <ele>574</ele>
        <time>2017-11-21T19:28:29Z</time>
      </trkpt>
      <trkpt lat="44.8672" lon="5.67314">
        <ele>568</ele>
        <time>2017-11-21T19:28:46Z</time>
      </trkpt>
      <trkpt lat="44.86724" lon="5.67286">
        <ele>566</ele>
        <time>2017-11-21T19:29:05Z</time>
      </trkpt>
      <trkpt lat="44.86728" lon="5.67267">
        <ele>565</ele>
        <time>2017-11-21T19:29:08Z</time>
      </trkpt>
      <trkpt lat="44.86738" lon="5.67239">
        <ele>555</ele>
        <time>2017-11-21T19:29:12Z</time>
      </trkpt>
      <trkpt lat="44.8675" lon="5.67216">
        <ele>552</ele>
        <time>2017-11-21T19:29:18Z</time>
      </trkpt>
      <trkpt lat="44.86775" lon="5.67175">
        <ele>535</ele>
        <time>2017-11-21T19:29:34Z</time>
      </trkpt>
      <trkpt lat="44.86804" lon="5.67113">
        <ele>516</ele>
        <time>2017-11-21T19:29:38Z</time>
      </trkpt>
      <trkpt lat="44.86846" lon="5.67006">
        <ele>536</ele>
        <time>2017-11-21T19:29:45Z</time>
      </trkpt>
      <trkpt lat="44.86861" lon="5.66907">
        <ele>545</ele>
        <time>2017-11-21T19:29:52Z</time>
      </trkpt>
      <trkpt lat="44.86866" lon="5.6685">
        <ele>547</ele>
        <time>2017-11-21T19:30:07Z</time>
      </trkpt>
      <trkpt lat="44.86866" lon="5.66828">
        <ele>549</ele>
        <time>2017-11-21T19:30:23Z</time>
      </trkpt>
      <trkpt lat="44.86867" lon="5.66821">
        <ele>549</ele>
        <time>2017-11-21T19:30:30Z</time>
      </trkpt>
      <trkpt lat="44.86873" lon="5.66818">
        <ele>552</ele>
        <time>2017-11-21T19:30:50Z</time>
      </trkpt>
      <trkpt lat="44.86878" lon="5.66822">
        <ele>553</ele>
        <time>2017-11-21T19:30:59Z</time>
      </trkpt>
      <trkpt lat="44.86881" lon="5.66846">
        <ele>552</ele>
        <time>2017-11-21T19:31:07Z</time>
      </trkpt>
      <trkpt lat="44.86886" lon="5.66871">
        <ele>553</ele>
        <time>2017-11-21T19:31:11Z</time>
      </trkpt>
      <trkpt lat="44.86909" lon="5.6693">
        <ele>561</ele>
        <time>2017-11-21T19:31:28Z</time>
      </trkpt>
      <trkpt lat="44.86912" lon="5.66958">
        <ele>556</ele>
        <time>2017-11-21T19:31:34Z</time>
      </trkpt>
      <trkpt lat="44.86912" lon="5.66982">
        <ele>558</ele>
        <time>2017-11-21T19:31:40Z</time>
      </trkpt>
      <trkpt lat="44.86911" lon="5.67027">
        <ele>548</ele>
        <time>2017-11-21T19:31:56Z</time>
      </trkpt>
      <trkpt lat="44.86913" lon="5.67033">
        <ele>547</ele>
        <time>2017-11-21T19:32:16Z</time>
      </trkpt>
      <trkpt lat="44.86917" lon="5.67036">
        <ele>567</ele>
        <time>2017-11-21T19:32:19Z</time>
      </trkpt>
      <trkpt lat="44.86925" lon="5.67037">
        <ele>567</ele>
        <time>2017-11-21T19:32:26Z</time>
      </trkpt>
      <trkpt lat="44.86928" lon="5.67034">
        <ele>568</ele>
        <time>2017-11-21T19:32:41Z</time>
      </trkpt>
      <trkpt lat="44.86931" lon="5.67022">
        <ele>569</ele>
        <time>2017-11-21T19:32:57Z</time>
      </trkpt>
      <trkpt lat="44.86931" lon="5.66933">
        <ele>578</ele>
        <time>2017-11-21T19:33:13Z</time>
      </trkpt>
      <trkpt lat="44.86933" lon="5.66878">
        <ele>579</ele>
        <time>2017-11-21T19:33:17Z</time>
      </trkpt>
      <trkpt lat="44.86935" lon="5.66858">
        <ele>579</ele>
        <time>2017-11-21T19:33:19Z</time>
      </trkpt>
      <trkpt lat="44.86945" lon="5.66834">
        <ele>579</ele>
        <time>2017-11-21T19:33:39Z</time>
      </trkpt>
      <trkpt lat="44.86953" lon="5.66824">
        <ele>580</ele>
        <time>2017-11-21T19:33:41Z</time>
      </trkpt>
      <trkpt lat="44.86968" lon="5.66818">
        <ele>582</ele>
        <time>2017-11-21T19:34:01Z</time>
      </trkpt>
      <trkpt lat="44.87011" lon="5.66814">
        <ele>592</ele>
        <time>2017-11-21T19:34:14Z</time>
      </trkpt>
      <trkpt lat="44.87055" lon="5.66812">
        <ele>596</ele>
        <time>2017-11-21T19:34:33Z</time>
      </trkpt>
      <trkpt lat="44.87077" lon="5.66815">
        <ele>597</ele>
        <time>2017-11-21T19:34:46Z</time>
      </trkpt>
      <trkpt lat="44.87089" lon="5.66813">
        <ele>604</ele>
        <time>2017-11-21T19:34:59Z</time>
      </trkpt>
      <trkpt lat="44.87093" lon="5.66808">
        <ele>605</ele>
        <time>2017-11-21T19:35:16Z</time>
      </trkpt>
      <trkpt lat="44.87095" lon="5.66802">
        <ele>605</ele>
        <time>2017-11-21T19:35:28Z</time>
      </trkpt>
      <trkpt lat="44.87093" lon="5.66788">
        <ele>605</ele>
        <time>2017-11-21T19:35:37Z</time>
      </trkpt>
      <trkpt lat="44.87083" lon="5.66776">
        <ele>597</ele>
        <time>2017-11-21T19:35:44Z</time>
      </trkpt>
      <trkpt lat="44.87055" lon="5.66754">
        <ele>596</ele>
        <time>2017-11-21T19:36:04Z</time>
      </trkpt>
      <trkpt lat="44.87043" lon="5.66738">
        <ele>598</ele>
        <time>2017-11-21T19:36:18Z</time>
      </trkpt>
      <trkpt lat="44.87037" lon="5.66712">
        <ele>599</ele>
        <time>2017-11-21T19:36:30Z</time>
      </trkpt>
      <trkpt lat="44.87035" lon="5.66691">
        <ele>599</ele>
        <time>2017-11-21T19:36:50Z</time>
      </trkpt>
      <trkpt lat="44.87035" lon="5.66677">
        <ele>600</ele>
        <time>2017-11-21T19:37:08Z</time>
      </trkpt>
      <trkpt lat="44.87047" lon="5.66646">
        <ele>611</ele>
        <time>2017-11-21T19:37:13Z</time>
      </trkpt>
      <trkpt lat="44.87046" lon="5.6663">
        <ele>612</ele>
        <time>2017-11-21T19:37:33Z</time>
      </trkpt>
      <trkpt lat="44.87045" lon="5.66625">
        <ele>612</ele>
        <time>2017-11-21T19:37:36Z</time>
      </trkpt>
      <trkpt lat="44.87037" lon="5.66616">
        <ele>613</ele>
        <time>2017-11-21T19:37:40Z</time>
      </trkpt>
      <trkpt lat="44.86986" lon="5.66586">
        <ele>607</ele>
        <time>2017-11-21T19:37:52Z</time>
      </trkpt>
      <trkpt lat="44.86943" lon="5.66554">
        <ele>614</ele>
        <time>2017-11-21T19:38:09Z</time>
      </trkpt>
      <trkpt lat="44.8693" lon="5.66538">
        <ele>615</ele>
        <time>2017-11-21T19:38:19Z</time>
      </trkpt>
      <trkpt lat="44.86921" lon="5.66523">
        <ele>616</ele>
        <time>2017-11-21T19:38:25Z</time>
      </trkpt>
      <trkpt lat="44.86901" lon="5.66469">
        <ele>605</ele>
        <time>2017-11-21T19:38:40Z</time>
      </trkpt>
      <trkpt lat="44.86888" lon="5.66421">
        <ele>607</ele>
        <time>2017-11-21T19:39:00Z</time>
      </trkpt>
      <trkpt lat="44.86885" lon="5.66402">
        <ele>610</ele>
        <time>2017-11-21T19:39:08Z</time>
      </trkpt>
      <trkpt lat="44.86885" lon="5.6639">
        <ele>610</ele>
        <time>2017-11-21T19:39:23Z</time>
      </trkpt>
      <trkpt lat="44.86888" lon="5.66381">
        <ele>610</ele>
        <time>2017-11-21T19:39:26Z</time>
      </trkpt>
      <trkpt lat="44.86894" lon="5.66369">
        <ele>611</ele>
        <time>2017-11-21T19:39:42Z</time>
      </trkpt>
      <trkpt lat="44.8693" lon="5.6632">
        <ele>634</ele>
        <time>2017-11-21T19:39:51Z</time>
      </trkpt>
      <trkpt lat="44.86939" lon="5.66299">
        <ele>638</ele>
        <time>2017-11-21T19:39:53Z</time>
      </trkpt>
      <trkpt lat="44.86944" lon="5.66271">
        <ele>637</ele>
        <time>2017-11-21T19:40:00Z</time>
      </trkpt>
      <trkpt lat="44.86947" lon="5.6625">
        <ele>633</ele>
        <time>2017-11-21T19:40:02Z</time>
      </trkpt>
      <trkpt lat="44.86953" lon="5.66231">
        <ele>635</ele>
        <time>2017-11-21T19:40:21Z</time>
      </trkpt>
      <trkpt lat="44.8697" lon="5.66205">
        <ele>637</ele>
        <time>2017-11-21T19:40:38Z</time>
      </trkpt>
      <trkpt lat="44.86983" lon="5.66191">
        <ele>639</ele>
        <time>2017-11-21T19:40:46Z</time>
      </trkpt>
      <trkpt lat="44.87011" lon="5.66173">
        <ele>653</ele>
        <time>2017-11-21T19:41:06Z</time>
      </trkpt>
      <trkpt lat="44.87017" lon="5.66165">
        <ele>655</ele>
        <time>2017-11-21T19:41:17Z</time>
      </trkpt>
      <trkpt lat="44.87018" lon="5.66158">
        <ele>657</ele>
        <time>2017-11-21T19:41:31Z</time>
      </trkpt>
      <trkpt lat="44.87015" lon="5.66144">
        <ele>659</ele>
        <time>2017-11-21T19:41:37Z</time>
      </trkpt>
      <trkpt lat="44.86999" lon="5.66123">
        <ele>646</ele>
        <time>2017-11-21T19:41:49Z</time>
      </trkpt>
      <trkpt lat="44.86958" lon="5.6608">
        <ele>658</ele>
        <time>2017-11-21T19:42:02Z</time>
      </trkpt>
      <trkpt lat="44.86936" lon="5.66064">
        <ele>655</ele>
        <time>2017-11-21T19:42:08Z</time>
      </trkpt>
      <trkpt lat="44.86909" lon="5.66048">
        <ele>644</ele>
        <time>2017-11-21T19:42:20Z</time>
      </trkpt>
      <trkpt lat="44.86878" lon="5.66033">
        <ele>643</ele>
        <time>2017-11-21T19:42:36Z</time>
      </trkpt>
      <trkpt lat="44.8687" lon="5.66024">
        <ele>642</ele>
        <time>2017-11-21T19:42:41Z</time>
      </trkpt>
      <trkpt lat="44.86866" lon="5.66015">
        <ele>641</ele>
        <time>2017-11-21T19:42:43Z</time>
      </trkpt>
      <trkpt lat="44.86865" lon="5.66006">
        <ele>641</ele>
        <time>2017-11-21T19:42:59Z</time>
      </trkpt>
      <trkpt lat="44.86866" lon="5.65994">
        <ele>638</ele>
        <time>2017-11-21T19:43:13Z</time>
      </trkpt>
      <trkpt lat="44.86871" lon="5.65981">
        <ele>639</ele>
        <time>2017-11-21T19:43:20Z</time>
      </trkpt>
      <trkpt lat="44.86897" lon="5.6593">
        <ele>645</ele>
        <time>2017-11-21T19:43:34Z</time>
      </trkpt>
      <trkpt lat="44.86913" lon="5.65907">
        <ele>647</ele>
        <time>2017-11-21T19:43:40Z</time>
      </trkpt>
      <trkpt lat="44.86996" lon="5.65819">
        <ele>665</ele>
        <time>2017-11-21T19:43:55Z</time>
      </trkpt>
      <trkpt lat="44.8701" lon="5.65809">
        <ele>679</ele>
        <time>2017-11-21T19:44:07Z</time>
      </trkpt>
      <trkpt lat="44.87031" lon="5.65803">
        <ele>682</ele>
        <time>2017-11-21T19:44:20Z</time>
      </trkpt>
      <trkpt lat="44.87039" lon="5.65799">
        <ele>683</ele>
        <time>2017-11-21T19:44:38Z</time>
      </trkpt>
      <trkpt lat="44.87043" lon="5.65792">
        <ele>683</ele>
        <time>2017-11-21T19:44:57Z</time>
      </trkpt>
      <trkpt lat="44.87047" lon="5.65775">
        <ele>683</ele>
        <time>2017-11-21T19:45:14Z</time>
      </trkpt>
      <trkpt lat="44.87051" lon="5.65727">
        <ele>677</ele>
        <time>2017-11-21T19:45:20Z</time>
      </trkpt>
      <trkpt lat="44.87056" lon="5.65716">
        <ele>677</ele>
        <time>2017-11-21T19:45:24Z</time>
      </trkpt>
      <trkpt lat="44.87071" lon="5.65703">
        <ele>679</ele>
        <time>2017-11-21T19:45:44Z</time>
      </trkpt>
      <trkpt lat="44.87092" lon="5.65685">
        <ele>693</ele>
        <time>2017-11-21T19:46:00Z</time>
      </trkpt>
      <trkpt lat="44.87099" lon="5.65676">
        <ele>692</ele>
        <time>2017-11-21T19:46:16Z</time>
      </trkpt>
      <trkpt lat="44.87112" lon="5.65648">
        <ele>688</ele>
        <time>2017-11-21T19:46:22Z</time>
      </trkpt>
      <trkpt lat="44.87135" lon="5.65594">
        <ele>688</ele>
        <time>2017-11-21T19:46:29Z</time>
      </trkpt>
      <trkpt lat="44.87148" lon="5.65579">
        <ele>684</ele>
        <time>2017-11-21T19:46:43Z</time>
      </trkpt>
      <trkpt lat="44.87156" lon="5.65576">
        <ele>686</ele>
        <time>2017-11-21T19:46:45Z</time>
      </trkpt>
      <trkpt lat="44.8718" lon="5.65575">
        <ele>692</ele>
        <time>2017-11-21T19:47:05Z</time>
      </trkpt>
      <trkpt lat="44.87198" lon="5.65572">
        <ele>693</ele>
        <time>2017-11-21T19:47:17Z</time>
      </trkpt>
      <trkpt lat="44.87205" lon="5.65569">
        <ele>693</ele>
        <time>2017-11-21T19:47:23Z</time>
      </trkpt>
      <trkpt lat="44.87216" lon="5.65557">
        <ele>694</ele>
        <time>2017-11-21T19:47:36Z</time>
      </trkpt>
      <trkpt lat="44.87236" lon="5.65541">
        <ele>694</ele>
        <time>2017-11-21T19:47:38Z</time>
      </trkpt>
      <trkpt lat="44.87256" lon="5.65535">
        <ele>702</ele>
        <time>2017-11-21T19:47:57Z</time>
      </trkpt>
      <trkpt lat="44.87274" lon="5.65535">
        <ele>703</ele>
        <time>2017-11-21T19:48:00Z</time>
      </trkpt>
      <trkpt lat="44.87347" lon="5.65548">
        <ele>718</ele>
        <time>2017-11-21T19:48:09Z</time>
      </trkpt>
      <trkpt lat="44.87365" lon="5.65549">
        <ele>719</ele>
        <time>2017-11-21T19:48:19Z</time>
      </trkpt>
      <trkpt lat="44.87369" lon="5.65547">
        <ele>719</ele>
        <time>2017-11-21T19:48:24Z</time>
      </trkpt>
      <trkpt lat="44.87374" lon="5.65542">
        <ele>719</ele>
        <time>2017-11-21T19:48:30Z</time>
      </trkpt>
      <trkpt lat="44.87377" lon="5.65534">
        <ele>719</ele>
        <time>2017-11-21T19:48:49Z</time>
      </trkpt>
      <trkpt lat="44.87376" lon="5.65522">
        <ele>719</ele>
        <time>2017-11-21T19:49:07Z</time>
      </trkpt>
      <trkpt lat="44.87373" lon="5.65515">
        <ele>718</ele>
        <time>2017-11-21T19:49:10Z</time>
      </trkpt>
      <trkpt lat="44.87361" lon="5.65502">
        <ele>716</ele>
        <time>2017-11-21T19:49:28Z</time>
      </trkpt>
      <trkpt lat="44.87346" lon="5.65487">
        <ele>714</ele>
        <time>2017-11-21T19:49:32Z</time>
      </trkpt>
      <trkpt lat="44.87275" lon="5.65351">
        <ele>713</ele>
        <time>2017-11-21T19:49:50Z</time>
      </trkpt>
      <trkpt lat="44.87256" lon="5.65314">
        <ele>717</ele>
        <time>2017-11-21T19:50:07Z</time>
      </trkpt>
      <trkpt lat="44.87251" lon="5.65299">
        <ele>719</ele>
        <time>2017-11-21T19:50:21Z</time>
      </trkpt>
      <trkpt lat="44.87249" lon="5.65279">
        <ele>713</ele>
        <time>2017-11-21T19:50:23Z</time>
      </trkpt>
      <trkpt lat="44.87261" lon="5.65227">
        <ele>721</ele>
        <time>2017-11-21T19:50:32Z</time>
      </trkpt>
      <trkpt lat="44.87269" lon="5.65196">
        <ele>722</ele>
        <time>2017-11-21T19:50:52Z</time>
      </trkpt>
      <trkpt lat="44.87285" lon="5.65154">
        <ele>720</ele>
        <time>2017-11-21T19:50:59Z</time>
      </trkpt>
      <trkpt lat="44.87303" lon="5.65129">
        <ele>720</ele>
        <time>2017-11-21T19:51:05Z</time>
      </trkpt>
      <trkpt lat="44.8733" lon="5.65105">
        <ele>720</ele>
        <time>2017-11-21T19:51:20Z</time>
      </trkpt>
      <trkpt lat="44.8736" lon="5.65076">
        <ele>723</ele>
        <time>2017-11-21T19:51:37Z</time>
      </trkpt>
      <trkpt lat="44.87376" lon="5.65044">
        <ele>724</ele>
        <time>2017-11-21T19:51:45Z</time>
      </trkpt>
      <trkpt lat="44.87393" lon="5.65003">
        <ele>725</ele>
        <time>2017-11-21T19:51:52Z</time>
      </trkpt>
      <trkpt lat="44.8741" lon="5.64977">
        <ele>722</ele>
        <time>2017-11-21T19:52:08Z</time>
      </trkpt>
      <trkpt lat="44.87424" lon="5.64966">
        <ele>725</ele>
        <time>2017-11-21T19:52:12Z</time>
      </trkpt>
      <trkpt lat="44.87432" lon="5.64963">
        <ele>725</ele>
        <time>2017-11-21T19:52:20Z</time>
      </trkpt>
      <trkpt lat="44.87448" lon="5.64963">
        <ele>725</ele>
        <time>2017-11-21T19:52:39Z</time>
      </trkpt>
      <trkpt lat="44.87472" lon="5.64973">
        <ele>726</ele>
        <time>2017-11-21T19:52:42Z</time>
      </trkpt>
      <trkpt lat="44.87608" lon="5.65051">
        <ele>732</ele>
        <time>2017-11-21T19:53:02Z</time>
      </trkpt>
      <trkpt lat="44.87623" lon="5.6506">
        <ele>732</ele>
        <time>2017-11-21T19:53:13Z</time>
      </trkpt>
      <trkpt lat="44.87639" lon="5.65065">
        <ele>732</ele>
        <time>2017-11-21T19:53:23Z</time>
      </trkpt>
      <trkpt lat="44.8766" lon="5.65069">
        <ele>732</ele>
        <time>2017-11-21T19:53:43Z</time>
      </trkpt>
      <trkpt lat="44.87701" lon="5.65064">
        <ele>732</ele>
        <time>2017-11-21T19:53:48Z</time>
      </trkpt>
      <trkpt lat="44.87754" lon="5.65057">
        <ele>738</ele>
        <time>2017-11-21T19:53:57Z</time>
      </trkpt>
      <trkpt lat="44.87788" lon="5.65048">
        <ele>739</ele>
        <time>2017-11-21T19:54:04Z</time>
      </trkpt>
      <trkpt lat="44.878" lon="5.65037">
        <ele>740</ele>
        <time>2017-11-21T19:54:23Z</time>
      </trkpt>
      <trkpt lat="44.87811" lon="5.65021">
        <ele>740</ele>
        <time>2017-11-21T19:54:37Z</time>
      </trkpt>
      <trkpt lat="44.87834" lon="5.64971">
        <ele>743</ele>
        <time>2017-11-21T19:54:45Z</time>
      </trkpt>
      <trkpt lat="44.87853" lon="5.64923">
        <ele>741</ele>
        <time>2017-11-21T19:54:59Z</time>
      </trkpt>
      <trkpt lat="44.87863" lon="5.64905">
        <ele>737</ele>
        <time>2017-11-21T19:55:12Z</time>
      </trkpt>
      <trkpt lat="44.87874" lon="5.64891">
        <ele>738</ele>
        <time>2017-11-21T19:55:31Z</time>
      </trkpt>
      <trkpt lat="44.87884" lon="5.64884">
        <ele>738</ele>
        <time>2017-11-21T19:55:38Z</time>
      </trkpt>
      <trkpt lat="44.87894" lon="5.64881">
        <ele>738</ele>
        <time>2017-11-21T19:55:55Z</time>
      </trkpt>
      <trkpt lat="44.87903" lon="5.6488">
        <ele>739</ele>
        <time>2017-11-21T19:56:14Z</time>
      </trkpt>
      <trkpt lat="44.87919" lon="5.64882">
        <ele>743</ele>
        <time>2017-11-21T19:56:17Z</time>
      </trkpt>
      <trkpt lat="44.87956" lon="5.64896">
        <ele>743</ele>
        <time>2017-11-21T19:56:21Z</time>
      </trkpt>
      <trkpt lat="44.87986" lon="5.64904">
        <ele>745</ele>
        <time>2017-11-21T19:56:31Z</time>
      </trkpt>
      <trkpt lat="44.88005" lon="5.64904">
        <ele>746</ele>
        <time>2017-11-21T19:56:35Z</time>
      </trkpt>
      <trkpt lat="44.88019" lon="5.649">
        <ele>745</ele>
        <time>2017-11-21T19:56:53Z</time>
      </trkpt>
      <trkpt lat="44.8806" lon="5.64873">
        <ele>744</ele>
        <time>2017-11-21T19:57:06Z</time>
      </trkpt>
      <trkpt lat="44.88079" lon="5.64867">
        <ele>744</ele>
        <time>2017-11-21T19:57:08Z</time>
      </trkpt>
      <trkpt lat="44.88118" lon="5.6487">
        <ele>748</ele>
        <time>2017-11-21T19:57:26Z</time>
      </trkpt>
      <trkpt lat="44.88141" lon="5.64867">
        <ele>748</ele>
        <time>2017-11-21T19:57:42Z</time>
      </trkpt>
      <trkpt lat="44.88156" lon="5.6486">
        <ele>748</ele>
        <time>2017-11-21T19:57:45Z</time>
      </trkpt>
      <trkpt lat="44.88177" lon="5.64838">
        <ele>753</ele>
        <time>2017-11-21T19:58:05Z</time>
      </trkpt>
      <trkpt lat="44.883" lon="5.64671">
        <ele>752</ele>
        <time>2017-11-21T19:58:20Z</time>
      </trkpt>
      <trkpt lat="44.88334" lon="5.64636">
        <ele>754</ele>
        <time>2017-11-21T19:58:33Z</time>
      </trkpt>
      <trkpt lat="44.88428" lon="5.64558">
        <ele>758</ele>
        <time>2017-11-21T19:58:42Z</time>
      </trkpt>
      <trkpt lat="44.88445" lon="5.6454">
        <ele>759</ele>
        <time>2017-11-21T19:59:00Z</time>
      </trkpt>
      <trkpt lat="44.8845" lon="5.64531">
        <ele>759</ele>
        <time>2017-11-21T19:59:04Z</time>
      </trkpt>
      <trkpt lat="44.8846" lon="5.64506">
        <ele>759</ele>
        <time>2017-11-21T19:59:15Z</time>
      </trkpt>
      <trkpt lat="44.88463" lon="5.6449">
        <ele>757</ele>
        <time>2017-11-21T19:59:24Z</time>
      </trkpt>
      <trkpt lat="44.88464" lon="5.64469">
        <ele>756</ele>
        <time>2017-11-21T19:59:36Z</time>
      </trkpt>
      <trkpt lat="44.88464" lon="5.6438">
        <ele>756</ele>
        <time>2017-11-21T19:59:38Z</time>
      </trkpt>
      <trkpt lat="44.88465" lon="5.64361">
        <ele>756</ele>
        <time>2017-11-21T19:59:55Z</time>
      </trkpt>
      <trkpt lat="44.88472" lon="5.64331">
        <ele>756</ele>
        <time>2017-11-21T20:00:15Z</time>
      </trkpt>
      <trkpt lat="44.88478" lon="5.64316">
        <ele>756</ele>
        <time>2017-11-21T20:00:35Z</time>
      </trkpt>
      <trkpt lat="44.88512" lon="5.64261">
        <ele>760</ele>
        <time>2017-11-21T20:00:49Z</time>
      </trkpt>
      <trkpt lat="44.88573" lon="5.64165">
        <ele>761</ele>
        <time>2017-11-21T20:01:01Z</time>
      </trkpt>
      <trkpt lat="44.88587" lon="5.6414">
        <ele>765</ele>
        <time>2017-11-21T20:01:05Z</time>
      </trkpt>
      <trkpt lat="44.88598" lon="5.64111">
        <ele>766</ele>
        <time>2017-11-21T20:01:14Z</time>
      </trkpt>
      <trkpt lat="44.886" lon="5.64096">
        <ele>766</ele>
        <time>2017-11-21T20:01:31Z</time>
      </trkpt>
      <trkpt lat="44.88603" lon="5.64023">
        <ele>767</ele>
        <time>2017-11-21T20:01:44Z</time>
      </trkpt>
      <trkpt lat="44.88606" lon="5.63935">
        <ele>769</ele>
        <time>2017-11-21T20:01:52Z</time>
      </trkpt>
      <trkpt lat="44.8861" lon="5.63921">
        <ele>769</ele>
        <time>2017-11-21T20:01:55Z</time>
      </trkpt>
      <trkpt lat="44.88618" lon="5.63907">
        <ele>766</ele>
        <time>2017-11-21T20:02:05Z</time>
      </trkpt>
      <trkpt lat="44.88635" lon="5.63885">
        <ele>766</ele>
        <time>2017-11-21T20:02:25Z</time>
      </trkpt>
      <trkpt lat="44.88642" lon="5.63877">
        <ele>765</ele>
        <time>2017-11-21T20:02:34Z</time>
      </trkpt>
      <trkpt lat="44.88673" lon="5.63855">
        <ele>770</ele>
        <time>2017-11-21T20:02:41Z</time>
      </trkpt>
      <trkpt lat="44.88685" lon="5.63849">
        <ele>771</ele>
        <time>2017-11-21T20:02:56Z</time>
      </trkpt>
      <trkpt lat="44.88701" lon="5.63848">
        <ele>772</ele>
        <time>2017-11-21T20:03:04Z</time>
      </trkpt>
      <trkpt lat="44.88741" lon="5.63849">
        <ele>775</ele>
        <time>2017-11-21T20:03:16Z</time>
      </trkpt>
      <trkpt lat="44.8875" lon="5.63847">
        <ele>780</ele>
        <time>2017-11-21T20:03:19Z</time>
      </trkpt>
      <trkpt lat="44.88764" lon="5.63837">
        <ele>781</ele>
        <time>2017-11-21T20:03:37Z</time>
      </trkpt>
      <trkpt lat="44.8888" lon="5.63747">
        <ele>780</ele>
        <time>2017-11-21T20:03:52Z</time>
      </trkpt>
      <trkpt lat="44.88914" lon="5.63715">
        <ele>780</ele>
        <time>2017-11-21T20:04:05Z</time>
      </trkpt>
      <trkpt lat="44.88959" lon="5.63668">
        <ele>796</ele>
        <time>2017-11-21T20:04:15Z</time>
      </trkpt>
      <trkpt lat="44.89044" lon="5.6358">
        <ele>790</ele>
        <time>2017-11-21T20:04:24Z</time>
      </trkpt>
      <trkpt lat="44.89155" lon="5.63475">
        <ele>793</ele>
        <time>2017-11-21T20:04:36Z</time>
      </trkpt>
      <trkpt lat="44.89198" lon="5.63435">
        <ele>796</ele>
        <time>2017-11-21T20:04:41Z</time>
      </trkpt>
      <trkpt lat="44.89208" lon="5.63427">
        <ele>796</ele>
        <time>2017-11-21T20:04:44Z</time>
      </trkpt>
      <trkpt lat="44.89224" lon="5.63424">
        <ele>796</ele>
        <time>2017-11-21T20:05:03Z</time>
      </trkpt>
      <trkpt lat="44.89241" lon="5.6343">
        <ele>796</ele>
        <time>2017-11-21T20:05:19Z</time>
      </trkpt>
      <trkpt lat="44.89257" lon="5.63446">
        <ele>797</ele>
        <time>2017-11-21T20:05:39Z</time>
      </trkpt>
      <trkpt lat="44.89303" lon="5.6352">
        <ele>811</ele>
        <time>2017-11-21T20:05:52Z</time>
      </trkpt>
      <trkpt lat="44.89316" lon="5.63534">
        <ele>812</ele>
        <time>2017-11-21T20:06:08Z</time>
      </trkpt>
      <trkpt lat="44.89338" lon="5.63553">
        <ele>812</ele>
        <time>2017-11-21T20:06:17Z</time>
      </trkpt>
      <trkpt lat="44.89369" lon="5.63569">
        <ele>813</ele>
        <time>2017-11-21T20:06:24Z</time>
      </trkpt>
      <trkpt lat="44.89377" lon="5.63571">
        <ele>813</ele>
        <time>2017-11-21T20:06:31Z</time>
      </trkpt>
      <trkpt lat="44.89388" lon="5.63568">
        <ele>814</ele>
        <time>2017-11-21T20:06:35Z</time>
      </trkpt>
      <trkpt lat="44.89407" lon="5.63558">
        <ele>814</ele>
        <time>2017-11-21T20:06:40Z</time>
      </trkpt>
      <trkpt lat="44.8942" lon="5.63552">
        <ele>816</ele>
        <time>2017-11-21T20:06:47Z</time>
      </trkpt>
      <trkpt lat="44.89504" lon="5.63536">
        <ele>822</ele>
        <time>2017-11-21T20:06:57Z</time>
      </trkpt>
      <trkpt lat="44.8958" lon="5.63521">
        <ele>823</ele>
        <time>2017-11-21T20:07:14Z</time>
      </trkpt>
      <trkpt lat="44.89597" lon="5.63515">
        <ele>830</ele>
        <time>2017-11-21T20:07:32Z</time>
      </trkpt>
      <trkpt lat="44.89618" lon="5.635">
        <ele>824</ele>
        <time>2017-11-21T20:07:50Z</time>
      </trkpt>
      <trkpt lat="44.89676" lon="5.63444">
        <ele>838</ele>
        <time>2017-11-21T20:07:55Z</time>
      </trkpt>
      <trkpt lat="44.89714" lon="5.6341">
        <ele>835</ele>
        <time>2017-11-21T20:08:04Z</time>
      </trkpt>
      <trkpt lat="44.89725" lon="5.63397">
        <ele>836</ele>
        <time>2017-11-21T20:08:13Z</time>
      </trkpt>
      <trkpt lat="44.8973" lon="5.63386">
        <ele>836</ele>
        <time>2017-11-21T20:08:26Z</time>
      </trkpt>
      <trkpt lat="44.89732" lon="5.63371">
        <ele>835</ele>
        <time>2017-11-21T20:08:29Z</time>
      </trkpt>
      <trkpt lat="44.89728" lon="5.63307">
        <ele>833</ele>
        <time>2017-11-21T20:08:31Z</time>
      </trkpt>
      <trkpt lat="44.89731" lon="5.63282">
        <ele>832</ele>
        <time>2017-11-21T20:08:45Z</time>
      </trkpt>
      <trkpt lat="44.89743" lon="5.63244">
        <ele>836</ele>
        <time>2017-11-21T20:09:03Z</time>
      </trkpt>
      <trkpt lat="44.89756" lon="5.63202">
        <ele>846</ele>
        <time>2017-11-21T20:09:06Z</time>
      </trkpt>
      <trkpt lat="44.89758" lon="5.63181">
        <ele>844</ele>
        <time>2017-11-21T20:09:17Z</time>
      </trkpt>
      <trkpt lat="44.89755" lon="5.63169">
        <ele>841</ele>
        <time>2017-11-21T20:09:23Z</time>
      </trkpt>
      <trkpt lat="44.89744" lon="5.63144">
        <ele>835</ele>
        <time>2017-11-21T20:09:42Z</time>
      </trkpt>
      <trkpt lat="44.89738" lon="5.63119">
        <ele>834</ele>
        <time>2017-11-21T20:09:54Z</time>
      </trkpt>
      <trkpt lat="44.89741" lon="5.63096">
        <ele>835</ele>
        <time>2017-11-21T20:09:58Z</time>
      </trkpt>
      <trkpt lat="44.89747" lon="5.6308">
        <ele>837</ele>
        <time>2017-11-21T20:10:07Z</time>
      </trkpt>
      <trkpt lat="44.89765" lon="5.63063">
        <ele>844</ele>
        <time>2017-11-21T20:10:13Z</time>
      </trkpt>
      <trkpt lat="44.89796" lon="5.63054">
        <ele>848</ele>
        <time>2017-11-21T20:10:27Z</time>
      </trkpt>
      <trkpt lat="44.89818" lon="5.63045">
        <ele>850</ele>
        <time>2017-11-21T20:10:40Z</time>
      </trkpt>
      <trkpt lat="44.89822" lon="5.63041">
        <ele>850</ele>
        <time>2017-11-21T20:10:50Z</time>
      </trkpt>
      <trkpt lat="44.89825" lon="5.63034">
        <ele>850</ele>
        <time>2017-11-21T20:10:55Z</time>
      </trkpt>
      <trkpt lat="44.89824" lon="5.63013">
        <ele>851</ele>
        <time>2017-11-21T20:11:00Z</time>
      </trkpt>
      <trkpt lat="44.89818" lon="5.63004">
        <ele>851</ele>
        <time>2017-11-21T20:11:09Z</time>
      </trkpt>
      <trkpt lat="44.89804" lon="5.62996">
        <ele>850</ele>
        <time>2017-11-21T20:11:28Z</time>
      </trkpt>
      <trkpt lat="44.89794" lon="5.62986">
        <ele>849</ele>
        <time>2017-11-21T20:11:47Z</time>
      </trkpt>
      <trkpt lat="44.89787" lon="5.62975">
        <ele>849</ele>
        <time>2017-11-21T20:11:54Z</time>
      </trkpt>
      <trkpt lat="44.89784" lon="5.62965">
        <ele>849</ele>
        <time>2017-11-21T20:11:58Z</time>
      </trkpt>
      <trkpt lat="44.89784" lon="5.62947">
        <ele>849</ele>
        <time>2017-11-21T20:12:13Z</time>
      </trkpt>
      <trkpt lat="44.89789" lon="5.62928">
        <ele>850</ele>
        <time>2017-11-21T20:12:26Z</time>
      </trkpt>
      <trkpt lat="44.89808" lon="5.62883">
        <ele>850</ele>
        <time>2017-11-21T20:12:46Z</time>
      </trkpt>
      <trkpt lat="44.89826" lon="5.62843">
        <ele>851</ele>
        <time>2017-11-21T20:12:57Z</time>
      </trkpt>
      <trkpt lat="44.89838" lon="5.62827">
        <ele>852</ele>
        <time>2017-11-21T20:13:09Z</time>
      </trkpt>
      <trkpt lat="44.89855" lon="5.62813">
        <ele>852</ele>
        <time>2017-11-21T20:13:25Z</time>
      </trkpt>
      <trkpt lat="44.89879" lon="5.62803">
        <ele>853</ele>
        <time>2017-11-21T20:13:41Z</time>
      </trkpt>
      <trkpt lat="44.89954" lon="5.62781">
        <ele>858</ele>
        <time>2017-11-21T20:13:54Z</time>
      </trkpt>
      <trkpt lat="44.89973" lon="5.62779">
        <ele>858</ele>
        <time>2017-11-21T20:14:09Z</time>
      </trkpt>
      <trkpt lat="44.89992" lon="5.62781">
        <ele>858</ele>
        <time>2017-11-21T20:14:28Z</time>
      </trkpt>
      <trkpt lat="44.9003" lon="5.62798">
        <ele>864</ele>
        <time>2017-11-21T20:14:45Z</time>
      </trkpt>
      <trkpt lat="44.90057" lon="5.62815">
        <ele>867</ele>
        <time>2017-11-21T20:14:50Z</time>
      </trkpt>
      <trkpt lat="44.9007" lon="5.6283">
        <ele>870</ele>
        <time>2017-11-21T20:15:00Z</time>
      </trkpt>
      <trkpt lat="44.90083" lon="5.62848">
        <ele>877</ele>
        <time>2017-11-21T20:15:17Z</time>
      </trkpt>
      <trkpt lat="44.9009" lon="5.62853">
        <ele>880</ele>
        <time>2017-11-21T20:15:23Z</time>
      </trkpt>
      <trkpt lat="44.90101" lon="5.62856">
        <ele>881</ele>
        <time>2017-11-21T20:15:26Z</time>
      </trkpt>
      <trkpt lat="44.90109" lon="5.62855">
        <ele>882</ele>
        <time>2017-11-21T20:15:40Z</time>
      </trkpt>
      <trkpt lat="44.90131" lon="5.62843">
        <ele>882</ele>
        <time>2017-11-21T20:15:48Z</time>
      </trkpt>
      <trkpt lat="44.90148" lon="5.62837">
        <ele>881</ele>
        <time>2017-11-21T20:16:07Z</time>
      </trkpt>
      <trkpt lat="44.90158" lon="5.62837">
        <ele>879</ele>
        <time>2017-11-21T20:16:25Z</time>
      </trkpt>
      <trkpt lat="44.90168" lon="5.62841">
        <ele>881</ele>
        <time>2017-11-21T20:16:37Z</time>
      </trkpt>
      <trkpt lat="44.90193" lon="5.62864">
        <ele>889</ele>
        <time>2017-11-21T20:16:42Z</time>
      </trkpt>
      <trkpt lat="44.90213" lon="5.6288">
        <ele>892</ele>
        <time>2017-11-21T20:17:01Z</time>
      </trkpt>
      <trkpt lat="44.90227" lon="5.62882">
        <ele>893</ele>
        <time>2017-11-21T20:17:11Z</time>
      </trkpt>
      <trkpt lat="44.90244" lon="5.62876">
        <ele>892</ele>
        <time>2017-11-21T20:17:28Z</time>
      </trkpt>
      <trkpt lat="44.90258" lon="5.62869">
        <ele>895</ele>
        <time>2017-11-21T20:17:38Z</time>
      </trkpt>
      <trkpt lat="44.90267" lon="5.62869">
        <ele>895</ele>
        <time>2017-11-21T20:17:55Z</time>
      </trkpt>
      <trkpt lat="44.90296" lon="5.62894">
        <ele>900</ele>
        <time>2017-11-21T20:18:05Z</time>
      </trkpt>
      <trkpt lat="44.90306" lon="5.62896">
        <ele>901</ele>
        <time>2017-11-21T20:18:13Z</time>
      </trkpt>
      <trkpt lat="44.90316" lon="5.62893">
        <ele>901</ele>
        <time>2017-11-21T20:18:28Z</time>
      </trkpt>
      <trkpt lat="44.90335" lon="5.62876">
        <ele>907</ele>
        <time>2017-11-21T20:18:47Z</time>
      </trkpt>
      <trkpt lat="44.90351" lon="5.62854">
        <ele>903</ele>
        <time>2017-11-21T20:18:52Z</time>
      </trkpt>
      <trkpt lat="44.9038" lon="5.62799">
        <ele>894</ele>
        <time>2017-11-21T20:19:03Z</time>
      </trkpt>
      <trkpt lat="44.90391" lon="5.62776">
        <ele>893</ele>
        <time>2017-11-21T20:19:05Z</time>
      </trkpt>
      <trkpt lat="44.90398" lon="5.62766">
        <ele>893</ele>
        <time>2017-11-21T20:19:21Z</time>
      </trkpt>
      <trkpt lat="44.90413" lon="5.62752">
        <ele>894</ele>
        <time>2017-11-21T20:19:39Z</time>
      </trkpt>
      <trkpt lat="44.90433" lon="5.62739">
        <ele>895</ele>
        <time>2017-11-21T20:19:45Z</time>
      </trkpt>
      <trkpt lat="44.90448" lon="5.62731">
        <ele>896</ele>
        <time>2017-11-21T20:20:01Z</time>
      </trkpt>
      <trkpt lat="44.90459" lon="5.6272">
        <ele>897</ele>
        <time>2017-11-21T20:20:15Z</time>
      </trkpt>
      <trkpt lat="44.90489" lon="5.62676">
        <ele>897</ele>
        <time>2017-11-21T20:20:27Z</time>
      </trkpt>
      <trkpt lat="44.9052" lon="5.62634">
        <ele>899</ele>
        <time>2017-11-21T20:20:45Z</time>
      </trkpt>
      <trkpt lat="44.90533" lon="5.62624">
        <ele>899</ele>
        <time>2017-11-21T20:21:00Z</time>
      </trkpt>
      <trkpt lat="44.90551" lon="5.62617">
        <ele>899</ele>
        <time>2017-11-21T20:21:17Z</time>
      </trkpt>
      <trkpt lat="44.90564" lon="5.62614">
        <ele>900</ele>
        <time>2017-11-21T20:21:29Z</time>
      </trkpt>
      <trkpt lat="44.90579" lon="5.62617">
        <ele>901</ele>
        <time>2017-11-21T20:21:44Z</time>
      </trkpt>
      <trkpt lat="44.90663" lon="5.62662">
        <ele>901</ele>
        <time>2017-11-21T20:21:54Z</time>
      </trkpt>
      <trkpt lat="44.90681" lon="5.62678">
        <ele>898</ele>
        <time>2017-11-21T20:22:11Z</time>
      </trkpt>
      <trkpt lat="44.907" lon="5.62702">
        <ele>896</ele>
        <time>2017-11-21T20:22:15Z</time>
      </trkpt>
      <trkpt lat="44.90715" lon="5.62729">
        <ele>895</ele>
        <time>2017-11-21T20:22:31Z</time>
      </trkpt>
      <trkpt lat="44.90735" lon="5.62774">
        <ele>893</ele>
        <time>2017-11-21T20:22:45Z</time>
      </trkpt>
      <trkpt lat="44.90745" lon="5.62787">
        <ele>893</ele>
        <time>2017-11-21T20:22:50Z</time>
      </trkpt>
      <trkpt lat="44.90771" lon="5.62798">
        <ele>886</ele>
        <time>2017-11-21T20:22:59Z</time>
      </trkpt>
      <trkpt lat="44.90769" lon="5.62819">
        <ele>886</ele>
        <time>2017-11-21T20:23:03Z</time>
      </trkpt>
      <trkpt lat="44.90773" lon="5.62843">
        <ele>886</ele>
        <time>2017-11-21T20:23:13Z</time>
      </trkpt>
      <trkpt lat="44.90782" lon="5.62875">
        <ele>885</ele>
        <time>2017-11-21T20:23:28Z</time>
      </trkpt>
      <trkpt lat="44.90802" lon="5.6292">
        <ele>884</ele>
        <time>2017-11-21T20:23:30Z</time>
      </trkpt>
      <trkpt lat="44.90822" lon="5.62956">
        <ele>883</ele>
        <time>2017-11-21T20:23:34Z</time>
      </trkpt>
      <trkpt lat="44.90838" lon="5.62979">
        <ele>877</ele>
        <time>2017-11-21T20:23:42Z</time>
      </trkpt>
      <trkpt lat="44.90864" lon="5.63009">
        <ele>878</ele>
        <time>2017-11-21T20:23:50Z</time>
      </trkpt>
      <trkpt lat="44.90888" lon="5.6303">
        <ele>878</ele>
        <time>2017-11-21T20:23:59Z</time>
      </trkpt>
      <trkpt lat="44.90928" lon="5.63058">
        <ele>874</ele>
        <time>2017-11-21T20:24:14Z</time>
      </trkpt>
      <trkpt lat="44.90994" lon="5.63095">
        <ele>868</ele>
        <time>2017-11-21T20:24:24Z</time>
      </trkpt>
      <trkpt lat="44.91129" lon="5.63167">
        <ele>853</ele>
        <time>2017-11-21T20:24:26Z</time>
      </trkpt>
      <trkpt lat="44.91175" lon="5.63189">
        <ele>851</ele>
        <time>2017-11-21T20:24:41Z</time>
      </trkpt>
      <trkpt lat="44.91193" lon="5.63201">
        <ele>850</ele>
        <time>2017-11-21T20:24:46Z</time>
      </trkpt>
      <trkpt lat="44.91256" lon="5.63237">
        <ele>847</ele>
        <time>2017-11-21T20:25:03Z</time>
      </trkpt>
      <trkpt lat="44.91298" lon="5.6326">
        <ele>846</ele>
        <time>2017-11-21T20:25:13Z</time>
      </trkpt>
      <trkpt lat="44.91298" lon="5.63262">
        <ele>846</ele>
        <time>2017-11-21T20:25:22Z</time>
      </trkpt>
      <trkpt lat="44.91298" lon="5.63265">
        <ele>846</ele>
        <time>2017-11-21T20:25:31Z</time>
      </trkpt>
      <trkpt lat="44.91299" lon="5.63268">
        <ele>846</ele>
        <time>2017-11-21T20:25:49Z</time>
      </trkpt>
      <trkpt lat="44.91304" lon="5.63271">
        <ele>846</ele>
        <time>2017-11-21T20:25:55Z</time>
      </trkpt>
      <trkpt lat="44.91308" lon="5.63267">
        <ele>846</ele>
        <time>2017-11-21T20:25:59Z</time>
      </trkpt>
      <trkpt lat="44.91309" lon="5.63267">
        <ele>846</ele>
        <time>2017-11-21T20:26:13Z</time>
      </trkpt>
      <trkpt lat="44.91395" lon="5.63313">
        <ele>844</ele>
        <time>2017-11-21T20:26:27Z</time>
      </trkpt>
      <trkpt lat="44.91538" lon="5.63391">
        <ele>834</ele>
        <time>2017-11-21T20:26:42Z</time>
      </trkpt>
      <trkpt lat="44.91553" lon="5.634">
        <ele>833</ele>
        <time>2017-11-21T20:26:58Z</time>
      </trkpt>
      <trkpt lat="44.9157" lon="5.63408">
        <ele>832</ele>
        <time>2017-11-21T20:27:07Z</time>
      </trkpt>
      <trkpt lat="44.91579" lon="5.63412">
        <ele>832</ele>
        <time>2017-11-21T20:27:13Z</time>
      </trkpt>
      <trkpt lat="44.91592" lon="5.63414">
        <ele>830</ele>
        <time>2017-11-21T20:27:21Z</time>
      </trkpt>
      <trkpt lat="44.91605" lon="5.63411">
        <ele>828</ele>
        <time>2017-11-21T20:27:36Z</time>
      </trkpt>
      <trkpt lat="44.9162" lon="5.634">
        <ele>827</ele>
        <time>2017-11-21T20:27:48Z</time>
      </trkpt>
      <trkpt lat="44.91636" lon="5.63383">
        <ele>826</ele>
        <time>2017-11-21T20:28:01Z</time>
      </trkpt>
      <trkpt lat="44.91661" lon="5.6335">
        <ele>825</ele>
        <time>2017-11-21T20:28:12Z</time>
      </trkpt>
      <trkpt lat="44.91684" lon="5.63323">
        <ele>827</ele>
        <time>2017-11-21T20:28:17Z</time>
      </trkpt>
      <trkpt lat="44.91688" lon="5.63317">
        <ele>828</ele>
        <time>2017-11-21T20:28:36Z</time>
      </trkpt>
      <trkpt lat="44.91706" lon="5.63307">
        <ele>830</ele>
        <time>2017-11-21T20:28:48Z</time>
      </trkpt>
      <trkpt lat="44.91719" lon="5.63302">
        <ele>830</ele>
        <time>2017-11-21T20:28:58Z</time>
      </trkpt>
      <trkpt lat="44.91733" lon="5.63301">
        <ele>830</ele>
        <time>2017-11-21T20:29:13Z</time>
      </trkpt>
      <trkpt lat="44.91748" lon="5.63303">
        <ele>830</ele>
        <time>2017-11-21T20:29:31Z</time>
      </trkpt>
      <trkpt lat="44.9176" lon="5.63306">
        <ele>832</ele>
        <time>2017-11-21T20:29:43Z</time>
      </trkpt>
      <trkpt lat="44.91773" lon="5.63314">
        <ele>832</ele>
        <time>2017-11-21T20:29:45Z</time>
      </trkpt>
      <trkpt lat="44.91802" lon="5.6334">
        <ele>825</ele>
        <time>2017-11-21T20:29:51Z</time>
      </trkpt>
      <trkpt lat="44.9191" lon="5.63448">
        <ele>816</ele>
        <time>2017-11-21T20:30:08Z</time>
      </trkpt>
      <trkpt lat="44.91926" lon="5.63458">
        <ele>814</ele>
        <time>2017-11-21T20:30:14Z</time>
      </trkpt>
      <trkpt lat="44.91942" lon="5.63465">
        <ele>813</ele>
        <time>2017-11-21T20:30:29Z</time>
      </trkpt>
      <trkpt lat="44.91975" lon="5.63469">
        <ele>813</ele>
        <time>2017-11-21T20:30:44Z</time>
      </trkpt>
      <trkpt lat="44.92008" lon="5.63475">
        <ele>812</ele>
        <time>2017-11-21T20:30:59Z</time>
      </trkpt>
      <trkpt lat="44.92027" lon="5.63482">
        <ele>812</ele>
        <time>2017-11-21T20:31:12Z</time>
      </trkpt>
      <trkpt lat="44.92043" lon="5.63491">
        <ele>812</ele>
        <time>2017-11-21T20:31:32Z</time>
      </trkpt>
      <trkpt lat="44.92061" lon="5.63507">
        <ele>808</ele>
        <time>2017-11-21T20:31:44Z</time>
      </trkpt>
      <trkpt lat="44.92071" lon="5.63519">
        <ele>808</ele>
        <time>2017-11-21T20:32:00Z</time>
      </trkpt>
      <trkpt lat="44.92083" lon="5.63534">
        <ele>808</ele>
        <time>2017-11-21T20:32:02Z</time>
      </trkpt>
      <trkpt lat="44.92092" lon="5.63557">
        <ele>807</ele>
        <time>2017-11-21T20:32:05Z</time>
      </trkpt>
      <trkpt lat="44.921" lon="5.63575">
        <ele>807</ele>
        <time>2017-11-21T20:32:22Z</time>
      </trkpt>
      <trkpt lat="44.92106" lon="5.63601">
        <ele>806</ele>
        <time>2017-11-21T20:32:26Z</time>
      </trkpt>
      <trkpt lat="44.92106" lon="5.63611">
        <ele>806</ele>
        <time>2017-11-21T20:32:31Z</time>
      </trkpt>
      <trkpt lat="44.92103" lon="5.63626">
        <ele>806</ele>
        <time>2017-11-21T20:32:47Z</time>
      </trkpt>
      <trkpt lat="44.92104" lon="5.63636">
        <ele>806</ele>
        <time>2017-11-21T20:33:04Z</time>
      </trkpt>
      <trkpt lat="44.92106" lon="5.63642">
        <ele>806</ele>
        <time>2017-11-21T20:33:23Z</time>
      </trkpt>
      <trkpt lat="44.92112" lon="5.63647">
        <ele>806</ele>
        <time>2017-11-21T20:33:31Z</time>
      </trkpt>
      <trkpt lat="44.92119" lon="5.63648">
        <ele>806</ele>
        <time>2017-11-21T20:33:33Z</time>
      </trkpt>
      <trkpt lat="44.92125" lon="5.63644">
        <ele>806</ele>
        <time>2017-11-21T20:33:52Z</time>
      </trkpt>
      <trkpt lat="44.9213" lon="5.63636">
        <ele>806</ele>
        <time>2017-11-21T20:34:10Z</time>
      </trkpt>
      <trkpt lat="44.92131" lon="5.63624">
        <ele>806</ele>
        <time>2017-11-21T20:34:27Z</time>
      </trkpt>
      <trkpt lat="44.92144" lon="5.63609">
        <ele>806</ele>
        <time>2017-11-21T20:34:35Z</time>
      </trkpt>
      <trkpt lat="44.9215" lon="5.63597">
        <ele>805</ele>
        <time>2017-11-21T20:34:39Z</time>
      </trkpt>
      <trkpt lat="44.92155" lon="5.6359">
        <ele>805</ele>
        <time>2017-11-21T20:34:57Z</time>
      </trkpt>
      <trkpt lat="44.92157" lon="5.6358">
        <ele>805</ele>
        <time>2017-11-21T20:35:04Z</time>
      </trkpt>
      <trkpt lat="44.92164" lon="5.63567">
        <ele>805</ele>
        <time>2017-11-21T20:35:11Z</time>
      </trkpt>
      <trkpt lat="44.92175" lon="5.63556">
        <ele>806</ele>
        <time>2017-11-21T20:35:13Z</time>
      </trkpt>
      <trkpt lat="44.92206" lon="5.63535">
        <ele>807</ele>
        <time>2017-11-21T20:35:31Z</time>
      </trkpt>
      <trkpt lat="44.92241" lon="5.63513">
        <ele>809</ele>
        <time>2017-11-21T20:35:37Z</time>
      </trkpt>
      <trkpt lat="44.92266" lon="5.63501">
        <ele>810</ele>
        <time>2017-11-21T20:35:54Z</time>
      </trkpt>
      <trkpt lat="44.92298" lon="5.63487">
        <ele>825</ele>
        <time>2017-11-21T20:36:06Z</time>
      </trkpt>
      <trkpt lat="44.92346" lon="5.63473">
        <ele>825</ele>
        <time>2017-11-21T20:36:13Z</time>
      </trkpt>
      <trkpt lat="44.92378" lon="5.63468">
        <ele>826</ele>
        <time>2017-11-21T20:36:29Z</time>
      </trkpt>
      <trkpt lat="44.92409" lon="5.63464">
        <ele>825</ele>
        <time>2017-11-21T20:36:49Z</time>
      </trkpt>
      <trkpt lat="44.92438" lon="5.63464">
        <ele>826</ele>
        <time>2017-11-21T20:37:05Z</time>
      </trkpt>
      <trkpt lat="44.92464" lon="5.63467">
        <ele>826</ele>
        <time>2017-11-21T20:37:12Z</time>
      </trkpt>
      <trkpt lat="44.92504" lon="5.63481">
        <ele>823</ele>
        <time>2017-11-21T20:37:15Z</time>
      </trkpt>
      <trkpt lat="44.92526" lon="5.63486">
        <ele>826</ele>
        <time>2017-11-21T20:37:33Z</time>
      </trkpt>
      <trkpt lat="44.92553" lon="5.63487">
        <ele>827</ele>
        <time>2017-11-21T20:37:43Z</time>
      </trkpt>
      <trkpt lat="44.92579" lon="5.63487">
        <ele>824</ele>
        <time>2017-11-21T20:38:00Z</time>
      </trkpt>
      <trkpt lat="44.92592" lon="5.63488">
        <ele>826</ele>
        <time>2017-11-21T20:38:03Z</time>
      </trkpt>
      <trkpt lat="44.92606" lon="5.63493">
        <ele>829</ele>
        <time>2017-11-21T20:38:06Z</time>
      </trkpt>
      <trkpt lat="44.92638" lon="5.63504">
        <ele>812</ele>
        <time>2017-11-21T20:38:19Z</time>
      </trkpt>
      <trkpt lat="44.92673" lon="5.63513">
        <ele>815</ele>
        <time>2017-11-21T20:38:38Z</time>
      </trkpt>
      <trkpt lat="44.92745" lon="5.63512">
        <ele>819</ele>
        <time>2017-11-21T20:38:44Z</time>
      </trkpt>
      <trkpt lat="44.92774" lon="5.63516">
        <ele>816</ele>
        <time>2017-11-21T20:39:03Z</time>
      </trkpt>
      <trkpt lat="44.92798" lon="5.63523">
        <ele>814</ele>
        <time>2017-11-21T20:39:22Z</time>
      </trkpt>
      <trkpt lat="44.92825" lon="5.63526">
        <ele>815</ele>
        <time>2017-11-21T20:39:32Z</time>
      </trkpt>
      <trkpt lat="44.92848" lon="5.63522">
        <ele>813</ele>
        <time>2017-11-21T20:39:37Z</time>
      </trkpt>
      <trkpt lat="44.92883" lon="5.63506">
        <ele>811</ele>
        <time>2017-11-21T20:39:42Z</time>
      </trkpt>
      <trkpt lat="44.92926" lon="5.63471">
        <ele>815</ele>
        <time>2017-11-21T20:39:47Z</time>
      </trkpt>
      <trkpt lat="44.92976" lon="5.6343">
        <ele>814</ele>
        <time>2017-11-21T20:40:03Z</time>
      </trkpt>
      <trkpt lat="44.92986" lon="5.6342">
        <ele>814</ele>
        <time>2017-11-21T20:40:05Z</time>
      </trkpt>
      <trkpt lat="44.92992" lon="5.63412">
        <ele>815</ele>
        <time>2017-11-21T20:40:14Z</time>
      </trkpt>
      <trkpt lat="44.92995" lon="5.63402">
        <ele>815</ele>
        <time>2017-11-21T20:40:27Z</time>
      </trkpt>
      <trkpt lat="44.92995" lon="5.63382">
        <ele>815</ele>
        <time>2017-11-21T20:40:32Z</time>
      </trkpt>
      <trkpt lat="44.9299" lon="5.63362">
        <ele>814</ele>
        <time>2017-11-21T20:40:47Z</time>
      </trkpt>
      <trkpt lat="44.92976" lon="5.63328">
        <ele>810</ele>
        <time>2017-11-21T20:41:02Z</time>
      </trkpt>
      <trkpt lat="44.9295" lon="5.63286">
        <ele>810</ele>
        <time>2017-11-21T20:41:11Z</time>
      </trkpt>
      <trkpt lat="44.92925" lon="5.63249">
        <ele>809</ele>
        <time>2017-11-21T20:41:31Z</time>
      </trkpt>
      <trkpt lat="44.92913" lon="5.63228">
        <ele>815</ele>
        <time>2017-11-21T20:41:37Z</time>
      </trkpt>
      <trkpt lat="44.92904" lon="5.63205">
        <ele>816</ele>
        <time>2017-11-21T20:41:40Z</time>
      </trkpt>
      <trkpt lat="44.92877" lon="5.63089">
        <ele>814</ele>
        <time>2017-11-21T20:41:59Z</time>
      </trkpt>
      <trkpt lat="44.92865" lon="5.6299">
        <ele>814</ele>
        <time>2017-11-21T20:42:12Z</time>
      </trkpt>
      <trkpt lat="44.92865" lon="5.62974">
        <ele>814</ele>
        <time>2017-11-21T20:42:21Z</time>
      </trkpt>
      <trkpt lat="44.9287" lon="5.62959">
        <ele>814</ele>
        <time>2017-11-21T20:42:30Z</time>
      </trkpt>
      <trkpt lat="44.92881" lon="5.62939">
        <ele>814</ele>
        <time>2017-11-21T20:42:44Z</time>
      </trkpt>
      <trkpt lat="44.92929" lon="5.62878">
        <ele>808</ele>
        <time>2017-11-21T20:42:50Z</time>
      </trkpt>
      <trkpt lat="44.92942" lon="5.62854">
        <ele>808</ele>
        <time>2017-11-21T20:43:05Z</time>
      </trkpt>
      <trkpt lat="44.92963" lon="5.62797">
        <ele>808</ele>
        <time>2017-11-21T20:43:20Z</time>
      </trkpt>
      <trkpt lat="44.92995" lon="5.62697">
        <ele>808</ele>
        <time>2017-11-21T20:43:27Z</time>
      </trkpt>
      <trkpt lat="44.93054" lon="5.62515">
        <ele>804</ele>
        <time>2017-11-21T20:43:42Z</time>
      </trkpt>
      <trkpt lat="44.93072" lon="5.62455">
        <ele>804</ele>
        <time>2017-11-21T20:43:56Z</time>
      </trkpt>
      <trkpt lat="44.93108" lon="5.62347">
        <ele>805</ele>
        <time>2017-11-21T20:44:02Z</time>
      </trkpt>
      <trkpt lat="44.93123" lon="5.62303">
        <ele>807</ele>
        <time>2017-11-21T20:44:07Z</time>
      </trkpt>
      <trkpt lat="44.93127" lon="5.62282">
        <ele>808</ele>
        <time>2017-11-21T20:44:24Z</time>
      </trkpt>
      <trkpt lat="44.93129" lon="5.62258">
        <ele>809</ele>
        <time>2017-11-21T20:44:29Z</time>
      </trkpt>
      <trkpt lat="44.93128" lon="5.62237">
        <ele>810</ele>
        <time>2017-11-21T20:44:39Z</time>
      </trkpt>
      <trkpt lat="44.93123" lon="5.62178">
        <ele>811</ele>
        <time>2017-11-21T20:44:57Z</time>
      </trkpt>
      <trkpt lat="44.93121" lon="5.6215">
        <ele>812</ele>
        <time>2017-11-21T20:45:00Z</time>
      </trkpt>
      <trkpt lat="44.93123" lon="5.62128">
        <ele>813</ele>
        <time>2017-11-21T20:45:08Z</time>
      </trkpt>
      <trkpt lat="44.93129" lon="5.62107">
        <ele>813</ele>
        <time>2017-11-21T20:45:19Z</time>
      </trkpt>
      <trkpt lat="44.93139" lon="5.6209">
        <ele>812</ele>
        <time>2017-11-21T20:45:23Z</time>
      </trkpt>
      <trkpt lat="44.93163" lon="5.62068">
        <ele>814</ele>
        <time>2017-11-21T20:45:38Z</time>
      </trkpt>
      <trkpt lat="44.9322" lon="5.62028">
        <ele>815</ele>
        <time>2017-11-21T20:45:53Z</time>
      </trkpt>
      <trkpt lat="44.93266" lon="5.62001">
        <ele>817</ele>
        <time>2017-11-21T20:45:55Z</time>
      </trkpt>
      <trkpt lat="44.9329" lon="5.61991">
        <ele>822</ele>
        <time>2017-11-21T20:46:06Z</time>
      </trkpt>
      <trkpt lat="44.93307" lon="5.61986">
        <ele>822</ele>
        <time>2017-11-21T20:46:15Z</time>
      </trkpt>
      <trkpt lat="44.93326" lon="5.61985">
        <ele>822</ele>
        <time>2017-11-21T20:46:30Z</time>
      </trkpt>
      <trkpt lat="44.93343" lon="5.61987">
        <ele>822</ele>
        <time>2017-11-21T20:46:34Z</time>
      </trkpt>
      <trkpt lat="44.93394" lon="5.62006">
        <ele>820</ele>
        <time>2017-11-21T20:46:37Z</time>
      </trkpt>
      <trkpt lat="44.93413" lon="5.62011">
        <ele>821</ele>
        <time>2017-11-21T20:46:45Z</time>
      </trkpt>
      <trkpt lat="44.93422" lon="5.62011">
        <ele>821</ele>
        <time>2017-11-21T20:46:55Z</time>
      </trkpt>
      <trkpt lat="44.93427" lon="5.62009">
        <ele>821</ele>
        <time>2017-11-21T20:47:01Z</time>
      </trkpt>
      <trkpt lat="44.93435" lon="5.62001">
        <ele>820</ele>
        <time>2017-11-21T20:47:07Z</time>
      </trkpt>
      <trkpt lat="44.9344" lon="5.61987">
        <ele>821</ele>
        <time>2017-11-21T20:47:12Z</time>
      </trkpt>
      <trkpt lat="44.9344" lon="5.61966">
        <ele>821</ele>
        <time>2017-11-21T20:47:23Z</time>
      </trkpt>
      <trkpt lat="44.93434" lon="5.61944">
        <ele>822</ele>
        <time>2017-11-21T20:47:32Z</time>
      </trkpt>
      <trkpt lat="44.93421" lon="5.61905">
        <ele>827</ele>
        <time>2017-11-21T20:47:38Z</time>
      </trkpt>
      <trkpt lat="44.93415" lon="5.61881">
        <ele>831</ele>
        <time>2017-11-21T20:47:40Z</time>
      </trkpt>
      <trkpt lat="44.9341" lon="5.61826">
        <ele>835</ele>
        <time>2017-11-21T20:47:46Z</time>
      </trkpt>
      <trkpt lat="44.93408" lon="5.61717">
        <ele>843</ele>
        <time>2017-11-21T20:48:00Z</time>
      </trkpt>
      <trkpt lat="44.93407" lon="5.61627">
        <ele>848</ele>
        <time>2017-11-21T20:48:09Z</time>
      </trkpt>
      <trkpt lat="44.93413" lon="5.6152">
        <ele>848</ele>
        <time>2017-11-21T20:48:21Z</time>
      </trkpt>
      <trkpt lat="44.93416" lon="5.61492">
        <ele>845</ele>
        <time>2017-11-21T20:48:26Z</time>
      </trkpt>
      <trkpt lat="44.93422" lon="5.61466">
        <ele>842</ele>
        <time>2017-11-21T20:48:41Z</time>
      </trkpt>
      <trkpt lat="44.93454" lon="5.61376">
        <ele>843</ele>
        <time>2017-11-21T20:48:45Z</time>
      </trkpt>
      <trkpt lat="44.93474" lon="5.61319">
        <ele>844</ele>
        <time>2017-11-21T20:48:48Z</time>
      </trkpt>
      <trkpt lat="44.93495" lon="5.61274">
        <ele>846</ele>
        <time>2017-11-21T20:49:06Z</time>
      </trkpt>
      <trkpt lat="44.93536" lon="5.61211">
        <ele>846</ele>
        <time>2017-11-21T20:49:24Z</time>
      </trkpt>
      <trkpt lat="44.9357" lon="5.61162">
        <ele>849</ele>
        <time>2017-11-21T20:49:26Z</time>
      </trkpt>
      <trkpt lat="44.93606" lon="5.61123">
        <ele>848</ele>
        <time>2017-11-21T20:49:40Z</time>
      </trkpt>
      <trkpt lat="44.9364" lon="5.61084">
        <ele>847</ele>
        <time>2017-11-21T20:49:52Z</time>
      </trkpt>
      <trkpt lat="44.93667" lon="5.61038">
        <ele>846</ele>
        <time>2017-11-21T20:50:07Z</time>
      </trkpt>
      <trkpt lat="44.93687" lon="5.61008">
        <ele>846</ele>
        <time>2017-11-21T20:50:15Z</time>
      </trkpt>
      <trkpt lat="44.93707" lon="5.60995">
        <ele>848</ele>
        <time>2017-11-21T20:50:25Z</time>
      </trkpt>
      <trkpt lat="44.93743" lon="5.60983">
        <ele>847</ele>
        <time>2017-11-21T20:50:43Z</time>
      </trkpt>
      <trkpt lat="44.93759" lon="5.60977">
        <ele>846</ele>
        <time>2017-11-21T20:50:47Z</time>
      </trkpt>
      <trkpt lat="44.93779" lon="5.60961">
        <ele>846</ele>
        <time>2017-11-21T20:50:53Z</time>
      </trkpt>
      <trkpt lat="44.93803" lon="5.60942">
        <ele>846</ele>
        <time>2017-11-21T20:51:13Z</time>
      </trkpt>
      <trkpt lat="44.9383" lon="5.60926">
        <ele>845</ele>
        <time>2017-11-21T20:51:25Z</time>
      </trkpt>
      <trkpt lat="44.93851" lon="5.60914">
        <ele>846</ele>
        <time>2017-11-21T20:51:37Z</time>
      </trkpt>
      <trkpt lat="44.93877" lon="5.60908">
        <ele>846</ele>
        <time>2017-11-21T20:51:39Z</time>
      </trkpt>
      <trkpt lat="44.93908" lon="5.60906">
        <ele>845</ele>
        <time>2017-11-21T20:51:59Z</time>
      </trkpt>
      <trkpt lat="44.9395" lon="5.60901">
        <ele>843</ele>
        <time>2017-11-21T20:52:08Z</time>
      </trkpt>
      <trkpt lat="44.93981" lon="5.60887">
        <ele>842</ele>
        <time>2017-11-21T20:52:17Z</time>
      </trkpt>
      <trkpt lat="44.9403" lon="5.60855">
        <ele>839</ele>
        <time>2017-11-21T20:52:22Z</time>
      </trkpt>
      <trkpt lat="44.9407" lon="5.60826">
        <ele>841</ele>
        <time>2017-11-21T20:52:40Z</time>
      </trkpt>
      <trkpt lat="44.94091" lon="5.60813">
        <ele>838</ele>
        <time>2017-11-21T20:52:59Z</time>
      </trkpt>
      <trkpt lat="44.94116" lon="5.608">
        <ele>838</ele>
        <time>2017-11-21T20:53:10Z</time>
      </trkpt>
      <trkpt lat="44.94166" lon="5.60775">
        <ele>838</ele>
        <time>2017-11-21T20:53:27Z</time>
      </trkpt>
      <trkpt lat="44.942" lon="5.60749">
        <ele>838</ele>
        <time>2017-11-21T20:53:41Z</time>
      </trkpt>
      <trkpt lat="44.94297" lon="5.60652">
        <ele>840</ele>
        <time>2017-11-21T20:54:01Z</time>
      </trkpt>
      <trkpt lat="44.94311" lon="5.60644">
        <ele>840</ele>
        <time>2017-11-21T20:54:15Z</time>
      </trkpt>
      <trkpt lat="44.94324" lon="5.6064">
        <ele>840</ele>
        <time>2017-11-21T20:54:22Z</time>
      </trkpt>
      <trkpt lat="44.94338" lon="5.60639">
        <ele>838</ele>
        <time>2017-11-21T20:54:31Z</time>
      </trkpt>
      <trkpt lat="44.94358" lon="5.60642">
        <ele>839</ele>
        <time>2017-11-21T20:54:43Z</time>
      </trkpt>
      <trkpt lat="44.94395" lon="5.60651">
        <ele>839</ele>
        <time>2017-11-21T20:54:50Z</time>
      </trkpt>
      <trkpt lat="44.9441" lon="5.60653">
        <ele>838</ele>
        <time>2017-11-21T20:54:58Z</time>
      </trkpt>
      <trkpt lat="44.94426" lon="5.6065">
        <ele>838</ele>
        <time>2017-11-21T20:55:04Z</time>
      </trkpt>
      <trkpt lat="44.94443" lon="5.60646">
        <ele>838</ele>
        <time>2017-11-21T20:55:10Z</time>
      </trkpt>
      <trkpt lat="44.94478" lon="5.60633">
        <ele>839</ele>
        <time>2017-11-21T20:55:14Z</time>
      </trkpt>
      <trkpt lat="44.94499" lon="5.60623">
        <ele>839</ele>
        <time>2017-11-21T20:55:17Z</time>
      </trkpt>
      <trkpt lat="44.94531" lon="5.60601">
        <ele>838</ele>
        <time>2017-11-21T20:55:33Z</time>
      </trkpt>
      <trkpt lat="44.94564" lon="5.60572">
        <ele>841</ele>
        <time>2017-11-21T20:55:43Z</time>
      </trkpt>
      <trkpt lat="44.94602" lon="5.60535">
        <ele>837</ele>
        <time>2017-11-21T20:56:02Z</time>
      </trkpt>
      <trkpt lat="44.94633" lon="5.60497">
        <ele>840</ele>
        <time>2017-11-21T20:56:04Z</time>
      </trkpt>
      <trkpt lat="44.94657" lon="5.60458">
        <ele>841</ele>
        <time>2017-11-21T20:56:10Z</time>
      </trkpt>
      <trkpt lat="44.94668" lon="5.60437">
        <ele>839</ele>
        <time>2017-11-21T20:56:27Z</time>
      </trkpt>
      <trkpt lat="44.94677" lon="5.60425">
        <ele>840</ele>
        <time>2017-11-21T20:56:35Z</time>
      </trkpt>
      <trkpt lat="44.947" lon="5.60409">
        <ele>842</ele>
        <time>2017-11-21T20:56:51Z</time>
      </trkpt>
      <trkpt lat="44.94709" lon="5.60404">
        <ele>842</ele>
        <time>2017-11-21T20:56:53Z</time>
      </trkpt>
      <trkpt lat="44.94717" lon="5.60396">
        <ele>842</ele>
        <time>2017-11-21T20:57:06Z</time>
      </trkpt>
      <trkpt lat="44.94729" lon="5.60379">
        <ele>842</ele>
        <time>2017-11-21T20:57:22Z</time>
      </trkpt>
      <trkpt lat="44.94747" lon="5.60348">
        <ele>843</ele>
        <time>2017-11-21T20:57:32Z</time>
      </trkpt>
      <trkpt lat="44.94778" lon="5.60292">
        <ele>843</ele>
        <time>2017-11-21T20:57:52Z</time>
      </trkpt>
      <trkpt lat="44.94794" lon="5.60247">
        <ele>847</ele>
        <time>2017-11-21T20:57:59Z</time>
      </trkpt>
      <trkpt lat="44.94801" lon="5.60218">
        <ele>847</ele>
        <time>2017-11-21T20:58:07Z</time>
      </trkpt>
      <trkpt lat="44.94805" lon="5.60187">
        <ele>847</ele>
        <time>2017-11-21T20:58:27Z</time>
      </trkpt>
      <trkpt lat="44.94808" lon="5.60146">
        <ele>850</ele>
        <time>2017-11-21T20:58:36Z</time>
      </trkpt>
      <trkpt lat="44.94807" lon="5.60106">
        <ele>852</ele>
        <time>2017-11-21T20:58:51Z</time>
      </trkpt>
      <trkpt lat="44.94799" lon="5.60032">
        <ele>855</ele>
        <time>2017-11-21T20:59:10Z</time>
      </trkpt>
      <trkpt lat="44.94797" lon="5.60001">
        <ele>855</ele>
        <time>2017-11-21T20:59:12Z</time>
      </trkpt>
      <trkpt lat="44.94799" lon="5.59968">
        <ele>860</ele>
        <time>2017-11-21T20:59:30Z</time>
      </trkpt>
      <trkpt lat="44.94814" lon="5.59875">
        <ele>866</ele>
        <time>2017-11-21T20:59:44Z</time>
      </trkpt>
      <trkpt lat="44.94815" lon="5.59843">
        <ele>866</ele>
        <time>2017-11-21T20:59:57Z</time>
      </trkpt>
      <trkpt lat="44.94805" lon="5.59813">
        <ele>869</ele>
        <time>2017-11-21T21:00:03Z</time>
      </trkpt>
      <trkpt lat="44.94785" lon="5.5978">
        <ele>873</ele>
        <time>2017-11-21T21:00:12Z</time>
      </trkpt>
      <trkpt lat="44.94778" lon="5.59759">
        <ele>875</ele>
        <time>2017-11-21T21:00:21Z</time>
      </trkpt>
      <trkpt lat="44.94776" lon="5.59741">
        <ele>878</ele>
        <time>2017-11-21T21:00:24Z</time>
      </trkpt>
      <trkpt lat="44.94777" lon="5.59723">
        <ele>878</ele>
        <time>2017-11-21T21:00:35Z</time>
      </trkpt>
      <trkpt lat="44.94788" lon="5.59696">
        <ele>877</ele>
        <time>2017-11-21T21:00:38Z</time>
      </trkpt>
      <trkpt lat="44.94799" lon="5.59664">
        <ele>877</ele>
        <time>2017-11-21T21:00:52Z</time>
      </trkpt>
      <trkpt lat="44.94801" lon="5.5964">
        <ele>878</ele>
        <time>2017-11-21T21:01:10Z</time>
      </trkpt>
      <trkpt lat="44.94801" lon="5.59582">
        <ele>882</ele>
        <time>2017-11-21T21:01:12Z</time>
      </trkpt>
      <trkpt lat="44.94801" lon="5.59473">
        <ele>888</ele>
        <time>2017-11-21T21:01:28Z</time>
      </trkpt>
      <trkpt lat="44.94812" lon="5.59414">
        <ele>887</ele>
        <time>2017-11-21T21:01:36Z</time>
      </trkpt>
      <trkpt lat="44.94825" lon="5.59332">
        <ele>886</ele>
        <time>2017-11-21T21:01:39Z</time>
      </trkpt>
      <trkpt lat="44.94833" lon="5.59253">
        <ele>889</ele>
        <time>2017-11-21T21:01:42Z</time>
      </trkpt>
      <trkpt lat="44.94836" lon="5.5919">
        <ele>883</ele>
        <time>2017-11-21T21:01:45Z</time>
      </trkpt>
      <trkpt lat="44.94831" lon="5.59154">
        <ele>896</ele>
        <time>2017-11-21T21:01:54Z</time>
      </trkpt>
      <trkpt lat="44.94816" lon="5.59095">
        <ele>899</ele>
        <time>2017-11-21T21:02:11Z</time>
      </trkpt>
      <trkpt lat="44.94795" lon="5.59028">
        <ele>906</ele>
        <time>2017-11-21T21:02:22Z</time>
      </trkpt>
      <trkpt lat="44.9479" lon="5.58988">
        <ele>908</ele>
        <time>2017-11-21T21:02:37Z</time>
      </trkpt>
      <trkpt lat="44.94782" lon="5.589">
        <ele>917</ele>
        <time>2017-11-21T21:02:44Z</time>
      </trkpt>
      <trkpt lat="44.94779" lon="5.58849">
        <ele>920</ele>
        <time>2017-11-21T21:02:58Z</time>
      </trkpt>
      <trkpt lat="44.94783" lon="5.58797">
        <ele>924</ele>
        <time>2017-11-21T21:03:09Z</time>
      </trkpt>
      <trkpt lat="44.9479" lon="5.58762">
        <ele>923</ele>
        <time>2017-11-21T21:03:26Z</time>
      </trkpt>
      <trkpt lat="44.94811" lon="5.58695">
        <ele>922</ele>
        <time>2017-11-21T21:03:34Z</time>
      </trkpt>
      <trkpt lat="44.94816" lon="5.58664">
        <ele>922</ele>
        <time>2017-11-21T21:03:36Z</time>
      </trkpt>
      <trkpt lat="44.94813" lon="5.58645">
        <ele>927</ele>
        <time>2017-11-21T21:03:50Z</time>
      </trkpt>
      <trkpt lat="44.94805" lon="5.58614">
        <ele>931</ele>
        <time>2017-11-21T21:04:05Z</time>
      </trkpt>
      <trkpt lat="44.94804" lon="5.58593">
        <ele>931</ele>
        <time>2017-11-21T21:04:17Z</time>
      </trkpt>
      <trkpt lat="44.94809" lon="5.58576">
        <ele>939</ele>
        <time>2017-11-21T21:04:35Z</time>
      </trkpt>
      <trkpt lat="44.94823" lon="5.58562">
        <ele>937</ele>
        <time>2017-11-21T21:04:42Z</time>
      </trkpt>
      <trkpt lat="44.94837" lon="5.5855">
        <ele>919</ele>
        <time>2017-11-21T21:04:46Z</time>
      </trkpt>
      <trkpt lat="44.94843" lon="5.5854">
        <ele>920</ele>
        <time>2017-11-21T21:04:58Z</time>
      </trkpt>
      <trkpt lat="44.94857" lon="5.58512">
        <ele>924</ele>
        <time>2017-11-21T21:05:00Z</time>
      </trkpt>
      <trkpt lat="44.9486" lon="5.58485">
        <ele>936</ele>
        <time>2017-11-21T21:05:05Z</time>
      </trkpt>
      <trkpt lat="44.94859" lon="5.58455">
        <ele>939</ele>
        <time>2017-11-21T21:05:12Z</time>
      </trkpt>
      <trkpt lat="44.94861" lon="5.5843">
        <ele>943</ele>
        <time>2017-11-21T21:05:14Z</time>
      </trkpt>
      <trkpt lat="44.94868" lon="5.58411">
        <ele>952</ele>
        <time>2017-11-21T21:05:28Z</time>
      </trkpt>
      <trkpt lat="44.94889" lon="5.58374">
        <ele>948</ele>
        <time>2017-11-21T21:05:48Z</time>
      </trkpt>
      <trkpt lat="44.94895" lon="5.58353">
        <ele>947</ele>
        <time>2017-11-21T21:05:51Z</time>
      </trkpt>
      <trkpt lat="44.94895" lon="5.58335">
        <ele>945</ele>
        <time>2017-11-21T21:06:01Z</time>
      </trkpt>
      <trkpt lat="44.94892" lon="5.58306">
        <ele>962</ele>
        <time>2017-11-21T21:06:09Z</time>
      </trkpt>
      <trkpt lat="44.94894" lon="5.5829">
        <ele>964</ele>
        <time>2017-11-21T21:06:21Z</time>
      </trkpt>
      <trkpt lat="44.949" lon="5.58277">
        <ele>963</ele>
        <time>2017-11-21T21:06:29Z</time>
      </trkpt>
      <trkpt lat="44.94914" lon="5.58255">
        <ele>954</ele>
        <time>2017-11-21T21:06:33Z</time>
      </trkpt>
      <trkpt lat="44.94919" lon="5.58224">
        <ele>944</ele>
        <time>2017-11-21T21:06:42Z</time>
      </trkpt>
      <trkpt lat="44.94936" lon="5.5817">
        <ele>951</ele>
        <time>2017-11-21T21:07:01Z</time>
      </trkpt>
      <trkpt lat="44.94953" lon="5.58092">
        <ele>955</ele>
        <time>2017-11-21T21:07:12Z</time>
      </trkpt>
      <trkpt lat="44.94977" lon="5.57998">
        <ele>974</ele>
        <time>2017-11-21T21:07:17Z</time>
      </trkpt>
      <trkpt lat="44.94995" lon="5.57938">
        <ele>979</ele>
        <time>2017-11-21T21:07:19Z</time>
      </trkpt>
      <trkpt lat="44.95014" lon="5.57888">
        <ele>965</ele>
        <time>2017-11-21T21:07:34Z</time>
      </trkpt>
      <trkpt lat="44.95043" lon="5.57806">
        <ele>978</ele>
        <time>2017-11-21T21:07:45Z</time>
      </trkpt>
      <trkpt lat="44.95054" lon="5.57774">
        <ele>977</ele>
        <time>2017-11-21T21:07:48Z</time>
      </trkpt>
      <trkpt lat="44.95063" lon="5.57725">
        <ele>987</ele>
        <time>2017-11-21T21:07:55Z</time>
      </trkpt>
      <trkpt lat="44.95074" lon="5.57657">
        <ele>989</ele>
        <time>2017-11-21T21:07:57Z</time>
      </trkpt>
      <trkpt lat="44.95088" lon="5.57617">
        <ele>961</ele>
        <time>2017-11-21T21:08:00Z</time>
      </trkpt>
      <trkpt lat="44.95096" lon="5.57597">
        <ele>967</ele>
        <time>2017-11-21T21:08:05Z</time>
      </trkpt>
      <trkpt lat="44.95106" lon="5.57566">
        <ele>965</ele>
        <time>2017-11-21T21:08:07Z</time>
      </trkpt>
      <trkpt lat="44.9511" lon="5.57538">
        <ele>961</ele>
        <time>2017-11-21T21:08:13Z</time>
      </trkpt>
      <trkpt lat="44.95108" lon="5.57513">
        <ele>963</ele>
        <time>2017-11-21T21:08:15Z</time>
      </trkpt>
      <trkpt lat="44.95099" lon="5.57494">
        <ele>966</ele>
        <time>2017-11-21T21:08:34Z</time>
      </trkpt>
      <trkpt lat="44.9509" lon="5.57484">
        <ele>966</ele>
        <time>2017-11-21T21:08:47Z</time>
      </trkpt>
      <trkpt lat="44.95078" lon="5.57477">
        <ele>982</ele>
        <time>2017-11-21T21:08:49Z</time>
      </trkpt>
      <trkpt lat="44.95043" lon="5.57467">
        <ele>986</ele>
        <time>2017-11-21T21:09:04Z</time>
      </trkpt>
      <trkpt lat="44.95012" lon="5.57453">
        <ele>987</ele>
        <time>2017-11-21T21:09:24Z</time>
      </trkpt>
      <trkpt lat="44.94984" lon="5.57441">
        <ele>997</ele>
        <time>2017-11-21T21:09:39Z</time>
      </trkpt>
      <trkpt lat="44.94964" lon="5.57431">
        <ele>998</ele>
        <time>2017-11-21T21:09:42Z</time>
      </trkpt>
      <trkpt lat="44.94946" lon="5.57428">
        <ele>999</ele>
        <time>2017-11-21T21:10:01Z</time>
      </trkpt>
      <trkpt lat="44.94931" lon="5.57431">
        <ele>998</ele>
        <time>2017-11-21T21:10:16Z</time>
      </trkpt>
      <trkpt lat="44.94916" lon="5.57435">
        <ele>1005</ele>
        <time>2017-11-21T21:10:25Z</time>
      </trkpt>
      <trkpt lat="44.94902" lon="5.57435">
        <ele>1007</ele>
        <time>2017-11-21T21:10:28Z</time>
      </trkpt>
      <trkpt lat="44.94888" lon="5.57431">
        <ele>1010</ele>
        <time>2017-11-21T21:10:45Z</time>
      </trkpt>
      <trkpt lat="44.94874" lon="5.5742">
        <ele>1011</ele>
        <time>2017-11-21T21:10:58Z</time>
      </trkpt>
      <trkpt lat="44.9485" lon="5.574">
        <ele>989</ele>
        <time>2017-11-21T21:11:18Z</time>
      </trkpt>
      <trkpt lat="44.94832" lon="5.57397">
        <ele>1000</ele>
        <time>2017-11-21T21:11:38Z</time>
      </trkpt>
      <trkpt lat="44.94798" lon="5.57396">
        <ele>1000</ele>
        <time>2017-11-21T21:11:49Z</time>
      </trkpt>
      <trkpt lat="44.94773" lon="5.57396">
        <ele>1005</ele>
        <time>2017-11-21T21:12:01Z</time>
      </trkpt>
      <trkpt lat="44.94755" lon="5.57389">
        <ele>1006</ele>
        <time>2017-11-21T21:12:14Z</time>
      </trkpt>
      <trkpt lat="44.94738" lon="5.5738">
        <ele>1021</ele>
        <time>2017-11-21T21:12:29Z</time>
      </trkpt>
      <trkpt lat="44.94706" lon="5.57348">
        <ele>1021</ele>
        <time>2017-11-21T21:12:48Z</time>
      </trkpt>
      <trkpt lat="44.94664" lon="5.5732">
        <ele>1019</ele>
        <time>2017-11-21T21:12:50Z</time>
      </trkpt>
      <trkpt lat="44.94651" lon="5.57315">
        <ele>1016</ele>
        <time>2017-11-21T21:12:57Z</time>
      </trkpt>
      <trkpt lat="44.94632" lon="5.57305">
        <ele>1014</ele>
        <time>2017-11-21T21:13:06Z</time>
      </trkpt>
      <trkpt lat="44.94611" lon="5.57296">
        <ele>1014</ele>
        <time>2017-11-21T21:13:11Z</time>
      </trkpt>
      <trkpt lat="44.94589" lon="5.5729">
        <ele>1014</ele>
        <time>2017-11-21T21:13:27Z</time>
      </trkpt>
      <trkpt lat="44.94529" lon="5.57294">
        <ele>1025</ele>
        <time>2017-11-21T21:13:42Z</time>
      </trkpt>
      <trkpt lat="44.94481" lon="5.57298">
        <ele>1035</ele>
        <time>2017-11-21T21:13:46Z</time>
      </trkpt>
      <trkpt lat="44.94467" lon="5.57296">
        <ele>1035</ele>
        <time>2017-11-21T21:13:49Z</time>
      </trkpt>
      <trkpt lat="44.94452" lon="5.57291">
        <ele>1035</ele>
        <time>2017-11-21T21:13:55Z</time>
      </trkpt>
      <trkpt lat="44.94439" lon="5.57284">
        <ele>1035</ele>
        <time>2017-11-21T21:14:01Z</time>
      </trkpt>
      <trkpt lat="44.94407" lon="5.57253">
        <ele>1036</ele>
        <time>2017-11-21T21:14:10Z</time>
      </trkpt>
      <trkpt lat="44.94386" lon="5.57236">
        <ele>1024</ele>
        <time>2017-11-21T21:14:13Z</time>
      </trkpt>
      <trkpt lat="44.94368" lon="5.57229">
        <ele>1025</ele>
        <time>2017-11-21T21:14:20Z</time>
      </trkpt>
      <trkpt lat="44.94344" lon="5.57226">
        <ele>1029</ele>
        <time>2017-11-21T21:14:30Z</time>
      </trkpt>
      <trkpt lat="44.9432" lon="5.57229">
        <ele>1042</ele>
        <time>2017-11-21T21:14:50Z</time>
      </trkpt>
      <trkpt lat="44.94297" lon="5.57227">
        <ele>1044</ele>
        <time>2017-11-21T21:14:54Z</time>
      </trkpt>
      <trkpt lat="44.94285" lon="5.57224">
        <ele>1045</ele>
        <time>2017-11-21T21:15:07Z</time>
      </trkpt>
      <trkpt lat="44.94267" lon="5.57215">
        <ele>1046</ele>
        <time>2017-11-21T21:15:17Z</time>
      </trkpt>
      <trkpt lat="44.9423" lon="5.57192">
        <ele>1052</ele>
        <time>2017-11-21T21:15:32Z</time>
      </trkpt>
      <trkpt lat="44.94214" lon="5.57182">
        <ele>1052</ele>
        <time>2017-11-21T21:15:41Z</time>
      </trkpt>
      <trkpt lat="44.94202" lon="5.57179">
        <ele>1054</ele>
        <time>2017-11-21T21:15:44Z</time>
      </trkpt>
      <trkpt lat="44.94177" lon="5.5717">
        <ele>1053</ele>
        <time>2017-11-21T21:15:57Z</time>
      </trkpt>
      <trkpt lat="44.94155" lon="5.57167">
        <ele>1056</ele>
        <time>2017-11-21T21:16:08Z</time>
      </trkpt>
      <trkpt lat="44.94139" lon="5.5717">
        <ele>1059</ele>
        <time>2017-11-21T21:16:10Z</time>
      </trkpt>
      <trkpt lat="44.94127" lon="5.57176">
        <ele>1061</ele>
        <time>2017-11-21T21:16:22Z</time>
      </trkpt>
      <trkpt lat="44.94103" lon="5.5719">
        <ele>1061</ele>
        <time>2017-11-21T21:16:42Z</time>
      </trkpt>
      <trkpt lat="44.94078" lon="5.572">
        <ele>1066</ele>
        <time>2017-11-21T21:16:49Z</time>
      </trkpt>
      <trkpt lat="44.94058" lon="5.57202">
        <ele>1068</ele>
        <time>2017-11-21T21:16:55Z</time>
      </trkpt>
      <trkpt lat="44.94048" lon="5.57202">
        <ele>1068</ele>
        <time>2017-11-21T21:17:09Z</time>
      </trkpt>
      <trkpt lat="44.94041" lon="5.57198">
        <ele>1068</ele>
        <time>2017-11-21T21:17:22Z</time>
      </trkpt>
      <trkpt lat="44.94018" lon="5.57192">
        <ele>1066</ele>
        <time>2017-11-21T21:17:42Z</time>
      </trkpt>
      <trkpt lat="44.93988" lon="5.57185">
        <ele>1067</ele>
        <time>2017-11-21T21:17:58Z</time>
      </trkpt>
      <trkpt lat="44.93961" lon="5.57183">
        <ele>1071</ele>
        <time>2017-11-21T21:18:12Z</time>
      </trkpt>
      <trkpt lat="44.93943" lon="5.57179">
        <ele>1070</ele>
        <time>2017-11-21T21:18:21Z</time>
      </trkpt>
      <trkpt lat="44.9393" lon="5.5717">
        <ele>1067</ele>
        <time>2017-11-21T21:18:29Z</time>
      </trkpt>
      <trkpt lat="44.93919" lon="5.57162">
        <ele>1061</ele>
        <time>2017-11-21T21:18:42Z</time>
      </trkpt>
      <trkpt lat="44.93911" lon="5.57158">
        <ele>1068</ele>
        <time>2017-11-21T21:19:00Z</time>
      </trkpt>
      <trkpt lat="44.93896" lon="5.5716">
        <ele>1072</ele>
        <time>2017-11-21T21:19:17Z</time>
      </trkpt>
      <trkpt lat="44.93858" lon="5.57172">
        <ele>1075</ele>
        <time>2017-11-21T21:19:31Z</time>
      </trkpt>
      <trkpt lat="44.9381" lon="5.57183">
        <ele>1075</ele>
        <time>2017-11-21T21:19:47Z</time>
      </trkpt>
      <trkpt lat="44.93769" lon="5.57188">
        <ele>1075</ele>
        <time>2017-11-21T21:20:05Z</time>
      </trkpt>
      <trkpt lat="44.93717" lon="5.5719">
        <ele>1076</ele>
        <time>2017-11-21T21:20:18Z</time>
      </trkpt>
      <trkpt lat="44.9369" lon="5.57197">
        <ele>1077</ele>
        <time>2017-11-21T21:20:28Z</time>
      </trkpt>
      <trkpt lat="44.9363" lon="5.57221">
        <ele>1079</ele>
        <time>2017-11-21T21:20:42Z</time>
      </trkpt>
      <trkpt lat="44.93589" lon="5.57233">
        <ele>1075</ele>
        <time>2017-11-21T21:20:44Z</time>
      </trkpt>
      <trkpt lat="44.93559" lon="5.57239">
        <ele>1081</ele>
        <time>2017-11-21T21:20:55Z</time>
      </trkpt>
      <trkpt lat="44.93513" lon="5.57254">
        <ele>1078</ele>
        <time>2017-11-21T21:21:05Z</time>
      </trkpt>
      <trkpt lat="44.93383" lon="5.57306">
        <ele>1090</ele>
        <time>2017-11-21T21:21:11Z</time>
      </trkpt>
      <trkpt lat="44.93361" lon="5.57313">
        <ele>1091</ele>
        <time>2017-11-21T21:21:18Z</time>
      </trkpt>
      <trkpt lat="44.93348" lon="5.57314">
        <ele>1090</ele>
        <time>2017-11-21T21:21:31Z</time>
      </trkpt>
      <trkpt lat="44.93335" lon="5.57313">
        <ele>1090</ele>
        <time>2017-11-21T21:21:48Z</time>
      </trkpt>
      <trkpt lat="44.93318" lon="5.57304">
        <ele>1100</ele>
        <time>2017-11-21T21:22:00Z</time>
      </trkpt>
      <trkpt lat="44.93305" lon="5.57292">
        <ele>1103</ele>
        <time>2017-11-21T21:22:05Z</time>
      </trkpt>
      <trkpt lat="44.93272" lon="5.57245">
        <ele>1112</ele>
        <time>2017-11-21T21:22:07Z</time>
      </trkpt>
      <trkpt lat="44.9325" lon="5.57224">
        <ele>1108</ele>
        <time>2017-11-21T21:22:25Z</time>
      </trkpt>
      <trkpt lat="44.93204" lon="5.57191">
        <ele>1113</ele>
        <time>2017-11-21T21:22:28Z</time>
      </trkpt>
      <trkpt lat="44.93105" lon="5.57118">
        <ele>1125</ele>
        <time>2017-11-21T21:22:38Z</time>
      </trkpt>
      <trkpt lat="44.9309" lon="5.5711">
        <ele>1127</ele>
        <time>2017-11-21T21:22:54Z</time>
      </trkpt>
      <trkpt lat="44.93072" lon="5.57107">
        <ele>1126</ele>
        <time>2017-11-21T21:23:00Z</time>
      </trkpt>
      <trkpt lat="44.93037" lon="5.5711">
        <ele>1124</ele>
        <time>2017-11-21T21:23:09Z</time>
      </trkpt>
      <trkpt lat="44.9298" lon="5.57115">
        <ele>1127</ele>
        <time>2017-11-21T21:23:16Z</time>
      </trkpt>
      <trkpt lat="44.92934" lon="5.57118">
        <ele>1129</ele>
        <time>2017-11-21T21:23:36Z</time>
      </trkpt>
      <trkpt lat="44.92893" lon="5.57128">
        <ele>1132</ele>
        <time>2017-11-21T21:23:45Z</time>
      </trkpt>
      <trkpt lat="44.92865" lon="5.5713">
        <ele>1132</ele>
        <time>2017-11-21T21:23:59Z</time>
      </trkpt>
      <trkpt lat="44.92814" lon="5.57118">
        <ele>1133</ele>
        <time>2017-11-21T21:24:17Z</time>
      </trkpt>
      <trkpt lat="44.92778" lon="5.57114">
        <ele>1132</ele>
        <time>2017-11-21T21:24:33Z</time>
      </trkpt>
      <trkpt lat="44.92753" lon="5.57105">
        <ele>1131</ele>
        <time>2017-11-21T21:24:49Z</time>
      </trkpt>
      <trkpt lat="44.92737" lon="5.57094">
        <ele>1132</ele>
        <time>2017-11-21T21:24:54Z</time>
      </trkpt>
      <trkpt lat="44.92716" lon="5.57074">
        <ele>1132</ele>
        <time>2017-11-21T21:25:09Z</time>
      </trkpt>
      <trkpt lat="44.92699" lon="5.57063">
        <ele>1132</ele>
        <time>2017-11-21T21:25:28Z</time>
      </trkpt>
      <trkpt lat="44.92682" lon="5.57055">
        <ele>1131</ele>
        <time>2017-11-21T21:25:35Z</time>
      </trkpt>
      <trkpt lat="44.92661" lon="5.57046">
        <ele>1129</ele>
        <time>2017-11-21T21:25:51Z</time>
      </trkpt>
      <trkpt lat="44.92633" lon="5.57034">
        <ele>1129</ele>
        <time>2017-11-21T21:26:02Z</time>
      </trkpt>
      <trkpt lat="44.9258" lon="5.57003">
        <ele>1122</ele>
        <time>2017-11-21T21:26:11Z</time>
      </trkpt>
      <trkpt lat="44.92553" lon="5.56987">
        <ele>1126</ele>
        <time>2017-11-21T21:26:15Z</time>
      </trkpt>
      <trkpt lat="44.92534" lon="5.56975">
        <ele>1128</ele>
        <time>2017-11-21T21:26:17Z</time>
      </trkpt>
      <trkpt lat="44.92522" lon="5.56963">
        <ele>1128</ele>
        <time>2017-11-21T21:26:34Z</time>
      </trkpt>
      <trkpt lat="44.92501" lon="5.56944">
        <ele>1128</ele>
        <time>2017-11-21T21:26:45Z</time>
      </trkpt>
      <trkpt lat="44.9249" lon="5.56937">
        <ele>1129</ele>
        <time>2017-11-21T21:27:05Z</time>
      </trkpt>
      <trkpt lat="44.92478" lon="5.56935">
        <ele>1130</ele>
        <time>2017-11-21T21:27:17Z</time>
      </trkpt>
      <trkpt lat="44.92465" lon="5.56941">
        <ele>1131</ele>
        <time>2017-11-21T21:27:24Z</time>
      </trkpt>
      <trkpt lat="44.92429" lon="5.56968">
        <ele>1132</ele>
        <time>2017-11-21T21:27:30Z</time>
      </trkpt>
      <trkpt lat="44.92415" lon="5.56978">
        <ele>1132</ele>
        <time>2017-11-21T21:27:48Z</time>
      </trkpt>
      <trkpt lat="44.92402" lon="5.56984">
        <ele>1132</ele>
        <time>2017-11-21T21:27:52Z</time>
      </trkpt>
      <trkpt lat="44.92352" lon="5.56993">
        <ele>1130</ele>
        <time>2017-11-21T21:28:01Z</time>
      </trkpt>
      <trkpt lat="44.92334" lon="5.56994">
        <ele>1129</ele>
        <time>2017-11-21T21:28:16Z</time>
      </trkpt>
      <trkpt lat="44.9232" lon="5.56992">
        <ele>1131</ele>
        <time>2017-11-21T21:28:27Z</time>
      </trkpt>
      <trkpt lat="44.92301" lon="5.56984">
        <ele>1133</ele>
        <time>2017-11-21T21:28:35Z</time>
      </trkpt>
      <trkpt lat="44.92269" lon="5.56964">
        <ele>1134</ele>
        <time>2017-11-21T21:28:38Z</time>
      </trkpt>
      <trkpt lat="44.92239" lon="5.5695">
        <ele>1137</ele>
        <time>2017-11-21T21:28:49Z</time>
      </trkpt>
      <trkpt lat="44.92215" lon="5.56941">
        <ele>1137</ele>
        <time>2017-11-21T21:29:04Z</time>
      </trkpt>
      <trkpt lat="44.92154" lon="5.56906">
        <ele>1137</ele>
        <time>2017-11-21T21:29:19Z</time>
      </trkpt>
      <trkpt lat="44.92135" lon="5.56899">
        <ele>1140</ele>
        <time>2017-11-21T21:29:38Z</time>
      </trkpt>
      <trkpt lat="44.92118" lon="5.56899">
        <ele>1141</ele>
        <time>2017-11-21T21:29:56Z</time>
      </trkpt>
      <trkpt lat="44.92103" lon="5.56904">
        <ele>1141</ele>
        <time>2017-11-21T21:30:11Z</time>
      </trkpt>
      <trkpt lat="44.92088" lon="5.56916">
        <ele>1140</ele>
        <time>2017-11-21T21:30:14Z</time>
      </trkpt>
      <trkpt lat="44.92059" lon="5.56956">
        <ele>1144</ele>
        <time>2017-11-21T21:30:31Z</time>
      </trkpt>
      <trkpt lat="44.91995" lon="5.57049">
        <ele>1146</ele>
        <time>2017-11-21T21:30:46Z</time>
      </trkpt>
      <trkpt lat="44.91967" lon="5.57075">
        <ele>1148</ele>
        <time>2017-11-21T21:30:53Z</time>
      </trkpt>
      <trkpt lat="44.9195" lon="5.57084">
        <ele>1157</ele>
        <time>2017-11-21T21:31:07Z</time>
      </trkpt>
      <trkpt lat="44.91942" lon="5.57086">
        <ele>1157</ele>
        <time>2017-11-21T21:31:18Z</time>
      </trkpt>
      <trkpt lat="44.91928" lon="5.57085">
        <ele>1157</ele>
        <time>2017-11-21T21:31:23Z</time>
      </trkpt>
      <trkpt lat="44.91919" lon="5.5708">
        <ele>1154</ele>
        <time>2017-11-21T21:31:26Z</time>
      </trkpt>
      <trkpt lat="44.9191" lon="5.57067">
        <ele>1157</ele>
        <time>2017-11-21T21:31:33Z</time>
      </trkpt>
      <trkpt lat="44.91906" lon="5.57053">
        <ele>1157</ele>
        <time>2017-11-21T21:31:41Z</time>
      </trkpt>
      <trkpt lat="44.91904" lon="5.57021">
        <ele>1154</ele>
        <time>2017-11-21T21:31:56Z</time>
      </trkpt>
      <trkpt lat="44.91899" lon="5.56977">
        <ele>1151</ele>
        <time>2017-11-21T21:32:11Z</time>
      </trkpt>
      <trkpt lat="44.91894" lon="5.56963">
        <ele>1152</ele>
        <time>2017-11-21T21:32:16Z</time>
      </trkpt>
      <trkpt lat="44.91886" lon="5.5695">
        <ele>1153</ele>
        <time>2017-11-21T21:32:19Z</time>
      </trkpt>
      <trkpt lat="44.91876" lon="5.5694">
        <ele>1153</ele>
        <time>2017-11-21T21:32:25Z</time>
      </trkpt>
      <trkpt lat="44.9185" lon="5.56922">
        <ele>1153</ele>
        <time>2017-11-21T21:32:45Z</time>
      </trkpt>
      <trkpt lat="44.91831" lon="5.56905">
        <ele>1154</ele>
        <time>2017-11-21T21:33:02Z</time>
      </trkpt>
      <trkpt lat="44.91815" lon="5.56885">
        <ele>1156</ele>
        <time>2017-11-21T21:33:18Z</time>
      </trkpt>
      <trkpt lat="44.91803" lon="5.56873">
        <ele>1157</ele>
        <time>2017-11-21T21:33:38Z</time>
      </trkpt>
      <trkpt lat="44.91791" lon="5.56866">
        <ele>1157</ele>
        <time>2017-11-21T21:33:43Z</time>
      </trkpt>
      <trkpt lat="44.91776" lon="5.56863">
        <ele>1157</ele>
        <time>2017-11-21T21:33:50Z</time>
      </trkpt>
      <trkpt lat="44.91764" lon="5.56864">
        <ele>1157</ele>
        <time>2017-11-21T21:33:59Z</time>
      </trkpt>
      <trkpt lat="44.91732" lon="5.56866">
        <ele>1158</ele>
        <time>2017-11-21T21:34:18Z</time>
      </trkpt>
      <trkpt lat="44.91699" lon="5.56861">
        <ele>1159</ele>
        <time>2017-11-21T21:34:29Z</time>
      </trkpt>
      <trkpt lat="44.91647" lon="5.56845">
        <ele>1159</ele>
        <time>2017-11-21T21:34:34Z</time>
      </trkpt>
      <trkpt lat="44.91618" lon="5.5683">
        <ele>1158</ele>
        <time>2017-11-21T21:34:38Z</time>
      </trkpt>
      <trkpt lat="44.91595" lon="5.56818">
        <ele>1157</ele>
        <time>2017-11-21T21:34:48Z</time>
      </trkpt>
      <trkpt lat="44.91576" lon="5.56812">
        <ele>1156</ele>
        <time>2017-11-21T21:34:57Z</time>
      </trkpt>
      <trkpt lat="44.91554" lon="5.56806">
        <ele>1156</ele>
        <time>2017-11-21T21:35:16Z</time>
      </trkpt>
      <trkpt lat="44.91531" lon="5.56804">
        <ele>1155</ele>
        <time>2017-11-21T21:35:25Z</time>
      </trkpt>
      <trkpt lat="44.91494" lon="5.56806">
        <ele>1155</ele>
        <time>2017-11-21T21:35:37Z</time>
      </trkpt>
      <trkpt lat="44.91368" lon="5.56828">
        <ele>1155</ele>
        <time>2017-11-21T21:35:41Z</time>
      </trkpt>
      <trkpt lat="44.91324" lon="5.5684">
        <ele>1157</ele>
        <time>2017-11-21T21:35:51Z</time>
      </trkpt>
      <trkpt lat="44.91277" lon="5.56859">
        <ele>1159</ele>
        <time>2017-11-21T21:35:54Z</time>
      </trkpt>
      <trkpt lat="44.91119" lon="5.56917">
        <ele>1163</ele>
        <time>2017-11-21T21:35:56Z</time>
      </trkpt>
      <trkpt lat="44.91032" lon="5.56949">
        <ele>1162</ele>
        <time>2017-11-21T21:36:04Z</time>
      </trkpt>
      <trkpt lat="44.91009" lon="5.56954">
        <ele>1162</ele>
        <time>2017-11-21T21:36:20Z</time>
      </trkpt>
      <trkpt lat="44.90966" lon="5.56956">
        <ele>1163</ele>
        <time>2017-11-21T21:36:24Z</time>
      </trkpt>
      <trkpt lat="44.90828" lon="5.56947">
        <ele>1167</ele>
        <time>2017-11-21T21:36:43Z</time>
      </trkpt>
      <trkpt lat="44.90791" lon="5.56954">
        <ele>1168</ele>
        <time>2017-11-21T21:36:45Z</time>
      </trkpt>
      <trkpt lat="44.9071" lon="5.56984">
        <ele>1170</ele>
        <time>2017-11-21T21:36:58Z</time>
      </trkpt>
      <trkpt lat="44.90661" lon="5.57003">
        <ele>1173</ele>
        <time>2017-11-21T21:37:01Z</time>
      </trkpt>
      <trkpt lat="44.90639" lon="5.57009">
        <ele>1174</ele>
        <time>2017-11-21T21:37:08Z</time>
      </trkpt>
      <trkpt lat="44.90611" lon="5.57011">
        <ele>1175</ele>
        <time>2017-11-21T21:37:14Z</time>
      </trkpt>
      <trkpt lat="44.90578" lon="5.57007">
        <ele>1176</ele>
        <time>2017-11-21T21:37:20Z</time>
      </trkpt>
      <trkpt lat="44.90564" lon="5.57002">
        <ele>1178</ele>
        <time>2017-11-21T21:37:38Z</time>
      </trkpt>
      <trkpt lat="44.90543" lon="5.56988">
        <ele>1177</ele>
        <time>2017-11-21T21:37:47Z</time>
      </trkpt>
      <trkpt lat="44.90512" lon="5.5697">
        <ele>1178</ele>
        <time>2017-11-21T21:37:51Z</time>
      </trkpt>
      <trkpt lat="44.90472" lon="5.56963">
        <ele>1183</ele>
        <time>2017-11-21T21:37:56Z</time>
      </trkpt>
      <trkpt lat="44.90419" lon="5.56956">
        <ele>1185</ele>
        <time>2017-11-21T21:38:02Z</time>
      </trkpt>
      <trkpt lat="44.90381" lon="5.5695">
        <ele>1189</ele>
        <time>2017-11-21T21:38:07Z</time>
      </trkpt>
      <trkpt lat="44.90362" lon="5.56945">
        <ele>1189</ele>
        <time>2017-11-21T21:38:18Z</time>
      </trkpt>
      <trkpt lat="44.90343" lon="5.56935">
        <ele>1190</ele>
        <time>2017-11-21T21:38:31Z</time>
      </trkpt>
      <trkpt lat="44.9032" lon="5.56916">
        <ele>1192</ele>
        <time>2017-11-21T21:38:33Z</time>
      </trkpt>
      <trkpt lat="44.90306" lon="5.56902">
        <ele>1192</ele>
        <time>2017-11-21T21:38:52Z</time>
      </trkpt>
      <trkpt lat="44.90262" lon="5.56849">
        <ele>1193</ele>
        <time>2017-11-21T21:39:06Z</time>
      </trkpt>
      <trkpt lat="44.90244" lon="5.56823">
        <ele>1196</ele>
        <time>2017-11-21T21:39:19Z</time>
      </trkpt>
      <trkpt lat="44.9024" lon="5.56813">
        <ele>1197</ele>
        <time>2017-11-21T21:39:29Z</time>
      </trkpt>
      <trkpt lat="44.90239" lon="5.56792">
        <ele>1198</ele>
        <time>2017-11-21T21:39:31Z</time>
      </trkpt>
      <trkpt lat="44.90237" lon="5.5678">
        <ele>1198</ele>
        <time>2017-11-21T21:39:43Z</time>
      </trkpt>
      <trkpt lat="44.90231" lon="5.56755">
        <ele>1198</ele>
        <time>2017-11-21T21:40:02Z</time>
      </trkpt>
      <trkpt lat="44.90215" lon="5.56714">
        <ele>1198</ele>
        <time>2017-11-21T21:40:15Z</time>
      </trkpt>
      <trkpt lat="44.90193" lon="5.56672">
        <ele>1200</ele>
        <time>2017-11-21T21:40:23Z</time>
      </trkpt>
      <trkpt lat="44.90185" lon="5.56663">
        <ele>1199</ele>
        <time>2017-11-21T21:40:42Z</time>
      </trkpt>
      <trkpt lat="44.90157" lon="5.56649">
        <ele>1203</ele>
        <time>2017-11-21T21:40:59Z</time>
      </trkpt>
      <trkpt lat="44.90122" lon="5.56639">
        <ele>1204</ele>
        <time>2017-11-21T21:41:15Z</time>
      </trkpt>
      <trkpt lat="44.90108" lon="5.56638">
        <ele>1205</ele>
        <time>2017-11-21T21:41:28Z</time>
      </trkpt>
      <trkpt lat="44.90093" lon="5.56644">
        <ele>1206</ele>
        <time>2017-11-21T21:41:43Z</time>
      </trkpt>
      <trkpt lat="44.90085" lon="5.56646">
        <ele>1206</ele>
        <time>2017-11-21T21:41:47Z</time>
      </trkpt>
      <trkpt lat="44.90064" lon="5.56643">
        <ele>1212</ele>
        <time>2017-11-21T21:42:03Z</time>
      </trkpt>
      <trkpt lat="44.90031" lon="5.56642">
        <ele>1214</ele>
        <time>2017-11-21T21:42:07Z</time>
      </trkpt>
      <trkpt lat="44.90026" lon="5.56644">
        <ele>1215</ele>
        <time>2017-11-21T21:42:22Z</time>
      </trkpt>
      <trkpt lat="44.9002" lon="5.5665">
        <ele>1215</ele>
        <time>2017-11-21T21:42:25Z</time>
      </trkpt>
      <trkpt lat="44.90001" lon="5.56685">
        <ele>1218</ele>
        <time>2017-11-21T21:42:44Z</time>
      </trkpt>
      <trkpt lat="44.89995" lon="5.56694">
        <ele>1225</ele>
        <time>2017-11-21T21:42:51Z</time>
      </trkpt>
      <trkpt lat="44.89987" lon="5.56699">
        <ele>1226</ele>
        <time>2017-11-21T21:43:06Z</time>
      </trkpt>
      <trkpt lat="44.89978" lon="5.567">
        <ele>1226</ele>
        <time>2017-11-21T21:43:24Z</time>
      </trkpt>
      <trkpt lat="44.89947" lon="5.56695">
        <ele>1228</ele>
        <time>2017-11-21T21:43:43Z</time>
      </trkpt>
      <trkpt lat="44.89892" lon="5.56688">
        <ele>1235</ele>
        <time>2017-11-21T21:43:58Z</time>
      </trkpt>
      <trkpt lat="44.8979" lon="5.56693">
        <ele>1243</ele>
        <time>2017-11-21T21:44:07Z</time>
      </trkpt>
      <trkpt lat="44.89734" lon="5.56698">
        <ele>1251</ele>
        <time>2017-11-21T21:44:09Z</time>
      </trkpt>
      <trkpt lat="44.89704" lon="5.56698">
        <ele>1253</ele>
        <time>2017-11-21T21:44:21Z</time>
      </trkpt>
      <trkpt lat="44.89667" lon="5.56689">
        <ele>1255</ele>
        <time>2017-11-21T21:44:24Z</time>
      </trkpt>
      <trkpt lat="44.8965" lon="5.56682">
        <ele>1261</ele>
        <time>2017-11-21T21:44:39Z</time>
      </trkpt>
      <trkpt lat="44.8964" lon="5.56675">
        <ele>1262</ele>
        <time>2017-11-21T21:44:48Z</time>
      </trkpt>
      <trkpt lat="44.89629" lon="5.56662">
        <ele>1266</ele>
        <time>2017-11-21T21:45:02Z</time>
      </trkpt>
      <trkpt lat="44.89614" lon="5.56647">
        <ele>1268</ele>
        <time>2017-11-21T21:45:08Z</time>
      </trkpt>
      <trkpt lat="44.89606" lon="5.56647">
        <ele>1268</ele>
        <time>2017-11-21T21:45:17Z</time>
      </trkpt>
      <trkpt lat="44.896" lon="5.56657">
        <ele>1269</ele>
        <time>2017-11-21T21:45:35Z</time>
      </trkpt>
      <trkpt lat="44.89601" lon="5.56667">
        <ele>1267</ele>
        <time>2017-11-21T21:45:39Z</time>
      </trkpt>
      <trkpt lat="44.89608" lon="5.56678">
        <ele>1266</ele>
        <time>2017-11-21T21:45:57Z</time>
      </trkpt>
      <trkpt lat="44.89653" lon="5.56733">
        <ele>1264</ele>
        <time>2017-11-21T21:46:09Z</time>
      </trkpt>
      <trkpt lat="44.89659" lon="5.56748">
        <ele>1263</ele>
        <time>2017-11-21T21:46:17Z</time>
      </trkpt>
      <trkpt lat="44.89661" lon="5.56764">
        <ele>1264</ele>
        <time>2017-11-21T21:46:19Z</time>
      </trkpt>
      <trkpt lat="44.89658" lon="5.56776">
        <ele>1265</ele>
        <time>2017-11-21T21:46:28Z</time>
      </trkpt>
      <trkpt lat="44.89644" lon="5.56793">
        <ele>1266</ele>
        <time>2017-11-21T21:46:30Z</time>
      </trkpt>
      <trkpt lat="44.89596" lon="5.56841">
        <ele>1269</ele>
        <time>2017-11-21T21:46:45Z</time>
      </trkpt>
      <trkpt lat="44.8957" lon="5.56894">
        <ele>1271</ele>
        <time>2017-11-21T21:46:52Z</time>
      </trkpt>
      <trkpt lat="44.8956" lon="5.56899">
        <ele>1271</ele>
        <time>2017-11-21T21:47:08Z</time>
      </trkpt>
      <trkpt lat="44.89492" lon="5.56878">
        <ele>1273</ele>
        <time>2017-11-21T21:47:13Z</time>
      </trkpt>
      <trkpt lat="44.89481" lon="5.56866">
        <ele>1274</ele>
        <time>2017-11-21T21:47:29Z</time>
      </trkpt>
      <trkpt lat="44.89474" lon="5.56847">
        <ele>1276</ele>
        <time>2017-11-21T21:47:48Z</time>
      </trkpt>
      <trkpt lat="44.89463" lon="5.56793">
        <ele>1282</ele>
        <time>2017-11-21T21:47:55Z</time>
      </trkpt>
      <trkpt lat="44.89432" lon="5.56739">
        <ele>1287</ele>
        <time>2017-11-21T21:48:05Z</time>
      </trkpt>
      <trkpt lat="44.89409" lon="5.56744">
        <ele>1292</ele>
        <time>2017-11-21T21:48:16Z</time>
      </trkpt>
      <trkpt lat="44.89395" lon="5.5675">
        <ele>1294</ele>
        <time>2017-11-21T21:48:20Z</time>
      </trkpt>
      <trkpt lat="44.89379" lon="5.56753">
        <ele>1288</ele>
        <time>2017-11-21T21:48:22Z</time>
      </trkpt>
      <trkpt lat="44.89334" lon="5.56755">
        <ele>1296</ele>
        <time>2017-11-21T21:48:42Z</time>
      </trkpt>
      <trkpt lat="44.89302" lon="5.56764">
        <ele>1296</ele>
        <time>2017-11-21T21:48:52Z</time>
      </trkpt>
      <trkpt lat="44.89268" lon="5.56768">
        <ele>1300</ele>
        <time>2017-11-21T21:49:03Z</time>
      </trkpt>
      <trkpt lat="44.89233" lon="5.56768">
        <ele>1307</ele>
        <time>2017-11-21T21:49:16Z</time>
      </trkpt>
      <trkpt lat="44.89174" lon="5.56778">
        <ele>1308</ele>
        <time>2017-11-21T21:49:29Z</time>
      </trkpt>
      <trkpt lat="44.8913" lon="5.56781">
        <ele>1308</ele>
        <time>2017-11-21T21:49:41Z</time>
      </trkpt>
      <trkpt lat="44.89084" lon="5.56778">
        <ele>1309</ele>
        <time>2017-11-21T21:49:53Z</time>
      </trkpt>
      <trkpt lat="44.89054" lon="5.56769">
        <ele>1306</ele>
        <time>2017-11-21T21:50:07Z</time>
      </trkpt>
      <trkpt lat="44.89046" lon="5.56758">
        <ele>1306</ele>
        <time>2017-11-21T21:50:13Z</time>
      </trkpt>
      <trkpt lat="44.89032" lon="5.56721">
        <ele>1324</ele>
        <time>2017-11-21T21:50:15Z</time>
      </trkpt>
      <trkpt lat="44.89025" lon="5.56711">
        <ele>1325</ele>
        <time>2017-11-21T21:50:29Z</time>
      </trkpt>
      <trkpt lat="44.8901" lon="5.56705">
        <ele>1325</ele>
        <time>2017-11-21T21:50:34Z</time>
      </trkpt>
      <trkpt lat="44.89" lon="5.56711">
        <ele>1324</ele>
        <time>2017-11-21T21:50:43Z</time>
      </trkpt>
      <trkpt lat="44.88983" lon="5.56742">
        <ele>1314</ele>
        <time>2017-11-21T21:50:48Z</time>
      </trkpt>
      <trkpt lat="44.88972" lon="5.56749">
        <ele>1315</ele>
        <time>2017-11-21T21:50:57Z</time>
      </trkpt>
      <trkpt lat="44.88955" lon="5.56748">
        <ele>1315</ele>
        <time>2017-11-21T21:50:59Z</time>
      </trkpt>
      <trkpt lat="44.88912" lon="5.56742">
        <ele>1311</ele>
        <time>2017-11-21T21:51:09Z</time>
      </trkpt>
      <trkpt lat="44.88897" lon="5.56727">
        <ele>1314</ele>
        <time>2017-11-21T21:51:24Z</time>
      </trkpt>
      <trkpt lat="44.88885" lon="5.5671">
        <ele>1316</ele>
        <time>2017-11-21T21:51:41Z</time>
      </trkpt>
      <trkpt lat="44.88871" lon="5.56707">
        <ele>1316</ele>
        <time>2017-11-21T21:51:44Z</time>
      </trkpt>
      <trkpt lat="44.88857" lon="5.56709">
        <ele>1316</ele>
        <time>2017-11-21T21:52:01Z</time>
      </trkpt>
      <trkpt lat="44.8882" lon="5.56684">
        <ele>1322</ele>
        <time>2017-11-21T21:52:12Z</time>
      </trkpt>
      <trkpt lat="44.88802" lon="5.56651">
        <ele>1337</ele>
        <time>2017-11-21T21:52:21Z</time>
      </trkpt>
      <trkpt lat="44.88794" lon="5.5665">
        <ele>1338</ele>
        <time>2017-11-21T21:52:23Z</time>
      </trkpt>
      <trkpt lat="44.88786" lon="5.56658">
        <ele>1338</ele>
        <time>2017-11-21T21:52:25Z</time>
      </trkpt>
      <trkpt lat="44.88782" lon="5.56674">
        <ele>1326</ele>
        <time>2017-11-21T21:52:41Z</time>
      </trkpt>
      <trkpt lat="44.88776" lon="5.56692">
        <ele>1325</ele>
        <time>2017-11-21T21:52:58Z</time>
      </trkpt>
      <trkpt lat="44.88755" lon="5.5672">
        <ele>1322</ele>
        <time>2017-11-21T21:53:13Z</time>
      </trkpt>
      <trkpt lat="44.88739" lon="5.56727">
        <ele>1326</ele>
        <time>2017-11-21T21:53:22Z</time>
      </trkpt>
      <trkpt lat="44.88716" lon="5.56732">
        <ele>1328</ele>
        <time>2017-11-21T21:53:25Z</time>
      </trkpt>
      <trkpt lat="44.88698" lon="5.56724">
        <ele>1330</ele>
        <time>2017-11-21T21:53:37Z</time>
      </trkpt>
      <trkpt lat="44.88658" lon="5.56702">
        <ele>1339</ele>
        <time>2017-11-21T21:53:45Z</time>
      </trkpt>
      <trkpt lat="44.8865" lon="5.56701">
        <ele>1340</ele>
        <time>2017-11-21T21:54:04Z</time>
      </trkpt>
      <trkpt lat="44.88636" lon="5.56704">
        <ele>1340</ele>
        <time>2017-11-21T21:54:14Z</time>
      </trkpt>
      <trkpt lat="44.88594" lon="5.56719">
        <ele>1339</ele>
        <time>2017-11-21T21:54:31Z</time>
      </trkpt>
      <trkpt lat="44.88573" lon="5.56721">
        <ele>1345</ele>
        <time>2017-11-21T21:54:46Z</time>
      </trkpt>
      <trkpt lat="44.88551" lon="5.5672">
        <ele>1347</ele>
        <time>2017-11-21T21:54:57Z</time>
      </trkpt>
      <trkpt lat="44.8845" lon="5.56701">
        <ele>1357</ele>
        <time>2017-11-21T21:55:16Z</time>
      </trkpt>
      <trkpt lat="44.88426" lon="5.56699">
        <ele>1358</ele>
        <time>2017-11-21T21:55:25Z</time>
      </trkpt>
      <trkpt lat="44.8837" lon="5.56713">
        <ele>1359</ele>
        <time>2017-11-21T21:55:36Z</time>
      </trkpt>
      <trkpt lat="44.88281" lon="5.567">
        <ele>1359</ele>
        <time>2017-11-21T21:55:46Z</time>
      </trkpt>
      <trkpt lat="44.88193" lon="5.56686">
        <ele>1354</ele>
        <time>2017-11-21T21:55:54Z</time>
      </trkpt>
      <trkpt lat="44.8818" lon="5.56689">
        <ele>1354</ele>
        <time>2017-11-21T21:55:59Z</time>
      </trkpt>
      <trkpt lat="44.88172" lon="5.56694">
        <ele>1354</ele>
        <time>2017-11-21T21:56:07Z</time>
      </trkpt>
      <trkpt lat="44.88152" lon="5.56704">
        <ele>1352</ele>
        <time>2017-11-21T21:56:24Z</time>
      </trkpt>
      <trkpt lat="44.88134" lon="5.56707">
        <ele>1352</ele>
        <time>2017-11-21T21:56:42Z</time>
      </trkpt>
      <trkpt lat="44.88116" lon="5.56702">
        <ele>1351</ele>
        <time>2017-11-21T21:56:48Z</time>
      </trkpt>
      <trkpt lat="44.88094" lon="5.56694">
        <ele>1348</ele>
        <time>2017-11-21T21:56:55Z</time>
      </trkpt>
      <trkpt lat="44.88069" lon="5.56698">
        <ele>1345</ele>
        <time>2017-11-21T21:57:06Z</time>
      </trkpt>
      <trkpt lat="44.88058" lon="5.56696">
        <ele>1345</ele>
        <time>2017-11-21T21:57:13Z</time>
      </trkpt>
      <trkpt lat="44.88" lon="5.56687">
        <ele>1340</ele>
        <time>2017-11-21T21:57:26Z</time>
      </trkpt>
      <trkpt lat="44.87962" lon="5.56669">
        <ele>1336</ele>
        <time>2017-11-21T21:57:31Z</time>
      </trkpt>
      <trkpt lat="44.87947" lon="5.56667">
        <ele>1334</ele>
        <time>2017-11-21T21:57:33Z</time>
      </trkpt>
      <trkpt lat="44.87924" lon="5.56674">
        <ele>1330</ele>
        <time>2017-11-21T21:57:51Z</time>
      </trkpt>
      <trkpt lat="44.87908" lon="5.5669">
        <ele>1330</ele>
        <time>2017-11-21T21:57:55Z</time>
      </trkpt>
      <trkpt lat="44.8789" lon="5.56694">
        <ele>1330</ele>
        <time>2017-11-21T21:58:11Z</time>
      </trkpt>
      <trkpt lat="44.87866" lon="5.56689">
        <ele>1329</ele>
        <time>2017-11-21T21:58:16Z</time>
      </trkpt>
      <trkpt lat="44.87837" lon="5.56685">
        <ele>1325</ele>
        <time>2017-11-21T21:58:21Z</time>
      </trkpt>
      <trkpt lat="44.87823" lon="5.56676">
        <ele>1319</ele>
        <time>2017-11-21T21:58:24Z</time>
      </trkpt>
      <trkpt lat="44.87804" lon="5.56665">
        <ele>1308</ele>
        <time>2017-11-21T21:58:39Z</time>
      </trkpt>
      <trkpt lat="44.87762" lon="5.56657">
        <ele>1307</ele>
        <time>2017-11-21T21:58:42Z</time>
      </trkpt>
      <trkpt lat="44.87712" lon="5.56648">
        <ele>1301</ele>
        <time>2017-11-21T21:58:58Z</time>
      </trkpt>
      <trkpt lat="44.87686" lon="5.56639">
        <ele>1300</ele>
        <time>2017-11-21T21:59:02Z</time>
      </trkpt>
      <trkpt lat="44.87622" lon="5.56608">
        <ele>1292</ele>
        <time>2017-11-21T21:59:12Z</time>
      </trkpt>
      <trkpt lat="44.87544" lon="5.56581">
        <ele>1273</ele>
        <time>2017-11-21T21:59:22Z</time>
      </trkpt>
      <trkpt lat="44.87535" lon="5.56581">
        <ele>1273</ele>
        <time>2017-11-21T21:59:28Z</time>
      </trkpt>
      <trkpt lat="44.87517" lon="5.56587">
        <ele>1280</ele>
        <time>2017-11-21T21:59:32Z</time>
      </trkpt>
      <trkpt lat="44.87509" lon="5.5659">
        <ele>1279</ele>
        <time>2017-11-21T21:59:47Z</time>
      </trkpt>
      <trkpt lat="44.87503" lon="5.56587">
        <ele>1278</ele>
        <time>2017-11-21T21:59:50Z</time>
      </trkpt>
      <trkpt lat="44.87503" lon="5.5658">
        <ele>1276</ele>
        <time>2017-11-21T22:00:10Z</time>
      </trkpt>
      <trkpt lat="44.87506" lon="5.56572">
        <ele>1274</ele>
        <time>2017-11-21T22:00:26Z</time>
      </trkpt>
      <trkpt lat="44.87522" lon="5.56561">
        <ele>1271</ele>
        <time>2017-11-21T22:00:46Z</time>
      </trkpt>
      <trkpt lat="44.87572" lon="5.56548">
        <ele>1271</ele>
        <time>2017-11-21T22:01:03Z</time>
      </trkpt>
      <trkpt lat="44.87616" lon="5.56541">
        <ele>1271</ele>
        <time>2017-11-21T22:01:12Z</time>
      </trkpt>
      <trkpt lat="44.87668" lon="5.56525">
        <ele>1270</ele>
        <time>2017-11-21T22:01:29Z</time>
      </trkpt>
      <trkpt lat="44.87698" lon="5.5651">
        <ele>1271</ele>
        <time>2017-11-21T22:01:47Z</time>
      </trkpt>
      <trkpt lat="44.87705" lon="5.56503">
        <ele>1271</ele>
        <time>2017-11-21T22:01:53Z</time>
      </trkpt>
      <trkpt lat="44.87712" lon="5.56484">
        <ele>1259</ele>
        <time>2017-11-21T22:02:06Z</time>
      </trkpt>
      <trkpt lat="44.87715" lon="5.56428">
        <ele>1255</ele>
        <time>2017-11-21T22:02:08Z</time>
      </trkpt>
      <trkpt lat="44.87717" lon="5.56395">
        <ele>1246</ele>
        <time>2017-11-21T22:02:23Z</time>
      </trkpt>
      <trkpt lat="44.87729" lon="5.56311">
        <ele>1239</ele>
        <time>2017-11-21T22:02:35Z</time>
      </trkpt>
      <trkpt lat="44.87732" lon="5.56264">
        <ele>1239</ele>
        <time>2017-11-21T22:02:55Z</time>
      </trkpt>
      <trkpt lat="44.87727" lon="5.56245">
        <ele>1241</ele>
        <time>2017-11-21T22:03:15Z</time>
      </trkpt>
      <trkpt lat="44.87722" lon="5.5624">
        <ele>1241</ele>
        <time>2017-11-21T22:03:31Z</time>
      </trkpt>
      <trkpt lat="44.87686" lon="5.56224">
        <ele>1236</ele>
        <time>2017-11-21T22:03:42Z</time>
      </trkpt>
      <trkpt lat="44.87617" lon="5.56181">
        <ele>1221</ele>
        <time>2017-11-21T22:03:44Z</time>
      </trkpt>
      <trkpt lat="44.87604" lon="5.5617">
        <ele>1219</ele>
        <time>2017-11-21T22:03:50Z</time>
      </trkpt>
      <trkpt lat="44.87594" lon="5.56155">
        <ele>1222</ele>
        <time>2017-11-21T22:03:56Z</time>
      </trkpt>
      <trkpt lat="44.87576" lon="5.56111">
        <ele>1214</ele>
        <time>2017-11-21T22:03:59Z</time>
      </trkpt>
      <trkpt lat="44.8751" lon="5.55987">
        <ele>1209</ele>
        <time>2017-11-21T22:04:05Z</time>
      </trkpt>
      <trkpt lat="44.87505" lon="5.55972">
        <ele>1212</ele>
        <time>2017-11-21T22:04:09Z</time>
      </trkpt>
      <trkpt lat="44.87502" lon="5.55954">
        <ele>1213</ele>
        <time>2017-11-21T22:04:29Z</time>
      </trkpt>
      <trkpt lat="44.87498" lon="5.55929">
        <ele>1202</ele>
        <time>2017-11-21T22:04:31Z</time>
      </trkpt>
      <trkpt lat="44.87492" lon="5.55922">
        <ele>1202</ele>
        <time>2017-11-21T22:04:50Z</time>
      </trkpt>
      <trkpt lat="44.87482" lon="5.55915">
        <ele>1208</ele>
        <time>2017-11-21T22:05:05Z</time>
      </trkpt>
      <trkpt lat="44.87459" lon="5.5591">
        <ele>1209</ele>
        <time>2017-11-21T22:05:15Z</time>
      </trkpt>
      <trkpt lat="44.87448" lon="5.55911">
        <ele>1208</ele>
        <time>2017-11-21T22:05:20Z</time>
      </trkpt>
      <trkpt lat="44.87407" lon="5.5593">
        <ele>1193</ele>
        <time>2017-11-21T22:05:25Z</time>
      </trkpt>
      <trkpt lat="44.87352" lon="5.5595">
        <ele>1187</ele>
        <time>2017-11-21T22:05:31Z</time>
      </trkpt>
      <trkpt lat="44.87328" lon="5.55954">
        <ele>1177</ele>
        <time>2017-11-21T22:05:49Z</time>
      </trkpt>
      <trkpt lat="44.87312" lon="5.55954">
        <ele>1175</ele>
        <time>2017-11-21T22:06:07Z</time>
      </trkpt>
      <trkpt lat="44.87293" lon="5.55948">
        <ele>1173</ele>
        <time>2017-11-21T22:06:17Z</time>
      </trkpt>
      <trkpt lat="44.87277" lon="5.55939">
        <ele>1172</ele>
        <time>2017-11-21T22:06:37Z</time>
      </trkpt>
      <trkpt lat="44.87266" lon="5.55926">
        <ele>1171</ele>
        <time>2017-11-21T22:06:42Z</time>
      </trkpt>
      <trkpt lat="44.87257" lon="5.55908">
        <ele>1175</ele>
        <time>2017-11-21T22:06:59Z</time>
      </trkpt>
      <trkpt lat="44.87239" lon="5.55856">
        <ele>1170</ele>
        <time>2017-11-21T22:07:11Z</time>
      </trkpt>
      <trkpt lat="44.87231" lon="5.55847">
        <ele>1170</ele>
        <time>2017-11-21T22:07:20Z</time>
      </trkpt>
      <trkpt lat="44.87226" lon="5.55845">
        <ele>1169</ele>
        <time>2017-11-21T22:07:30Z</time>
      </trkpt>
      <trkpt lat="44.87219" lon="5.55844">
        <ele>1167</ele>
        <time>2017-11-21T22:07:46Z</time>
      </trkpt>
      <trkpt lat="44.87199" lon="5.55847">
        <ele>1163</ele>
        <time>2017-11-21T22:08:02Z</time>
      </trkpt>
      <trkpt lat="44.87182" lon="5.55845">
        <ele>1160</ele>
        <time>2017-11-21T22:08:09Z</time>
      </trkpt>
      <trkpt lat="44.8716" lon="5.55828">
        <ele>1159</ele>
        <time>2017-11-21T22:08:12Z</time>
      </trkpt>
      <trkpt lat="44.87115" lon="5.55809">
        <ele>1158</ele>
        <time>2017-11-21T22:08:15Z</time>
      </trkpt>
      <trkpt lat="44.87099" lon="5.55804">
        <ele>1157</ele>
        <time>2017-11-21T22:08:30Z</time>
      </trkpt>
      <trkpt lat="44.87088" lon="5.55804">
        <ele>1156</ele>
        <time>2017-11-21T22:08:49Z</time>
      </trkpt>
      <trkpt lat="44.87075" lon="5.55807">
        <ele>1148</ele>
        <time>2017-11-21T22:09:08Z</time>
      </trkpt>
      <trkpt lat="44.87059" lon="5.55813">
        <ele>1147</ele>
        <time>2017-11-21T22:09:21Z</time>
      </trkpt>
      <trkpt lat="44.87031" lon="5.5583">
        <ele>1144</ele>
        <time>2017-11-21T22:09:24Z</time>
      </trkpt>
      <trkpt lat="44.87013" lon="5.55836">
        <ele>1133</ele>
        <time>2017-11-21T22:09:29Z</time>
      </trkpt>
      <trkpt lat="44.86998" lon="5.55835">
        <ele>1132</ele>
        <time>2017-11-21T22:09:32Z</time>
      </trkpt>
      <trkpt lat="44.86984" lon="5.55829">
        <ele>1134</ele>
        <time>2017-11-21T22:09:49Z</time>
      </trkpt>
      <trkpt lat="44.86959" lon="5.55805">
        <ele>1134</ele>
        <time>2017-11-21T22:10:04Z</time>
      </trkpt>
      <trkpt lat="44.8693" lon="5.55769">
        <ele>1135</ele>
        <time>2017-11-21T22:10:06Z</time>
      </trkpt>
      <trkpt lat="44.86918" lon="5.55757">
        <ele>1134</ele>
        <time>2017-11-21T22:10:16Z</time>
      </trkpt>
      <trkpt lat="44.86879" lon="5.55728">
        <ele>1131</ele>
        <time>2017-11-21T22:10:23Z</time>
      </trkpt>
      <trkpt lat="44.8686" lon="5.55703">
        <ele>1130</ele>
        <time>2017-11-21T22:10:28Z</time>
      </trkpt>
      <trkpt lat="44.86847" lon="5.55677">
        <ele>1129</ele>
        <time>2017-11-21T22:10:46Z</time>
      </trkpt>
      <trkpt lat="44.86841" lon="5.55666">
        <ele>1128</ele>
        <time>2017-11-21T22:10:50Z</time>
      </trkpt>
      <trkpt lat="44.86833" lon="5.5566">
        <ele>1130</ele>
        <time>2017-11-21T22:10:55Z</time>
      </trkpt>
      <trkpt lat="44.86822" lon="5.55658">
        <ele>1132</ele>
        <time>2017-11-21T22:11:02Z</time>
      </trkpt>
      <trkpt lat="44.86813" lon="5.55664">
        <ele>1134</ele>
        <time>2017-11-21T22:11:20Z</time>
      </trkpt>
      <trkpt lat="44.86807" lon="5.55682">
        <ele>1137</ele>
        <time>2017-11-21T22:11:38Z</time>
      </trkpt>
      <trkpt lat="44.86796" lon="5.55768">
        <ele>1134</ele>
        <time>2017-11-21T22:11:43Z</time>
      </trkpt>
      <trkpt lat="44.86797" lon="5.55798">
        <ele>1132</ele>
        <time>2017-11-21T22:11:52Z</time>
      </trkpt>
      <trkpt lat="44.86803" lon="5.55847">
        <ele>1124</ele>
        <time>2017-11-21T22:12:09Z</time>
      </trkpt>
      <trkpt lat="44.86798" lon="5.55862">
        <ele>1124</ele>
        <time>2017-11-21T22:12:19Z</time>
      </trkpt>
      <trkpt lat="44.8679" lon="5.55871">
        <ele>1125</ele>
        <time>2017-11-21T22:12:23Z</time>
      </trkpt>
      <trkpt lat="44.86781" lon="5.55873">
        <ele>1126</ele>
        <time>2017-11-21T22:12:39Z</time>
      </trkpt>
      <trkpt lat="44.86752" lon="5.55871">
        <ele>1129</ele>
        <time>2017-11-21T22:12:55Z</time>
      </trkpt>
      <trkpt lat="44.86671" lon="5.55865">
        <ele>1144</ele>
        <time>2017-11-21T22:13:11Z</time>
      </trkpt>
      <trkpt lat="44.8666" lon="5.5587">
        <ele>1149</ele>
        <time>2017-11-21T22:13:29Z</time>
      </trkpt>
      <trkpt lat="44.86653" lon="5.55884">
        <ele>1148</ele>
        <time>2017-11-21T22:13:37Z</time>
      </trkpt>
      <trkpt lat="44.86642" lon="5.55933">
        <ele>1145</ele>
        <time>2017-11-21T22:13:39Z</time>
      </trkpt>
      <trkpt lat="44.86632" lon="5.55958">
        <ele>1147</ele>
        <time>2017-11-21T22:13:52Z</time>
      </trkpt>
      <trkpt lat="44.86617" lon="5.55978">
        <ele>1149</ele>
        <time>2017-11-21T22:14:05Z</time>
      </trkpt>
      <trkpt lat="44.86609" lon="5.55984">
        <ele>1150</ele>
        <time>2017-11-21T22:14:16Z</time>
      </trkpt>
      <trkpt lat="44.86592" lon="5.55991">
        <ele>1152</ele>
        <time>2017-11-21T22:14:33Z</time>
      </trkpt>
      <trkpt lat="44.86576" lon="5.55988">
        <ele>1156</ele>
        <time>2017-11-21T22:14:40Z</time>
      </trkpt>
      <trkpt lat="44.86562" lon="5.55972">
        <ele>1157</ele>
        <time>2017-11-21T22:14:55Z</time>
      </trkpt>
      <trkpt lat="44.86547" lon="5.55944">
        <ele>1158</ele>
        <time>2017-11-21T22:15:14Z</time>
      </trkpt>
      <trkpt lat="44.86542" lon="5.55911">
        <ele>1161</ele>
        <time>2017-11-21T22:15:29Z</time>
      </trkpt>
      <trkpt lat="44.86546" lon="5.55883">
        <ele>1162</ele>
        <time>2017-11-21T22:15:48Z</time>
      </trkpt>
      <trkpt lat="44.86558" lon="5.55867">
        <ele>1161</ele>
        <time>2017-11-21T22:16:07Z</time>
      </trkpt>
      <trkpt lat="44.86569" lon="5.55854">
        <ele>1161</ele>
        <time>2017-11-21T22:16:23Z</time>
      </trkpt>
      <trkpt lat="44.86569" lon="5.55846">
        <ele>1161</ele>
        <time>2017-11-21T22:16:32Z</time>
      </trkpt>
      <trkpt lat="44.86563" lon="5.55839">
        <ele>1161</ele>
        <time>2017-11-21T22:16:41Z</time>
      </trkpt>
      <trkpt lat="44.86545" lon="5.55841">
        <ele>1163</ele>
        <time>2017-11-21T22:16:47Z</time>
      </trkpt>
      <trkpt lat="44.8652" lon="5.5585">
        <ele>1165</ele>
        <time>2017-11-21T22:16:57Z</time>
      </trkpt>
      <trkpt lat="44.86511" lon="5.55859">
        <ele>1165</ele>
        <time>2017-11-21T22:17:00Z</time>
      </trkpt>
      <trkpt lat="44.86502" lon="5.55871">
        <ele>1165</ele>
        <time>2017-11-21T22:17:18Z</time>
      </trkpt>
      <trkpt lat="44.86494" lon="5.55883">
        <ele>1169</ele>
        <time>2017-11-21T22:17:34Z</time>
      </trkpt>
      <trkpt lat="44.86488" lon="5.55887">
        <ele>1169</ele>
        <time>2017-11-21T22:17:43Z</time>
      </trkpt>
      <trkpt lat="44.86484" lon="5.55888">
        <ele>1169</ele>
        <time>2017-11-21T22:17:51Z</time>
      </trkpt>
      <trkpt lat="44.86476" lon="5.5589">
        <ele>1169</ele>
        <time>2017-11-21T22:18:10Z</time>
      </trkpt>
      <trkpt lat="44.86437" lon="5.55885">
        <ele>1169</ele>
        <time>2017-11-21T22:18:30Z</time>
      </trkpt>
      <trkpt lat="44.86406" lon="5.55881">
        <ele>1164</ele>
        <time>2017-11-21T22:18:33Z</time>
      </trkpt>
      <trkpt lat="44.86391" lon="5.55876">
        <ele>1164</ele>
        <time>2017-11-21T22:18:42Z</time>
      </trkpt>
      <trkpt lat="44.86377" lon="5.55864">
        <ele>1163</ele>
        <time>2017-11-21T22:18:54Z</time>
      </trkpt>
      <trkpt lat="44.86333" lon="5.55798">
        <ele>1153</ele>
        <time>2017-11-21T22:18:57Z</time>
      </trkpt>
      <trkpt lat="44.86289" lon="5.55741">
        <ele>1159</ele>
        <time>2017-11-21T22:19:11Z</time>
      </trkpt>
      <trkpt lat="44.86239" lon="5.55695">
        <ele>1148</ele>
        <time>2017-11-21T22:19:31Z</time>
      </trkpt>
      <trkpt lat="44.86223" lon="5.55683">
        <ele>1149</ele>
        <time>2017-11-21T22:19:51Z</time>
      </trkpt>
      <trkpt lat="44.86198" lon="5.55672">
        <ele>1147</ele>
        <time>2017-11-21T22:20:05Z</time>
      </trkpt>
      <trkpt lat="44.86175" lon="5.55666">
        <ele>1154</ele>
        <time>2017-11-21T22:20:25Z</time>
      </trkpt>
      <trkpt lat="44.86165" lon="5.55669">
        <ele>1149</ele>
        <time>2017-11-21T22:20:27Z</time>
      </trkpt>
      <trkpt lat="44.86156" lon="5.55676">
        <ele>1150</ele>
        <time>2017-11-21T22:20:43Z</time>
      </trkpt>
      <trkpt lat="44.8615" lon="5.55688">
        <ele>1151</ele>
        <time>2017-11-21T22:21:01Z</time>
      </trkpt>
      <trkpt lat="44.86146" lon="5.55716">
        <ele>1148</ele>
        <time>2017-11-21T22:21:13Z</time>
      </trkpt>
      <trkpt lat="44.86144" lon="5.55747">
        <ele>1144</ele>
        <time>2017-11-21T22:21:18Z</time>
      </trkpt>
      <trkpt lat="44.86139" lon="5.55777">
        <ele>1131</ele>
        <time>2017-11-21T22:21:23Z</time>
      </trkpt>
      <trkpt lat="44.86133" lon="5.55796">
        <ele>1128</ele>
        <time>2017-11-21T22:21:43Z</time>
      </trkpt>
      <trkpt lat="44.86124" lon="5.55811">
        <ele>1127</ele>
        <time>2017-11-21T22:21:57Z</time>
      </trkpt>
      <trkpt lat="44.86117" lon="5.55819">
        <ele>1127</ele>
        <time>2017-11-21T22:22:01Z</time>
      </trkpt>
      <trkpt lat="44.86089" lon="5.55833">
        <ele>1124</ele>
        <time>2017-11-21T22:22:15Z</time>
      </trkpt>
      <trkpt lat="44.86074" lon="5.55833">
        <ele>1126</ele>
        <time>2017-11-21T22:22:26Z</time>
      </trkpt>
      <trkpt lat="44.8603" lon="5.55821">
        <ele>1129</ele>
        <time>2017-11-21T22:22:29Z</time>
      </trkpt>
      <trkpt lat="44.86013" lon="5.55817">
        <ele>1126</ele>
        <time>2017-11-21T22:22:43Z</time>
      </trkpt>
      <trkpt lat="44.86003" lon="5.55818">
        <ele>1124</ele>
        <time>2017-11-21T22:22:56Z</time>
      </trkpt>
      <trkpt lat="44.85979" lon="5.55831">
        <ele>1120</ele>
        <time>2017-11-21T22:23:03Z</time>
      </trkpt>
      <trkpt lat="44.85963" lon="5.55848">
        <ele>1110</ele>
        <time>2017-11-21T22:23:18Z</time>
      </trkpt>
      <trkpt lat="44.85972" lon="5.55861">
        <ele>1109</ele>
        <time>2017-11-21T22:23:21Z</time>
      </trkpt>
      <trkpt lat="44.85998" lon="5.55892">
        <ele>1105</ele>
        <time>2017-11-21T22:23:31Z</time>
      </trkpt>
      <trkpt lat="44.86019" lon="5.5591">
        <ele>1102</ele>
        <time>2017-11-21T22:23:45Z</time>
      </trkpt>
      <trkpt lat="44.86039" lon="5.5592">
        <ele>1098</ele>
        <time>2017-11-21T22:23:50Z</time>
      </trkpt>
      <trkpt lat="44.86064" lon="5.55924">
        <ele>1097</ele>
        <time>2017-11-21T22:24:06Z</time>
      </trkpt>
      <trkpt lat="44.86126" lon="5.55931">
        <ele>1093</ele>
        <time>2017-11-21T22:24:11Z</time>
      </trkpt>
      <trkpt lat="44.86146" lon="5.55934">
        <ele>1092</ele>
        <time>2017-11-21T22:24:14Z</time>
      </trkpt>
      <trkpt lat="44.86165" lon="5.55942">
        <ele>1091</ele>
        <time>2017-11-21T22:24:25Z</time>
      </trkpt>
      <trkpt lat="44.8623" lon="5.55989">
        <ele>1095</ele>
        <time>2017-11-21T22:24:41Z</time>
      </trkpt>
      <trkpt lat="44.86259" lon="5.56016">
        <ele>1095</ele>
        <time>2017-11-21T22:24:52Z</time>
      </trkpt>
      <trkpt lat="44.86289" lon="5.56052">
        <ele>1093</ele>
        <time>2017-11-21T22:24:55Z</time>
      </trkpt>
      <trkpt lat="44.86343" lon="5.56116">
        <ele>1084</ele>
        <time>2017-11-21T22:25:06Z</time>
      </trkpt>
      <trkpt lat="44.86364" lon="5.56138">
        <ele>1082</ele>
        <time>2017-11-21T22:25:25Z</time>
      </trkpt>
      <trkpt lat="44.86388" lon="5.56155">
        <ele>1081</ele>
        <time>2017-11-21T22:25:35Z</time>
      </trkpt>
      <trkpt lat="44.86402" lon="5.5619">
        <ele>1076</ele>
        <time>2017-11-21T22:25:42Z</time>
      </trkpt>
      <trkpt lat="44.8641" lon="5.56209">
        <ele>1077</ele>
        <time>2017-11-21T22:25:45Z</time>
      </trkpt>
      <trkpt lat="44.86417" lon="5.56218">
        <ele>1075</ele>
        <time>2017-11-21T22:25:54Z</time>
      </trkpt>
      <trkpt lat="44.86434" lon="5.56228">
        <ele>1075</ele>
        <time>2017-11-21T22:26:12Z</time>
      </trkpt>
      <trkpt lat="44.86459" lon="5.56238">
        <ele>1075</ele>
        <time>2017-11-21T22:26:20Z</time>
      </trkpt>
      <trkpt lat="44.86481" lon="5.56253">
        <ele>1073</ele>
        <time>2017-11-21T22:26:36Z</time>
      </trkpt>
      <trkpt lat="44.86499" lon="5.56284">
        <ele>1074</ele>
        <time>2017-11-21T22:26:44Z</time>
      </trkpt>
      <trkpt lat="44.8653" lon="5.56367">
        <ele>1072</ele>
        <time>2017-11-21T22:27:01Z</time>
      </trkpt>
      <trkpt lat="44.8657" lon="5.56416">
        <ele>1068</ele>
        <time>2017-11-21T22:27:12Z</time>
      </trkpt>
      <trkpt lat="44.86579" lon="5.56419">
        <ele>1071</ele>
        <time>2017-11-21T22:27:29Z</time>
      </trkpt>
      <trkpt lat="44.86589" lon="5.56417">
        <ele>1066</ele>
        <time>2017-11-21T22:27:40Z</time>
      </trkpt>
      <trkpt lat="44.86616" lon="5.56399">
        <ele>1056</ele>
        <time>2017-11-21T22:27:47Z</time>
      </trkpt>
      <trkpt lat="44.86626" lon="5.56397">
        <ele>1055</ele>
        <time>2017-11-21T22:28:01Z</time>
      </trkpt>
      <trkpt lat="44.86638" lon="5.564">
        <ele>1053</ele>
        <time>2017-11-21T22:28:13Z</time>
      </trkpt>
      <trkpt lat="44.86676" lon="5.5643">
        <ele>1048</ele>
        <time>2017-11-21T22:28:18Z</time>
      </trkpt>
      <trkpt lat="44.86685" lon="5.56446">
        <ele>1050</ele>
        <time>2017-11-21T22:28:36Z</time>
      </trkpt>
      <trkpt lat="44.86698" lon="5.56489">
        <ele>1053</ele>
        <time>2017-11-21T22:28:54Z</time>
      </trkpt>
      <trkpt lat="44.86709" lon="5.56517">
        <ele>1058</ele>
        <time>2017-11-21T22:29:12Z</time>
      </trkpt>
      <trkpt lat="44.86723" lon="5.56536">
        <ele>1057</ele>
        <time>2017-11-21T22:29:23Z</time>
      </trkpt>
      <trkpt lat="44.86758" lon="5.5657">
        <ele>1039</ele>
        <time>2017-11-21T22:29:39Z</time>
      </trkpt>
      <trkpt lat="44.86808" lon="5.56599">
        <ele>1036</ele>
        <time>2017-11-21T22:29:41Z</time>
      </trkpt>
      <trkpt lat="44.86832" lon="5.566">
        <ele>1029</ele>
        <time>2017-11-21T22:30:00Z</time>
      </trkpt>
      <trkpt lat="44.86843" lon="5.56607">
        <ele>1016</ele>
        <time>2017-11-21T22:30:08Z</time>
      </trkpt>
      <trkpt lat="44.86853" lon="5.56622">
        <ele>1018</ele>
        <time>2017-11-21T22:30:14Z</time>
      </trkpt>
      <trkpt lat="44.86869" lon="5.56646">
        <ele>1019</ele>
        <time>2017-11-21T22:30:26Z</time>
      </trkpt>
      <trkpt lat="44.86889" lon="5.56663">
        <ele>1014</ele>
        <time>2017-11-21T22:30:39Z</time>
      </trkpt>
      <trkpt lat="44.86908" lon="5.56696">
        <ele>1023</ele>
        <time>2017-11-21T22:30:56Z</time>
      </trkpt>
      <trkpt lat="44.86917" lon="5.56747">
        <ele>1013</ele>
        <time>2017-11-21T22:31:14Z</time>
      </trkpt>
      <trkpt lat="44.8692" lon="5.56795">
        <ele>1003</ele>
        <time>2017-11-21T22:31:21Z</time>
      </trkpt>
      <trkpt lat="44.86915" lon="5.56844">
        <ele>1029</ele>
        <time>2017-11-21T22:31:37Z</time>
      </trkpt>
      <trkpt lat="44.86916" lon="5.56906">
        <ele>1026</ele>
        <time>2017-11-21T22:31:53Z</time>
      </trkpt>
      <trkpt lat="44.8691" lon="5.56933">
        <ele>1024</ele>
        <time>2017-11-21T22:32:11Z</time>
      </trkpt>
      <trkpt lat="44.86903" lon="5.56963">
        <ele>1025</ele>
        <time>2017-11-21T22:32:30Z</time>
      </trkpt>
      <trkpt lat="44.86887" lon="5.57002">
        <ele>1013</ele>
        <time>2017-11-21T22:32:45Z</time>
      </trkpt>
      <trkpt lat="44.86868" lon="5.5706">
        <ele>1014</ele>
        <time>2017-11-21T22:32:49Z</time>
      </trkpt>
      <trkpt lat="44.86856" lon="5.57087">
        <ele>1008</ele>
        <time>2017-11-21T22:32:53Z</time>
      </trkpt>
      <trkpt lat="44.86858" lon="5.57097">
        <ele>1006</ele>
        <time>2017-11-21T22:32:59Z</time>
      </trkpt>
      <trkpt lat="44.8686" lon="5.571">
        <ele>1005</ele>
        <time>2017-11-21T22:33:02Z</time>
      </trkpt>
      <trkpt lat="44.86865" lon="5.571">
        <ele>1003</ele>
        <time>2017-11-21T22:33:09Z</time>
      </trkpt>
      <trkpt lat="44.8687" lon="5.57095">
        <ele>1001</ele>
        <time>2017-11-21T22:33:13Z</time>
      </trkpt>
      <trkpt lat="44.86878" lon="5.57074">
        <ele>1009</ele>
        <time>2017-11-21T22:33:17Z</time>
      </trkpt>
      <trkpt lat="44.86895" lon="5.57022">
        <ele>1010</ele>
        <time>2017-11-21T22:33:32Z</time>
      </trkpt>
      <trkpt lat="44.86919" lon="5.56982">
        <ele>995</ele>
        <time>2017-11-21T22:33:35Z</time>
      </trkpt>
      <trkpt lat="44.86947" lon="5.56921">
        <ele>995</ele>
        <time>2017-11-21T22:33:42Z</time>
      </trkpt>
      <trkpt lat="44.86952" lon="5.56901">
        <ele>996</ele>
        <time>2017-11-21T22:33:59Z</time>
      </trkpt>
      <trkpt lat="44.86954" lon="5.56869">
        <ele>995</ele>
        <time>2017-11-21T22:34:18Z</time>
      </trkpt>
      <trkpt lat="44.86965" lon="5.56789">
        <ele>993</ele>
        <time>2017-11-21T22:34:24Z</time>
      </trkpt>
      <trkpt lat="44.86978" lon="5.56716">
        <ele>991</ele>
        <time>2017-11-21T22:34:36Z</time>
      </trkpt>
      <trkpt lat="44.86987" lon="5.56701">
        <ele>991</ele>
        <time>2017-11-21T22:34:38Z</time>
      </trkpt>
      <trkpt lat="44.87" lon="5.56685">
        <ele>990</ele>
        <time>2017-11-21T22:34:49Z</time>
      </trkpt>
      <trkpt lat="44.87007" lon="5.56685">
        <ele>991</ele>
        <time>2017-11-21T22:34:57Z</time>
      </trkpt>
      <trkpt lat="44.87015" lon="5.56692">
        <ele>992</ele>
        <time>2017-11-21T22:35:14Z</time>
      </trkpt>
      <trkpt lat="44.87045" lon="5.56741">
        <ele>992</ele>
        <time>2017-11-21T22:35:25Z</time>
      </trkpt>
      <trkpt lat="44.87054" lon="5.56764">
        <ele>986</ele>
        <time>2017-11-21T22:35:34Z</time>
      </trkpt>
      <trkpt lat="44.87054" lon="5.56775">
        <ele>986</ele>
        <time>2017-11-21T22:35:36Z</time>
      </trkpt>
      <trkpt lat="44.8705" lon="5.56782">
        <ele>985</ele>
        <time>2017-11-21T22:35:42Z</time>
      </trkpt>
      <trkpt lat="44.87043" lon="5.5679">
        <ele>984</ele>
        <time>2017-11-21T22:35:59Z</time>
      </trkpt>
      <trkpt lat="44.87038" lon="5.56802">
        <ele>984</ele>
        <time>2017-11-21T22:36:15Z</time>
      </trkpt>
      <trkpt lat="44.87037" lon="5.56815">
        <ele>983</ele>
        <time>2017-11-21T22:36:31Z</time>
      </trkpt>
      <trkpt lat="44.87037" lon="5.56832">
        <ele>983</ele>
        <time>2017-11-21T22:36:50Z</time>
      </trkpt>
      <trkpt lat="44.87032" lon="5.56848">
        <ele>986</ele>
        <time>2017-11-21T22:37:06Z</time>
      </trkpt>
      <trkpt lat="44.87025" lon="5.56869">
        <ele>986</ele>
        <time>2017-11-21T22:37:26Z</time>
      </trkpt>
      <trkpt lat="44.87024" lon="5.56886">
        <ele>986</ele>
        <time>2017-11-21T22:37:44Z</time>
      </trkpt>
      <trkpt lat="44.87026" lon="5.56928">
        <ele>989</ele>
        <time>2017-11-21T22:37:54Z</time>
      </trkpt>
      <trkpt lat="44.87025" lon="5.56944">
        <ele>990</ele>
        <time>2017-11-21T22:37:58Z</time>
      </trkpt>
      <trkpt lat="44.87019" lon="5.56958">
        <ele>989</ele>
        <time>2017-11-21T22:38:10Z</time>
      </trkpt>
      <trkpt lat="44.87012" lon="5.56971">
        <ele>987</ele>
        <time>2017-11-21T22:38:15Z</time>
      </trkpt>
      <trkpt lat="44.87007" lon="5.56987">
        <ele>982</ele>
        <time>2017-11-21T22:38:34Z</time>
      </trkpt>
      <trkpt lat="44.87007" lon="5.57034">
        <ele>987</ele>
        <time>2017-11-21T22:38:39Z</time>
      </trkpt>
      <trkpt lat="44.87006" lon="5.5705">
        <ele>987</ele>
        <time>2017-11-21T22:38:44Z</time>
      </trkpt>
      <trkpt lat="44.87001" lon="5.57068">
        <ele>982</ele>
        <time>2017-11-21T22:38:51Z</time>
      </trkpt>
      <trkpt lat="44.8699" lon="5.571">
        <ele>971</ele>
        <time>2017-11-21T22:38:57Z</time>
      </trkpt>
      <trkpt lat="44.86996" lon="5.57132">
        <ele>969</ele>
        <time>2017-11-21T22:39:16Z</time>
      </trkpt>
      <trkpt lat="44.87011" lon="5.57187">
        <ele>977</ele>
        <time>2017-11-21T22:39:19Z</time>
      </trkpt>
      <trkpt lat="44.87015" lon="5.57227">
        <ele>973</ele>
        <time>2017-11-21T22:39:32Z</time>
      </trkpt>
      <trkpt lat="44.8701" lon="5.57261">
        <ele>960</ele>
        <time>2017-11-21T22:39:36Z</time>
      </trkpt>
      <trkpt lat="44.87008" lon="5.57303">
        <ele>966</ele>
        <time>2017-11-21T22:39:38Z</time>
      </trkpt>
      <trkpt lat="44.87005" lon="5.57341">
        <ele>954</ele>
        <time>2017-11-21T22:39:54Z</time>
      </trkpt>
      <trkpt lat="44.87001" lon="5.57352">
        <ele>960</ele>
        <time>2017-11-21T22:40:03Z</time>
      </trkpt>
      <trkpt lat="44.86994" lon="5.57363">
        <ele>938</ele>
        <time>2017-11-21T22:40:17Z</time>
      </trkpt>
      <trkpt lat="44.86988" lon="5.57374">
        <ele>938</ele>
        <time>2017-11-21T22:40:29Z</time>
      </trkpt>
      <trkpt lat="44.86986" lon="5.57386">
        <ele>938</ele>
        <time>2017-11-21T22:40:32Z</time>
      </trkpt>
      <trkpt lat="44.86986" lon="5.57409">
        <ele>942</ele>
        <time>2017-11-21T22:40:34Z</time>
      </trkpt>
      <trkpt lat="44.86976" lon="5.57425">
        <ele>939</ele>
        <time>2017-11-21T22:40:36Z</time>
      </trkpt>
      <trkpt lat="44.86957" lon="5.57462">
        <ele>933</ele>
        <time>2017-11-21T22:40:56Z</time>
      </trkpt>
      <trkpt lat="44.86944" lon="5.57515">
        <ele>932</ele>
        <time>2017-11-21T22:41:16Z</time>
      </trkpt>
      <trkpt lat="44.86941" lon="5.57536">
        <ele>933</ele>
        <time>2017-11-21T22:41:33Z</time>
      </trkpt>
      <trkpt lat="44.86942" lon="5.57558">
        <ele>933</ele>
        <time>2017-11-21T22:41:35Z</time>
      </trkpt>
      <trkpt lat="44.86946" lon="5.57595">
        <ele>939</ele>
        <time>2017-11-21T22:41:41Z</time>
      </trkpt>
      <trkpt lat="44.86941" lon="5.57608">
        <ele>939</ele>
        <time>2017-11-21T22:41:54Z</time>
      </trkpt>
      <trkpt lat="44.86916" lon="5.57633">
        <ele>915</ele>
        <time>2017-11-21T22:42:05Z</time>
      </trkpt>
      <trkpt lat="44.86909" lon="5.57644">
        <ele>915</ele>
        <time>2017-11-21T22:42:12Z</time>
      </trkpt>
      <trkpt lat="44.86905" lon="5.57658">
        <ele>917</ele>
        <time>2017-11-21T22:42:30Z</time>
      </trkpt>
      <trkpt lat="44.86907" lon="5.57693">
        <ele>916</ele>
        <time>2017-11-21T22:42:37Z</time>
      </trkpt>
      <trkpt lat="44.86904" lon="5.57713">
        <ele>916</ele>
        <time>2017-11-21T22:42:53Z</time>
      </trkpt>
      <trkpt lat="44.86895" lon="5.57748">
        <ele>919</ele>
        <time>2017-11-21T22:42:58Z</time>
      </trkpt>
      <trkpt lat="44.86892" lon="5.57764">
        <ele>921</ele>
        <time>2017-11-21T22:43:08Z</time>
      </trkpt>
      <trkpt lat="44.86883" lon="5.57777">
        <ele>918</ele>
        <time>2017-11-21T22:43:28Z</time>
      </trkpt>
      <trkpt lat="44.86872" lon="5.5779">
        <ele>916</ele>
        <time>2017-11-21T22:43:42Z</time>
      </trkpt>
      <trkpt lat="44.86865" lon="5.57806">
        <ele>914</ele>
        <time>2017-11-21T22:43:50Z</time>
      </trkpt>
      <trkpt lat="44.86848" lon="5.57859">
        <ele>919</ele>
        <time>2017-11-21T22:44:03Z</time>
      </trkpt>
      <trkpt lat="44.86836" lon="5.57885">
        <ele>921</ele>
        <time>2017-11-21T22:44:21Z</time>
      </trkpt>
      <trkpt lat="44.86818" lon="5.57916">
        <ele>902</ele>
        <time>2017-11-21T22:44:38Z</time>
      </trkpt>
      <trkpt lat="44.86783" lon="5.5796">
        <ele>906</ele>
        <time>2017-11-21T22:44:41Z</time>
      </trkpt>
      <trkpt lat="44.86755" lon="5.57985">
        <ele>904</ele>
        <time>2017-11-21T22:44:48Z</time>
      </trkpt>
      <trkpt lat="44.86728" lon="5.57996">
        <ele>890</ele>
        <time>2017-11-21T22:44:51Z</time>
      </trkpt>
      <trkpt lat="44.86701" lon="5.58013">
        <ele>896</ele>
        <time>2017-11-21T22:45:11Z</time>
      </trkpt>
      <trkpt lat="44.86674" lon="5.58024">
        <ele>892</ele>
        <time>2017-11-21T22:45:22Z</time>
      </trkpt>
      <trkpt lat="44.86653" lon="5.58028">
        <ele>876</ele>
        <time>2017-11-21T22:45:31Z</time>
      </trkpt>
      <trkpt lat="44.86636" lon="5.5805">
        <ele>877</ele>
        <time>2017-11-21T22:45:48Z</time>
      </trkpt>
      <trkpt lat="44.86609" lon="5.58121">
        <ele>883</ele>
        <time>2017-11-21T22:45:55Z</time>
      </trkpt>
      <trkpt lat="44.86597" lon="5.58163">
        <ele>880</ele>
        <time>2017-11-21T22:45:57Z</time>
      </trkpt>
      <trkpt lat="44.8658" lon="5.58241">
        <ele>877</ele>
        <time>2017-11-21T22:46:13Z</time>
      </trkpt>
      <trkpt lat="44.86577" lon="5.58264">
        <ele>875</ele>
        <time>2017-11-21T22:46:17Z</time>
      </trkpt>
      <trkpt lat="44.8658" lon="5.58327">
        <ele>877</ele>
        <time>2017-11-21T22:46:30Z</time>
      </trkpt>
      <trkpt lat="44.86584" lon="5.58369">
        <ele>886</ele>
        <time>2017-11-21T22:46:32Z</time>
      </trkpt>
      <trkpt lat="44.86591" lon="5.58387">
        <ele>884</ele>
        <time>2017-11-21T22:46:41Z</time>
      </trkpt>
      <trkpt lat="44.86648" lon="5.5848">
        <ele>879</ele>
        <time>2017-11-21T22:46:51Z</time>
      </trkpt>
      <trkpt lat="44.86656" lon="5.58506">
        <ele>876</ele>
        <time>2017-11-21T22:47:09Z</time>
      </trkpt>
      <trkpt lat="44.8666" lon="5.58607">
        <ele>867</ele>
        <time>2017-11-21T22:47:22Z</time>
      </trkpt>
      <trkpt lat="44.86666" lon="5.58643">
        <ele>865</ele>
        <time>2017-11-21T22:47:24Z</time>
      </trkpt>
      <trkpt lat="44.86673" lon="5.58655">
        <ele>877</ele>
        <time>2017-11-21T22:47:28Z</time>
      </trkpt>
      <trkpt lat="44.86699" lon="5.58685">
        <ele>878</ele>
        <time>2017-11-21T22:47:34Z</time>
      </trkpt>
      <trkpt lat="44.8672" lon="5.58725">
        <ele>879</ele>
        <time>2017-11-21T22:47:37Z</time>
      </trkpt>
      <trkpt lat="44.86727" lon="5.58749">
        <ele>880</ele>
        <time>2017-11-21T22:47:43Z</time>
      </trkpt>
      <trkpt lat="44.86729" lon="5.58771">
        <ele>874</ele>
        <time>2017-11-21T22:48:00Z</time>
      </trkpt>
      <trkpt lat="44.86729" lon="5.58791">
        <ele>872</ele>
        <time>2017-11-21T22:48:15Z</time>
      </trkpt>
      <trkpt lat="44.86724" lon="5.58821">
        <ele>871</ele>
        <time>2017-11-21T22:48:29Z</time>
      </trkpt>
      <trkpt lat="44.86707" lon="5.58891">
        <ele>869</ele>
        <time>2017-11-21T22:48:41Z</time>
      </trkpt>
      <trkpt lat="44.867" lon="5.58908">
        <ele>868</ele>
        <time>2017-11-21T22:48:54Z</time>
      </trkpt>
      <trkpt lat="44.8669" lon="5.58922">
        <ele>870</ele>
        <time>2017-11-21T22:49:09Z</time>
      </trkpt>
      <trkpt lat="44.86665" lon="5.58946">
        <ele>854</ele>
        <time>2017-11-21T22:49:11Z</time>
      </trkpt>
      <trkpt lat="44.8666" lon="5.58961">
        <ele>854</ele>
        <time>2017-11-21T22:49:29Z</time>
      </trkpt>
      <trkpt lat="44.86659" lon="5.58979">
        <ele>858</ele>
        <time>2017-11-21T22:49:46Z</time>
      </trkpt>
      <trkpt lat="44.86659" lon="5.59021">
        <ele>860</ele>
        <time>2017-11-21T22:49:58Z</time>
      </trkpt>
      <trkpt lat="44.86662" lon="5.59071">
        <ele>864</ele>
        <time>2017-11-21T22:50:08Z</time>
      </trkpt>
      <trkpt lat="44.86671" lon="5.59101">
        <ele>879</ele>
        <time>2017-11-21T22:50:20Z</time>
      </trkpt>
      <trkpt lat="44.86684" lon="5.59165">
        <ele>876</ele>
        <time>2017-11-21T22:50:29Z</time>
      </trkpt>
      <trkpt lat="44.86693" lon="5.59216">
        <ele>872</ele>
        <time>2017-11-21T22:50:39Z</time>
      </trkpt>
      <trkpt lat="44.86697" lon="5.59229">
        <ele>872</ele>
        <time>2017-11-21T22:50:43Z</time>
      </trkpt>
      <trkpt lat="44.86712" lon="5.59244">
        <ele>874</ele>
        <time>2017-11-21T22:50:55Z</time>
      </trkpt>
      <trkpt lat="44.86794" lon="5.59279">
        <ele>886</ele>
        <time>2017-11-21T22:51:04Z</time>
      </trkpt>
      <trkpt lat="44.86803" lon="5.59291">
        <ele>886</ele>
        <time>2017-11-21T22:51:19Z</time>
      </trkpt>
      <trkpt lat="44.86832" lon="5.59358">
        <ele>884</ele>
        <time>2017-11-21T22:51:26Z</time>
      </trkpt>
      <trkpt lat="44.86835" lon="5.59378">
        <ele>895</ele>
        <time>2017-11-21T22:51:30Z</time>
      </trkpt>
      <trkpt lat="44.86834" lon="5.5939">
        <ele>895</ele>
        <time>2017-11-21T22:51:42Z</time>
      </trkpt>
      <trkpt lat="44.86812" lon="5.59431">
        <ele>884</ele>
        <time>2017-11-21T22:52:01Z</time>
      </trkpt>
      <trkpt lat="44.86811" lon="5.59439">
        <ele>883</ele>
        <time>2017-11-21T22:52:10Z</time>
      </trkpt>
      <trkpt lat="44.86823" lon="5.59464">
        <ele>883</ele>
        <time>2017-11-21T22:52:23Z</time>
      </trkpt>
      <trkpt lat="44.8683" lon="5.59468">
        <ele>884</ele>
        <time>2017-11-21T22:52:33Z</time>
      </trkpt>
      <trkpt lat="44.86847" lon="5.59457">
        <ele>892</ele>
        <time>2017-11-21T22:52:44Z</time>
      </trkpt>
      <trkpt lat="44.86861" lon="5.59454">
        <ele>893</ele>
        <time>2017-11-21T22:52:55Z</time>
      </trkpt>
      <trkpt lat="44.86888" lon="5.59462">
        <ele>894</ele>
        <time>2017-11-21T22:53:02Z</time>
      </trkpt>
      <trkpt lat="44.86903" lon="5.59468">
        <ele>894</ele>
        <time>2017-11-21T22:53:10Z</time>
      </trkpt>
      <trkpt lat="44.86906" lon="5.5947">
        <ele>894</ele>
        <time>2017-11-21T22:53:21Z</time>
      </trkpt>
      <trkpt lat="44.86919" lon="5.59499">
        <ele>894</ele>
        <time>2017-11-21T22:53:25Z</time>
      </trkpt>
      <trkpt lat="44.86929" lon="5.59532">
        <ele>891</ele>
        <time>2017-11-21T22:53:32Z</time>
      </trkpt>
      <trkpt lat="44.8695" lon="5.59577">
        <ele>889</ele>
        <time>2017-11-21T22:53:34Z</time>
      </trkpt>
      <trkpt lat="44.86995" lon="5.59637">
        <ele>882</ele>
        <time>2017-11-21T22:53:44Z</time>
      </trkpt>
      <trkpt lat="44.8701" lon="5.59677">
        <ele>887</ele>
        <time>2017-11-21T22:53:51Z</time>
      </trkpt>
      <trkpt lat="44.8698" lon="5.59698">
        <ele>875</ele>
        <time>2017-11-21T22:54:10Z</time>
      </trkpt>
      <trkpt lat="44.86953" lon="5.59726">
        <ele>871</ele>
        <time>2017-11-21T22:54:24Z</time>
      </trkpt>
      <trkpt lat="44.86943" lon="5.59752">
        <ele>866</ele>
        <time>2017-11-21T22:54:40Z</time>
      </trkpt>
      <trkpt lat="44.86941" lon="5.59805">
        <ele>866</ele>
        <time>2017-11-21T22:54:44Z</time>
      </trkpt>
      <trkpt lat="44.8694" lon="5.59877">
        <ele>862</ele>
        <time>2017-11-21T22:55:00Z</time>
      </trkpt>
      <trkpt lat="44.86927" lon="5.59936">
        <ele>854</ele>
        <time>2017-11-21T22:55:03Z</time>
      </trkpt>
      <trkpt lat="44.86898" lon="5.60008">
        <ele>842</ele>
        <time>2017-11-21T22:55:21Z</time>
      </trkpt>
      <trkpt lat="44.86868" lon="5.60073">
        <ele>838</ele>
        <time>2017-11-21T22:55:39Z</time>
      </trkpt>
      <trkpt lat="44.86851" lon="5.60119">
        <ele>836</ele>
        <time>2017-11-21T22:55:47Z</time>
      </trkpt>
      <trkpt lat="44.86844" lon="5.6017">
        <ele>833</ele>
        <time>2017-11-21T22:56:05Z</time>
      </trkpt>
      <trkpt lat="44.86833" lon="5.60198">
        <ele>824</ele>
        <time>2017-11-21T22:56:21Z</time>
      </trkpt>
      <trkpt lat="44.86812" lon="5.60211">
        <ele>823</ele>
        <time>2017-11-21T22:56:33Z</time>
      </trkpt>
      <trkpt lat="44.86782" lon="5.60237">
        <ele>819</ele>
        <time>2017-11-21T22:56:36Z</time>
      </trkpt>
      <trkpt lat="44.86764" lon="5.60254">
        <ele>816</ele>
        <time>2017-11-21T22:56:43Z</time>
      </trkpt>
      <trkpt lat="44.86751" lon="5.60274">
        <ele>817</ele>
        <time>2017-11-21T22:56:56Z</time>
      </trkpt>
      <trkpt lat="44.86737" lon="5.60321">
        <ele>807</ele>
        <time>2017-11-21T22:57:02Z</time>
      </trkpt>
      <trkpt lat="44.86735" lon="5.6035">
        <ele>809</ele>
        <time>2017-11-21T22:57:22Z</time>
      </trkpt>
      <trkpt lat="44.86738" lon="5.60381">
        <ele>809</ele>
        <time>2017-11-21T22:57:29Z</time>
      </trkpt>
      <trkpt lat="44.86745" lon="5.60427">
        <ele>810</ele>
        <time>2017-11-21T22:57:43Z</time>
      </trkpt>
      <trkpt lat="44.86758" lon="5.60517">
        <ele>810</ele>
        <time>2017-11-21T22:58:00Z</time>
      </trkpt>
      <trkpt lat="44.86761" lon="5.60541">
        <ele>810</ele>
        <time>2017-11-21T22:58:13Z</time>
      </trkpt>
      <trkpt lat="44.86762" lon="5.60563">
        <ele>809</ele>
        <time>2017-11-21T22:58:21Z</time>
      </trkpt>
      <trkpt lat="44.86761" lon="5.60575">
        <ele>808</ele>
        <time>2017-11-21T22:58:26Z</time>
      </trkpt>
      <trkpt lat="44.86754" lon="5.60582">
        <ele>806</ele>
        <time>2017-11-21T22:58:45Z</time>
      </trkpt>
      <trkpt lat="44.86749" lon="5.60569">
        <ele>805</ele>
        <time>2017-11-21T22:58:53Z</time>
      </trkpt>
      <trkpt lat="44.86718" lon="5.60493">
        <ele>810</ele>
        <time>2017-11-21T22:59:07Z</time>
      </trkpt>
      <trkpt lat="44.86706" lon="5.60461">
        <ele>810</ele>
        <time>2017-11-21T22:59:18Z</time>
      </trkpt>
      <trkpt lat="44.86694" lon="5.60411">
        <ele>809</ele>
        <time>2017-11-21T22:59:23Z</time>
      </trkpt>
      <trkpt lat="44.8669" lon="5.6037">
        <ele>807</ele>
        <time>2017-11-21T22:59:43Z</time>
      </trkpt>
      <trkpt lat="44.86689" lon="5.6033">
        <ele>801</ele>
        <time>2017-11-21T22:59:54Z</time>
      </trkpt>
      <trkpt lat="44.86694" lon="5.60226">
        <ele>795</ele>
        <time>2017-11-21T23:00:10Z</time>
      </trkpt>
      <trkpt lat="44.86694" lon="5.6015">
        <ele>794</ele>
        <time>2017-11-21T23:00:25Z</time>
      </trkpt>
      <trkpt lat="44.86684" lon="5.60085">
        <ele>794</ele>
        <time>2017-11-21T23:00:29Z</time>
      </trkpt>
      <trkpt lat="44.86668" lon="5.60025">
        <ele>800</ele>
        <time>2017-11-21T23:00:32Z</time>
      </trkpt>
      <trkpt lat="44.86644" lon="5.59975">
        <ele>783</ele>
        <time>2017-11-21T23:00:50Z</time>
      </trkpt>
      <trkpt lat="44.86627" lon="5.59948">
        <ele>780</ele>
        <time>2017-11-21T23:00:53Z</time>
      </trkpt>
      <trkpt lat="44.86605" lon="5.59921">
        <ele>776</ele>
        <time>2017-11-21T23:01:00Z</time>
      </trkpt>
      <trkpt lat="44.86582" lon="5.59898">
        <ele>767</ele>
        <time>2017-11-21T23:01:19Z</time>
      </trkpt>
      <trkpt lat="44.86553" lon="5.59878">
        <ele>765</ele>
        <time>2017-11-21T23:01:25Z</time>
      </trkpt>
      <trkpt lat="44.86525" lon="5.59865">
        <ele>766</ele>
        <time>2017-11-21T23:01:42Z</time>
      </trkpt>
      <trkpt lat="44.86488" lon="5.59855">
        <ele>772</ele>
        <time>2017-11-21T23:01:47Z</time>
      </trkpt>
      <trkpt lat="44.86469" lon="5.59853">
        <ele>774</ele>
        <time>2017-11-21T23:02:05Z</time>
      </trkpt>
      <trkpt lat="44.86441" lon="5.59855">
        <ele>778</ele>
        <time>2017-11-21T23:02:07Z</time>
      </trkpt>
      <trkpt lat="44.8642" lon="5.59858">
        <ele>781</ele>
        <time>2017-11-21T23:02:17Z</time>
      </trkpt>
      <trkpt lat="44.86369" lon="5.59879">
        <ele>787</ele>
        <time>2017-11-21T23:02:25Z</time>
      </trkpt>
      <trkpt lat="44.86323" lon="5.5991">
        <ele>789</ele>
        <time>2017-11-21T23:02:37Z</time>
      </trkpt>
      <trkpt lat="44.86296" lon="5.59936">
        <ele>787</ele>
        <time>2017-11-21T23:02:49Z</time>
      </trkpt>
      <trkpt lat="44.86274" lon="5.59962">
        <ele>788</ele>
        <time>2017-11-21T23:03:02Z</time>
      </trkpt>
      <trkpt lat="44.8625" lon="5.59995">
        <ele>794</ele>
        <time>2017-11-21T23:03:14Z</time>
      </trkpt>
      <trkpt lat="44.86231" lon="5.60028">
        <ele>800</ele>
        <time>2017-11-21T23:03:20Z</time>
      </trkpt>
      <trkpt lat="44.86196" lon="5.60109">
        <ele>801</ele>
        <time>2017-11-21T23:03:38Z</time>
      </trkpt>
      <trkpt lat="44.86146" lon="5.60237">
        <ele>802</ele>
        <time>2017-11-21T23:03:42Z</time>
      </trkpt>
      <trkpt lat="44.86033" lon="5.60529">
        <ele>799</ele>
        <time>2017-11-21T23:03:44Z</time>
      </trkpt>
      <trkpt lat="44.85967" lon="5.60703">
        <ele>796</ele>
        <time>2017-11-21T23:04:03Z</time>
      </trkpt>
      <trkpt lat="44.85919" lon="5.60796">
        <ele>792</ele>
        <time>2017-11-21T23:04:11Z</time>
      </trkpt>
      <trkpt lat="44.85893" lon="5.6084">
        <ele>793</ele>
        <time>2017-11-21T23:04:19Z</time>
      </trkpt>
      <trkpt lat="44.8587" lon="5.60874">
        <ele>793</ele>
        <time>2017-11-21T23:04:33Z</time>
      </trkpt>
      <trkpt lat="44.85836" lon="5.60917">
        <ele>788</ele>
        <time>2017-11-21T23:04:43Z</time>
      </trkpt>
      <trkpt lat="44.85776" lon="5.60987">
        <ele>788</ele>
        <time>2017-11-21T23:04:56Z</time>
      </trkpt>
      <trkpt lat="44.85679" lon="5.61095">
        <ele>783</ele>
        <time>2017-11-21T23:05:06Z</time>
      </trkpt>
      <trkpt lat="44.85645" lon="5.61143">
        <ele>789</ele>
        <time>2017-11-21T23:05:16Z</time>
      </trkpt>
      <trkpt lat="44.85611" lon="5.61212">
        <ele>782</ele>
        <time>2017-11-21T23:05:18Z</time>
      </trkpt>
      <trkpt lat="44.85517" lon="5.61417">
        <ele>765</ele>
        <time>2017-11-21T23:05:26Z</time>
      </trkpt>
      <trkpt lat="44.85449" lon="5.61565">
        <ele>760</ele>
        <time>2017-11-21T23:05:28Z</time>
      </trkpt>
      <trkpt lat="44.85434" lon="5.61596">
        <ele>758</ele>
        <time>2017-11-21T23:05:37Z</time>
      </trkpt>
      <trkpt lat="44.85404" lon="5.61668">
        <ele>756</ele>
        <time>2017-11-21T23:05:40Z</time>
      </trkpt>
      <trkpt lat="44.85338" lon="5.61878">
        <ele>750</ele>
        <time>2017-11-21T23:05:46Z</time>
      </trkpt>
      <trkpt lat="44.85316" lon="5.61925">
        <ele>751</ele>
        <time>2017-11-21T23:06:02Z</time>
      </trkpt>
      <trkpt lat="44.85294" lon="5.61966">
        <ele>749</ele>
        <time>2017-11-21T23:06:06Z</time>
      </trkpt>
      <trkpt lat="44.85282" lon="5.61985">
        <ele>749</ele>
        <time>2017-11-21T23:06:14Z</time>
      </trkpt>
      <trkpt lat="44.85278" lon="5.61986">
        <ele>749</ele>
        <time>2017-11-21T23:06:32Z</time>
      </trkpt>
      <trkpt lat="44.85274" lon="5.6199">
        <ele>749</ele>
        <time>2017-11-21T23:06:52Z</time>
      </trkpt>
      <trkpt lat="44.85262" lon="5.62005">
        <ele>747</ele>
        <time>2017-11-21T23:07:06Z</time>
      </trkpt>
      <trkpt lat="44.8522" lon="5.6204">
        <ele>746</ele>
        <time>2017-11-21T23:07:25Z</time>
      </trkpt>
      <trkpt lat="44.85197" lon="5.62053">
        <ele>746</ele>
        <time>2017-11-21T23:07:37Z</time>
      </trkpt>
      <trkpt lat="44.85166" lon="5.62069">
        <ele>747</ele>
        <time>2017-11-21T23:07:51Z</time>
      </trkpt>
      <trkpt lat="44.85118" lon="5.6208">
        <ele>750</ele>
        <time>2017-11-21T23:07:56Z</time>
      </trkpt>
      <trkpt lat="44.85095" lon="5.62084">
        <ele>749</ele>
        <time>2017-11-21T23:08:14Z</time>
      </trkpt>
      <trkpt lat="44.85067" lon="5.62083">
        <ele>753</ele>
        <time>2017-11-21T23:08:31Z</time>
      </trkpt>
      <trkpt lat="44.85064" lon="5.62084">
        <ele>750</ele>
        <time>2017-11-21T23:08:47Z</time>
      </trkpt>
      <trkpt lat="44.85053" lon="5.6208">
        <ele>755</ele>
        <time>2017-11-21T23:08:51Z</time>
      </trkpt>
      <trkpt lat="44.85024" lon="5.62071">
        <ele>755</ele>
        <time>2017-11-21T23:09:02Z</time>
      </trkpt>
      <trkpt lat="44.84996" lon="5.62057">
        <ele>753</ele>
        <time>2017-11-21T23:09:10Z</time>
      </trkpt>
      <trkpt lat="44.84966" lon="5.62036">
        <ele>752</ele>
        <time>2017-11-21T23:09:16Z</time>
      </trkpt>
      <trkpt lat="44.84951" lon="5.62025">
        <ele>751</ele>
        <time>2017-11-21T23:09:34Z</time>
      </trkpt>
      <trkpt lat="44.84938" lon="5.62011">
        <ele>751</ele>
        <time>2017-11-21T23:09:41Z</time>
      </trkpt>
      <trkpt lat="44.84909" lon="5.61975">
        <ele>748</ele>
        <time>2017-11-21T23:09:56Z</time>
      </trkpt>
      <trkpt lat="44.84858" lon="5.61903">
        <ele>753</ele>
        <time>2017-11-21T23:10:01Z</time>
      </trkpt>
      <trkpt lat="44.8484" lon="5.61882">
        <ele>754</ele>
        <time>2017-11-21T23:10:06Z</time>
      </trkpt>
      <trkpt lat="44.84817" lon="5.61864">
        <ele>747</ele>
        <time>2017-11-21T23:10:09Z</time>
      </trkpt>
      <trkpt lat="44.84791" lon="5.6185">
        <ele>746</ele>
        <time>2017-11-21T23:10:28Z</time>
      </trkpt>
      <trkpt lat="44.84764" lon="5.61842">
        <ele>746</ele>
        <time>2017-11-21T23:10:43Z</time>
      </trkpt>
      <trkpt lat="44.84735" lon="5.61839">
        <ele>747</ele>
        <time>2017-11-21T23:10:56Z</time>
      </trkpt>
      <trkpt lat="44.84725" lon="5.61839">
        <ele>747</ele>
        <time>2017-11-21T23:11:04Z</time>
      </trkpt>
      <trkpt lat="44.8471" lon="5.61843">
        <ele>748</ele>
        <time>2017-11-21T23:11:14Z</time>
      </trkpt>
      <trkpt lat="44.84682" lon="5.6185">
        <ele>752</ele>
        <time>2017-11-21T23:11:25Z</time>
      </trkpt>
      <trkpt lat="44.84651" lon="5.61856">
        <ele>754</ele>
        <time>2017-11-21T23:11:43Z</time>
      </trkpt>
      <trkpt lat="44.84622" lon="5.61855">
        <ele>753</ele>
        <time>2017-11-21T23:11:47Z</time>
      </trkpt>
      <trkpt lat="44.84594" lon="5.61849">
        <ele>756</ele>
        <time>2017-11-21T23:11:49Z</time>
      </trkpt>
      <trkpt lat="44.84565" lon="5.61838">
        <ele>753</ele>
        <time>2017-11-21T23:12:00Z</time>
      </trkpt>
      <trkpt lat="44.8455" lon="5.61829">
        <ele>764</ele>
        <time>2017-11-21T23:12:07Z</time>
      </trkpt>
      <trkpt lat="44.84538" lon="5.61818">
        <ele>763</ele>
        <time>2017-11-21T23:12:16Z</time>
      </trkpt>
      <trkpt lat="44.84519" lon="5.61802">
        <ele>763</ele>
        <time>2017-11-21T23:12:34Z</time>
      </trkpt>
      <trkpt lat="44.84498" lon="5.61783">
        <ele>756</ele>
        <time>2017-11-21T23:12:36Z</time>
      </trkpt>
      <trkpt lat="44.84469" lon="5.61759">
        <ele>757</ele>
        <time>2017-11-21T23:12:53Z</time>
      </trkpt>
      <trkpt lat="44.84456" lon="5.61751">
        <ele>756</ele>
        <time>2017-11-21T23:13:07Z</time>
      </trkpt>
      <trkpt lat="44.84433" lon="5.61742">
        <ele>765</ele>
        <time>2017-11-21T23:13:26Z</time>
      </trkpt>
      <trkpt lat="44.8441" lon="5.61739">
        <ele>762</ele>
        <time>2017-11-21T23:13:37Z</time>
      </trkpt>
      <trkpt lat="44.84402" lon="5.61738">
        <ele>764</ele>
        <time>2017-11-21T23:13:55Z</time>
      </trkpt>
      <trkpt lat="44.84392" lon="5.6174">
        <ele>766</ele>
        <time>2017-11-21T23:13:59Z</time>
      </trkpt>
      <trkpt lat="44.84376" lon="5.61745">
        <ele>767</ele>
        <time>2017-11-21T23:14:12Z</time>
      </trkpt>
      <trkpt lat="44.8436" lon="5.61756">
        <ele>756</ele>
        <time>2017-11-21T23:14:20Z</time>
      </trkpt>
      <trkpt lat="44.84314" lon="5.61789">
        <ele>760</ele>
        <time>2017-11-21T23:14:37Z</time>
      </trkpt>
      <trkpt lat="44.84286" lon="5.61806">
        <ele>759</ele>
        <time>2017-11-21T23:14:47Z</time>
      </trkpt>
      <trkpt lat="44.84262" lon="5.61814">
        <ele>759</ele>
        <time>2017-11-21T23:14:59Z</time>
      </trkpt>
      <trkpt lat="44.84237" lon="5.61816">
        <ele>760</ele>
        <time>2017-11-21T23:15:15Z</time>
      </trkpt>
      <trkpt lat="44.84215" lon="5.61812">
        <ele>760</ele>
        <time>2017-11-21T23:15:35Z</time>
      </trkpt>
      <trkpt lat="44.84195" lon="5.61803">
        <ele>759</ele>
        <time>2017-11-21T23:15:49Z</time>
      </trkpt>
      <trkpt lat="44.84176" lon="5.61788">
        <ele>761</ele>
        <time>2017-11-21T23:15:58Z</time>
      </trkpt>
      <trkpt lat="44.84157" lon="5.61769">
        <ele>753</ele>
        <time>2017-11-21T23:16:01Z</time>
      </trkpt>
      <trkpt lat="44.84138" lon="5.61739">
        <ele>761</ele>
        <time>2017-11-21T23:16:05Z</time>
      </trkpt>
      <trkpt lat="44.84099" lon="5.61663">
        <ele>765</ele>
        <time>2017-11-21T23:16:20Z</time>
      </trkpt>
      <trkpt lat="44.84069" lon="5.61606">
        <ele>757</ele>
        <time>2017-11-21T23:16:23Z</time>
      </trkpt>
      <trkpt lat="44.84059" lon="5.61583">
        <ele>765</ele>
        <time>2017-11-21T23:16:35Z</time>
      </trkpt>
      <trkpt lat="44.84045" lon="5.61537">
        <ele>762</ele>
        <time>2017-11-21T23:16:51Z</time>
      </trkpt>
      <trkpt lat="44.84036" lon="5.61495">
        <ele>766</ele>
        <time>2017-11-21T23:16:57Z</time>
      </trkpt>
      <trkpt lat="44.8403" lon="5.61429">
        <ele>766</ele>
        <time>2017-11-21T23:17:02Z</time>
      </trkpt>
      <trkpt lat="44.84023" lon="5.61373">
        <ele>768</ele>
        <time>2017-11-21T23:17:05Z</time>
      </trkpt>
      <trkpt lat="44.84016" lon="5.61336">
        <ele>766</ele>
        <time>2017-11-21T23:17:08Z</time>
      </trkpt>
      <trkpt lat="44.83988" lon="5.61248">
        <ele>764</ele>
        <time>2017-11-21T23:17:16Z</time>
      </trkpt>
      <trkpt lat="44.83962" lon="5.61196">
        <ele>763</ele>
        <time>2017-11-21T23:17:19Z</time>
      </trkpt>
      <trkpt lat="44.83946" lon="5.61168">
        <ele>763</ele>
        <time>2017-11-21T23:17:27Z</time>
      </trkpt>
      <trkpt lat="44.83933" lon="5.61151">
        <ele>768</ele>
        <time>2017-11-21T23:17:42Z</time>
      </trkpt>
      <trkpt lat="44.83854" lon="5.61052">
        <ele>774</ele>
        <time>2017-11-21T23:17:53Z</time>
      </trkpt>
      <trkpt lat="44.83811" lon="5.61">
        <ele>763</ele>
        <time>2017-11-21T23:18:06Z</time>
      </trkpt>
      <trkpt lat="44.83784" lon="5.60949">
        <ele>769</ele>
        <time>2017-11-21T23:18:23Z</time>
      </trkpt>
      <trkpt lat="44.83767" lon="5.60896">
        <ele>777</ele>
        <time>2017-11-21T23:18:40Z</time>
      </trkpt>
      <trkpt lat="44.83756" lon="5.60814">
        <ele>784</ele>
        <time>2017-11-21T23:19:00Z</time>
      </trkpt>
      <trkpt lat="44.83753" lon="5.60779">
        <ele>788</ele>
        <time>2017-11-21T23:19:04Z</time>
      </trkpt>
      <trkpt lat="44.83747" lon="5.60748">
        <ele>779</ele>
        <time>2017-11-21T23:19:07Z</time>
      </trkpt>
      <trkpt lat="44.83736" lon="5.60713">
        <ele>777</ele>
        <time>2017-11-21T23:19:12Z</time>
      </trkpt>
      <trkpt lat="44.83722" lon="5.60684">
        <ele>780</ele>
        <time>2017-11-21T23:19:28Z</time>
      </trkpt>
      <trkpt lat="44.83675" lon="5.60621">
        <ele>786</ele>
        <time>2017-11-21T23:19:39Z</time>
      </trkpt>
      <trkpt lat="44.83652" lon="5.60589">
        <ele>774</ele>
        <time>2017-11-21T23:19:43Z</time>
      </trkpt>
      <trkpt lat="44.83632" lon="5.60554">
        <ele>776</ele>
        <time>2017-11-21T23:19:53Z</time>
      </trkpt>
      <trkpt lat="44.83615" lon="5.60522">
        <ele>775</ele>
        <time>2017-11-21T23:20:11Z</time>
      </trkpt>
      <trkpt lat="44.83598" lon="5.60465">
        <ele>781</ele>
        <time>2017-11-21T23:20:19Z</time>
      </trkpt>
      <trkpt lat="44.83588" lon="5.60422">
        <ele>783</ele>
        <time>2017-11-21T23:20:32Z</time>
      </trkpt>
      <trkpt lat="44.83582" lon="5.60376">
        <ele>778</ele>
        <time>2017-11-21T23:20:49Z</time>
      </trkpt>
      <trkpt lat="44.83577" lon="5.60292">
        <ele>777</ele>
        <time>2017-11-21T23:21:00Z</time>
      </trkpt>
      <trkpt lat="44.83573" lon="5.60236">
        <ele>777</ele>
        <time>2017-11-21T23:21:18Z</time>
      </trkpt>
      <trkpt lat="44.83565" lon="5.60193">
        <ele>775</ele>
        <time>2017-11-21T23:21:37Z</time>
      </trkpt>
      <trkpt lat="44.83554" lon="5.60157">
        <ele>780</ele>
        <time>2017-11-21T23:21:46Z</time>
      </trkpt>
      <trkpt lat="44.8354" lon="5.60122">
        <ele>781</ele>
        <time>2017-11-21T23:21:49Z</time>
      </trkpt>
      <trkpt lat="44.83526" lon="5.60095">
        <ele>781</ele>
        <time>2017-11-21T23:21:57Z</time>
      </trkpt>
      <trkpt lat="44.83501" lon="5.60059">
        <ele>793</ele>
        <time>2017-11-21T23:22:08Z</time>
      </trkpt>
      <trkpt lat="44.83454" lon="5.60001">
        <ele>781</ele>
        <time>2017-11-21T23:22:25Z</time>
      </trkpt>
      <trkpt lat="44.83433" lon="5.59973">
        <ele>793</ele>
        <time>2017-11-21T23:22:28Z</time>
      </trkpt>
      <trkpt lat="44.83416" lon="5.59947">
        <ele>783</ele>
        <time>2017-11-21T23:22:44Z</time>
      </trkpt>
      <trkpt lat="44.83379" lon="5.59886">
        <ele>795</ele>
        <time>2017-11-21T23:23:02Z</time>
      </trkpt>
      <trkpt lat="44.83357" lon="5.5986">
        <ele>795</ele>
        <time>2017-11-21T23:23:08Z</time>
      </trkpt>
      <trkpt lat="44.83335" lon="5.59842">
        <ele>794</ele>
        <time>2017-11-21T23:23:12Z</time>
      </trkpt>
      <trkpt lat="44.83312" lon="5.59822">
        <ele>795</ele>
        <time>2017-11-21T23:23:21Z</time>
      </trkpt>
      <trkpt lat="44.83288" lon="5.59796">
        <ele>795</ele>
        <time>2017-11-21T23:23:34Z</time>
      </trkpt>
      <trkpt lat="44.83268" lon="5.59776">
        <ele>795</ele>
        <time>2017-11-21T23:23:39Z</time>
      </trkpt>
      <trkpt lat="44.83261" lon="5.59771">
        <ele>795</ele>
        <time>2017-11-21T23:23:56Z</time>
      </trkpt>
      <trkpt lat="44.83251" lon="5.59768">
        <ele>794</ele>
        <time>2017-11-21T23:24:08Z</time>
      </trkpt>
      <trkpt lat="44.83233" lon="5.59768">
        <ele>793</ele>
        <time>2017-11-21T23:24:14Z</time>
      </trkpt>
      <trkpt lat="44.83215" lon="5.59774">
        <ele>793</ele>
        <time>2017-11-21T23:24:22Z</time>
      </trkpt>
      <trkpt lat="44.83201" lon="5.59785">
        <ele>794</ele>
        <time>2017-11-21T23:24:34Z</time>
      </trkpt>
      <trkpt lat="44.83195" lon="5.59793">
        <ele>795</ele>
        <time>2017-11-21T23:24:47Z</time>
      </trkpt>
      <trkpt lat="44.83184" lon="5.59813">
        <ele>796</ele>
        <time>2017-11-21T23:24:58Z</time>
      </trkpt>
      <trkpt lat="44.83179" lon="5.59835">
        <ele>800</ele>
        <time>2017-11-21T23:25:12Z</time>
      </trkpt>
      <trkpt lat="44.83177" lon="5.59858">
        <ele>798</ele>
        <time>2017-11-21T23:25:28Z</time>
      </trkpt>
      <trkpt lat="44.8318" lon="5.59881">
        <ele>799</ele>
        <time>2017-11-21T23:25:41Z</time>
      </trkpt>
      <trkpt lat="44.83186" lon="5.59903">
        <ele>801</ele>
        <time>2017-11-21T23:25:50Z</time>
      </trkpt>
      <trkpt lat="44.83203" lon="5.59935">
        <ele>803</ele>
        <time>2017-11-21T23:26:03Z</time>
      </trkpt>
      <trkpt lat="44.83221" lon="5.59961">
        <ele>802</ele>
        <time>2017-11-21T23:26:21Z</time>
      </trkpt>
      <trkpt lat="44.83259" lon="5.59994">
        <ele>796</ele>
        <time>2017-11-21T23:26:24Z</time>
      </trkpt>
      <trkpt lat="44.83274" lon="5.60014">
        <ele>798</ele>
        <time>2017-11-21T23:26:30Z</time>
      </trkpt>
      <trkpt lat="44.83285" lon="5.60042">
        <ele>797</ele>
        <time>2017-11-21T23:26:43Z</time>
      </trkpt>
      <trkpt lat="44.83298" lon="5.60096">
        <ele>802</ele>
        <time>2017-11-21T23:27:03Z</time>
      </trkpt>
      <trkpt lat="44.83304" lon="5.60127">
        <ele>803</ele>
        <time>2017-11-21T23:27:08Z</time>
      </trkpt>
      <trkpt lat="44.83305" lon="5.60156">
        <ele>803</ele>
        <time>2017-11-21T23:27:26Z</time>
      </trkpt>
      <trkpt lat="44.83302" lon="5.60192">
        <ele>807</ele>
        <time>2017-11-21T23:27:43Z</time>
      </trkpt>
      <trkpt lat="44.83296" lon="5.60234">
        <ele>809</ele>
        <time>2017-11-21T23:27:48Z</time>
      </trkpt>
      <trkpt lat="44.83293" lon="5.60248">
        <ele>809</ele>
        <time>2017-11-21T23:27:52Z</time>
      </trkpt>
      <trkpt lat="44.83284" lon="5.60282">
        <ele>809</ele>
        <time>2017-11-21T23:27:57Z</time>
      </trkpt>
      <trkpt lat="44.83251" lon="5.6037">
        <ele>808</ele>
        <time>2017-11-21T23:28:03Z</time>
      </trkpt>
      <trkpt lat="44.83243" lon="5.60404">
        <ele>824</ele>
        <time>2017-11-21T23:28:13Z</time>
      </trkpt>
      <trkpt lat="44.83236" lon="5.60441">
        <ele>824</ele>
        <time>2017-11-21T23:28:31Z</time>
      </trkpt>
      <trkpt lat="44.83234" lon="5.60515">
        <ele>822</ele>
        <time>2017-11-21T23:28:49Z</time>
      </trkpt>
      <trkpt lat="44.83236" lon="5.60557">
        <ele>823</ele>
        <time>2017-11-21T23:29:01Z</time>
      </trkpt>
      <trkpt lat="44.83232" lon="5.60669">
        <ele>824</ele>
        <time>2017-11-21T23:29:21Z</time>
      </trkpt>
      <trkpt lat="44.83226" lon="5.60693">
        <ele>825</ele>
        <time>2017-11-21T23:29:24Z</time>
      </trkpt>
      <trkpt lat="44.8322" lon="5.60704">
        <ele>826</ele>
        <time>2017-11-21T23:29:31Z</time>
      </trkpt>
      <trkpt lat="44.83208" lon="5.60716">
        <ele>827</ele>
        <time>2017-11-21T23:29:40Z</time>
      </trkpt>
      <trkpt lat="44.83193" lon="5.60727">
        <ele>827</ele>
        <time>2017-11-21T23:29:45Z</time>
      </trkpt>
      <trkpt lat="44.83166" lon="5.60731">
        <ele>830</ele>
        <time>2017-11-21T23:29:49Z</time>
      </trkpt>
      <trkpt lat="44.83111" lon="5.60723">
        <ele>831</ele>
        <time>2017-11-21T23:30:03Z</time>
      </trkpt>
      <trkpt lat="44.83045" lon="5.60717">
        <ele>831</ele>
        <time>2017-11-21T23:30:16Z</time>
      </trkpt>
      <trkpt lat="44.83014" lon="5.60721">
        <ele>831</ele>
        <time>2017-11-21T23:30:25Z</time>
      </trkpt>
      <trkpt lat="44.82998" lon="5.60724">
        <ele>829</ele>
        <time>2017-11-21T23:30:34Z</time>
      </trkpt>
      <trkpt lat="44.82964" lon="5.60733">
        <ele>829</ele>
        <time>2017-11-21T23:30:41Z</time>
      </trkpt>
      <trkpt lat="44.82927" lon="5.6075">
        <ele>828</ele>
        <time>2017-11-21T23:30:47Z</time>
      </trkpt>
      <trkpt lat="44.82902" lon="5.60765">
        <ele>825</ele>
        <time>2017-11-21T23:31:01Z</time>
      </trkpt>
      <trkpt lat="44.82878" lon="5.60783">
        <ele>824</ele>
        <time>2017-11-21T23:31:08Z</time>
      </trkpt>
      <trkpt lat="44.82857" lon="5.608">
        <ele>824</ele>
        <time>2017-11-21T23:31:10Z</time>
      </trkpt>
      <trkpt lat="44.82835" lon="5.60823">
        <ele>822</ele>
        <time>2017-11-21T23:31:13Z</time>
      </trkpt>
      <trkpt lat="44.82822" lon="5.60838">
        <ele>820</ele>
        <time>2017-11-21T23:31:22Z</time>
      </trkpt>
      <trkpt lat="44.82809" lon="5.60851">
        <ele>820</ele>
        <time>2017-11-21T23:31:42Z</time>
      </trkpt>
      <trkpt lat="44.82777" lon="5.60903">
        <ele>820</ele>
        <time>2017-11-21T23:31:51Z</time>
      </trkpt>
      <trkpt lat="44.8276" lon="5.60932">
        <ele>819</ele>
        <time>2017-11-21T23:31:59Z</time>
      </trkpt>
      <trkpt lat="44.82731" lon="5.60999">
        <ele>823</ele>
        <time>2017-11-21T23:32:14Z</time>
      </trkpt>
      <trkpt lat="44.82722" lon="5.61029">
        <ele>825</ele>
        <time>2017-11-21T23:32:17Z</time>
      </trkpt>
      <trkpt lat="44.82718" lon="5.61046">
        <ele>826</ele>
        <time>2017-11-21T23:32:31Z</time>
      </trkpt>
      <trkpt lat="44.82707" lon="5.61104">
        <ele>830</ele>
        <time>2017-11-21T23:32:46Z</time>
      </trkpt>
      <trkpt lat="44.8267" lon="5.61296">
        <ele>828</ele>
        <time>2017-11-21T23:32:55Z</time>
      </trkpt>
      <trkpt lat="44.82665" lon="5.61315">
        <ele>833</ele>
        <time>2017-11-21T23:33:11Z</time>
      </trkpt>
      <trkpt lat="44.82651" lon="5.61356">
        <ele>830</ele>
        <time>2017-11-21T23:33:26Z</time>
      </trkpt>
      <trkpt lat="44.82624" lon="5.61415">
        <ele>830</ele>
        <time>2017-11-21T23:33:38Z</time>
      </trkpt>
      <trkpt lat="44.826" lon="5.61457">
        <ele>826</ele>
        <time>2017-11-21T23:33:55Z</time>
      </trkpt>
      <trkpt lat="44.82583" lon="5.61481">
        <ele>829</ele>
        <time>2017-11-21T23:34:06Z</time>
      </trkpt>
      <trkpt lat="44.82527" lon="5.61547">
        <ele>825</ele>
        <time>2017-11-21T23:34:11Z</time>
      </trkpt>
      <trkpt lat="44.82484" lon="5.61594">
        <ele>826</ele>
        <time>2017-11-21T23:34:17Z</time>
      </trkpt>
      <trkpt lat="44.82467" lon="5.61617">
        <ele>826</ele>
        <time>2017-11-21T23:34:34Z</time>
      </trkpt>
      <trkpt lat="44.82438" lon="5.6166">
        <ele>826</ele>
        <time>2017-11-21T23:34:44Z</time>
      </trkpt>
      <trkpt lat="44.82419" lon="5.61692">
        <ele>822</ele>
        <time>2017-11-21T23:35:00Z</time>
      </trkpt>
      <trkpt lat="44.82397" lon="5.61741">
        <ele>823</ele>
        <time>2017-11-21T23:35:06Z</time>
      </trkpt>
      <trkpt lat="44.82382" lon="5.61778">
        <ele>821</ele>
        <time>2017-11-21T23:35:19Z</time>
      </trkpt>
      <trkpt lat="44.82362" lon="5.61836">
        <ele>821</ele>
        <time>2017-11-21T23:35:26Z</time>
      </trkpt>
      <trkpt lat="44.82332" lon="5.61956">
        <ele>828</ele>
        <time>2017-11-21T23:35:32Z</time>
      </trkpt>
      <trkpt lat="44.82294" lon="5.62113">
        <ele>825</ele>
        <time>2017-11-21T23:35:41Z</time>
      </trkpt>
      <trkpt lat="44.82267" lon="5.62211">
        <ele>822</ele>
        <time>2017-11-21T23:35:44Z</time>
      </trkpt>
      <trkpt lat="44.82249" lon="5.6226">
        <ele>826</ele>
        <time>2017-11-21T23:35:56Z</time>
      </trkpt>
      <trkpt lat="44.82212" lon="5.62336">
        <ele>824</ele>
        <time>2017-11-21T23:36:13Z</time>
      </trkpt>
      <trkpt lat="44.82171" lon="5.62416">
        <ele>823</ele>
        <time>2017-11-21T23:36:20Z</time>
      </trkpt>
      <trkpt lat="44.82153" lon="5.62443">
        <ele>824</ele>
        <time>2017-11-21T23:36:28Z</time>
      </trkpt>
      <trkpt lat="44.82135" lon="5.62466">
        <ele>824</ele>
        <time>2017-11-21T23:36:37Z</time>
      </trkpt>
      <trkpt lat="44.82104" lon="5.62496">
        <ele>825</ele>
        <time>2017-11-21T23:36:45Z</time>
      </trkpt>
      <trkpt lat="44.82087" lon="5.6251">
        <ele>822</ele>
        <time>2017-11-21T23:36:57Z</time>
      </trkpt>
      <trkpt lat="44.82058" lon="5.62531">
        <ele>823</ele>
        <time>2017-11-21T23:37:02Z</time>
      </trkpt>
      <trkpt lat="44.82031" lon="5.62548">
        <ele>822</ele>
        <time>2017-11-21T23:37:07Z</time>
      </trkpt>
      <trkpt lat="44.81984" lon="5.62577">
        <ele>821</ele>
        <time>2017-11-21T23:37:26Z</time>
      </trkpt>
      <trkpt lat="44.81954" lon="5.626">
        <ele>817</ele>
        <time>2017-11-21T23:37:42Z</time>
      </trkpt>
      <trkpt lat="44.81939" lon="5.62613">
        <ele>817</ele>
        <time>2017-11-21T23:37:58Z</time>
      </trkpt>
      <trkpt lat="44.81911" lon="5.62649">
        <ele>818</ele>
        <time>2017-11-21T23:38:17Z</time>
      </trkpt>
      <trkpt lat="44.81882" lon="5.62698">
        <ele>819</ele>
        <time>2017-11-21T23:38:29Z</time>
      </trkpt>
      <trkpt lat="44.81842" lon="5.62791">
        <ele>821</ele>
        <time>2017-11-21T23:38:49Z</time>
      </trkpt>
      <trkpt lat="44.81826" lon="5.62829">
        <ele>825</ele>
        <time>2017-11-21T23:39:05Z</time>
      </trkpt>
      <trkpt lat="44.81806" lon="5.62871">
        <ele>824</ele>
        <time>2017-11-21T23:39:09Z</time>
      </trkpt>
      <trkpt lat="44.81783" lon="5.62911">
        <ele>824</ele>
        <time>2017-11-21T23:39:16Z</time>
      </trkpt>
      <trkpt lat="44.81768" lon="5.62928">
        <ele>822</ele>
        <time>2017-11-21T23:39:25Z</time>
      </trkpt>
      <trkpt lat="44.81748" lon="5.62953">
        <ele>825</ele>
        <time>2017-11-21T23:39:42Z</time>
      </trkpt>
      <trkpt lat="44.81732" lon="5.62967">
        <ele>824</ele>
        <time>2017-11-21T23:40:01Z</time>
      </trkpt>
      <trkpt lat="44.81707" lon="5.62985">
        <ele>824</ele>
        <time>2017-11-21T23:40:15Z</time>
      </trkpt>
      <trkpt lat="44.81712" lon="5.62999">
        <ele>824</ele>
        <time>2017-11-21T23:40:28Z</time>
      </trkpt>
      <trkpt lat="44.81711" lon="5.63016">
        <ele>821</ele>
        <time>2017-11-21T23:40:46Z</time>
      </trkpt>
      <trkpt lat="44.81709" lon="5.63024">
        <ele>820</ele>
        <time>2017-11-21T23:40:49Z</time>
      </trkpt>
      <trkpt lat="44.81698" lon="5.63032">
        <ele>820</ele>
        <time>2017-11-21T23:41:06Z</time>
      </trkpt>
      <trkpt lat="44.81686" lon="5.63036">
        <ele>821</ele>
        <time>2017-11-21T23:41:18Z</time>
      </trkpt>
      <trkpt lat="44.81666" lon="5.63037">
        <ele>822</ele>
        <time>2017-11-21T23:41:29Z</time>
      </trkpt>
      <trkpt lat="44.81654" lon="5.63037">
        <ele>822</ele>
        <time>2017-11-21T23:41:32Z</time>
      </trkpt>
      <trkpt lat="44.81636" lon="5.63041">
        <ele>822</ele>
        <time>2017-11-21T23:41:41Z</time>
      </trkpt>
      <trkpt lat="44.81628" lon="5.63045">
        <ele>821</ele>
        <time>2017-11-21T23:42:00Z</time>
      </trkpt>
      <trkpt lat="44.81594" lon="5.63075">
        <ele>818</ele>
        <time>2017-11-21T23:42:04Z</time>
      </trkpt>
      <trkpt lat="44.81577" lon="5.6309">
        <ele>815</ele>
        <time>2017-11-21T23:42:21Z</time>
      </trkpt>
      <trkpt lat="44.81567" lon="5.63103">
        <ele>815</ele>
        <time>2017-11-21T23:42:25Z</time>
      </trkpt>
      <trkpt lat="44.81559" lon="5.63115">
        <ele>814</ele>
        <time>2017-11-21T23:42:29Z</time>
      </trkpt>
      <trkpt lat="44.8153" lon="5.63159">
        <ele>813</ele>
        <time>2017-11-21T23:42:43Z</time>
      </trkpt>
      <trkpt lat="44.81521" lon="5.63166">
        <ele>812</ele>
        <time>2017-11-21T23:42:53Z</time>
      </trkpt>
      <trkpt lat="44.81509" lon="5.63168">
        <ele>810</ele>
        <time>2017-11-21T23:43:04Z</time>
      </trkpt>
      <trkpt lat="44.81503" lon="5.63166">
        <ele>811</ele>
        <time>2017-11-21T23:43:16Z</time>
      </trkpt>
      <trkpt lat="44.8149" lon="5.63158">
        <ele>811</ele>
        <time>2017-11-21T23:43:30Z</time>
      </trkpt>
      <trkpt lat="44.81466" lon="5.63147">
        <ele>810</ele>
        <time>2017-11-21T23:43:33Z</time>
      </trkpt>
      <trkpt lat="44.81453" lon="5.63146">
        <ele>809</ele>
        <time>2017-11-21T23:43:49Z</time>
      </trkpt>
      <trkpt lat="44.8144" lon="5.63149">
        <ele>808</ele>
        <time>2017-11-21T23:43:55Z</time>
      </trkpt>
      <trkpt lat="44.81424" lon="5.63151">
        <ele>806</ele>
        <time>2017-11-21T23:44:02Z</time>
      </trkpt>
      <trkpt lat="44.81412" lon="5.63147">
        <ele>801</ele>
        <time>2017-11-21T23:44:12Z</time>
      </trkpt>
      <trkpt lat="44.81362" lon="5.63096">
        <ele>801</ele>
        <time>2017-11-21T23:44:17Z</time>
      </trkpt>
      <trkpt lat="44.81353" lon="5.63086">
        <ele>801</ele>
        <time>2017-11-21T23:44:32Z</time>
      </trkpt>
      <trkpt lat="44.81346" lon="5.63084">
        <ele>800</ele>
        <time>2017-11-21T23:44:52Z</time>
      </trkpt>
      <trkpt lat="44.8134" lon="5.63086">
        <ele>800</ele>
        <time>2017-11-21T23:45:12Z</time>
      </trkpt>
      <trkpt lat="44.81336" lon="5.63092">
        <ele>800</ele>
        <time>2017-11-21T23:45:26Z</time>
      </trkpt>
      <trkpt lat="44.81336" lon="5.631">
        <ele>800</ele>
        <time>2017-11-21T23:45:39Z</time>
      </trkpt>
      <trkpt lat="44.81339" lon="5.63108">
        <ele>800</ele>
        <time>2017-11-21T23:45:56Z</time>
      </trkpt>
      <trkpt lat="44.81358" lon="5.63134">
        <ele>799</ele>
        <time>2017-11-21T23:45:59Z</time>
      </trkpt>
      <trkpt lat="44.81368" lon="5.63161">
        <ele>798</ele>
        <time>2017-11-21T23:46:08Z</time>
      </trkpt>
      <trkpt lat="44.81376" lon="5.63197">
        <ele>792</ele>
        <time>2017-11-21T23:46:21Z</time>
      </trkpt>
      <trkpt lat="44.81386" lon="5.63229">
        <ele>792</ele>
        <time>2017-11-21T23:46:37Z</time>
      </trkpt>
      <trkpt lat="44.81389" lon="5.63241">
        <ele>792</ele>
        <time>2017-11-21T23:46:46Z</time>
      </trkpt>
      <trkpt lat="44.8139" lon="5.63256">
        <ele>787</ele>
        <time>2017-11-21T23:47:06Z</time>
      </trkpt>
      <trkpt lat="44.81389" lon="5.63268">
        <ele>787</ele>
        <time>2017-11-21T23:47:12Z</time>
      </trkpt>
      <trkpt lat="44.81385" lon="5.6328">
        <ele>786</ele>
        <time>2017-11-21T23:47:27Z</time>
      </trkpt>
      <trkpt lat="44.81378" lon="5.63289">
        <ele>785</ele>
        <time>2017-11-21T23:47:44Z</time>
      </trkpt>
      <trkpt lat="44.81373" lon="5.63291">
        <ele>784</ele>
        <time>2017-11-21T23:47:52Z</time>
      </trkpt>
      <trkpt lat="44.81348" lon="5.633">
        <ele>782</ele>
        <time>2017-11-21T23:48:00Z</time>
      </trkpt>
      <trkpt lat="44.81312" lon="5.63324">
        <ele>777</ele>
        <time>2017-11-21T23:48:10Z</time>
      </trkpt>
      <trkpt lat="44.81268" lon="5.63361">
        <ele>771</ele>
        <time>2017-11-21T23:48:20Z</time>
      </trkpt>
      <trkpt lat="44.8123" lon="5.63399">
        <ele>767</ele>
        <time>2017-11-21T23:48:35Z</time>
      </trkpt>
      <trkpt lat="44.81218" lon="5.63408">
        <ele>767</ele>
        <time>2017-11-21T23:48:48Z</time>
      </trkpt>
      <trkpt lat="44.81203" lon="5.63415">
        <ele>766</ele>
        <time>2017-11-21T23:48:57Z</time>
      </trkpt>
      <trkpt lat="44.81191" lon="5.63423">
        <ele>763</ele>
        <time>2017-11-21T23:48:59Z</time>
      </trkpt>
      <trkpt lat="44.81153" lon="5.63461">
        <ele>760</ele>
        <time>2017-11-21T23:49:16Z</time>
      </trkpt>
      <trkpt lat="44.81102" lon="5.63516">
        <ele>758</ele>
        <time>2017-11-21T23:49:30Z</time>
      </trkpt>
      <trkpt lat="44.81086" lon="5.63538">
        <ele>757</ele>
        <time>2017-11-21T23:49:39Z</time>
      </trkpt>
      <trkpt lat="44.81083" lon="5.63546">
        <ele>760</ele>
        <time>2017-11-21T23:49:48Z</time>
      </trkpt>
      <trkpt lat="44.81078" lon="5.63575">
        <ele>758</ele>
        <time>2017-11-21T23:49:52Z</time>
      </trkpt>
      <trkpt lat="44.81073" lon="5.63662">
        <ele>758</ele>
        <time>2017-11-21T23:49:58Z</time>
      </trkpt>
      <trkpt lat="44.8107" lon="5.6369">
        <ele>758</ele>
        <time>2017-11-21T23:50:08Z</time>
      </trkpt>
      <trkpt lat="44.81066" lon="5.63715">
        <ele>758</ele>
        <time>2017-11-21T23:50:14Z</time>
      </trkpt>
      <trkpt lat="44.81055" lon="5.63742">
        <ele>758</ele>
        <time>2017-11-21T23:50:24Z</time>
      </trkpt>
      <trkpt lat="44.81029" lon="5.63788">
        <ele>757</ele>
        <time>2017-11-21T23:50:40Z</time>
      </trkpt>
      <trkpt lat="44.81007" lon="5.63818">
        <ele>756</ele>
        <time>2017-11-21T23:50:52Z</time>
      </trkpt>
      <trkpt lat="44.80996" lon="5.63828">
        <ele>757</ele>
        <time>2017-11-21T23:51:05Z</time>
      </trkpt>
      <trkpt lat="44.8099" lon="5.63832">
        <ele>758</ele>
        <time>2017-11-21T23:51:18Z</time>
      </trkpt>
      <trkpt lat="44.8096" lon="5.63842">
        <ele>758</ele>
        <time>2017-11-21T23:51:21Z</time>
      </trkpt>
      <trkpt lat="44.80948" lon="5.63849">
        <ele>759</ele>
        <time>2017-11-21T23:51:30Z</time>
      </trkpt>
      <trkpt lat="44.80942" lon="5.63858">
        <ele>759</ele>
        <time>2017-11-21T23:51:49Z</time>
      </trkpt>
      <trkpt lat="44.8094" lon="5.63864">
        <ele>759</ele>
        <time>2017-11-21T23:51:53Z</time>
      </trkpt>
      <trkpt lat="44.80939" lon="5.63877">
        <ele>759</ele>
        <time>2017-11-21T23:52:01Z</time>
      </trkpt>
      <trkpt lat="44.80946" lon="5.63961">
        <ele>757</ele>
        <time>2017-11-21T23:52:06Z</time>
      </trkpt>
      <trkpt lat="44.80944" lon="5.63979">
        <ele>758</ele>
        <time>2017-11-21T23:52:18Z</time>
      </trkpt>
      <trkpt lat="44.80937" lon="5.63998">
        <ele>759</ele>
        <time>2017-11-21T23:52:23Z</time>
      </trkpt>
      <trkpt lat="44.80926" lon="5.6401">
        <ele>759</ele>
        <time>2017-11-21T23:52:42Z</time>
      </trkpt>
      <trkpt lat="44.80916" lon="5.64018">
        <ele>764</ele>
        <time>2017-11-21T23:52:47Z</time>
      </trkpt>
      <trkpt lat="44.80887" lon="5.64035">
        <ele>764</ele>
        <time>2017-11-21T23:52:51Z</time>
      </trkpt>
      <trkpt lat="44.80874" lon="5.64048">
        <ele>765</ele>
        <time>2017-11-21T23:52:57Z</time>
      </trkpt>
      <trkpt lat="44.80856" lon="5.64075">
        <ele>766</ele>
        <time>2017-11-21T23:53:02Z</time>
      </trkpt>
      <trkpt lat="44.80831" lon="5.64128">
        <ele>771</ele>
        <time>2017-11-21T23:53:04Z</time>
      </trkpt>
      <trkpt lat="44.80785" lon="5.64245">
        <ele>769</ele>
        <time>2017-11-21T23:53:23Z</time>
      </trkpt>
      <trkpt lat="44.80779" lon="5.64276">
        <ele>768</ele>
        <time>2017-11-21T23:53:30Z</time>
      </trkpt>
      <trkpt lat="44.80775" lon="5.64325">
        <ele>769</ele>
        <time>2017-11-21T23:53:32Z</time>
      </trkpt>
      <trkpt lat="44.80771" lon="5.64371">
        <ele>765</ele>
        <time>2017-11-21T23:53:34Z</time>
      </trkpt>
      <trkpt lat="44.80767" lon="5.64387">
        <ele>764</ele>
        <time>2017-11-21T23:53:38Z</time>
      </trkpt>
      <trkpt lat="44.80765" lon="5.64391">
        <ele>764</ele>
        <time>2017-11-21T23:53:44Z</time>
      </trkpt>
      <trkpt lat="44.80758" lon="5.64397">
        <ele>764</ele>
        <time>2017-11-21T23:53:53Z</time>
      </trkpt>
      <trkpt lat="44.80748" lon="5.64396">
        <ele>763</ele>
        <time>2017-11-21T23:53:58Z</time>
      </trkpt>
      <trkpt lat="44.80738" lon="5.64391">
        <ele>764</ele>
        <time>2017-11-21T23:54:13Z</time>
      </trkpt>
      <trkpt lat="44.80714" lon="5.64374">
        <ele>764</ele>
        <time>2017-11-21T23:54:26Z</time>
      </trkpt>
      <trkpt lat="44.80683" lon="5.64366">
        <ele>765</ele>
        <time>2017-11-21T23:54:33Z</time>
      </trkpt>
      <trkpt lat="44.80634" lon="5.64356">
        <ele>760</ele>
        <time>2017-11-21T23:54:41Z</time>
      </trkpt>
      <trkpt lat="44.80608" lon="5.64347">
        <ele>758</ele>
        <time>2017-11-21T23:54:57Z</time>
      </trkpt>
      <trkpt lat="44.80559" lon="5.64324">
        <ele>759</ele>
        <time>2017-11-21T23:55:03Z</time>
      </trkpt>
      <trkpt lat="44.80543" lon="5.64317">
        <ele>759</ele>
        <time>2017-11-21T23:55:20Z</time>
      </trkpt>
      <trkpt lat="44.80531" lon="5.64314">
        <ele>758</ele>
        <time>2017-11-21T23:55:24Z</time>
      </trkpt>
      <trkpt lat="44.80501" lon="5.64314">
        <ele>756</ele>
        <time>2017-11-21T23:55:29Z</time>
      </trkpt>
      <trkpt lat="44.80446" lon="5.64324">
        <ele>757</ele>
        <time>2017-11-21T23:55:39Z</time>
      </trkpt>
      <trkpt lat="44.80397" lon="5.6434">
        <ele>758</ele>
        <time>2017-11-21T23:55:50Z</time>
      </trkpt>
      <trkpt lat="44.8039" lon="5.64342">
        <ele>759</ele>
        <time>2017-11-21T23:55:53Z</time>
      </trkpt>
      <trkpt lat="44.80376" lon="5.64339">
        <ele>759</ele>
        <time>2017-11-21T23:56:01Z</time>
      </trkpt>
      <trkpt lat="44.80337" lon="5.64323">
        <ele>763</ele>
        <time>2017-11-21T23:56:20Z</time>
      </trkpt>
      <trkpt lat="44.80326" lon="5.64321">
        <ele>765</ele>
        <time>2017-11-21T23:56:40Z</time>
      </trkpt>
      <trkpt lat="44.80264" lon="5.64324">
        <ele>768</ele>
        <time>2017-11-21T23:56:54Z</time>
      </trkpt>
      <trkpt lat="44.80248" lon="5.6432">
        <ele>770</ele>
        <time>2017-11-21T23:57:03Z</time>
      </trkpt>
      <trkpt lat="44.80201" lon="5.64296">
        <ele>772</ele>
        <time>2017-11-21T23:57:18Z</time>
      </trkpt>
      <trkpt lat="44.80184" lon="5.64289">
        <ele>772</ele>
        <time>2017-11-21T23:57:27Z</time>
      </trkpt>
      <trkpt lat="44.8017" lon="5.64288">
        <ele>772</ele>
        <time>2017-11-21T23:57:30Z</time>
      </trkpt>
      <trkpt lat="44.80161" lon="5.64294">
        <ele>773</ele>
        <time>2017-11-21T23:57:32Z</time>
      </trkpt>
      <trkpt lat="44.80143" lon="5.64319">
        <ele>772</ele>
        <time>2017-11-21T23:57:38Z</time>
      </trkpt>
      <trkpt lat="44.80128" lon="5.64357">
        <ele>772</ele>
        <time>2017-11-21T23:57:46Z</time>
      </trkpt>
      <trkpt lat="44.80118" lon="5.64391">
        <ele>772</ele>
        <time>2017-11-21T23:58:02Z</time>
      </trkpt>
      <trkpt lat="44.80108" lon="5.64413">
        <ele>773</ele>
        <time>2017-11-21T23:58:14Z</time>
      </trkpt>
      <trkpt lat="44.80062" lon="5.64494">
        <ele>779</ele>
        <time>2017-11-21T23:58:27Z</time>
      </trkpt>
      <trkpt lat="44.80034" lon="5.64558">
        <ele>781</ele>
        <time>2017-11-21T23:58:31Z</time>
      </trkpt>
      <trkpt lat="44.80024" lon="5.64577">
        <ele>782</ele>
        <time>2017-11-21T23:58:42Z</time>
      </trkpt>
      <trkpt lat="44.80017" lon="5.64585">
        <ele>783</ele>
        <time>2017-11-21T23:58:55Z</time>
      </trkpt>
      <trkpt lat="44.79989" lon="5.64598">
        <ele>782</ele>
        <time>2017-11-21T23:58:58Z</time>
      </trkpt>
      <trkpt lat="44.79977" lon="5.64602">
        <ele>782</ele>
        <time>2017-11-21T23:59:05Z</time>
      </trkpt>
      <trkpt lat="44.79951" lon="5.64603">
        <ele>781</ele>
        <time>2017-11-21T23:59:08Z</time>
      </trkpt>
      <trkpt lat="44.79903" lon="5.64595">
        <ele>778</ele>
        <time>2017-11-21T23:59:19Z</time>
      </trkpt>
      <trkpt lat="44.79876" lon="5.64591">
        <ele>776</ele>
        <time>2017-11-21T23:59:31Z</time>
      </trkpt>
      <trkpt lat="44.7986" lon="5.64582">
        <ele>782</ele>
        <time>2017-11-21T23:59:33Z</time>
      </trkpt>
      <trkpt lat="44.79843" lon="5.64568">
        <ele>781</ele>
        <time>2017-11-21T23:59:39Z</time>
      </trkpt>
      <trkpt lat="44.79828" lon="5.64548">
        <ele>774</ele>
        <time>2017-11-21T23:59:55Z</time>
      </trkpt>
      <trkpt lat="44.79815" lon="5.64518">
        <ele>776</ele>
        <time>2017-11-22T00:00:11Z</time>
      </trkpt>
      <trkpt lat="44.79808" lon="5.64497">
        <ele>780</ele>
        <time>2017-11-22T00:00:23Z</time>
      </trkpt>
      <trkpt lat="44.79801" lon="5.64434">
        <ele>779</ele>
        <time>2017-11-22T00:00:31Z</time>
      </trkpt>
      <trkpt lat="44.79793" lon="5.64398">
        <ele>779</ele>
        <time>2017-11-22T00:00:51Z</time>
      </trkpt>
      <trkpt lat="44.79786" lon="5.64382">
        <ele>778</ele>
        <time>2017-11-22T00:01:03Z</time>
      </trkpt>
      <trkpt lat="44.79775" lon="5.64365">
        <ele>777</ele>
        <time>2017-11-22T00:01:07Z</time>
      </trkpt>
      <trkpt lat="44.79761" lon="5.64351">
        <ele>776</ele>
        <time>2017-11-22T00:01:13Z</time>
      </trkpt>
      <trkpt lat="44.79743" lon="5.64342">
        <ele>770</ele>
        <time>2017-11-22T00:01:31Z</time>
      </trkpt>
      <trkpt lat="44.79713" lon="5.64334">
        <ele>767</ele>
        <time>2017-11-22T00:01:51Z</time>
      </trkpt>
      <trkpt lat="44.79704" lon="5.64329">
        <ele>772</ele>
        <time>2017-11-22T00:02:08Z</time>
      </trkpt>
      <trkpt lat="44.79692" lon="5.64321">
        <ele>771</ele>
        <time>2017-11-22T00:02:26Z</time>
      </trkpt>
      <trkpt lat="44.7968" lon="5.64308">
        <ele>771</ele>
        <time>2017-11-22T00:02:34Z</time>
      </trkpt>
      <trkpt lat="44.79664" lon="5.64299">
        <ele>768</ele>
        <time>2017-11-22T00:02:38Z</time>
      </trkpt>
      <trkpt lat="44.79654" lon="5.64299">
        <ele>768</ele>
        <time>2017-11-22T00:02:50Z</time>
      </trkpt>
      <trkpt lat="44.79625" lon="5.64307">
        <ele>767</ele>
        <time>2017-11-22T00:02:54Z</time>
      </trkpt>
      <trkpt lat="44.79604" lon="5.64311">
        <ele>765</ele>
        <time>2017-11-22T00:03:04Z</time>
      </trkpt>
      <trkpt lat="44.7959" lon="5.64304">
        <ele>765</ele>
        <time>2017-11-22T00:03:14Z</time>
      </trkpt>
      <trkpt lat="44.79572" lon="5.64286">
        <ele>764</ele>
        <time>2017-11-22T00:03:33Z</time>
      </trkpt>
      <trkpt lat="44.79556" lon="5.64273">
        <ele>765</ele>
        <time>2017-11-22T00:03:49Z</time>
      </trkpt>
      <trkpt lat="44.79526" lon="5.64266">
        <ele>764</ele>
        <time>2017-11-22T00:04:04Z</time>
      </trkpt>
      <trkpt lat="44.79491" lon="5.64262">
        <ele>763</ele>
        <time>2017-11-22T00:04:22Z</time>
      </trkpt>
      <trkpt lat="44.79469" lon="5.64256">
        <ele>761</ele>
        <time>2017-11-22T00:04:35Z</time>
      </trkpt>
      <trkpt lat="44.79442" lon="5.64239">
        <ele>766</ele>
        <time>2017-11-22T00:04:45Z</time>
      </trkpt>
      <trkpt lat="44.79415" lon="5.64221">
        <ele>763</ele>
        <time>2017-11-22T00:05:02Z</time>
      </trkpt>
      <trkpt lat="44.79407" lon="5.64218">
        <ele>764</ele>
        <time>2017-11-22T00:05:08Z</time>
      </trkpt>
      <trkpt lat="44.79394" lon="5.64218">
        <ele>764</ele>
        <time>2017-11-22T00:05:23Z</time>
      </trkpt>
      <trkpt lat="44.79366" lon="5.64222">
        <ele>764</ele>
        <time>2017-11-22T00:05:43Z</time>
      </trkpt>
      <trkpt lat="44.79354" lon="5.64228">
        <ele>763</ele>
        <time>2017-11-22T00:05:58Z</time>
      </trkpt>
      <trkpt lat="44.7935" lon="5.64239">
        <ele>763</ele>
        <time>2017-11-22T00:06:00Z</time>
      </trkpt>
      <trkpt lat="44.79347" lon="5.64268">
        <ele>764</ele>
        <time>2017-11-22T00:06:19Z</time>
      </trkpt>
      <trkpt lat="44.79348" lon="5.64281">
        <ele>764</ele>
        <time>2017-11-22T00:06:28Z</time>
      </trkpt>
      <trkpt lat="44.79353" lon="5.6429">
        <ele>765</ele>
        <time>2017-11-22T00:06:48Z</time>
      </trkpt>
      <trkpt lat="44.79412" lon="5.6435">
        <ele>766</ele>
        <time>2017-11-22T00:06:57Z</time>
      </trkpt>
      <trkpt lat="44.79462" lon="5.64402">
        <ele>764</ele>
        <time>2017-11-22T00:07:06Z</time>
      </trkpt>
      <trkpt lat="44.79479" lon="5.64427">
        <ele>767</ele>
        <time>2017-11-22T00:07:11Z</time>
      </trkpt>
      <trkpt lat="44.79493" lon="5.64463">
        <ele>768</ele>
        <time>2017-11-22T00:07:29Z</time>
      </trkpt>
      <trkpt lat="44.79501" lon="5.64504">
        <ele>767</ele>
        <time>2017-11-22T00:07:39Z</time>
      </trkpt>
      <trkpt lat="44.79507" lon="5.64546">
        <ele>764</ele>
        <time>2017-11-22T00:07:41Z</time>
      </trkpt>
      <trkpt lat="44.79509" lon="5.6458">
        <ele>768</ele>
        <time>2017-11-22T00:08:01Z</time>
      </trkpt>
      <trkpt lat="44.79503" lon="5.6465">
        <ele>770</ele>
        <time>2017-11-22T00:08:09Z</time>
      </trkpt>
      <trkpt lat="44.79486" lon="5.6476">
        <ele>772</ele>
        <time>2017-11-22T00:08:12Z</time>
      </trkpt>
      <trkpt lat="44.79445" lon="5.6502">
        <ele>773</ele>
        <time>2017-11-22T00:08:20Z</time>
      </trkpt>
      <trkpt lat="44.79442" lon="5.65065">
        <ele>773</ele>
        <time>2017-11-22T00:08:40Z</time>
      </trkpt>
      <trkpt lat="44.79446" lon="5.6514">
        <ele>773</ele>
        <time>2017-11-22T00:09:00Z</time>
      </trkpt>
      <trkpt lat="44.79458" lon="5.65281">
        <ele>772</ele>
        <time>2017-11-22T00:09:09Z</time>
      </trkpt>
      <trkpt lat="44.79458" lon="5.65325">
        <ele>773</ele>
        <time>2017-11-22T00:09:25Z</time>
      </trkpt>
      <trkpt lat="44.79455" lon="5.65378">
        <ele>774</ele>
        <time>2017-11-22T00:09:30Z</time>
      </trkpt>
      <trkpt lat="44.79437" lon="5.65538">
        <ele>776</ele>
        <time>2017-11-22T00:09:45Z</time>
      </trkpt>
      <trkpt lat="44.79437" lon="5.65568">
        <ele>776</ele>
        <time>2017-11-22T00:09:56Z</time>
      </trkpt>
      <trkpt lat="44.79441" lon="5.65603">
        <ele>779</ele>
        <time>2017-11-22T00:10:11Z</time>
      </trkpt>
      <trkpt lat="44.79463" lon="5.65679">
        <ele>783</ele>
        <time>2017-11-22T00:10:14Z</time>
      </trkpt>
      <trkpt lat="44.79476" lon="5.65725">
        <ele>785</ele>
        <time>2017-11-22T00:10:20Z</time>
      </trkpt>
      <trkpt lat="44.79478" lon="5.65739">
        <ele>785</ele>
        <time>2017-11-22T00:10:24Z</time>
      </trkpt>
      <trkpt lat="44.79479" lon="5.65754">
        <ele>787</ele>
        <time>2017-11-22T00:10:35Z</time>
      </trkpt>
      <trkpt lat="44.79475" lon="5.65784">
        <ele>788</ele>
        <time>2017-11-22T00:10:43Z</time>
      </trkpt>
      <trkpt lat="44.79468" lon="5.65817">
        <ele>788</ele>
        <time>2017-11-22T00:10:47Z</time>
      </trkpt>
      <trkpt lat="44.79454" lon="5.65851">
        <ele>788</ele>
        <time>2017-11-22T00:11:00Z</time>
      </trkpt>
      <trkpt lat="44.79442" lon="5.65869">
        <ele>788</ele>
        <time>2017-11-22T00:11:03Z</time>
      </trkpt>
      <trkpt lat="44.79423" lon="5.65895">
        <ele>788</ele>
        <time>2017-11-22T00:11:05Z</time>
      </trkpt>
      <trkpt lat="44.79443" lon="5.65925">
        <ele>785</ele>
        <time>2017-11-22T00:11:25Z</time>
      </trkpt>
      <trkpt lat="44.79447" lon="5.65938">
        <ele>785</ele>
        <time>2017-11-22T00:11:27Z</time>
      </trkpt>
      <trkpt lat="44.79416" lon="5.65957">
        <ele>780</ele>
        <time>2017-11-22T00:11:43Z</time>
      </trkpt>
      <trkpt lat="44.79395" lon="5.65967">
        <ele>778</ele>
        <time>2017-11-22T00:11:56Z</time>
      </trkpt>
      <trkpt lat="44.79381" lon="5.65964">
        <ele>778</ele>
        <time>2017-11-22T00:12:11Z</time>
      </trkpt>
      <trkpt lat="44.79359" lon="5.65953">
        <ele>777</ele>
        <time>2017-11-22T00:12:23Z</time>
      </trkpt>
      <trkpt lat="44.79328" lon="5.65932">
        <ele>770</ele>
        <time>2017-11-22T00:12:34Z</time>
      </trkpt>
      <trkpt lat="44.79315" lon="5.65921">
        <ele>769</ele>
        <time>2017-11-22T00:12:50Z</time>
      </trkpt>
      <trkpt lat="44.793" lon="5.65904">
        <ele>773</ele>
        <time>2017-11-22T00:13:01Z</time>
      </trkpt>
      <trkpt lat="44.79279" lon="5.65871">
        <ele>771</ele>
        <time>2017-11-22T00:13:08Z</time>
      </trkpt>
      <trkpt lat="44.79256" lon="5.65831">
        <ele>772</ele>
        <time>2017-11-22T00:13:13Z</time>
      </trkpt>
      <trkpt lat="44.79193" lon="5.65715">
        <ele>768</ele>
        <time>2017-11-22T00:13:29Z</time>
      </trkpt>
      <trkpt lat="44.79169" lon="5.65668">
        <ele>764</ele>
        <time>2017-11-22T00:13:46Z</time>
      </trkpt>
      <trkpt lat="44.79161" lon="5.65635">
        <ele>761</ele>
        <time>2017-11-22T00:14:00Z</time>
      </trkpt>
      <trkpt lat="44.7915" lon="5.65563">
        <ele>767</ele>
        <time>2017-11-22T00:14:07Z</time>
      </trkpt>
      <trkpt lat="44.79128" lon="5.65468">
        <ele>770</ele>
        <time>2017-11-22T00:14:09Z</time>
      </trkpt>
      <trkpt lat="44.79122" lon="5.65459">
        <ele>770</ele>
        <time>2017-11-22T00:14:22Z</time>
      </trkpt>
      <trkpt lat="44.79114" lon="5.65455">
        <ele>769</ele>
        <time>2017-11-22T00:14:29Z</time>
      </trkpt>
      <trkpt lat="44.79108" lon="5.65456">
        <ele>768</ele>
        <time>2017-11-22T00:14:35Z</time>
      </trkpt>
      <trkpt lat="44.791" lon="5.65461">
        <ele>767</ele>
        <time>2017-11-22T00:14:38Z</time>
      </trkpt>
      <trkpt lat="44.79092" lon="5.65475">
        <ele>766</ele>
        <time>2017-11-22T00:14:43Z</time>
      </trkpt>
      <trkpt lat="44.79089" lon="5.65495">
        <ele>761</ele>
        <time>2017-11-22T00:14:50Z</time>
      </trkpt>
      <trkpt lat="44.79092" lon="5.65516">
        <ele>761</ele>
        <time>2017-11-22T00:15:09Z</time>
      </trkpt>
      <trkpt lat="44.79096" lon="5.65542">
        <ele>762</ele>
        <time>2017-11-22T00:15:29Z</time>
      </trkpt>
      <trkpt lat="44.79093" lon="5.65566">
        <ele>759</ele>
        <time>2017-11-22T00:15:49Z</time>
      </trkpt>
      <trkpt lat="44.79089" lon="5.65577">
        <ele>756</ele>
        <time>2017-11-22T00:16:08Z</time>
      </trkpt>
      <trkpt lat="44.7908" lon="5.65587">
        <ele>753</ele>
        <time>2017-11-22T00:16:28Z</time>
      </trkpt>
      <trkpt lat="44.79073" lon="5.65593">
        <ele>753</ele>
        <time>2017-11-22T00:16:37Z</time>
      </trkpt>
      <trkpt lat="44.79064" lon="5.65594">
        <ele>753</ele>
        <time>2017-11-22T00:16:43Z</time>
      </trkpt>
      <trkpt lat="44.79048" lon="5.6559">
        <ele>753</ele>
        <time>2017-11-22T00:17:02Z</time>
      </trkpt>
      <trkpt lat="44.7903" lon="5.6557">
        <ele>754</ele>
        <time>2017-11-22T00:17:17Z</time>
      </trkpt>
      <trkpt lat="44.79018" lon="5.65563">
        <ele>754</ele>
        <time>2017-11-22T00:17:31Z</time>
      </trkpt>
      <trkpt lat="44.79009" lon="5.65566">
        <ele>754</ele>
        <time>2017-11-22T00:17:49Z</time>
      </trkpt>
      <trkpt lat="44.78999" lon="5.65579">
        <ele>753</ele>
        <time>2017-11-22T00:17:54Z</time>
      </trkpt>
      <trkpt lat="44.79" lon="5.656">
        <ele>754</ele>
        <time>2017-11-22T00:18:03Z</time>
      </trkpt>
      <trkpt lat="44.79009" lon="5.65625">
        <ele>753</ele>
        <time>2017-11-22T00:18:06Z</time>
      </trkpt>
      <trkpt lat="44.79033" lon="5.65674">
        <ele>752</ele>
        <time>2017-11-22T00:18:08Z</time>
      </trkpt>
      <trkpt lat="44.79055" lon="5.65715">
        <ele>751</ele>
        <time>2017-11-22T00:18:11Z</time>
      </trkpt>
      <trkpt lat="44.79071" lon="5.65751">
        <ele>749</ele>
        <time>2017-11-22T00:18:15Z</time>
      </trkpt>
      <trkpt lat="44.79073" lon="5.6576">
        <ele>749</ele>
        <time>2017-11-22T00:18:28Z</time>
      </trkpt>
      <trkpt lat="44.7907" lon="5.65775">
        <ele>749</ele>
        <time>2017-11-22T00:18:47Z</time>
      </trkpt>
      <trkpt lat="44.79059" lon="5.65791">
        <ele>750</ele>
        <time>2017-11-22T00:19:06Z</time>
      </trkpt>
      <trkpt lat="44.79047" lon="5.65797">
        <ele>750</ele>
        <time>2017-11-22T00:19:24Z</time>
      </trkpt>
      <trkpt lat="44.79037" lon="5.65797">
        <ele>750</ele>
        <time>2017-11-22T00:19:37Z</time>
      </trkpt>
      <trkpt lat="44.79028" lon="5.65794">
        <ele>750</ele>
        <time>2017-11-22T00:19:44Z</time>
      </trkpt>
      <trkpt lat="44.78971" lon="5.65774">
        <ele>753</ele>
        <time>2017-11-22T00:19:54Z</time>
      </trkpt>
      <trkpt lat="44.78948" lon="5.65767">
        <ele>753</ele>
        <time>2017-11-22T00:20:10Z</time>
      </trkpt>
      <trkpt lat="44.78938" lon="5.65767">
        <ele>754</ele>
        <time>2017-11-22T00:20:23Z</time>
      </trkpt>
      <trkpt lat="44.78931" lon="5.65768">
        <ele>754</ele>
        <time>2017-11-22T00:20:29Z</time>
      </trkpt>
      <trkpt lat="44.78926" lon="5.65772">
        <ele>754</ele>
        <time>2017-11-22T00:20:46Z</time>
      </trkpt>
      <trkpt lat="44.78919" lon="5.65782">
        <ele>754</ele>
        <time>2017-11-22T00:20:52Z</time>
      </trkpt>
      <trkpt lat="44.78916" lon="5.65797">
        <ele>756</ele>
        <time>2017-11-22T00:21:09Z</time>
      </trkpt>
      <trkpt lat="44.78916" lon="5.65809">
        <ele>755</ele>
        <time>2017-11-22T00:21:18Z</time>
      </trkpt>
      <trkpt lat="44.7892" lon="5.65817">
        <ele>753</ele>
        <time>2017-11-22T00:21:20Z</time>
      </trkpt>
      <trkpt lat="44.78933" lon="5.65832">
        <ele>753</ele>
        <time>2017-11-22T00:21:25Z</time>
      </trkpt>
      <trkpt lat="44.78945" lon="5.65848">
        <ele>751</ele>
        <time>2017-11-22T00:21:43Z</time>
      </trkpt>
      <trkpt lat="44.78955" lon="5.65873">
        <ele>750</ele>
        <time>2017-11-22T00:21:55Z</time>
      </trkpt>
      <trkpt lat="44.78971" lon="5.65925">
        <ele>748</ele>
        <time>2017-11-22T00:22:09Z</time>
      </trkpt>
      <trkpt lat="44.78982" lon="5.65972">
        <ele>748</ele>
        <time>2017-11-22T00:22:25Z</time>
      </trkpt>
      <trkpt lat="44.79003" lon="5.66095">
        <ele>742</ele>
        <time>2017-11-22T00:22:38Z</time>
      </trkpt>
      <trkpt lat="44.79021" lon="5.66203">
        <ele>740</ele>
        <time>2017-11-22T00:22:41Z</time>
      </trkpt>
      <trkpt lat="44.79032" lon="5.66239">
        <ele>740</ele>
        <time>2017-11-22T00:22:47Z</time>
      </trkpt>
      <trkpt lat="44.79044" lon="5.66265">
        <ele>742</ele>
        <time>2017-11-22T00:23:01Z</time>
      </trkpt>
      <trkpt lat="44.79095" lon="5.6635">
        <ele>742</ele>
        <time>2017-11-22T00:23:09Z</time>
      </trkpt>
      <trkpt lat="44.79123" lon="5.66414">
        <ele>743</ele>
        <time>2017-11-22T00:23:17Z</time>
      </trkpt>
      <trkpt lat="44.79145" lon="5.66475">
        <ele>744</ele>
        <time>2017-11-22T00:23:33Z</time>
      </trkpt>
      <trkpt lat="44.79156" lon="5.66498">
        <ele>742</ele>
        <time>2017-11-22T00:23:37Z</time>
      </trkpt>
      <trkpt lat="44.79174" lon="5.66545">
        <ele>735</ele>
        <time>2017-11-22T00:23:41Z</time>
      </trkpt>
      <trkpt lat="44.79201" lon="5.66596">
        <ele>736</ele>
        <time>2017-11-22T00:23:49Z</time>
      </trkpt>
      <trkpt lat="44.79212" lon="5.66624">
        <ele>735</ele>
        <time>2017-11-22T00:23:56Z</time>
      </trkpt>
      <trkpt lat="44.79216" lon="5.66649">
        <ele>734</ele>
        <time>2017-11-22T00:24:08Z</time>
      </trkpt>
      <trkpt lat="44.79217" lon="5.66731">
        <ele>733</ele>
        <time>2017-11-22T00:24:24Z</time>
      </trkpt>
      <trkpt lat="44.79216" lon="5.66789">
        <ele>731</ele>
        <time>2017-11-22T00:24:40Z</time>
      </trkpt>
      <trkpt lat="44.79216" lon="5.66816">
        <ele>731</ele>
        <time>2017-11-22T00:24:46Z</time>
      </trkpt>
      <trkpt lat="44.79224" lon="5.66851">
        <ele>729</ele>
        <time>2017-11-22T00:24:55Z</time>
      </trkpt>
      <trkpt lat="44.79234" lon="5.66895">
        <ele>729</ele>
        <time>2017-11-22T00:25:05Z</time>
      </trkpt>
      <trkpt lat="44.79233" lon="5.66933">
        <ele>728</ele>
        <time>2017-11-22T00:25:08Z</time>
      </trkpt>
      <trkpt lat="44.79228" lon="5.67006">
        <ele>727</ele>
        <time>2017-11-22T00:25:18Z</time>
      </trkpt>
      <trkpt lat="44.79226" lon="5.67048">
        <ele>727</ele>
        <time>2017-11-22T00:25:29Z</time>
      </trkpt>
      <trkpt lat="44.79222" lon="5.67066">
        <ele>727</ele>
        <time>2017-11-22T00:25:45Z</time>
      </trkpt>
      <trkpt lat="44.79199" lon="5.67139">
        <ele>728</ele>
        <time>2017-11-22T00:26:05Z</time>
      </trkpt>
      <trkpt lat="44.79197" lon="5.67161">
        <ele>728</ele>
        <time>2017-11-22T00:26:16Z</time>
      </trkpt>
      <trkpt lat="44.79203" lon="5.67199">
        <ele>728</ele>
        <time>2017-11-22T00:26:34Z</time>
      </trkpt>
      <trkpt lat="44.79215" lon="5.67243">
        <ele>728</ele>
        <time>2017-11-22T00:26:53Z</time>
      </trkpt>
      <trkpt lat="44.79221" lon="5.6727">
        <ele>728</ele>
        <time>2017-11-22T00:27:00Z</time>
      </trkpt>
      <trkpt lat="44.7922" lon="5.67299">
        <ele>728</ele>
        <time>2017-11-22T00:27:06Z</time>
      </trkpt>
      <trkpt lat="44.79215" lon="5.67332">
        <ele>728</ele>
        <time>2017-11-22T00:27:24Z</time>
      </trkpt>
      <trkpt lat="44.79209" lon="5.67346">
        <ele>726</ele>
        <time>2017-11-22T00:27:30Z</time>
      </trkpt>
      <trkpt lat="44.79184" lon="5.67388">
        <ele>726</ele>
        <time>2017-11-22T00:27:37Z</time>
      </trkpt>
      <trkpt lat="44.79107" lon="5.67504">
        <ele>725</ele>
        <time>2017-11-22T00:27:55Z</time>
      </trkpt>
      <trkpt lat="44.79077" lon="5.67548">
        <ele>731</ele>
        <time>2017-11-22T00:28:06Z</time>
      </trkpt>
      <trkpt lat="44.79056" lon="5.67582">
        <ele>731</ele>
        <time>2017-11-22T00:28:08Z</time>
      </trkpt>
      <trkpt lat="44.79037" lon="5.67606">
        <ele>728</ele>
        <time>2017-11-22T00:28:22Z</time>
      </trkpt>
      <trkpt lat="44.7901" lon="5.67628">
        <ele>728</ele>
        <time>2017-11-22T00:28:39Z</time>
      </trkpt>
      <trkpt lat="44.78979" lon="5.67641">
        <ele>731</ele>
        <time>2017-11-22T00:28:57Z</time>
      </trkpt>
      <trkpt lat="44.78963" lon="5.67643">
        <ele>731</ele>
        <time>2017-11-22T00:29:01Z</time>
      </trkpt>
      <trkpt lat="44.78941" lon="5.67642">
        <ele>731</ele>
        <time>2017-11-22T00:29:15Z</time>
      </trkpt>
      <trkpt lat="44.78904" lon="5.67634">
        <ele>730</ele>
        <time>2017-11-22T00:29:30Z</time>
      </trkpt>
      <trkpt lat="44.78867" lon="5.6762">
        <ele>728</ele>
        <time>2017-11-22T00:29:41Z</time>
      </trkpt>
      <trkpt lat="44.78854" lon="5.6761">
        <ele>728</ele>
        <time>2017-11-22T00:29:57Z</time>
      </trkpt>
      <trkpt lat="44.78844" lon="5.67599">
        <ele>728</ele>
        <time>2017-11-22T00:30:09Z</time>
      </trkpt>
      <trkpt lat="44.78835" lon="5.67575">
        <ele>730</ele>
        <time>2017-11-22T00:30:17Z</time>
      </trkpt>
      <trkpt lat="44.78831" lon="5.67544">
        <ele>727</ele>
        <time>2017-11-22T00:30:33Z</time>
      </trkpt>
      <trkpt lat="44.78825" lon="5.67517">
        <ele>730</ele>
        <time>2017-11-22T00:30:51Z</time>
      </trkpt>
      <trkpt lat="44.7881" lon="5.67491">
        <ele>732</ele>
        <time>2017-11-22T00:31:00Z</time>
      </trkpt>
      <trkpt lat="44.7878" lon="5.67452">
        <ele>730</ele>
        <time>2017-11-22T00:31:11Z</time>
      </trkpt>
      <trkpt lat="44.78754" lon="5.67418">
        <ele>727</ele>
        <time>2017-11-22T00:31:14Z</time>
      </trkpt>
      <trkpt lat="44.78739" lon="5.67402">
        <ele>728</ele>
        <time>2017-11-22T00:31:28Z</time>
      </trkpt>
      <trkpt lat="44.78728" lon="5.67395">
        <ele>729</ele>
        <time>2017-11-22T00:31:31Z</time>
      </trkpt>
      <trkpt lat="44.78713" lon="5.67394">
        <ele>729</ele>
        <time>2017-11-22T00:31:43Z</time>
      </trkpt>
      <trkpt lat="44.78704" lon="5.67397">
        <ele>729</ele>
        <time>2017-11-22T00:32:00Z</time>
      </trkpt>
      <trkpt lat="44.78698" lon="5.67404">
        <ele>729</ele>
        <time>2017-11-22T00:32:07Z</time>
      </trkpt>
      <trkpt lat="44.78688" lon="5.67428">
        <ele>726</ele>
        <time>2017-11-22T00:32:13Z</time>
      </trkpt>
      <trkpt lat="44.78689" lon="5.67454">
        <ele>725</ele>
        <time>2017-11-22T00:32:26Z</time>
      </trkpt>
      <trkpt lat="44.78704" lon="5.67493">
        <ele>724</ele>
        <time>2017-11-22T00:32:45Z</time>
      </trkpt>
      <trkpt lat="44.78715" lon="5.67526">
        <ele>721</ele>
        <time>2017-11-22T00:33:01Z</time>
      </trkpt>
      <trkpt lat="44.78721" lon="5.67572">
        <ele>719</ele>
        <time>2017-11-22T00:33:21Z</time>
      </trkpt>
      <trkpt lat="44.78724" lon="5.67612">
        <ele>716</ele>
        <time>2017-11-22T00:33:41Z</time>
      </trkpt>
      <trkpt lat="44.78723" lon="5.67628">
        <ele>716</ele>
        <time>2017-11-22T00:33:51Z</time>
      </trkpt>
      <trkpt lat="44.78716" lon="5.67653">
        <ele>715</ele>
        <time>2017-11-22T00:34:11Z</time>
      </trkpt>
      <trkpt lat="44.78713" lon="5.67663">
        <ele>715</ele>
        <time>2017-11-22T00:34:13Z</time>
      </trkpt>
      <trkpt lat="44.78711" lon="5.67685">
        <ele>713</ele>
        <time>2017-11-22T00:34:16Z</time>
      </trkpt>
      <trkpt lat="44.78719" lon="5.67709">
        <ele>713</ele>
        <time>2017-11-22T00:34:27Z</time>
      </trkpt>
      <trkpt lat="44.78735" lon="5.67734">
        <ele>711</ele>
        <time>2017-11-22T00:34:30Z</time>
      </trkpt>
      <trkpt lat="44.7874" lon="5.67749">
        <ele>710</ele>
        <time>2017-11-22T00:34:35Z</time>
      </trkpt>
      <trkpt lat="44.7874" lon="5.67765">
        <ele>709</ele>
        <time>2017-11-22T00:34:43Z</time>
      </trkpt>
      <trkpt lat="44.78736" lon="5.67779">
        <ele>709</ele>
        <time>2017-11-22T00:34:48Z</time>
      </trkpt>
      <trkpt lat="44.7873" lon="5.67793">
        <ele>709</ele>
        <time>2017-11-22T00:35:04Z</time>
      </trkpt>
      <trkpt lat="44.78712" lon="5.67829">
        <ele>709</ele>
        <time>2017-11-22T00:35:16Z</time>
      </trkpt>
      <trkpt lat="44.78702" lon="5.67862">
        <ele>707</ele>
        <time>2017-11-22T00:35:36Z</time>
      </trkpt>
      <trkpt lat="44.78698" lon="5.67908">
        <ele>707</ele>
        <time>2017-11-22T00:35:55Z</time>
      </trkpt>
      <trkpt lat="44.78693" lon="5.6793">
        <ele>702</ele>
        <time>2017-11-22T00:36:03Z</time>
      </trkpt>
      <trkpt lat="44.78679" lon="5.67952">
        <ele>701</ele>
        <time>2017-11-22T00:36:05Z</time>
      </trkpt>
      <trkpt lat="44.78633" lon="5.67987">
        <ele>707</ele>
        <time>2017-11-22T00:36:14Z</time>
      </trkpt>
      <trkpt lat="44.78594" lon="5.68013">
        <ele>700</ele>
        <time>2017-11-22T00:36:27Z</time>
      </trkpt>
      <trkpt lat="44.7855" lon="5.6804">
        <ele>700</ele>
        <time>2017-11-22T00:36:42Z</time>
      </trkpt>
      <trkpt lat="44.78538" lon="5.68044">
        <ele>700</ele>
        <time>2017-11-22T00:36:59Z</time>
      </trkpt>
      <trkpt lat="44.78522" lon="5.68038">
        <ele>702</ele>
        <time>2017-11-22T00:37:08Z</time>
      </trkpt>
      <trkpt lat="44.78506" lon="5.68026">
        <ele>705</ele>
        <time>2017-11-22T00:37:22Z</time>
      </trkpt>
      <trkpt lat="44.78497" lon="5.68022">
        <ele>708</ele>
        <time>2017-11-22T00:37:38Z</time>
      </trkpt>
      <trkpt lat="44.78485" lon="5.68021">
        <ele>707</ele>
        <time>2017-11-22T00:37:45Z</time>
      </trkpt>
      <trkpt lat="44.78465" lon="5.68025">
        <ele>706</ele>
        <time>2017-11-22T00:38:00Z</time>
      </trkpt>
      <trkpt lat="44.78457" lon="5.68011">
        <ele>707</ele>
        <time>2017-11-22T00:38:11Z</time>
      </trkpt>
      <trkpt lat="44.78454" lon="5.68003">
        <ele>707</ele>
        <time>2017-11-22T00:38:21Z</time>
      </trkpt>
      <trkpt lat="44.78449" lon="5.67999">
        <ele>715</ele>
        <time>2017-11-22T00:38:23Z</time>
      </trkpt>
      <trkpt lat="44.78444" lon="5.67998">
        <ele>715</ele>
        <time>2017-11-22T00:38:42Z</time>
      </trkpt>
      <trkpt lat="44.78429" lon="5.68001">
        <ele>709</ele>
        <time>2017-11-22T00:38:58Z</time>
      </trkpt>
      <trkpt lat="44.7841" lon="5.68009">
        <ele>709</ele>
        <time>2017-11-22T00:39:09Z</time>
      </trkpt>
      <trkpt lat="44.78392" lon="5.6801">
        <ele>707</ele>
        <time>2017-11-22T00:39:26Z</time>
      </trkpt>
      <trkpt lat="44.78358" lon="5.68009">
        <ele>707</ele>
        <time>2017-11-22T00:39:39Z</time>
      </trkpt>
      <trkpt lat="44.78335" lon="5.67998">
        <ele>710</ele>
        <time>2017-11-22T00:39:45Z</time>
      </trkpt>
      <trkpt lat="44.78313" lon="5.6798">
        <ele>712</ele>
        <time>2017-11-22T00:39:54Z</time>
      </trkpt>
      <trkpt lat="44.78248" lon="5.67916">
        <ele>717</ele>
        <time>2017-11-22T00:40:04Z</time>
      </trkpt>
      <trkpt lat="44.78167" lon="5.67829">
        <ele>720</ele>
        <time>2017-11-22T00:40:13Z</time>
      </trkpt>
      <trkpt lat="44.78123" lon="5.67785">
        <ele>722</ele>
        <time>2017-11-22T00:40:25Z</time>
      </trkpt>
      <trkpt lat="44.78101" lon="5.67756">
        <ele>722</ele>
        <time>2017-11-22T00:40:32Z</time>
      </trkpt>
      <trkpt lat="44.78094" lon="5.67737">
        <ele>726</ele>
        <time>2017-11-22T00:40:39Z</time>
      </trkpt>
      <trkpt lat="44.78089" lon="5.6771">
        <ele>728</ele>
        <time>2017-11-22T00:40:55Z</time>
      </trkpt>
      <trkpt lat="44.78073" lon="5.67609">
        <ele>729</ele>
        <time>2017-11-22T00:41:01Z</time>
      </trkpt>
      <trkpt lat="44.78056" lon="5.67483">
        <ele>735</ele>
        <time>2017-11-22T00:41:15Z</time>
      </trkpt>
      <trkpt lat="44.78047" lon="5.67421">
        <ele>736</ele>
        <time>2017-11-22T00:41:24Z</time>
      </trkpt>
      <trkpt lat="44.78039" lon="5.67383">
        <ele>741</ele>
        <time>2017-11-22T00:41:28Z</time>
      </trkpt>
      <trkpt lat="44.78006" lon="5.67292">
        <ele>751</ele>
        <time>2017-11-22T00:41:42Z</time>
      </trkpt>
      <trkpt lat="44.77993" lon="5.67268">
        <ele>746</ele>
        <time>2017-11-22T00:42:00Z</time>
      </trkpt>
      <trkpt lat="44.77972" lon="5.67245">
        <ele>756</ele>
        <time>2017-11-22T00:42:07Z</time>
      </trkpt>
      <trkpt lat="44.77949" lon="5.67221">
        <ele>757</ele>
        <time>2017-11-22T00:42:23Z</time>
      </trkpt>
      <trkpt lat="44.77916" lon="5.67181">
        <ele>757</ele>
        <time>2017-11-22T00:42:36Z</time>
      </trkpt>
      <trkpt lat="44.77885" lon="5.67152">
        <ele>764</ele>
        <time>2017-11-22T00:42:47Z</time>
      </trkpt>
      <trkpt lat="44.77873" lon="5.67137">
        <ele>764</ele>
        <time>2017-11-22T00:42:59Z</time>
      </trkpt>
      <trkpt lat="44.77858" lon="5.67078">
        <ele>775</ele>
        <time>2017-11-22T00:43:12Z</time>
      </trkpt>
      <trkpt lat="44.77846" lon="5.67065">
        <ele>774</ele>
        <time>2017-11-22T00:43:25Z</time>
      </trkpt>
      <trkpt lat="44.77824" lon="5.67057">
        <ele>764</ele>
        <time>2017-11-22T00:43:33Z</time>
      </trkpt>
      <trkpt lat="44.7781" lon="5.67045">
        <ele>764</ele>
        <time>2017-11-22T00:43:46Z</time>
      </trkpt>
      <trkpt lat="44.778" lon="5.67027">
        <ele>765</ele>
        <time>2017-11-22T00:43:59Z</time>
      </trkpt>
      <trkpt lat="44.7779" lon="5.67014">
        <ele>765</ele>
        <time>2017-11-22T00:44:18Z</time>
      </trkpt>
      <trkpt lat="44.77774" lon="5.67">
        <ele>771</ele>
        <time>2017-11-22T00:44:23Z</time>
      </trkpt>
      <trkpt lat="44.77759" lon="5.66991">
        <ele>768</ele>
        <time>2017-11-22T00:44:36Z</time>
      </trkpt>
      <trkpt lat="44.77748" lon="5.66987">
        <ele>764</ele>
        <time>2017-11-22T00:44:43Z</time>
      </trkpt>
      <trkpt lat="44.77723" lon="5.66987">
        <ele>764</ele>
        <time>2017-11-22T00:44:50Z</time>
      </trkpt>
      <trkpt lat="44.77712" lon="5.66984">
        <ele>764</ele>
        <time>2017-11-22T00:45:03Z</time>
      </trkpt>
      <trkpt lat="44.77702" lon="5.66979">
        <ele>764</ele>
        <time>2017-11-22T00:45:23Z</time>
      </trkpt>
      <trkpt lat="44.7769" lon="5.66965">
        <ele>764</ele>
        <time>2017-11-22T00:45:29Z</time>
      </trkpt>
      <trkpt lat="44.77676" lon="5.66932">
        <ele>765</ele>
        <time>2017-11-22T00:45:36Z</time>
      </trkpt>
      <trkpt lat="44.77662" lon="5.66906">
        <ele>765</ele>
        <time>2017-11-22T00:45:53Z</time>
      </trkpt>
      <trkpt lat="44.77651" lon="5.66899">
        <ele>766</ele>
        <time>2017-11-22T00:46:10Z</time>
      </trkpt>
      <trkpt lat="44.77633" lon="5.66897">
        <ele>765</ele>
        <time>2017-11-22T00:46:12Z</time>
      </trkpt>
      <trkpt lat="44.77619" lon="5.66892">
        <ele>764</ele>
        <time>2017-11-22T00:46:31Z</time>
      </trkpt>
      <trkpt lat="44.77603" lon="5.66876">
        <ele>764</ele>
        <time>2017-11-22T00:46:47Z</time>
      </trkpt>
      <trkpt lat="44.77579" lon="5.66843">
        <ele>764</ele>
        <time>2017-11-22T00:47:01Z</time>
      </trkpt>
      <trkpt lat="44.77562" lon="5.66814">
        <ele>767</ele>
        <time>2017-11-22T00:47:11Z</time>
      </trkpt>
      <trkpt lat="44.77547" lon="5.66779">
        <ele>768</ele>
        <time>2017-11-22T00:47:15Z</time>
      </trkpt>
      <trkpt lat="44.77542" lon="5.66766">
        <ele>769</ele>
        <time>2017-11-22T00:47:31Z</time>
      </trkpt>
      <trkpt lat="44.77532" lon="5.66751">
        <ele>769</ele>
        <time>2017-11-22T00:47:36Z</time>
      </trkpt>
      <trkpt lat="44.77523" lon="5.66748">
        <ele>773</ele>
        <time>2017-11-22T00:47:52Z</time>
      </trkpt>
      <trkpt lat="44.77515" lon="5.66749">
        <ele>772</ele>
        <time>2017-11-22T00:48:00Z</time>
      </trkpt>
      <trkpt lat="44.77506" lon="5.66755">
        <ele>769</ele>
        <time>2017-11-22T00:48:11Z</time>
      </trkpt>
      <trkpt lat="44.77493" lon="5.66776">
        <ele>767</ele>
        <time>2017-11-22T00:48:20Z</time>
      </trkpt>
      <trkpt lat="44.77479" lon="5.66791">
        <ele>766</ele>
        <time>2017-11-22T00:48:25Z</time>
      </trkpt>
      <trkpt lat="44.77467" lon="5.66792">
        <ele>766</ele>
        <time>2017-11-22T00:48:27Z</time>
      </trkpt>
      <trkpt lat="44.77406" lon="5.66769">
        <ele>769</ele>
        <time>2017-11-22T00:48:42Z</time>
      </trkpt>
      <trkpt lat="44.77362" lon="5.66759">
        <ele>770</ele>
        <time>2017-11-22T00:48:52Z</time>
      </trkpt>
      <trkpt lat="44.77319" lon="5.66752">
        <ele>773</ele>
        <time>2017-11-22T00:48:58Z</time>
      </trkpt>
      <trkpt lat="44.77312" lon="5.66753">
        <ele>773</ele>
        <time>2017-11-22T00:49:18Z</time>
      </trkpt>
      <trkpt lat="44.77306" lon="5.66757">
        <ele>774</ele>
        <time>2017-11-22T00:49:23Z</time>
      </trkpt>
      <trkpt lat="44.77297" lon="5.66775">
        <ele>774</ele>
        <time>2017-11-22T00:49:43Z</time>
      </trkpt>
      <trkpt lat="44.77294" lon="5.66788">
        <ele>774</ele>
        <time>2017-11-22T00:49:46Z</time>
      </trkpt>
      <trkpt lat="44.77296" lon="5.66798">
        <ele>774</ele>
        <time>2017-11-22T00:49:51Z</time>
      </trkpt>
      <trkpt lat="44.77305" lon="5.66818">
        <ele>773</ele>
        <time>2017-11-22T00:50:02Z</time>
      </trkpt>
      <trkpt lat="44.77326" lon="5.66855">
        <ele>773</ele>
        <time>2017-11-22T00:50:14Z</time>
      </trkpt>
      <trkpt lat="44.77336" lon="5.66877">
        <ele>770</ele>
        <time>2017-11-22T00:50:18Z</time>
      </trkpt>
      <trkpt lat="44.77338" lon="5.66887">
        <ele>771</ele>
        <time>2017-11-22T00:50:20Z</time>
      </trkpt>
      <trkpt lat="44.77338" lon="5.66909">
        <ele>773</ele>
        <time>2017-11-22T00:50:31Z</time>
      </trkpt>
      <trkpt lat="44.7733" lon="5.66924">
        <ele>776</ele>
        <time>2017-11-22T00:50:46Z</time>
      </trkpt>
      <trkpt lat="44.77324" lon="5.66927">
        <ele>777</ele>
        <time>2017-11-22T00:51:04Z</time>
      </trkpt>
      <trkpt lat="44.77315" lon="5.66927">
        <ele>777</ele>
        <time>2017-11-22T00:51:23Z</time>
      </trkpt>
      <trkpt lat="44.77252" lon="5.66908">
        <ele>779</ele>
        <time>2017-11-22T00:51:39Z</time>
      </trkpt>
      <trkpt lat="44.77147" lon="5.66874">
        <ele>785</ele>
        <time>2017-11-22T00:51:44Z</time>
      </trkpt>
      <trkpt lat="44.77063" lon="5.66854">
        <ele>789</ele>
        <time>2017-11-22T00:51:49Z</time>
      </trkpt>
      <trkpt lat="44.77019" lon="5.66847">
        <ele>791</ele>
        <time>2017-11-22T00:51:53Z</time>
      </trkpt>
      <trkpt lat="44.7698" lon="5.66838">
        <ele>793</ele>
        <time>2017-11-22T00:52:11Z</time>
      </trkpt>
      <trkpt lat="44.76963" lon="5.66827">
        <ele>795</ele>
        <time>2017-11-22T00:52:17Z</time>
      </trkpt>
      <trkpt lat="44.76931" lon="5.66793">
        <ele>796</ele>
        <time>2017-11-22T00:52:22Z</time>
      </trkpt>
      <trkpt lat="44.76867" lon="5.66723">
        <ele>803</ele>
        <time>2017-11-22T00:52:34Z</time>
      </trkpt>
      <trkpt lat="44.76797" lon="5.66653">
        <ele>808</ele>
        <time>2017-11-22T00:52:50Z</time>
      </trkpt>
      <trkpt lat="44.76743" lon="5.666">
        <ele>812</ele>
        <time>2017-11-22T00:53:00Z</time>
      </trkpt>
      <trkpt lat="44.7671" lon="5.66562">
        <ele>815</ele>
        <time>2017-11-22T00:53:16Z</time>
      </trkpt>
      <trkpt lat="44.76691" lon="5.66531">
        <ele>816</ele>
        <time>2017-11-22T00:53:29Z</time>
      </trkpt>
      <trkpt lat="44.7668" lon="5.66516">
        <ele>817</ele>
        <time>2017-11-22T00:53:31Z</time>
      </trkpt>
      <trkpt lat="44.76625" lon="5.66468">
        <ele>825</ele>
        <time>2017-11-22T00:53:44Z</time>
      </trkpt>
      <trkpt lat="44.76586" lon="5.66437">
        <ele>828</ele>
        <time>2017-11-22T00:54:00Z</time>
      </trkpt>
      <trkpt lat="44.76549" lon="5.66413">
        <ele>834</ele>
        <time>2017-11-22T00:54:15Z</time>
      </trkpt>
      <trkpt lat="44.76535" lon="5.66412">
        <ele>835</ele>
        <time>2017-11-22T00:54:35Z</time>
      </trkpt>
      <trkpt lat="44.76514" lon="5.66419">
        <ele>835</ele>
        <time>2017-11-22T00:54:45Z</time>
      </trkpt>
      <trkpt lat="44.76488" lon="5.66432">
        <ele>837</ele>
        <time>2017-11-22T00:54:59Z</time>
      </trkpt>
      <trkpt lat="44.7648" lon="5.66435">
        <ele>838</ele>
        <time>2017-11-22T00:55:12Z</time>
      </trkpt>
      <trkpt lat="44.76462" lon="5.66442">
        <ele>838</ele>
        <time>2017-11-22T00:55:30Z</time>
      </trkpt>
      <trkpt lat="44.76448" lon="5.66435">
        <ele>839</ele>
        <time>2017-11-22T00:55:43Z</time>
      </trkpt>
      <trkpt lat="44.76434" lon="5.66427">
        <ele>840</ele>
        <time>2017-11-22T00:55:49Z</time>
      </trkpt>
      <trkpt lat="44.76431" lon="5.6643">
        <ele>840</ele>
        <time>2017-11-22T00:56:01Z</time>
      </trkpt>
      <trkpt lat="44.76425" lon="5.66435">
        <ele>840</ele>
        <time>2017-11-22T00:56:21Z</time>
      </trkpt>
      <trkpt lat="44.76411" lon="5.66447">
        <ele>843</ele>
        <time>2017-11-22T00:56:39Z</time>
      </trkpt>
      <trkpt lat="44.76396" lon="5.66467">
        <ele>842</ele>
        <time>2017-11-22T00:56:51Z</time>
      </trkpt>
      <trkpt lat="44.76383" lon="5.66489">
        <ele>842</ele>
        <time>2017-11-22T00:56:57Z</time>
      </trkpt>
      <trkpt lat="44.76362" lon="5.6653">
        <ele>839</ele>
        <time>2017-11-22T00:57:09Z</time>
      </trkpt>
      <trkpt lat="44.76345" lon="5.66566">
        <ele>839</ele>
        <time>2017-11-22T00:57:18Z</time>
      </trkpt>
      <trkpt lat="44.76331" lon="5.66589">
        <ele>839</ele>
        <time>2017-11-22T00:57:32Z</time>
      </trkpt>
      <trkpt lat="44.76317" lon="5.666">
        <ele>840</ele>
        <time>2017-11-22T00:57:41Z</time>
      </trkpt>
      <trkpt lat="44.76289" lon="5.66619">
        <ele>840</ele>
        <time>2017-11-22T00:57:52Z</time>
      </trkpt>
      <trkpt lat="44.76274" lon="5.66632">
        <ele>840</ele>
        <time>2017-11-22T00:58:05Z</time>
      </trkpt>
      <trkpt lat="44.76259" lon="5.66652">
        <ele>841</ele>
        <time>2017-11-22T00:58:19Z</time>
      </trkpt>
      <trkpt lat="44.76216" lon="5.66715">
        <ele>849</ele>
        <time>2017-11-22T00:58:30Z</time>
      </trkpt>
      <trkpt lat="44.76203" lon="5.6674">
        <ele>850</ele>
        <time>2017-11-22T00:58:37Z</time>
      </trkpt>
      <trkpt lat="44.76192" lon="5.66783">
        <ele>852</ele>
        <time>2017-11-22T00:58:55Z</time>
      </trkpt>
      <trkpt lat="44.76191" lon="5.66801">
        <ele>853</ele>
        <time>2017-11-22T00:59:08Z</time>
      </trkpt>
      <trkpt lat="44.76196" lon="5.66819">
        <ele>853</ele>
        <time>2017-11-22T00:59:28Z</time>
      </trkpt>
      <trkpt lat="44.76209" lon="5.66855">
        <ele>853</ele>
        <time>2017-11-22T00:59:36Z</time>
      </trkpt>
      <trkpt lat="44.76213" lon="5.66883">
        <ele>853</ele>
        <time>2017-11-22T00:59:47Z</time>
      </trkpt>
      <trkpt lat="44.76211" lon="5.66912">
        <ele>853</ele>
        <time>2017-11-22T00:59:50Z</time>
      </trkpt>
      <trkpt lat="44.76216" lon="5.66931">
        <ele>855</ele>
        <time>2017-11-22T00:59:59Z</time>
      </trkpt>
      <trkpt lat="44.76233" lon="5.66957">
        <ele>854</ele>
        <time>2017-11-22T01:00:06Z</time>
      </trkpt>
      <trkpt lat="44.76244" lon="5.66997">
        <ele>854</ele>
        <time>2017-11-22T01:00:24Z</time>
      </trkpt>
      <trkpt lat="44.76247" lon="5.67029">
        <ele>857</ele>
        <time>2017-11-22T01:00:41Z</time>
      </trkpt>
      <trkpt lat="44.76245" lon="5.6704">
        <ele>858</ele>
        <time>2017-11-22T01:00:50Z</time>
      </trkpt>
      <trkpt lat="44.76239" lon="5.67049">
        <ele>858</ele>
        <time>2017-11-22T01:01:05Z</time>
      </trkpt>
      <trkpt lat="44.76233" lon="5.67052">
        <ele>858</ele>
        <time>2017-11-22T01:01:12Z</time>
      </trkpt>
      <trkpt lat="44.76224" lon="5.67052">
        <ele>858</ele>
        <time>2017-11-22T01:01:23Z</time>
      </trkpt>
      <trkpt lat="44.76199" lon="5.67051">
        <ele>859</ele>
        <time>2017-11-22T01:01:25Z</time>
      </trkpt>
      <trkpt lat="44.7617" lon="5.67051">
        <ele>859</ele>
        <time>2017-11-22T01:01:30Z</time>
      </trkpt>
      <trkpt lat="44.7615" lon="5.67045">
        <ele>857</ele>
        <time>2017-11-22T01:01:38Z</time>
      </trkpt>
      <trkpt lat="44.76129" lon="5.67034">
        <ele>857</ele>
        <time>2017-11-22T01:01:40Z</time>
      </trkpt>
      <trkpt lat="44.76114" lon="5.67019">
        <ele>856</ele>
        <time>2017-11-22T01:02:00Z</time>
      </trkpt>
      <trkpt lat="44.76094" lon="5.6699">
        <ele>860</ele>
        <time>2017-11-22T01:02:12Z</time>
      </trkpt>
      <trkpt lat="44.76073" lon="5.66974">
        <ele>860</ele>
        <time>2017-11-22T01:02:18Z</time>
      </trkpt>
      <trkpt lat="44.76043" lon="5.66964">
        <ele>860</ele>
        <time>2017-11-22T01:02:36Z</time>
      </trkpt>
      <trkpt lat="44.7601" lon="5.66964">
        <ele>858</ele>
        <time>2017-11-22T01:02:45Z</time>
      </trkpt>
      <trkpt lat="44.75989" lon="5.66971">
        <ele>857</ele>
        <time>2017-11-22T01:02:47Z</time>
      </trkpt>
      <trkpt lat="44.75978" lon="5.6698">
        <ele>857</ele>
        <time>2017-11-22T01:03:00Z</time>
      </trkpt>
      <trkpt lat="44.75974" lon="5.66987">
        <ele>857</ele>
        <time>2017-11-22T01:03:18Z</time>
      </trkpt>
      <trkpt lat="44.75966" lon="5.67012">
        <ele>855</ele>
        <time>2017-11-22T01:03:25Z</time>
      </trkpt>
      <trkpt lat="44.75957" lon="5.67066">
        <ele>855</ele>
        <time>2017-11-22T01:03:30Z</time>
      </trkpt>
      <trkpt lat="44.75947" lon="5.67142">
        <ele>854</ele>
        <time>2017-11-22T01:03:32Z</time>
      </trkpt>
      <trkpt lat="44.75945" lon="5.67288">
        <ele>848</ele>
        <time>2017-11-22T01:03:39Z</time>
      </trkpt>
      <trkpt lat="44.75937" lon="5.67345">
        <ele>847</ele>
        <time>2017-11-22T01:03:51Z</time>
      </trkpt>
      <trkpt lat="44.75934" lon="5.6738">
        <ele>845</ele>
        <time>2017-11-22T01:04:11Z</time>
      </trkpt>
      <trkpt lat="44.75934" lon="5.6741">
        <ele>846</ele>
        <time>2017-11-22T01:04:30Z</time>
      </trkpt>
      <trkpt lat="44.75942" lon="5.67473">
        <ele>840</ele>
        <time>2017-11-22T01:04:47Z</time>
      </trkpt>
      <trkpt lat="44.75954" lon="5.67528">
        <ele>836</ele>
        <time>2017-11-22T01:05:01Z</time>
      </trkpt>
      <trkpt lat="44.75954" lon="5.67557">
        <ele>836</ele>
        <time>2017-11-22T01:05:08Z</time>
      </trkpt>
      <trkpt lat="44.75947" lon="5.67576">
        <ele>837</ele>
        <time>2017-11-22T01:05:13Z</time>
      </trkpt>
      <trkpt lat="44.75921" lon="5.67594">
        <ele>838</ele>
        <time>2017-11-22T01:05:28Z</time>
      </trkpt>
      <trkpt lat="44.75901" lon="5.67605">
        <ele>841</ele>
        <time>2017-11-22T01:05:43Z</time>
      </trkpt>
      <trkpt lat="44.75885" lon="5.67612">
        <ele>841</ele>
        <time>2017-11-22T01:05:49Z</time>
      </trkpt>
      <trkpt lat="44.75858" lon="5.67617">
        <ele>841</ele>
        <time>2017-11-22T01:06:03Z</time>
      </trkpt>
      <trkpt lat="44.7581" lon="5.67626">
        <ele>844</ele>
        <time>2017-11-22T01:06:09Z</time>
      </trkpt>
      <trkpt lat="44.75802" lon="5.67631">
        <ele>844</ele>
        <time>2017-11-22T01:06:18Z</time>
      </trkpt>
      <trkpt lat="44.75799" lon="5.67653">
        <ele>844</ele>
        <time>2017-11-22T01:06:29Z</time>
      </trkpt>
      <trkpt lat="44.75788" lon="5.67707">
        <ele>840</ele>
        <time>2017-11-22T01:06:41Z</time>
      </trkpt>
      <trkpt lat="44.75786" lon="5.67736">
        <ele>840</ele>
        <time>2017-11-22T01:06:44Z</time>
      </trkpt>
      <trkpt lat="44.75785" lon="5.67792">
        <ele>835</ele>
        <time>2017-11-22T01:06:59Z</time>
      </trkpt>
      <trkpt lat="44.75784" lon="5.67821">
        <ele>835</ele>
        <time>2017-11-22T01:07:02Z</time>
      </trkpt>
      <trkpt lat="44.75779" lon="5.67845">
        <ele>832</ele>
        <time>2017-11-22T01:07:06Z</time>
      </trkpt>
      <trkpt lat="44.75725" lon="5.67962">
        <ele>829</ele>
        <time>2017-11-22T01:07:24Z</time>
      </trkpt>
      <trkpt lat="44.75709" lon="5.67996">
        <ele>829</ele>
        <time>2017-11-22T01:07:40Z</time>
      </trkpt>
      <trkpt lat="44.75693" lon="5.68021">
        <ele>824</ele>
        <time>2017-11-22T01:07:45Z</time>
      </trkpt>
      <trkpt lat="44.75686" lon="5.68031">
        <ele>823</ele>
        <time>2017-11-22T01:07:49Z</time>
      </trkpt>
      <trkpt lat="44.75666" lon="5.68039">
        <ele>820</ele>
        <time>2017-11-22T01:08:04Z</time>
      </trkpt>
      <trkpt lat="44.75653" lon="5.68041">
        <ele>819</ele>
        <time>2017-11-22T01:08:21Z</time>
      </trkpt>
      <trkpt lat="44.75637" lon="5.68038">
        <ele>819</ele>
        <time>2017-11-22T01:08:37Z</time>
      </trkpt>
      <trkpt lat="44.75598" lon="5.68026">
        <ele>819</ele>
        <time>2017-11-22T01:08:39Z</time>
      </trkpt>
      <trkpt lat="44.75581" lon="5.68022">
        <ele>817</ele>
        <time>2017-11-22T01:08:59Z</time>
      </trkpt>
      <trkpt lat="44.7556" lon="5.68021">
        <ele>816</ele>
        <time>2017-11-22T01:09:13Z</time>
      </trkpt>
      <trkpt lat="44.75525" lon="5.68031">
        <ele>815</ele>
        <time>2017-11-22T01:09:30Z</time>
      </trkpt>
      <trkpt lat="44.75506" lon="5.68032">
        <ele>815</ele>
        <time>2017-11-22T01:09:38Z</time>
      </trkpt>
      <trkpt lat="44.75479" lon="5.68017">
        <ele>815</ele>
        <time>2017-11-22T01:09:50Z</time>
      </trkpt>
      <trkpt lat="44.75443" lon="5.67993">
        <ele>822</ele>
        <time>2017-11-22T01:10:06Z</time>
      </trkpt>
      <trkpt lat="44.75427" lon="5.67991">
        <ele>820</ele>
        <time>2017-11-22T01:10:19Z</time>
      </trkpt>
      <trkpt lat="44.75417" lon="5.67994">
        <ele>817</ele>
        <time>2017-11-22T01:10:36Z</time>
      </trkpt>
      <trkpt lat="44.75406" lon="5.68007">
        <ele>815</ele>
        <time>2017-11-22T01:10:53Z</time>
      </trkpt>
      <trkpt lat="44.75399" lon="5.68023">
        <ele>815</ele>
        <time>2017-11-22T01:11:13Z</time>
      </trkpt>
      <trkpt lat="44.75399" lon="5.68045">
        <ele>815</ele>
        <time>2017-11-22T01:11:18Z</time>
      </trkpt>
      <trkpt lat="44.75402" lon="5.68057">
        <ele>814</ele>
        <time>2017-11-22T01:11:36Z</time>
      </trkpt>
      <trkpt lat="44.75416" lon="5.6808">
        <ele>812</ele>
        <time>2017-11-22T01:11:53Z</time>
      </trkpt>
      <trkpt lat="44.75462" lon="5.68129">
        <ele>817</ele>
        <time>2017-11-22T01:12:12Z</time>
      </trkpt>
      <trkpt lat="44.75493" lon="5.68157">
        <ele>817</ele>
        <time>2017-11-22T01:12:24Z</time>
      </trkpt>
      <trkpt lat="44.75509" lon="5.68168">
        <ele>818</ele>
        <time>2017-11-22T01:12:39Z</time>
      </trkpt>
      <trkpt lat="44.75549" lon="5.68189">
        <ele>819</ele>
        <time>2017-11-22T01:12:52Z</time>
      </trkpt>
      <trkpt lat="44.75591" lon="5.68215">
        <ele>813</ele>
        <time>2017-11-22T01:13:05Z</time>
      </trkpt>
      <trkpt lat="44.75638" lon="5.6824">
        <ele>811</ele>
        <time>2017-11-22T01:13:23Z</time>
      </trkpt>
      <trkpt lat="44.75663" lon="5.68259">
        <ele>815</ele>
        <time>2017-11-22T01:13:36Z</time>
      </trkpt>
      <trkpt lat="44.75677" lon="5.68276">
        <ele>810</ele>
        <time>2017-11-22T01:13:56Z</time>
      </trkpt>
      <trkpt lat="44.75697" lon="5.68326">
        <ele>814</ele>
        <time>2017-11-22T01:13:59Z</time>
      </trkpt>
      <trkpt lat="44.75716" lon="5.68356">
        <ele>823</ele>
        <time>2017-11-22T01:14:10Z</time>
      </trkpt>
      <trkpt lat="44.75727" lon="5.6837">
        <ele>823</ele>
        <time>2017-11-22T01:14:30Z</time>
      </trkpt>
      <trkpt lat="44.75753" lon="5.68386">
        <ele>812</ele>
        <time>2017-11-22T01:14:45Z</time>
      </trkpt>
      <trkpt lat="44.75783" lon="5.68397">
        <ele>811</ele>
        <time>2017-11-22T01:15:00Z</time>
      </trkpt>
      <trkpt lat="44.7581" lon="5.68411">
        <ele>808</ele>
        <time>2017-11-22T01:15:04Z</time>
      </trkpt>
      <trkpt lat="44.75826" lon="5.68425">
        <ele>814</ele>
        <time>2017-11-22T01:15:18Z</time>
      </trkpt>
      <trkpt lat="44.75846" lon="5.68451">
        <ele>805</ele>
        <time>2017-11-22T01:15:28Z</time>
      </trkpt>
      <trkpt lat="44.7586" lon="5.68472">
        <ele>806</ele>
        <time>2017-11-22T01:15:32Z</time>
      </trkpt>
      <trkpt lat="44.7587" lon="5.68496">
        <ele>806</ele>
        <time>2017-11-22T01:15:41Z</time>
      </trkpt>
      <trkpt lat="44.75898" lon="5.68563">
        <ele>811</ele>
        <time>2017-11-22T01:15:48Z</time>
      </trkpt>
      <trkpt lat="44.75909" lon="5.68591">
        <ele>811</ele>
        <time>2017-11-22T01:16:05Z</time>
      </trkpt>
      <trkpt lat="44.75915" lon="5.68617">
        <ele>815</ele>
        <time>2017-11-22T01:16:07Z</time>
      </trkpt>
      <trkpt lat="44.75918" lon="5.68663">
        <ele>808</ele>
        <time>2017-11-22T01:16:14Z</time>
      </trkpt>
      <trkpt lat="44.75916" lon="5.6872">
        <ele>819</ele>
        <time>2017-11-22T01:16:27Z</time>
      </trkpt>
      <trkpt lat="44.75916" lon="5.68736">
        <ele>818</ele>
        <time>2017-11-22T01:16:47Z</time>
      </trkpt>
      <trkpt lat="44.7592" lon="5.68781">
        <ele>810</ele>
        <time>2017-11-22T01:16:49Z</time>
      </trkpt>
      <trkpt lat="44.75935" lon="5.68836">
        <ele>810</ele>
        <time>2017-11-22T01:17:03Z</time>
      </trkpt>
      <trkpt lat="44.75945" lon="5.6888">
        <ele>809</ele>
        <time>2017-11-22T01:17:21Z</time>
      </trkpt>
      <trkpt lat="44.75949" lon="5.68913">
        <ele>809</ele>
        <time>2017-11-22T01:17:30Z</time>
      </trkpt>
      <trkpt lat="44.75964" lon="5.68974">
        <ele>809</ele>
        <time>2017-11-22T01:17:36Z</time>
      </trkpt>
      <trkpt lat="44.75999" lon="5.69078">
        <ele>807</ele>
        <time>2017-11-22T01:17:51Z</time>
      </trkpt>
      <trkpt lat="44.76019" lon="5.69123">
        <ele>807</ele>
        <time>2017-11-22T01:18:02Z</time>
      </trkpt>
      <trkpt lat="44.76042" lon="5.69151">
        <ele>806</ele>
        <time>2017-11-22T01:18:14Z</time>
      </trkpt>
      <trkpt lat="44.76063" lon="5.69174">
        <ele>809</ele>
        <time>2017-11-22T01:18:33Z</time>
      </trkpt>
      <trkpt lat="44.76092" lon="5.6922">
        <ele>804</ele>
        <time>2017-11-22T01:18:37Z</time>
      </trkpt>
      <trkpt lat="44.76112" lon="5.69276">
        <ele>808</ele>
        <time>2017-11-22T01:18:52Z</time>
      </trkpt>
      <trkpt lat="44.7615" lon="5.69392">
        <ele>812</ele>
        <time>2017-11-22T01:19:05Z</time>
      </trkpt>
      <trkpt lat="44.76161" lon="5.69415">
        <ele>810</ele>
        <time>2017-11-22T01:19:11Z</time>
      </trkpt>
      <trkpt lat="44.76175" lon="5.69436">
        <ele>808</ele>
        <time>2017-11-22T01:19:15Z</time>
      </trkpt>
      <trkpt lat="44.7623" lon="5.69496">
        <ele>807</ele>
        <time>2017-11-22T01:19:34Z</time>
      </trkpt>
      <trkpt lat="44.76268" lon="5.69535">
        <ele>807</ele>
        <time>2017-11-22T01:19:52Z</time>
      </trkpt>
      <trkpt lat="44.76304" lon="5.6957">
        <ele>806</ele>
        <time>2017-11-22T01:19:56Z</time>
      </trkpt>
      <trkpt lat="44.76327" lon="5.69589">
        <ele>808</ele>
        <time>2017-11-22T01:20:02Z</time>
      </trkpt>
      <trkpt lat="44.76351" lon="5.6961">
        <ele>805</ele>
        <time>2017-11-22T01:20:06Z</time>
      </trkpt>
      <trkpt lat="44.76367" lon="5.6963">
        <ele>806</ele>
        <time>2017-11-22T01:20:13Z</time>
      </trkpt>
      <trkpt lat="44.76403" lon="5.69696">
        <ele>810</ele>
        <time>2017-11-22T01:20:21Z</time>
      </trkpt>
      <trkpt lat="44.76423" lon="5.69725">
        <ele>805</ele>
        <time>2017-11-22T01:20:25Z</time>
      </trkpt>
      <trkpt lat="44.7644" lon="5.69744">
        <ele>804</ele>
        <time>2017-11-22T01:20:40Z</time>
      </trkpt>
      <trkpt lat="44.7646" lon="5.69762">
        <ele>806</ele>
        <time>2017-11-22T01:20:44Z</time>
      </trkpt>
      <trkpt lat="44.76482" lon="5.69776">
        <ele>805</ele>
        <time>2017-11-22T01:20:48Z</time>
      </trkpt>
      <trkpt lat="44.7651" lon="5.69785">
        <ele>801</ele>
        <time>2017-11-22T01:21:07Z</time>
      </trkpt>
      <trkpt lat="44.76538" lon="5.6979">
        <ele>800</ele>
        <time>2017-11-22T01:21:26Z</time>
      </trkpt>
      <trkpt lat="44.76564" lon="5.69787">
        <ele>799</ele>
        <time>2017-11-22T01:21:35Z</time>
      </trkpt>
      <trkpt lat="44.76595" lon="5.69781">
        <ele>796</ele>
        <time>2017-11-22T01:21:42Z</time>
      </trkpt>
      <trkpt lat="44.76624" lon="5.69777">
        <ele>796</ele>
        <time>2017-11-22T01:21:45Z</time>
      </trkpt>
      <trkpt lat="44.76663" lon="5.69777">
        <ele>795</ele>
        <time>2017-11-22T01:21:47Z</time>
      </trkpt>
      <trkpt lat="44.76795" lon="5.6978">
        <ele>794</ele>
        <time>2017-11-22T01:22:05Z</time>
      </trkpt>
      <trkpt lat="44.7681" lon="5.69784">
        <ele>794</ele>
        <time>2017-11-22T01:22:12Z</time>
      </trkpt>
      <trkpt lat="44.76903" lon="5.69832">
        <ele>793</ele>
        <time>2017-11-22T01:22:27Z</time>
      </trkpt>
      <trkpt lat="44.76946" lon="5.69856">
        <ele>791</ele>
        <time>2017-11-22T01:22:36Z</time>
      </trkpt>
      <trkpt lat="44.76958" lon="5.69867">
        <ele>790</ele>
        <time>2017-11-22T01:22:47Z</time>
      </trkpt>
      <trkpt lat="44.76966" lon="5.69876">
        <ele>790</ele>
        <time>2017-11-22T01:23:01Z</time>
      </trkpt>
      <trkpt lat="44.76972" lon="5.69885">
        <ele>790</ele>
        <time>2017-11-22T01:23:12Z</time>
      </trkpt>
      <trkpt lat="44.76981" lon="5.69911">
        <ele>789</ele>
        <time>2017-11-22T01:23:18Z</time>
      </trkpt>
      <trkpt lat="44.76986" lon="5.69955">
        <ele>791</ele>
        <time>2017-11-22T01:23:37Z</time>
      </trkpt>
      <trkpt lat="44.7699" lon="5.70061">
        <ele>790</ele>
        <time>2017-11-22T01:23:56Z</time>
      </trkpt>
      <trkpt lat="44.76994" lon="5.70097">
        <ele>790</ele>
        <time>2017-11-22T01:24:03Z</time>
      </trkpt>
      <trkpt lat="44.77016" lon="5.70237">
        <ele>789</ele>
        <time>2017-11-22T01:24:17Z</time>
      </trkpt>
      <trkpt lat="44.77023" lon="5.70281">
        <ele>789</ele>
        <time>2017-11-22T01:24:36Z</time>
      </trkpt>
      <trkpt lat="44.77027" lon="5.7032">
        <ele>789</ele>
        <time>2017-11-22T01:24:49Z</time>
      </trkpt>
      <trkpt lat="44.77028" lon="5.70359">
        <ele>788</ele>
        <time>2017-11-22T01:24:56Z</time>
      </trkpt>
      <trkpt lat="44.77023" lon="5.70404">
        <ele>788</ele>
        <time>2017-11-22T01:25:09Z</time>
      </trkpt>
      <trkpt lat="44.77017" lon="5.70448">
        <ele>786</ele>
        <time>2017-11-22T01:25:24Z</time>
      </trkpt>
      <trkpt lat="44.77017" lon="5.70468">
        <ele>785</ele>
        <time>2017-11-22T01:25:28Z</time>
      </trkpt>
      <trkpt lat="44.77008" lon="5.70487">
        <ele>785</ele>
        <time>2017-11-22T01:25:48Z</time>
      </trkpt>
      <trkpt lat="44.76978" lon="5.7058">
        <ele>789</ele>
        <time>2017-11-22T01:26:08Z</time>
      </trkpt>
      <trkpt lat="44.76939" lon="5.70699">
        <ele>787</ele>
        <time>2017-11-22T01:26:21Z</time>
      </trkpt>
      <trkpt lat="44.76915" lon="5.70773">
        <ele>792</ele>
        <time>2017-11-22T01:26:34Z</time>
      </trkpt>
      <trkpt lat="44.76902" lon="5.70823">
        <ele>791</ele>
        <time>2017-11-22T01:26:51Z</time>
      </trkpt>
      <trkpt lat="44.76893" lon="5.70879">
        <ele>790</ele>
        <time>2017-11-22T01:27:00Z</time>
      </trkpt>
      <trkpt lat="44.76877" lon="5.71011">
        <ele>787</ele>
        <time>2017-11-22T01:27:13Z</time>
      </trkpt>
      <trkpt lat="44.76868" lon="5.71074">
        <ele>788</ele>
        <time>2017-11-22T01:27:22Z</time>
      </trkpt>
      <trkpt lat="44.76857" lon="5.71116">
        <ele>788</ele>
        <time>2017-11-22T01:27:37Z</time>
      </trkpt>
      <trkpt lat="44.76835" lon="5.71169">
        <ele>790</ele>
        <time>2017-11-22T01:27:57Z</time>
      </trkpt>
      <trkpt lat="44.76786" lon="5.71273">
        <ele>791</ele>
        <time>2017-11-22T01:27:59Z</time>
      </trkpt>
      <trkpt lat="44.76749" lon="5.71351">
        <ele>798</ele>
        <time>2017-11-22T01:28:06Z</time>
      </trkpt>
      <trkpt lat="44.7674" lon="5.7137">
        <ele>799</ele>
        <time>2017-11-22T01:28:09Z</time>
      </trkpt>
      <trkpt lat="44.76724" lon="5.71406">
        <ele>798</ele>
        <time>2017-11-22T01:28:25Z</time>
      </trkpt>
      <trkpt lat="44.76707" lon="5.7147">
        <ele>796</ele>
        <time>2017-11-22T01:28:44Z</time>
      </trkpt>
      <trkpt lat="44.76679" lon="5.71588">
        <ele>794</ele>
        <time>2017-11-22T01:28:48Z</time>
      </trkpt>
      <trkpt lat="44.76649" lon="5.71669">
        <ele>794</ele>
        <time>2017-11-22T01:28:59Z</time>
      </trkpt>
      <trkpt lat="44.76637" lon="5.71695">
        <ele>796</ele>
        <time>2017-11-22T01:29:09Z</time>
      </trkpt>
      <trkpt lat="44.76627" lon="5.71712">
        <ele>797</ele>
        <time>2017-11-22T01:29:18Z</time>
      </trkpt>
      <trkpt lat="44.76606" lon="5.71742">
        <ele>799</ele>
        <time>2017-11-22T01:29:26Z</time>
      </trkpt>
      <trkpt lat="44.76598" lon="5.71758">
        <ele>795</ele>
        <time>2017-11-22T01:29:33Z</time>
      </trkpt>
      <trkpt lat="44.76587" lon="5.71787">
        <ele>790</ele>
        <time>2017-11-22T01:29:49Z</time>
      </trkpt>
      <trkpt lat="44.76543" lon="5.71911">
        <ele>802</ele>
        <time>2017-11-22T01:29:54Z</time>
      </trkpt>
      <trkpt lat="44.765" lon="5.72038">
        <ele>786</ele>
        <time>2017-11-22T01:29:57Z</time>
      </trkpt>
      <trkpt lat="44.76466" lon="5.72112">
        <ele>792</ele>
        <time>2017-11-22T01:30:12Z</time>
      </trkpt>
      <trkpt lat="44.76448" lon="5.72162">
        <ele>792</ele>
        <time>2017-11-22T01:30:29Z</time>
      </trkpt>
      <trkpt lat="44.76432" lon="5.72201">
        <ele>786</ele>
        <time>2017-11-22T01:30:44Z</time>
      </trkpt>
      <trkpt lat="44.7641" lon="5.7224">
        <ele>795</ele>
        <time>2017-11-22T01:31:03Z</time>
      </trkpt>
      <trkpt lat="44.7638" lon="5.72271">
        <ele>795</ele>
        <time>2017-11-22T01:31:16Z</time>
      </trkpt>
      <trkpt lat="44.76364" lon="5.72287">
        <ele>797</ele>
        <time>2017-11-22T01:31:34Z</time>
      </trkpt>
      <trkpt lat="44.76352" lon="5.72303">
        <ele>796</ele>
        <time>2017-11-22T01:31:38Z</time>
      </trkpt>
      <trkpt lat="44.7634" lon="5.7232">
        <ele>796</ele>
        <time>2017-11-22T01:31:51Z</time>
      </trkpt>
      <trkpt lat="44.7633" lon="5.7234">
        <ele>797</ele>
        <time>2017-11-22T01:32:11Z</time>
      </trkpt>
      <trkpt lat="44.76301" lon="5.72409">
        <ele>795</ele>
        <time>2017-11-22T01:32:29Z</time>
      </trkpt>
      <trkpt lat="44.76281" lon="5.72457">
        <ele>785</ele>
        <time>2017-11-22T01:32:36Z</time>
      </trkpt>
      <trkpt lat="44.76281" lon="5.72468">
        <ele>784</ele>
        <time>2017-11-22T01:32:45Z</time>
      </trkpt>
      <trkpt lat="44.76266" lon="5.72489">
        <ele>784</ele>
        <time>2017-11-22T01:32:59Z</time>
      </trkpt>
      <trkpt lat="44.76236" lon="5.72528">
        <ele>787</ele>
        <time>2017-11-22T01:33:19Z</time>
      </trkpt>
      <trkpt lat="44.76211" lon="5.72558">
        <ele>787</ele>
        <time>2017-11-22T01:33:31Z</time>
      </trkpt>
      <trkpt lat="44.76045" lon="5.72775">
        <ele>793</ele>
        <time>2017-11-22T01:33:40Z</time>
      </trkpt>
      <trkpt lat="44.75973" lon="5.72869">
        <ele>805</ele>
        <time>2017-11-22T01:33:54Z</time>
      </trkpt>
      <trkpt lat="44.75933" lon="5.72925">
        <ele>798</ele>
        <time>2017-11-22T01:34:01Z</time>
      </trkpt>
      <trkpt lat="44.75882" lon="5.73014">
        <ele>798</ele>
        <time>2017-11-22T01:34:19Z</time>
      </trkpt>
      <trkpt lat="44.75735" lon="5.73283">
        <ele>811</ele>
        <time>2017-11-22T01:34:28Z</time>
      </trkpt>
      <trkpt lat="44.75579" lon="5.73566">
        <ele>809</ele>
        <time>2017-11-22T01:34:34Z</time>
      </trkpt>
      <trkpt lat="44.75571" lon="5.7358">
        <ele>808</ele>
        <time>2017-11-22T01:34:40Z</time>
      </trkpt>
      <trkpt lat="44.75555" lon="5.73597">
        <ele>807</ele>
        <time>2017-11-22T01:34:52Z</time>
      </trkpt>
      <trkpt lat="44.75516" lon="5.73619">
        <ele>809</ele>
        <time>2017-11-22T01:34:59Z</time>
      </trkpt>
      <trkpt lat="44.75484" lon="5.73647">
        <ele>814</ele>
        <time>2017-11-22T01:35:10Z</time>
      </trkpt>
      <trkpt lat="44.75465" lon="5.73663">
        <ele>816</ele>
        <time>2017-11-22T01:35:21Z</time>
      </trkpt>
      <trkpt lat="44.75448" lon="5.73674">
        <ele>811</ele>
        <time>2017-11-22T01:35:40Z</time>
      </trkpt>
      <trkpt lat="44.75398" lon="5.73706">
        <ele>816</ele>
        <time>2017-11-22T01:35:44Z</time>
      </trkpt>
      <trkpt lat="44.75377" lon="5.7372">
        <ele>816</ele>
        <time>2017-11-22T01:35:48Z</time>
      </trkpt>
      <trkpt lat="44.75351" lon="5.7374">
        <ele>816</ele>
        <time>2017-11-22T01:35:51Z</time>
      </trkpt>
      <trkpt lat="44.75298" lon="5.7378">
        <ele>814</ele>
        <time>2017-11-22T01:35:59Z</time>
      </trkpt>
      <trkpt lat="44.75226" lon="5.73835">
        <ele>816</ele>
        <time>2017-11-22T01:36:19Z</time>
      </trkpt>
      <trkpt lat="44.75194" lon="5.7386">
        <ele>818</ele>
        <time>2017-11-22T01:36:21Z</time>
      </trkpt>
      <trkpt lat="44.75158" lon="5.73895">
        <ele>827</ele>
        <time>2017-11-22T01:36:35Z</time>
      </trkpt>
      <trkpt lat="44.75141" lon="5.73912">
        <ele>828</ele>
        <time>2017-11-22T01:36:44Z</time>
      </trkpt>
      <trkpt lat="44.75124" lon="5.73934">
        <ele>824</ele>
        <time>2017-11-22T01:36:50Z</time>
      </trkpt>
      <trkpt lat="44.75084" lon="5.73991">
        <ele>825</ele>
        <time>2017-11-22T01:37:03Z</time>
      </trkpt>
      <trkpt lat="44.75045" lon="5.74054">
        <ele>829</ele>
        <time>2017-11-22T01:37:09Z</time>
      </trkpt>
      <trkpt lat="44.7498" lon="5.74142">
        <ele>831</ele>
        <time>2017-11-22T01:37:20Z</time>
      </trkpt>
      <trkpt lat="44.74891" lon="5.7426">
        <ele>834</ele>
        <time>2017-11-22T01:37:29Z</time>
      </trkpt>
      <trkpt lat="44.74865" lon="5.74288">
        <ele>835</ele>
        <time>2017-11-22T01:37:37Z</time>
      </trkpt>
      <trkpt lat="44.74805" lon="5.74323">
        <ele>839</ele>
        <time>2017-11-22T01:37:53Z</time>
      </trkpt>
      <trkpt lat="44.74723" lon="5.74371">
        <ele>839</ele>
        <time>2017-11-22T01:38:00Z</time>
      </trkpt>
      <trkpt lat="44.74711" lon="5.74377">
        <ele>840</ele>
        <time>2017-11-22T01:38:11Z</time>
      </trkpt>
      <trkpt lat="44.74697" lon="5.74382">
        <ele>840</ele>
        <time>2017-11-22T01:38:18Z</time>
      </trkpt>
      <trkpt lat="44.74668" lon="5.74387">
        <ele>840</ele>
        <time>2017-11-22T01:38:29Z</time>
      </trkpt>
      <trkpt lat="44.74635" lon="5.74404">
        <ele>844</ele>
        <time>2017-11-22T01:38:42Z</time>
      </trkpt>
      <trkpt lat="44.74567" lon="5.74449">
        <ele>848</ele>
        <time>2017-11-22T01:38:52Z</time>
      </trkpt>
      <trkpt lat="44.74546" lon="5.74474">
        <ele>849</ele>
        <time>2017-11-22T01:38:57Z</time>
      </trkpt>
      <trkpt lat="44.74537" lon="5.74487">
        <ele>849</ele>
        <time>2017-11-22T01:39:07Z</time>
      </trkpt>
      <trkpt lat="44.74529" lon="5.74496">
        <ele>849</ele>
        <time>2017-11-22T01:39:09Z</time>
      </trkpt>
      <trkpt lat="44.74518" lon="5.74502">
        <ele>850</ele>
        <time>2017-11-22T01:39:24Z</time>
      </trkpt>
      <trkpt lat="44.74499" lon="5.74508">
        <ele>851</ele>
        <time>2017-11-22T01:39:43Z</time>
      </trkpt>
      <trkpt lat="44.7448" lon="5.74516">
        <ele>852</ele>
        <time>2017-11-22T01:39:56Z</time>
      </trkpt>
      <trkpt lat="44.74474" lon="5.74523">
        <ele>852</ele>
        <time>2017-11-22T01:40:05Z</time>
      </trkpt>
      <trkpt lat="44.74472" lon="5.74536">
        <ele>853</ele>
        <time>2017-11-22T01:40:10Z</time>
      </trkpt>
      <trkpt lat="44.74473" lon="5.74583">
        <ele>852</ele>
        <time>2017-11-22T01:40:28Z</time>
      </trkpt>
      <trkpt lat="44.74471" lon="5.74601">
        <ele>853</ele>
        <time>2017-11-22T01:40:43Z</time>
      </trkpt>
      <trkpt lat="44.74466" lon="5.74624">
        <ele>854</ele>
        <time>2017-11-22T01:40:47Z</time>
      </trkpt>
      <trkpt lat="44.74455" lon="5.74676">
        <ele>858</ele>
        <time>2017-11-22T01:41:03Z</time>
      </trkpt>
      <trkpt lat="44.74447" lon="5.74702">
        <ele>858</ele>
        <time>2017-11-22T01:41:07Z</time>
      </trkpt>
      <trkpt lat="44.7443" lon="5.74735">
        <ele>860</ele>
        <time>2017-11-22T01:41:12Z</time>
      </trkpt>
      <trkpt lat="44.74402" lon="5.74771">
        <ele>862</ele>
        <time>2017-11-22T01:41:26Z</time>
      </trkpt>
      <trkpt lat="44.74376" lon="5.74798">
        <ele>862</ele>
        <time>2017-11-22T01:41:37Z</time>
      </trkpt>
      <trkpt lat="44.74367" lon="5.74811">
        <ele>862</ele>
        <time>2017-11-22T01:41:50Z</time>
      </trkpt>
      <trkpt lat="44.74359" lon="5.74826">
        <ele>863</ele>
        <time>2017-11-22T01:41:59Z</time>
      </trkpt>
      <trkpt lat="44.74354" lon="5.74844">
        <ele>865</ele>
        <time>2017-11-22T01:42:13Z</time>
      </trkpt>
      <trkpt lat="44.74353" lon="5.74863">
        <ele>865</ele>
        <time>2017-11-22T01:42:16Z</time>
      </trkpt>
      <trkpt lat="44.74363" lon="5.74952">
        <ele>865</ele>
        <time>2017-11-22T01:42:28Z</time>
      </trkpt>
      <trkpt lat="44.74363" lon="5.74965">
        <ele>865</ele>
        <time>2017-11-22T01:42:38Z</time>
      </trkpt>
      <trkpt lat="44.74352" lon="5.74994">
        <ele>867</ele>
        <time>2017-11-22T01:42:55Z</time>
      </trkpt>
      <trkpt lat="44.74335" lon="5.7504">
        <ele>864</ele>
        <time>2017-11-22T01:43:09Z</time>
      </trkpt>
      <trkpt lat="44.74331" lon="5.75057">
        <ele>871</ele>
        <time>2017-11-22T01:43:20Z</time>
      </trkpt>
      <trkpt lat="44.74328" lon="5.75089">
        <ele>869</ele>
        <time>2017-11-22T01:43:26Z</time>
      </trkpt>
      <trkpt lat="44.74325" lon="5.75108">
        <ele>871</ele>
        <time>2017-11-22T01:43:35Z</time>
      </trkpt>
      <trkpt lat="44.74318" lon="5.75127">
        <ele>871</ele>
        <time>2017-11-22T01:43:43Z</time>
      </trkpt>
      <trkpt lat="44.74298" lon="5.75169">
        <ele>870</ele>
        <time>2017-11-22T01:43:51Z</time>
      </trkpt>
      <trkpt lat="44.74257" lon="5.75236">
        <ele>876</ele>
        <time>2017-11-22T01:44:03Z</time>
      </trkpt>
      <trkpt lat="44.74231" lon="5.75289">
        <ele>884</ele>
        <time>2017-11-22T01:44:15Z</time>
      </trkpt>
      <trkpt lat="44.74192" lon="5.75363">
        <ele>882</ele>
        <time>2017-11-22T01:44:31Z</time>
      </trkpt>
      <trkpt lat="44.74162" lon="5.75421">
        <ele>887</ele>
        <time>2017-11-22T01:44:43Z</time>
      </trkpt>
      <trkpt lat="44.74142" lon="5.75473">
        <ele>892</ele>
        <time>2017-11-22T01:45:01Z</time>
      </trkpt>
      <trkpt lat="44.74134" lon="5.75497">
        <ele>892</ele>
        <time>2017-11-22T01:45:18Z</time>
      </trkpt>
      <trkpt lat="44.74124" lon="5.75518">
        <ele>888</ele>
        <time>2017-11-22T01:45:37Z</time>
      </trkpt>
      <trkpt lat="44.74115" lon="5.75546">
        <ele>887</ele>
        <time>2017-11-22T01:45:48Z</time>
      </trkpt>
      <trkpt lat="44.74108" lon="5.75577">
        <ele>887</ele>
        <time>2017-11-22T01:45:55Z</time>
      </trkpt>
      <trkpt lat="44.74103" lon="5.75595">
        <ele>881</ele>
        <time>2017-11-22T01:46:08Z</time>
      </trkpt>
      <trkpt lat="44.74095" lon="5.7561">
        <ele>880</ele>
        <time>2017-11-22T01:46:21Z</time>
      </trkpt>
      <trkpt lat="44.74081" lon="5.75628">
        <ele>892</ele>
        <time>2017-11-22T01:46:27Z</time>
      </trkpt>
      <trkpt lat="44.74059" lon="5.75652">
        <ele>891</ele>
        <time>2017-11-22T01:46:42Z</time>
      </trkpt>
      <trkpt lat="44.74046" lon="5.75669">
        <ele>884</ele>
        <time>2017-11-22T01:46:49Z</time>
      </trkpt>
      <trkpt lat="44.74034" lon="5.75692">
        <ele>886</ele>
        <time>2017-11-22T01:47:06Z</time>
      </trkpt>
      <trkpt lat="44.74022" lon="5.75716">
        <ele>885</ele>
        <time>2017-11-22T01:47:14Z</time>
      </trkpt>
      <trkpt lat="44.74013" lon="5.75742">
        <ele>882</ele>
        <time>2017-11-22T01:47:23Z</time>
      </trkpt>
      <trkpt lat="44.74013" lon="5.75756">
        <ele>879</ele>
        <time>2017-11-22T01:47:42Z</time>
      </trkpt>
      <trkpt lat="44.74019" lon="5.75772">
        <ele>878</ele>
        <time>2017-11-22T01:47:56Z</time>
      </trkpt>
      <trkpt lat="44.74048" lon="5.75823">
        <ele>876</ele>
        <time>2017-11-22T01:48:10Z</time>
      </trkpt>
      <trkpt lat="44.74068" lon="5.75857">
        <ele>877</ele>
        <time>2017-11-22T01:48:20Z</time>
      </trkpt>
      <trkpt lat="44.7408" lon="5.75879">
        <ele>878</ele>
        <time>2017-11-22T01:48:36Z</time>
      </trkpt>
      <trkpt lat="44.74089" lon="5.75905">
        <ele>879</ele>
        <time>2017-11-22T01:48:54Z</time>
      </trkpt>
      <trkpt lat="44.74097" lon="5.75935">
        <ele>881</ele>
        <time>2017-11-22T01:49:03Z</time>
      </trkpt>
      <trkpt lat="44.74111" lon="5.7598">
        <ele>882</ele>
        <time>2017-11-22T01:49:16Z</time>
      </trkpt>
      <trkpt lat="44.74115" lon="5.76017">
        <ele>885</ele>
        <time>2017-11-22T01:49:32Z</time>
      </trkpt>
      <trkpt lat="44.74113" lon="5.76128">
        <ele>891</ele>
        <time>2017-11-22T01:49:47Z</time>
      </trkpt>
      <trkpt lat="44.74114" lon="5.76179">
        <ele>894</ele>
        <time>2017-11-22T01:49:55Z</time>
      </trkpt>
      <trkpt lat="44.74118" lon="5.76211">
        <ele>895</ele>
        <time>2017-11-22T01:49:58Z</time>
      </trkpt>
      <trkpt lat="44.74129" lon="5.76246">
        <ele>895</ele>
        <time>2017-11-22T01:50:00Z</time>
      </trkpt>
      <trkpt lat="44.74142" lon="5.76272">
        <ele>898</ele>
        <time>2017-11-22T01:50:02Z</time>
      </trkpt>
      <trkpt lat="44.74163" lon="5.76303">
        <ele>898</ele>
        <time>2017-11-22T01:50:09Z</time>
      </trkpt>
      <trkpt lat="44.74171" lon="5.76318">
        <ele>898</ele>
        <time>2017-11-22T01:50:25Z</time>
      </trkpt>
      <trkpt lat="44.74175" lon="5.76336">
        <ele>900</ele>
        <time>2017-11-22T01:50:40Z</time>
      </trkpt>
      <trkpt lat="44.74181" lon="5.76381">
        <ele>901</ele>
        <time>2017-11-22T01:51:00Z</time>
      </trkpt>
      <trkpt lat="44.74181" lon="5.76436">
        <ele>905</ele>
        <time>2017-11-22T01:51:04Z</time>
      </trkpt>
      <trkpt lat="44.74168" lon="5.76502">
        <ele>908</ele>
        <time>2017-11-22T01:51:22Z</time>
      </trkpt>
      <trkpt lat="44.74163" lon="5.76542">
        <ele>909</ele>
        <time>2017-11-22T01:51:24Z</time>
      </trkpt>
      <trkpt lat="44.74163" lon="5.76548">
        <ele>910</ele>
        <time>2017-11-22T01:51:35Z</time>
      </trkpt>
      <trkpt lat="44.74166" lon="5.76552">
        <ele>910</ele>
        <time>2017-11-22T01:51:40Z</time>
      </trkpt>
      <trkpt lat="44.74195" lon="5.76565">
        <ele>908</ele>
        <time>2017-11-22T01:51:51Z</time>
      </trkpt>
      <trkpt lat="44.74258" lon="5.76593">
        <ele>907</ele>
        <time>2017-11-22T01:51:57Z</time>
      </trkpt>
      <trkpt lat="44.74291" lon="5.76625">
        <ele>908</ele>
        <time>2017-11-22T01:52:04Z</time>
      </trkpt>
      <trkpt lat="44.74341" lon="5.76677">
        <ele>912</ele>
        <time>2017-11-22T01:52:19Z</time>
      </trkpt>
      <trkpt lat="44.74422" lon="5.76764">
        <ele>915</ele>
        <time>2017-11-22T01:52:27Z</time>
      </trkpt>
      <trkpt lat="44.74454" lon="5.76796">
        <ele>917</ele>
        <time>2017-11-22T01:52:42Z</time>
      </trkpt>
      <trkpt lat="44.7448" lon="5.76816">
        <ele>918</ele>
        <time>2017-11-22T01:53:00Z</time>
      </trkpt>
      <trkpt lat="44.74486" lon="5.76821">
        <ele>919</ele>
        <time>2017-11-22T01:53:19Z</time>
      </trkpt>
      <trkpt lat="44.74499" lon="5.76821">
        <ele>919</ele>
        <time>2017-11-22T01:53:27Z</time>
      </trkpt>
      <trkpt lat="44.74537" lon="5.76814">
        <ele>922</ele>
        <time>2017-11-22T01:53:43Z</time>
      </trkpt>
      <trkpt lat="44.74556" lon="5.76809">
        <ele>923</ele>
        <time>2017-11-22T01:53:52Z</time>
      </trkpt>
      <trkpt lat="44.74575" lon="5.76809">
        <ele>924</ele>
        <time>2017-11-22T01:54:12Z</time>
      </trkpt>
      <trkpt lat="44.7459" lon="5.76806">
        <ele>929</ele>
        <time>2017-11-22T01:54:30Z</time>
      </trkpt>
      <trkpt lat="44.74597" lon="5.76801">
        <ele>929</ele>
        <time>2017-11-22T01:54:38Z</time>
      </trkpt>
      <trkpt lat="44.74603" lon="5.76788">
        <ele>929</ele>
        <time>2017-11-22T01:54:43Z</time>
      </trkpt>
      <trkpt lat="44.74622" lon="5.76749">
        <ele>924</ele>
        <time>2017-11-22T01:54:51Z</time>
      </trkpt>
      <trkpt lat="44.74629" lon="5.76741">
        <ele>924</ele>
        <time>2017-11-22T01:55:05Z</time>
      </trkpt>
      <trkpt lat="44.74638" lon="5.76737">
        <ele>924</ele>
        <time>2017-11-22T01:55:22Z</time>
      </trkpt>
      <trkpt lat="44.74657" lon="5.76743">
        <ele>927</ele>
        <time>2017-11-22T01:55:36Z</time>
      </trkpt>
      <trkpt lat="44.74706" lon="5.7677">
        <ele>932</ele>
        <time>2017-11-22T01:55:42Z</time>
      </trkpt>
      <trkpt lat="44.74759" lon="5.76799">
        <ele>931</ele>
        <time>2017-11-22T01:55:45Z</time>
      </trkpt>
      <trkpt lat="44.74783" lon="5.76809">
        <ele>932</ele>
        <time>2017-11-22T01:55:52Z</time>
      </trkpt>
      <trkpt lat="44.74802" lon="5.76812">
        <ele>931</ele>
        <time>2017-11-22T01:56:04Z</time>
      </trkpt>
      <trkpt lat="44.74855" lon="5.76808">
        <ele>930</ele>
        <time>2017-11-22T01:56:06Z</time>
      </trkpt>
      <trkpt lat="44.7489" lon="5.76805">
        <ele>931</ele>
        <time>2017-11-22T01:56:16Z</time>
      </trkpt>
      <trkpt lat="44.74904" lon="5.768">
        <ele>931</ele>
        <time>2017-11-22T01:56:28Z</time>
      </trkpt>
      <trkpt lat="44.74993" lon="5.76729">
        <ele>932</ele>
        <time>2017-11-22T01:56:38Z</time>
      </trkpt>
      <trkpt lat="44.75033" lon="5.76685">
        <ele>940</ele>
        <time>2017-11-22T01:56:46Z</time>
      </trkpt>
      <trkpt lat="44.75062" lon="5.76662">
        <ele>941</ele>
        <time>2017-11-22T01:57:06Z</time>
      </trkpt>
      <trkpt lat="44.75074" lon="5.76657">
        <ele>942</ele>
        <time>2017-11-22T01:57:23Z</time>
      </trkpt>
      <trkpt lat="44.75114" lon="5.76634">
        <ele>946</ele>
        <time>2017-11-22T01:57:38Z</time>
      </trkpt>
      <trkpt lat="44.75121" lon="5.76628">
        <ele>946</ele>
        <time>2017-11-22T01:57:58Z</time>
      </trkpt>
      <trkpt lat="44.75131" lon="5.76622">
        <ele>947</ele>
        <time>2017-11-22T01:58:09Z</time>
      </trkpt>
      <trkpt lat="44.75151" lon="5.76609">
        <ele>947</ele>
        <time>2017-11-22T01:58:13Z</time>
      </trkpt>
      <trkpt lat="44.7517" lon="5.76596">
        <ele>950</ele>
        <time>2017-11-22T01:58:27Z</time>
      </trkpt>
      <trkpt lat="44.75178" lon="5.76587">
        <ele>950</ele>
        <time>2017-11-22T01:58:32Z</time>
      </trkpt>
      <trkpt lat="44.75186" lon="5.76569">
        <ele>953</ele>
        <time>2017-11-22T01:58:38Z</time>
      </trkpt>
      <trkpt lat="44.75188" lon="5.76542">
        <ele>955</ele>
        <time>2017-11-22T01:58:54Z</time>
      </trkpt>
      <trkpt lat="44.75183" lon="5.76525">
        <ele>956</ele>
        <time>2017-11-22T01:59:05Z</time>
      </trkpt>
      <trkpt lat="44.75169" lon="5.76496">
        <ele>956</ele>
        <time>2017-11-22T01:59:25Z</time>
      </trkpt>
      <trkpt lat="44.75148" lon="5.76454">
        <ele>955</ele>
        <time>2017-11-22T01:59:37Z</time>
      </trkpt>
      <trkpt lat="44.75129" lon="5.76428">
        <ele>954</ele>
        <time>2017-11-22T01:59:56Z</time>
      </trkpt>
      <trkpt lat="44.75115" lon="5.7641">
        <ele>960</ele>
        <time>2017-11-22T02:00:15Z</time>
      </trkpt>
      <trkpt lat="44.7511" lon="5.764">
        <ele>960</ele>
        <time>2017-11-22T02:00:25Z</time>
      </trkpt>
      <trkpt lat="44.75111" lon="5.76383">
        <ele>962</ele>
        <time>2017-11-22T02:00:28Z</time>
      </trkpt>
      <trkpt lat="44.75115" lon="5.76378">
        <ele>963</ele>
        <time>2017-11-22T02:00:35Z</time>
      </trkpt>
      <trkpt lat="44.75122" lon="5.76378">
        <ele>963</ele>
        <time>2017-11-22T02:00:47Z</time>
      </trkpt>
      <trkpt lat="44.75138" lon="5.76399">
        <ele>964</ele>
        <time>2017-11-22T02:00:51Z</time>
      </trkpt>
      <trkpt lat="44.75154" lon="5.76422">
        <ele>961</ele>
        <time>2017-11-22T02:00:55Z</time>
      </trkpt>
      <trkpt lat="44.75179" lon="5.76439">
        <ele>969</ele>
        <time>2017-11-22T02:01:01Z</time>
      </trkpt>
      <trkpt lat="44.75217" lon="5.76467">
        <ele>970</ele>
        <time>2017-11-22T02:01:08Z</time>
      </trkpt>
      <trkpt lat="44.75239" lon="5.76469">
        <ele>971</ele>
        <time>2017-11-22T02:01:12Z</time>
      </trkpt>
      <trkpt lat="44.75251" lon="5.76471">
        <ele>982</ele>
        <time>2017-11-22T02:01:19Z</time>
      </trkpt>
      <trkpt lat="44.75261" lon="5.7648">
        <ele>980</ele>
        <time>2017-11-22T02:01:31Z</time>
      </trkpt>
      <trkpt lat="44.75267" lon="5.76488">
        <ele>980</ele>
        <time>2017-11-22T02:01:41Z</time>
      </trkpt>
      <trkpt lat="44.75272" lon="5.76494">
        <ele>980</ele>
        <time>2017-11-22T02:01:48Z</time>
      </trkpt>
      <trkpt lat="44.75289" lon="5.7651">
        <ele>973</ele>
        <time>2017-11-22T02:01:58Z</time>
      </trkpt>
      <trkpt lat="44.75301" lon="5.76517">
        <ele>975</ele>
        <time>2017-11-22T02:02:06Z</time>
      </trkpt>
      <trkpt lat="44.75305" lon="5.76518">
        <ele>975</ele>
        <time>2017-11-22T02:02:18Z</time>
      </trkpt>
      <trkpt lat="44.75344" lon="5.76524">
        <ele>988</ele>
        <time>2017-11-22T02:02:38Z</time>
      </trkpt>
      <trkpt lat="44.75368" lon="5.76529">
        <ele>991</ele>
        <time>2017-11-22T02:02:44Z</time>
      </trkpt>
      <trkpt lat="44.75382" lon="5.76535">
        <ele>993</ele>
        <time>2017-11-22T02:02:50Z</time>
      </trkpt>
      <trkpt lat="44.75401" lon="5.76554">
        <ele>993</ele>
        <time>2017-11-22T02:03:01Z</time>
      </trkpt>
      <trkpt lat="44.75434" lon="5.76591">
        <ele>998</ele>
        <time>2017-11-22T02:03:21Z</time>
      </trkpt>
      <trkpt lat="44.7545" lon="5.76624">
        <ele>999</ele>
        <time>2017-11-22T02:03:40Z</time>
      </trkpt>
      <trkpt lat="44.75453" lon="5.76637">
        <ele>998</ele>
        <time>2017-11-22T02:03:52Z</time>
      </trkpt>
      <trkpt lat="44.75462" lon="5.76654">
        <ele>998</ele>
        <time>2017-11-22T02:03:55Z</time>
      </trkpt>
      <trkpt lat="44.75468" lon="5.76657">
        <ele>998</ele>
        <time>2017-11-22T02:03:57Z</time>
      </trkpt>
      <trkpt lat="44.75488" lon="5.76662">
        <ele>1000</ele>
        <time>2017-11-22T02:04:14Z</time>
      </trkpt>
      <trkpt lat="44.75552" lon="5.76678">
        <ele>1007</ele>
        <time>2017-11-22T02:04:21Z</time>
      </trkpt>
      <trkpt lat="44.75581" lon="5.76686">
        <ele>1011</ele>
        <time>2017-11-22T02:04:36Z</time>
      </trkpt>
      <trkpt lat="44.75598" lon="5.76689">
        <ele>1024</ele>
        <time>2017-11-22T02:04:40Z</time>
      </trkpt>
      <trkpt lat="44.75602" lon="5.76693">
        <ele>1024</ele>
        <time>2017-11-22T02:04:53Z</time>
      </trkpt>
      <trkpt lat="44.75606" lon="5.76704">
        <ele>1025</ele>
        <time>2017-11-22T02:04:57Z</time>
      </trkpt>
      <trkpt lat="44.75606" lon="5.76718">
        <ele>1024</ele>
        <time>2017-11-22T02:05:16Z</time>
      </trkpt>
      <trkpt lat="44.756" lon="5.76727">
        <ele>1022</ele>
        <time>2017-11-22T02:05:29Z</time>
      </trkpt>
      <trkpt lat="44.75593" lon="5.76758">
        <ele>1013</ele>
        <time>2017-11-22T02:05:36Z</time>
      </trkpt>
      <trkpt lat="44.75603" lon="5.76782">
        <ele>1017</ele>
        <time>2017-11-22T02:05:55Z</time>
      </trkpt>
      <trkpt lat="44.75634" lon="5.76826">
        <ele>1020</ele>
        <time>2017-11-22T02:06:06Z</time>
      </trkpt>
      <trkpt lat="44.7566" lon="5.76847">
        <ele>1019</ele>
        <time>2017-11-22T02:06:12Z</time>
      </trkpt>
      <trkpt lat="44.75672" lon="5.76845">
        <ele>1030</ele>
        <time>2017-11-22T02:06:17Z</time>
      </trkpt>
      <trkpt lat="44.75685" lon="5.76838">
        <ele>1032</ele>
        <time>2017-11-22T02:06:33Z</time>
      </trkpt>
      <trkpt lat="44.75692" lon="5.76837">
        <ele>1033</ele>
        <time>2017-11-22T02:06:40Z</time>
      </trkpt>
      <trkpt lat="44.75703" lon="5.76839">
        <ele>1036</ele>
        <time>2017-11-22T02:06:42Z</time>
      </trkpt>
      <trkpt lat="44.75712" lon="5.76843">
        <ele>1038</ele>
        <time>2017-11-22T02:06:53Z</time>
      </trkpt>
      <trkpt lat="44.75716" lon="5.76852">
        <ele>1038</ele>
        <time>2017-11-22T02:07:05Z</time>
      </trkpt>
      <trkpt lat="44.75717" lon="5.76868">
        <ele>1036</ele>
        <time>2017-11-22T02:07:16Z</time>
      </trkpt>
      <trkpt lat="44.75716" lon="5.7689">
        <ele>1034</ele>
        <time>2017-11-22T02:07:28Z</time>
      </trkpt>
      <trkpt lat="44.75715" lon="5.76908">
        <ele>1033</ele>
        <time>2017-11-22T02:07:48Z</time>
      </trkpt>
      <trkpt lat="44.75722" lon="5.76923">
        <ele>1027</ele>
        <time>2017-11-22T02:08:00Z</time>
      </trkpt>
      <trkpt lat="44.75731" lon="5.76951">
        <ele>1026</ele>
        <time>2017-11-22T02:08:08Z</time>
      </trkpt>
      <trkpt lat="44.7574" lon="5.76956">
        <ele>1026</ele>
        <time>2017-11-22T02:08:24Z</time>
      </trkpt>
      <trkpt lat="44.75756" lon="5.76954">
        <ele>1040</ele>
        <time>2017-11-22T02:08:40Z</time>
      </trkpt>
      <trkpt lat="44.75769" lon="5.76945">
        <ele>1042</ele>
        <time>2017-11-22T02:08:58Z</time>
      </trkpt>
      <trkpt lat="44.75775" lon="5.76937">
        <ele>1043</ele>
        <time>2017-11-22T02:09:04Z</time>
      </trkpt>
      <trkpt lat="44.75792" lon="5.76922">
        <ele>1046</ele>
        <time>2017-11-22T02:09:24Z</time>
      </trkpt>
      <trkpt lat="44.75799" lon="5.7692">
        <ele>1047</ele>
        <time>2017-11-22T02:09:35Z</time>
      </trkpt>
      <trkpt lat="44.75811" lon="5.76926">
        <ele>1050</ele>
        <time>2017-11-22T02:09:48Z</time>
      </trkpt>
      <trkpt lat="44.75851" lon="5.77002">
        <ele>1055</ele>
        <time>2017-11-22T02:10:08Z</time>
      </trkpt>
      <trkpt lat="44.75869" lon="5.77036">
        <ele>1062</ele>
        <time>2017-11-22T02:10:24Z</time>
      </trkpt>
      <trkpt lat="44.75875" lon="5.77054">
        <ele>1062</ele>
        <time>2017-11-22T02:10:43Z</time>
      </trkpt>
      <trkpt lat="44.75879" lon="5.7709">
        <ele>1061</ele>
        <time>2017-11-22T02:10:46Z</time>
      </trkpt>
      <trkpt lat="44.75873" lon="5.77117">
        <ele>1061</ele>
        <time>2017-11-22T02:11:01Z</time>
      </trkpt>
      <trkpt lat="44.75854" lon="5.77161">
        <ele>1059</ele>
        <time>2017-11-22T02:11:17Z</time>
      </trkpt>
      <trkpt lat="44.75843" lon="5.77187">
        <ele>1067</ele>
        <time>2017-11-22T02:11:24Z</time>
      </trkpt>
      <trkpt lat="44.75838" lon="5.77192">
        <ele>1068</ele>
        <time>2017-11-22T02:11:43Z</time>
      </trkpt>
      <trkpt lat="44.75816" lon="5.77197">
        <ele>1057</ele>
        <time>2017-11-22T02:11:59Z</time>
      </trkpt>
      <trkpt lat="44.75803" lon="5.77199">
        <ele>1056</ele>
        <time>2017-11-22T02:12:02Z</time>
      </trkpt>
      <trkpt lat="44.75799" lon="5.77204">
        <ele>1056</ele>
        <time>2017-11-22T02:12:04Z</time>
      </trkpt>
      <trkpt lat="44.75796" lon="5.77224">
        <ele>1058</ele>
        <time>2017-11-22T02:12:24Z</time>
      </trkpt>
      <trkpt lat="44.7579" lon="5.77277">
        <ele>1069</ele>
        <time>2017-11-22T02:12:43Z</time>
      </trkpt>
      <trkpt lat="44.75773" lon="5.77401">
        <ele>1085</ele>
        <time>2017-11-22T02:12:56Z</time>
      </trkpt>
      <trkpt lat="44.75769" lon="5.77408">
        <ele>1084</ele>
        <time>2017-11-22T02:13:08Z</time>
      </trkpt>
      <trkpt lat="44.7575" lon="5.77424">
        <ele>1085</ele>
        <time>2017-11-22T02:13:14Z</time>
      </trkpt>
      <trkpt lat="44.75738" lon="5.77434">
        <ele>1081</ele>
        <time>2017-11-22T02:13:17Z</time>
      </trkpt>
      <trkpt lat="44.75732" lon="5.77443">
        <ele>1083</ele>
        <time>2017-11-22T02:13:35Z</time>
      </trkpt>
      <trkpt lat="44.75732" lon="5.7746">
        <ele>1085</ele>
        <time>2017-11-22T02:13:54Z</time>
      </trkpt>
      <trkpt lat="44.75735" lon="5.77466">
        <ele>1086</ele>
        <time>2017-11-22T02:14:14Z</time>
      </trkpt>
      <trkpt lat="44.75739" lon="5.77469">
        <ele>1087</ele>
        <time>2017-11-22T02:14:21Z</time>
      </trkpt>
      <trkpt lat="44.75747" lon="5.77468">
        <ele>1087</ele>
        <time>2017-11-22T02:14:31Z</time>
      </trkpt>
      <trkpt lat="44.75761" lon="5.77453">
        <ele>1100</ele>
        <time>2017-11-22T02:14:47Z</time>
      </trkpt>
      <trkpt lat="44.75792" lon="5.77414">
        <ele>1091</ele>
        <time>2017-11-22T02:15:02Z</time>
      </trkpt>
      <trkpt lat="44.758" lon="5.77381">
        <ele>1089</ele>
        <time>2017-11-22T02:15:16Z</time>
      </trkpt>
      <trkpt lat="44.75802" lon="5.77356">
        <ele>1087</ele>
        <time>2017-11-22T02:15:25Z</time>
      </trkpt>
      <trkpt lat="44.7581" lon="5.77328">
        <ele>1078</ele>
        <time>2017-11-22T02:15:35Z</time>
      </trkpt>
      <trkpt lat="44.75821" lon="5.77299">
        <ele>1076</ele>
        <time>2017-11-22T02:15:39Z</time>
      </trkpt>
      <trkpt lat="44.75829" lon="5.77296">
        <ele>1076</ele>
        <time>2017-11-22T02:15:55Z</time>
      </trkpt>
      <trkpt lat="44.75834" lon="5.77299">
        <ele>1092</ele>
        <time>2017-11-22T02:16:02Z</time>
      </trkpt>
      <trkpt lat="44.75846" lon="5.77322">
        <ele>1094</ele>
        <time>2017-11-22T02:16:17Z</time>
      </trkpt>
      <trkpt lat="44.75857" lon="5.77335">
        <ele>1109</ele>
        <time>2017-11-22T02:16:23Z</time>
      </trkpt>
      <trkpt lat="44.75867" lon="5.77338">
        <ele>1113</ele>
        <time>2017-11-22T02:16:34Z</time>
      </trkpt>
      <trkpt lat="44.75884" lon="5.77337">
        <ele>1117</ele>
        <time>2017-11-22T02:16:42Z</time>
      </trkpt>
      <trkpt lat="44.75898" lon="5.77332">
        <ele>1106</ele>
        <time>2017-11-22T02:16:52Z</time>
      </trkpt>
      <trkpt lat="44.75926" lon="5.77315">
        <ele>1120</ele>
        <time>2017-11-22T02:16:59Z</time>
      </trkpt>
      <trkpt lat="44.75934" lon="5.77305">
        <ele>1120</ele>
        <time>2017-11-22T02:17:01Z</time>
      </trkpt>
      <trkpt lat="44.7594" lon="5.77286">
        <ele>1118</ele>
        <time>2017-11-22T02:17:10Z</time>
      </trkpt>
      <trkpt lat="44.7595" lon="5.77262">
        <ele>1116</ele>
        <time>2017-11-22T02:17:24Z</time>
      </trkpt>
      <trkpt lat="44.75959" lon="5.7725">
        <ele>1105</ele>
        <time>2017-11-22T02:17:38Z</time>
      </trkpt>
      <trkpt lat="44.76005" lon="5.77182">
        <ele>1112</ele>
        <time>2017-11-22T02:17:50Z</time>
      </trkpt>
      <trkpt lat="44.76019" lon="5.77161">
        <ele>1111</ele>
        <time>2017-11-22T02:18:05Z</time>
      </trkpt>
      <trkpt lat="44.76037" lon="5.77157">
        <ele>1112</ele>
        <time>2017-11-22T02:18:16Z</time>
      </trkpt>
      <trkpt lat="44.76041" lon="5.77157">
        <ele>1112</ele>
        <time>2017-11-22T02:18:34Z</time>
      </trkpt>
      <trkpt lat="44.76044" lon="5.77159">
        <ele>1112</ele>
        <time>2017-11-22T02:18:37Z</time>
      </trkpt>
      <trkpt lat="44.76048" lon="5.77169">
        <ele>1112</ele>
        <time>2017-11-22T02:18:46Z</time>
      </trkpt>
      <trkpt lat="44.76052" lon="5.772">
        <ele>1113</ele>
        <time>2017-11-22T02:18:53Z</time>
      </trkpt>
      <trkpt lat="44.76059" lon="5.77227">
        <ele>1115</ele>
        <time>2017-11-22T02:19:13Z</time>
      </trkpt>
      <trkpt lat="44.76063" lon="5.77237">
        <ele>1115</ele>
        <time>2017-11-22T02:19:16Z</time>
      </trkpt>
      <trkpt lat="44.76081" lon="5.77264">
        <ele>1120</ele>
        <time>2017-11-22T02:19:22Z</time>
      </trkpt>
      <trkpt lat="44.76101" lon="5.77305">
        <ele>1101</ele>
        <time>2017-11-22T02:19:26Z</time>
      </trkpt>
      <trkpt lat="44.76104" lon="5.7733">
        <ele>1105</ele>
        <time>2017-11-22T02:19:28Z</time>
      </trkpt>
      <trkpt lat="44.76102" lon="5.77347">
        <ele>1102</ele>
        <time>2017-11-22T02:19:37Z</time>
      </trkpt>
      <trkpt lat="44.76096" lon="5.77358">
        <ele>1101</ele>
        <time>2017-11-22T02:19:57Z</time>
      </trkpt>
      <trkpt lat="44.76079" lon="5.77403">
        <ele>1120</ele>
        <time>2017-11-22T02:20:11Z</time>
      </trkpt>
      <trkpt lat="44.76074" lon="5.7742">
        <ele>1115</ele>
        <time>2017-11-22T02:20:28Z</time>
      </trkpt>
      <trkpt lat="44.76073" lon="5.7744">
        <ele>1119</ele>
        <time>2017-11-22T02:20:38Z</time>
      </trkpt>
      <trkpt lat="44.76064" lon="5.77483">
        <ele>1117</ele>
        <time>2017-11-22T02:20:55Z</time>
      </trkpt>
      <trkpt lat="44.76058" lon="5.77503">
        <ele>1116</ele>
        <time>2017-11-22T02:21:09Z</time>
      </trkpt>
      <trkpt lat="44.76057" lon="5.77512">
        <ele>1118</ele>
        <time>2017-11-22T02:21:23Z</time>
      </trkpt>
      <trkpt lat="44.7606" lon="5.77521">
        <ele>1118</ele>
        <time>2017-11-22T02:21:34Z</time>
      </trkpt>
      <trkpt lat="44.76085" lon="5.77561">
        <ele>1090</ele>
        <time>2017-11-22T02:21:36Z</time>
      </trkpt>
      <trkpt lat="44.76104" lon="5.77589">
        <ele>1094</ele>
        <time>2017-11-22T02:21:49Z</time>
      </trkpt>
      <trkpt lat="44.7612" lon="5.7761">
        <ele>1090</ele>
        <time>2017-11-22T02:21:52Z</time>
      </trkpt>
      <trkpt lat="44.76126" lon="5.77615">
        <ele>1089</ele>
        <time>2017-11-22T02:21:59Z</time>
      </trkpt>
      <trkpt lat="44.76135" lon="5.7762">
        <ele>1087</ele>
        <time>2017-11-22T02:22:11Z</time>
      </trkpt>
      <trkpt lat="44.7614" lon="5.77621">
        <ele>1086</ele>
        <time>2017-11-22T02:22:19Z</time>
      </trkpt>
      <trkpt lat="44.76144" lon="5.77631">
        <ele>1086</ele>
        <time>2017-11-22T02:22:34Z</time>
      </trkpt>
      <trkpt lat="44.76144" lon="5.77639">
        <ele>1086</ele>
        <time>2017-11-22T02:22:48Z</time>
      </trkpt>
      <trkpt lat="44.76139" lon="5.77653">
        <ele>1087</ele>
        <time>2017-11-22T02:23:03Z</time>
      </trkpt>
      <trkpt lat="44.76125" lon="5.77703">
        <ele>1105</ele>
        <time>2017-11-22T02:23:17Z</time>
      </trkpt>
      <trkpt lat="44.76124" lon="5.77726">
        <ele>1108</ele>
        <time>2017-11-22T02:23:33Z</time>
      </trkpt>
      <trkpt lat="44.76124" lon="5.77737">
        <ele>1108</ele>
        <time>2017-11-22T02:23:43Z</time>
      </trkpt>
      <trkpt lat="44.7613" lon="5.77749">
        <ele>1107</ele>
        <time>2017-11-22T02:23:51Z</time>
      </trkpt>
      <trkpt lat="44.76141" lon="5.77753">
        <ele>1115</ele>
        <time>2017-11-22T02:23:58Z</time>
      </trkpt>
      <trkpt lat="44.76163" lon="5.77749">
        <ele>1093</ele>
        <time>2017-11-22T02:24:15Z</time>
      </trkpt>
      <trkpt lat="44.7618" lon="5.77739">
        <ele>1086</ele>
        <time>2017-11-22T02:24:25Z</time>
      </trkpt>
      <trkpt lat="44.76191" lon="5.77733">
        <ele>1084</ele>
        <time>2017-11-22T02:24:30Z</time>
      </trkpt>
      <trkpt lat="44.76198" lon="5.77732">
        <ele>1083</ele>
        <time>2017-11-22T02:24:36Z</time>
      </trkpt>
      <trkpt lat="44.76204" lon="5.77735">
        <ele>1083</ele>
        <time>2017-11-22T02:24:41Z</time>
      </trkpt>
      <trkpt lat="44.76214" lon="5.77749">
        <ele>1084</ele>
        <time>2017-11-22T02:24:51Z</time>
      </trkpt>
      <trkpt lat="44.76224" lon="5.77752">
        <ele>1102</ele>
        <time>2017-11-22T02:25:00Z</time>
      </trkpt>
      <trkpt lat="44.76231" lon="5.77748">
        <ele>1086</ele>
        <time>2017-11-22T02:25:17Z</time>
      </trkpt>
      <trkpt lat="44.76236" lon="5.77742">
        <ele>1087</ele>
        <time>2017-11-22T02:25:35Z</time>
      </trkpt>
      <trkpt lat="44.76256" lon="5.77705">
        <ele>1080</ele>
        <time>2017-11-22T02:25:50Z</time>
      </trkpt>
      <trkpt lat="44.76264" lon="5.777">
        <ele>1079</ele>
        <time>2017-11-22T02:26:06Z</time>
      </trkpt>
      <trkpt lat="44.76271" lon="5.77704">
        <ele>1081</ele>
        <time>2017-11-22T02:26:15Z</time>
      </trkpt>
      <trkpt lat="44.76276" lon="5.77711">
        <ele>1083</ele>
        <time>2017-11-22T02:26:34Z</time>
      </trkpt>
      <trkpt lat="44.76286" lon="5.77723">
        <ele>1085</ele>
        <time>2017-11-22T02:26:48Z</time>
      </trkpt>
      <trkpt lat="44.76296" lon="5.7772">
        <ele>1085</ele>
        <time>2017-11-22T02:27:03Z</time>
      </trkpt>
      <trkpt lat="44.76303" lon="5.77701">
        <ele>1083</ele>
        <time>2017-11-22T02:27:14Z</time>
      </trkpt>
      <trkpt lat="44.76306" lon="5.77663">
        <ele>1064</ele>
        <time>2017-11-22T02:27:28Z</time>
      </trkpt>
      <trkpt lat="44.76317" lon="5.77645">
        <ele>1063</ele>
        <time>2017-11-22T02:27:31Z</time>
      </trkpt>
      <trkpt lat="44.76335" lon="5.77629">
        <ele>1065</ele>
        <time>2017-11-22T02:27:46Z</time>
      </trkpt>
      <trkpt lat="44.76362" lon="5.7761">
        <ele>1062</ele>
        <time>2017-11-22T02:27:49Z</time>
      </trkpt>
      <trkpt lat="44.76378" lon="5.7761">
        <ele>1063</ele>
        <time>2017-11-22T02:28:06Z</time>
      </trkpt>
      <trkpt lat="44.76407" lon="5.77599">
        <ele>1061</ele>
        <time>2017-11-22T02:28:11Z</time>
      </trkpt>
      <trkpt lat="44.76455" lon="5.77572">
        <ele>1046</ele>
        <time>2017-11-22T02:28:13Z</time>
      </trkpt>
      <trkpt lat="44.76481" lon="5.77552">
        <ele>1044</ele>
        <time>2017-11-22T02:28:17Z</time>
      </trkpt>
      <trkpt lat="44.76508" lon="5.77546">
        <ele>1040</ele>
        <time>2017-11-22T02:28:19Z</time>
      </trkpt>
      <trkpt lat="44.76526" lon="5.77531">
        <ele>1037</ele>
        <time>2017-11-22T02:28:28Z</time>
      </trkpt>
      <trkpt lat="44.76547" lon="5.77515">
        <ele>1036</ele>
        <time>2017-11-22T02:28:39Z</time>
      </trkpt>
      <trkpt lat="44.76578" lon="5.77497">
        <ele>1033</ele>
        <time>2017-11-22T02:28:58Z</time>
      </trkpt>
      <trkpt lat="44.76595" lon="5.77476">
        <ele>1029</ele>
        <time>2017-11-22T02:29:09Z</time>
      </trkpt>
      <trkpt lat="44.76622" lon="5.77445">
        <ele>1026</ele>
        <time>2017-11-22T02:29:23Z</time>
      </trkpt>
      <trkpt lat="44.76638" lon="5.77436">
        <ele>1026</ele>
        <time>2017-11-22T02:29:32Z</time>
      </trkpt>
      <trkpt lat="44.76657" lon="5.77437">
        <ele>1026</ele>
        <time>2017-11-22T02:29:41Z</time>
      </trkpt>
      <trkpt lat="44.76696" lon="5.77445">
        <ele>1023</ele>
        <time>2017-11-22T02:29:43Z</time>
      </trkpt>
      <trkpt lat="44.76711" lon="5.77446">
        <ele>1022</ele>
        <time>2017-11-22T02:30:03Z</time>
      </trkpt>
      <trkpt lat="44.76724" lon="5.7744">
        <ele>1022</ele>
        <time>2017-11-22T02:30:15Z</time>
      </trkpt>
      <trkpt lat="44.7675" lon="5.77419">
        <ele>1024</ele>
        <time>2017-11-22T02:30:29Z</time>
      </trkpt>
      <trkpt lat="44.76756" lon="5.77416">
        <ele>1024</ele>
        <time>2017-11-22T02:30:33Z</time>
      </trkpt>
      <trkpt lat="44.76767" lon="5.77416">
        <ele>1024</ele>
        <time>2017-11-22T02:30:47Z</time>
      </trkpt>
      <trkpt lat="44.76779" lon="5.77421">
        <ele>1022</ele>
        <time>2017-11-22T02:30:58Z</time>
      </trkpt>
      <trkpt lat="44.76786" lon="5.77429">
        <ele>1022</ele>
        <time>2017-11-22T02:31:06Z</time>
      </trkpt>
      <trkpt lat="44.7681" lon="5.77464">
        <ele>1020</ele>
        <time>2017-11-22T02:31:22Z</time>
      </trkpt>
      <trkpt lat="44.76864" lon="5.77534">
        <ele>1010</ele>
        <time>2017-11-22T02:31:40Z</time>
      </trkpt>
      <trkpt lat="44.76924" lon="5.77612">
        <ele>1006</ele>
        <time>2017-11-22T02:32:00Z</time>
      </trkpt>
      <trkpt lat="44.76952" lon="5.77635">
        <ele>1005</ele>
        <time>2017-11-22T02:32:17Z</time>
      </trkpt>
      <trkpt lat="44.76964" lon="5.77646">
        <ele>1005</ele>
        <time>2017-11-22T02:32:24Z</time>
      </trkpt>
      <trkpt lat="44.76965" lon="5.77659">
        <ele>1004</ele>
        <time>2017-11-22T02:32:33Z</time>
      </trkpt>
      <trkpt lat="44.7696" lon="5.77671">
        <ele>995</ele>
        <time>2017-11-22T02:32:51Z</time>
      </trkpt>
      <trkpt lat="44.76948" lon="5.77674">
        <ele>995</ele>
        <time>2017-11-22T02:32:56Z</time>
      </trkpt>
      <trkpt lat="44.76896" lon="5.77643">
        <ele>998</ele>
        <time>2017-11-22T02:33:04Z</time>
      </trkpt>
      <trkpt lat="44.76844" lon="5.77622">
        <ele>996</ele>
        <time>2017-11-22T02:33:10Z</time>
      </trkpt>
      <trkpt lat="44.76829" lon="5.77623">
        <ele>992</ele>
        <time>2017-11-22T02:33:26Z</time>
      </trkpt>
      <trkpt lat="44.76792" lon="5.77636">
        <ele>991</ele>
        <time>2017-11-22T02:33:32Z</time>
      </trkpt>
      <trkpt lat="44.76752" lon="5.77643">
        <ele>989</ele>
        <time>2017-11-22T02:33:34Z</time>
      </trkpt>
      <trkpt lat="44.76735" lon="5.77654">
        <ele>991</ele>
        <time>2017-11-22T02:33:47Z</time>
      </trkpt>
      <trkpt lat="44.76715" lon="5.77676">
        <ele>988</ele>
        <time>2017-11-22T02:33:59Z</time>
      </trkpt>
      <trkpt lat="44.767" lon="5.777">
        <ele>989</ele>
        <time>2017-11-22T02:34:08Z</time>
      </trkpt>
      <trkpt lat="44.76688" lon="5.7773">
        <ele>989</ele>
        <time>2017-11-22T02:34:28Z</time>
      </trkpt>
      <trkpt lat="44.76684" lon="5.77769">
        <ele>986</ele>
        <time>2017-11-22T02:34:44Z</time>
      </trkpt>
      <trkpt lat="44.7669" lon="5.77844">
        <ele>979</ele>
        <time>2017-11-22T02:34:54Z</time>
      </trkpt>
      <trkpt lat="44.76692" lon="5.77894">
        <ele>975</ele>
        <time>2017-11-22T02:35:11Z</time>
      </trkpt>
      <trkpt lat="44.76688" lon="5.7791">
        <ele>975</ele>
        <time>2017-11-22T02:35:21Z</time>
      </trkpt>
      <trkpt lat="44.76667" lon="5.77946">
        <ele>968</ele>
        <time>2017-11-22T02:35:29Z</time>
      </trkpt>
      <trkpt lat="44.76648" lon="5.77991">
        <ele>967</ele>
        <time>2017-11-22T02:35:45Z</time>
      </trkpt>
      <trkpt lat="44.76642" lon="5.78018">
        <ele>964</ele>
        <time>2017-11-22T02:35:54Z</time>
      </trkpt>
      <trkpt lat="44.76644" lon="5.78034">
        <ele>964</ele>
        <time>2017-11-22T02:36:14Z</time>
      </trkpt>
      <trkpt lat="44.76657" lon="5.78055">
        <ele>963</ele>
        <time>2017-11-22T02:36:20Z</time>
      </trkpt>
      <trkpt lat="44.76698" lon="5.78104">
        <ele>955</ele>
        <time>2017-11-22T02:36:22Z</time>
      </trkpt>
      <trkpt lat="44.76708" lon="5.78112">
        <ele>954</ele>
        <time>2017-11-22T02:36:29Z</time>
      </trkpt>
      <trkpt lat="44.76738" lon="5.78129">
        <ele>952</ele>
        <time>2017-11-22T02:36:35Z</time>
      </trkpt>
      <trkpt lat="44.76748" lon="5.78136">
        <ele>952</ele>
        <time>2017-11-22T02:36:45Z</time>
      </trkpt>
      <trkpt lat="44.76756" lon="5.78142">
        <ele>948</ele>
        <time>2017-11-22T02:36:49Z</time>
      </trkpt>
      <trkpt lat="44.76818" lon="5.78174">
        <ele>947</ele>
        <time>2017-11-22T02:36:58Z</time>
      </trkpt>
      <trkpt lat="44.76839" lon="5.78177">
        <ele>945</ele>
        <time>2017-11-22T02:37:16Z</time>
      </trkpt>
      <trkpt lat="44.76893" lon="5.78173">
        <ele>943</ele>
        <time>2017-11-22T02:37:31Z</time>
      </trkpt>
      <trkpt lat="44.76942" lon="5.78171">
        <ele>939</ele>
        <time>2017-11-22T02:37:42Z</time>
      </trkpt>
      <trkpt lat="44.76984" lon="5.78177">
        <ele>936</ele>
        <time>2017-11-22T02:37:51Z</time>
      </trkpt>
      <trkpt lat="44.77036" lon="5.78184">
        <ele>931</ele>
        <time>2017-11-22T02:38:05Z</time>
      </trkpt>
      <trkpt lat="44.77059" lon="5.78185">
        <ele>930</ele>
        <time>2017-11-22T02:38:22Z</time>
      </trkpt>
      <trkpt lat="44.77114" lon="5.78183">
        <ele>923</ele>
        <time>2017-11-22T02:38:39Z</time>
      </trkpt>
      <trkpt lat="44.77206" lon="5.78192">
        <ele>915</ele>
        <time>2017-11-22T02:38:45Z</time>
      </trkpt>
      <trkpt lat="44.77236" lon="5.78187">
        <ele>913</ele>
        <time>2017-11-22T02:39:04Z</time>
      </trkpt>
      <trkpt lat="44.77279" lon="5.78175">
        <ele>908</ele>
        <time>2017-11-22T02:39:23Z</time>
      </trkpt>
      <trkpt lat="44.77294" lon="5.78174">
        <ele>908</ele>
        <time>2017-11-22T02:39:30Z</time>
      </trkpt>
      <trkpt lat="44.7733" lon="5.78179">
        <ele>907</ele>
        <time>2017-11-22T02:39:40Z</time>
      </trkpt>
      <trkpt lat="44.77376" lon="5.78177">
        <ele>904</ele>
        <time>2017-11-22T02:39:44Z</time>
      </trkpt>
      <trkpt lat="44.77407" lon="5.78171">
        <ele>902</ele>
        <time>2017-11-22T02:40:02Z</time>
      </trkpt>
      <trkpt lat="44.77419" lon="5.78174">
        <ele>901</ele>
        <time>2017-11-22T02:40:16Z</time>
      </trkpt>
      <trkpt lat="44.77451" lon="5.78195">
        <ele>901</ele>
        <time>2017-11-22T02:40:32Z</time>
      </trkpt>
      <trkpt lat="44.77482" lon="5.78212">
        <ele>901</ele>
        <time>2017-11-22T02:40:48Z</time>
      </trkpt>
      <trkpt lat="44.77524" lon="5.78216">
        <ele>898</ele>
        <time>2017-11-22T02:41:08Z</time>
      </trkpt>
      <trkpt lat="44.77565" lon="5.78209">
        <ele>897</ele>
        <time>2017-11-22T02:41:24Z</time>
      </trkpt>
      <trkpt lat="44.776" lon="5.78198">
        <ele>893</ele>
        <time>2017-11-22T02:41:43Z</time>
      </trkpt>
      <trkpt lat="44.77639" lon="5.78177">
        <ele>892</ele>
        <time>2017-11-22T02:42:03Z</time>
      </trkpt>
      <trkpt lat="44.77649" lon="5.78172">
        <ele>892</ele>
        <time>2017-11-22T02:42:09Z</time>
      </trkpt>
      <trkpt lat="44.77662" lon="5.78172">
        <ele>891</ele>
        <time>2017-11-22T02:42:16Z</time>
      </trkpt>
      <trkpt lat="44.77669" lon="5.78173">
        <ele>890</ele>
        <time>2017-11-22T02:42:35Z</time>
      </trkpt>
      <trkpt lat="44.77682" lon="5.78181">
        <ele>891</ele>
        <time>2017-11-22T02:42:37Z</time>
      </trkpt>
      <trkpt lat="44.77713" lon="5.78198">
        <ele>891</ele>
        <time>2017-11-22T02:42:45Z</time>
      </trkpt>
      <trkpt lat="44.77751" lon="5.78193">
        <ele>890</ele>
        <time>2017-11-22T02:42:57Z</time>
      </trkpt>
      <trkpt lat="44.7782" lon="5.78173">
        <ele>890</ele>
        <time>2017-11-22T02:43:02Z</time>
      </trkpt>
      <trkpt lat="44.77856" lon="5.78154">
        <ele>888</ele>
        <time>2017-11-22T02:43:05Z</time>
      </trkpt>
      <trkpt lat="44.77926" lon="5.78114">
        <ele>887</ele>
        <time>2017-11-22T02:43:10Z</time>
      </trkpt>
      <trkpt lat="44.77948" lon="5.78097">
        <ele>887</ele>
        <time>2017-11-22T02:43:28Z</time>
      </trkpt>
      <trkpt lat="44.77967" lon="5.78068">
        <ele>884</ele>
        <time>2017-11-22T02:43:36Z</time>
      </trkpt>
      <trkpt lat="44.77985" lon="5.78048">
        <ele>883</ele>
        <time>2017-11-22T02:43:54Z</time>
      </trkpt>
      <trkpt lat="44.78062" lon="5.78013">
        <ele>884</ele>
        <time>2017-11-22T02:44:11Z</time>
      </trkpt>
      <trkpt lat="44.78074" lon="5.78007">
        <ele>885</ele>
        <time>2017-11-22T02:44:23Z</time>
      </trkpt>
      <trkpt lat="44.78082" lon="5.77998">
        <ele>885</ele>
        <time>2017-11-22T02:44:27Z</time>
      </trkpt>
      <trkpt lat="44.78085" lon="5.7799">
        <ele>890</ele>
        <time>2017-11-22T02:44:36Z</time>
      </trkpt>
      <trkpt lat="44.78086" lon="5.77977">
        <ele>893</ele>
        <time>2017-11-22T02:44:46Z</time>
      </trkpt>
      <trkpt lat="44.78086" lon="5.77945">
        <ele>894</ele>
        <time>2017-11-22T02:44:51Z</time>
      </trkpt>
      <trkpt lat="44.7808" lon="5.77817">
        <ele>879</ele>
        <time>2017-11-22T02:44:55Z</time>
      </trkpt>
      <trkpt lat="44.78075" lon="5.77732">
        <ele>874</ele>
        <time>2017-11-22T02:45:01Z</time>
      </trkpt>
      <trkpt lat="44.78078" lon="5.77676">
        <ele>871</ele>
        <time>2017-11-22T02:45:11Z</time>
      </trkpt>
      <trkpt lat="44.7808" lon="5.77648">
        <ele>869</ele>
        <time>2017-11-22T02:45:15Z</time>
      </trkpt>
      <trkpt lat="44.78073" lon="5.77495">
        <ele>864</ele>
        <time>2017-11-22T02:45:21Z</time>
      </trkpt>
      <trkpt lat="44.78072" lon="5.77446">
        <ele>862</ele>
        <time>2017-11-22T02:45:34Z</time>
      </trkpt>
      <trkpt lat="44.78075" lon="5.77411">
        <ele>861</ele>
        <time>2017-11-22T02:45:54Z</time>
      </trkpt>
      <trkpt lat="44.78082" lon="5.77374">
        <ele>859</ele>
        <time>2017-11-22T02:46:10Z</time>
      </trkpt>
      <trkpt lat="44.78088" lon="5.77353">
        <ele>860</ele>
        <time>2017-11-22T02:46:17Z</time>
      </trkpt>
      <trkpt lat="44.78097" lon="5.77334">
        <ele>860</ele>
        <time>2017-11-22T02:46:25Z</time>
      </trkpt>
      <trkpt lat="44.78113" lon="5.77309">
        <ele>858</ele>
        <time>2017-11-22T02:46:41Z</time>
      </trkpt>
      <trkpt lat="44.78141" lon="5.77269">
        <ele>858</ele>
        <time>2017-11-22T02:46:44Z</time>
      </trkpt>
      <trkpt lat="44.78163" lon="5.77213">
        <ele>854</ele>
        <time>2017-11-22T02:46:53Z</time>
      </trkpt>
      <trkpt lat="44.78181" lon="5.77168">
        <ele>855</ele>
        <time>2017-11-22T02:47:01Z</time>
      </trkpt>
      <trkpt lat="44.78192" lon="5.77149">
        <ele>852</ele>
        <time>2017-11-22T02:47:09Z</time>
      </trkpt>
      <trkpt lat="44.7821" lon="5.77129">
        <ele>851</ele>
        <time>2017-11-22T02:47:28Z</time>
      </trkpt>
      <trkpt lat="44.78229" lon="5.77113">
        <ele>851</ele>
        <time>2017-11-22T02:47:39Z</time>
      </trkpt>
      <trkpt lat="44.7824" lon="5.77091">
        <ele>850</ele>
        <time>2017-11-22T02:47:53Z</time>
      </trkpt>
      <trkpt lat="44.78257" lon="5.77047">
        <ele>849</ele>
        <time>2017-11-22T02:47:57Z</time>
      </trkpt>
      <trkpt lat="44.78271" lon="5.77022">
        <ele>848</ele>
        <time>2017-11-22T02:48:15Z</time>
      </trkpt>
      <trkpt lat="44.78306" lon="5.76974">
        <ele>847</ele>
        <time>2017-11-22T02:48:30Z</time>
      </trkpt>
      <trkpt lat="44.7832" lon="5.76957">
        <ele>847</ele>
        <time>2017-11-22T02:48:43Z</time>
      </trkpt>
      <trkpt lat="44.78331" lon="5.76947">
        <ele>847</ele>
        <time>2017-11-22T02:48:47Z</time>
      </trkpt>
      <trkpt lat="44.7834" lon="5.76942">
        <ele>850</ele>
        <time>2017-11-22T02:48:51Z</time>
      </trkpt>
      <trkpt lat="44.78352" lon="5.76937">
        <ele>850</ele>
        <time>2017-11-22T02:49:09Z</time>
      </trkpt>
      <trkpt lat="44.78375" lon="5.76929">
        <ele>850</ele>
        <time>2017-11-22T02:49:12Z</time>
      </trkpt>
      <trkpt lat="44.78396" lon="5.76915">
        <ele>849</ele>
        <time>2017-11-22T02:49:32Z</time>
      </trkpt>
      <trkpt lat="44.78423" lon="5.76894">
        <ele>850</ele>
        <time>2017-11-22T02:49:38Z</time>
      </trkpt>
      <trkpt lat="44.78445" lon="5.76869">
        <ele>850</ele>
        <time>2017-11-22T02:49:46Z</time>
      </trkpt>
      <trkpt lat="44.78467" lon="5.76841">
        <ele>850</ele>
        <time>2017-11-22T02:49:52Z</time>
      </trkpt>
      <trkpt lat="44.78481" lon="5.76829">
        <ele>848</ele>
        <time>2017-11-22T02:50:09Z</time>
      </trkpt>
      <trkpt lat="44.78505" lon="5.76814">
        <ele>848</ele>
        <time>2017-11-22T02:50:21Z</time>
      </trkpt>
      <trkpt lat="44.78569" lon="5.76776">
        <ele>847</ele>
        <time>2017-11-22T02:50:35Z</time>
      </trkpt>
      <trkpt lat="44.7863" lon="5.76749">
        <ele>844</ele>
        <time>2017-11-22T02:50:43Z</time>
      </trkpt>
      <trkpt lat="44.78735" lon="5.76718">
        <ele>844</ele>
        <time>2017-11-22T02:50:51Z</time>
      </trkpt>
      <trkpt lat="44.78783" lon="5.76698">
        <ele>846</ele>
        <time>2017-11-22T02:51:10Z</time>
      </trkpt>
      <trkpt lat="44.78803" lon="5.76684">
        <ele>847</ele>
        <time>2017-11-22T02:51:14Z</time>
      </trkpt>
      <trkpt lat="44.78815" lon="5.76669">
        <ele>848</ele>
        <time>2017-11-22T02:51:31Z</time>
      </trkpt>
      <trkpt lat="44.78828" lon="5.76638">
        <ele>845</ele>
        <time>2017-11-22T02:51:38Z</time>
      </trkpt>
      <trkpt lat="44.7884" lon="5.76592">
        <ele>847</ele>
        <time>2017-11-22T02:51:50Z</time>
      </trkpt>
      <trkpt lat="44.7885" lon="5.76565">
        <ele>845</ele>
        <time>2017-11-22T02:51:52Z</time>
      </trkpt>
      <trkpt lat="44.78864" lon="5.76533">
        <ele>844</ele>
        <time>2017-11-22T02:52:06Z</time>
      </trkpt>
      <trkpt lat="44.78882" lon="5.76498">
        <ele>839</ele>
        <time>2017-11-22T02:52:14Z</time>
      </trkpt>
      <trkpt lat="44.789" lon="5.76472">
        <ele>839</ele>
        <time>2017-11-22T02:52:34Z</time>
      </trkpt>
      <trkpt lat="44.78927" lon="5.76442">
        <ele>841</ele>
        <time>2017-11-22T02:52:43Z</time>
      </trkpt>
      <trkpt lat="44.78953" lon="5.76407">
        <ele>837</ele>
        <time>2017-11-22T02:52:45Z</time>
      </trkpt>
      <trkpt lat="44.79013" lon="5.76303">
        <ele>836</ele>
        <time>2017-11-22T02:53:03Z</time>
      </trkpt>
      <trkpt lat="44.79053" lon="5.7624">
        <ele>830</ele>
        <time>2017-11-22T02:53:21Z</time>
      </trkpt>
      <trkpt lat="44.79066" lon="5.76225">
        <ele>830</ele>
        <time>2017-11-22T02:53:24Z</time>
      </trkpt>
      <trkpt lat="44.79105" lon="5.76181">
        <ele>832</ele>
        <time>2017-11-22T02:53:30Z</time>
      </trkpt>
      <trkpt lat="44.79154" lon="5.76134">
        <ele>828</ele>
        <time>2017-11-22T02:53:46Z</time>
      </trkpt>
      <trkpt lat="44.79184" lon="5.76099">
        <ele>832</ele>
        <time>2017-11-22T02:53:54Z</time>
      </trkpt>
      <trkpt lat="44.79207" lon="5.76062">
        <ele>826</ele>
        <time>2017-11-22T02:54:00Z</time>
      </trkpt>
      <trkpt lat="44.79232" lon="5.76017">
        <ele>825</ele>
        <time>2017-11-22T02:54:02Z</time>
      </trkpt>
      <trkpt lat="44.7925" lon="5.75991">
        <ele>822</ele>
        <time>2017-11-22T02:54:17Z</time>
      </trkpt>
      <trkpt lat="44.79258" lon="5.75984">
        <ele>826</ele>
        <time>2017-11-22T02:54:29Z</time>
      </trkpt>
      <trkpt lat="44.79269" lon="5.75977">
        <ele>827</ele>
        <time>2017-11-22T02:54:42Z</time>
      </trkpt>
      <trkpt lat="44.79283" lon="5.75967">
        <ele>827</ele>
        <time>2017-11-22T02:54:45Z</time>
      </trkpt>
      <trkpt lat="44.79286" lon="5.75962">
        <ele>827</ele>
        <time>2017-11-22T02:54:55Z</time>
      </trkpt>
      <trkpt lat="44.79288" lon="5.75952">
        <ele>826</ele>
        <time>2017-11-22T02:54:59Z</time>
      </trkpt>
      <trkpt lat="44.79295" lon="5.75949">
        <ele>827</ele>
        <time>2017-11-22T02:55:15Z</time>
      </trkpt>
      <trkpt lat="44.79317" lon="5.75935">
        <ele>827</ele>
        <time>2017-11-22T02:55:30Z</time>
      </trkpt>
      <trkpt lat="44.79348" lon="5.7591">
        <ele>826</ele>
        <time>2017-11-22T02:55:41Z</time>
      </trkpt>
      <trkpt lat="44.79396" lon="5.75866">
        <ele>825</ele>
        <time>2017-11-22T02:55:46Z</time>
      </trkpt>
      <trkpt lat="44.79414" lon="5.75844">
        <ele>823</ele>
        <time>2017-11-22T02:55:50Z</time>
      </trkpt>
      <trkpt lat="44.79447" lon="5.75796">
        <ele>824</ele>
        <time>2017-11-22T02:56:02Z</time>
      </trkpt>
      <trkpt lat="44.79481" lon="5.75751">
        <ele>826</ele>
        <time>2017-11-22T02:56:14Z</time>
      </trkpt>
      <trkpt lat="44.79521" lon="5.75707">
        <ele>819</ele>
        <time>2017-11-22T02:56:32Z</time>
      </trkpt>
      <trkpt lat="44.79554" lon="5.7568">
        <ele>819</ele>
        <time>2017-11-22T02:56:41Z</time>
      </trkpt>
      <trkpt lat="44.7959" lon="5.75664">
        <ele>816</ele>
        <time>2017-11-22T02:56:56Z</time>
      </trkpt>
      <trkpt lat="44.79608" lon="5.75653">
        <ele>814</ele>
        <time>2017-11-22T02:57:12Z</time>
      </trkpt>
      <trkpt lat="44.79612" lon="5.75651">
        <ele>814</ele>
        <time>2017-11-22T02:57:23Z</time>
      </trkpt>
      <trkpt lat="44.79616" lon="5.75641">
        <ele>813</ele>
        <time>2017-11-22T02:57:32Z</time>
      </trkpt>
      <trkpt lat="44.79612" lon="5.75651">
        <ele>814</ele>
        <time>2017-11-22T02:57:44Z</time>
      </trkpt>
      <trkpt lat="44.79625" lon="5.75639">
        <ele>813</ele>
        <time>2017-11-22T02:57:46Z</time>
      </trkpt>
      <trkpt lat="44.79653" lon="5.75601">
        <ele>812</ele>
        <time>2017-11-22T02:57:53Z</time>
      </trkpt>
      <trkpt lat="44.79667" lon="5.75584">
        <ele>813</ele>
        <time>2017-11-22T02:58:06Z</time>
      </trkpt>
      <trkpt lat="44.79683" lon="5.7557">
        <ele>808</ele>
        <time>2017-11-22T02:58:13Z</time>
      </trkpt>
      <trkpt lat="44.7972" lon="5.75545">
        <ele>806</ele>
        <time>2017-11-22T02:58:27Z</time>
      </trkpt>
      <trkpt lat="44.79764" lon="5.7551">
        <ele>805</ele>
        <time>2017-11-22T02:58:45Z</time>
      </trkpt>
      <trkpt lat="44.79781" lon="5.75501">
        <ele>806</ele>
        <time>2017-11-22T02:59:04Z</time>
      </trkpt>
      <trkpt lat="44.79799" lon="5.75495">
        <ele>807</ele>
        <time>2017-11-22T02:59:11Z</time>
      </trkpt>
      <trkpt lat="44.79838" lon="5.7549">
        <ele>810</ele>
        <time>2017-11-22T02:59:19Z</time>
      </trkpt>
      <trkpt lat="44.79922" lon="5.75477">
        <ele>809</ele>
        <time>2017-11-22T02:59:22Z</time>
      </trkpt>
      <trkpt lat="44.79977" lon="5.7547">
        <ele>808</ele>
        <time>2017-11-22T02:59:36Z</time>
      </trkpt>
      <trkpt lat="44.80029" lon="5.75455">
        <ele>802</ele>
        <time>2017-11-22T02:59:45Z</time>
      </trkpt>
      <trkpt lat="44.80051" lon="5.75454">
        <ele>802</ele>
        <time>2017-11-22T02:59:48Z</time>
      </trkpt>
      <trkpt lat="44.80071" lon="5.75457">
        <ele>801</ele>
        <time>2017-11-22T02:59:53Z</time>
      </trkpt>
      <trkpt lat="44.80091" lon="5.75461">
        <ele>798</ele>
        <time>2017-11-22T02:59:58Z</time>
      </trkpt>
      <trkpt lat="44.8011" lon="5.75463">
        <ele>797</ele>
        <time>2017-11-22T03:00:08Z</time>
      </trkpt>
      <trkpt lat="44.80132" lon="5.75461">
        <ele>797</ele>
        <time>2017-11-22T03:00:14Z</time>
      </trkpt>
      <trkpt lat="44.80152" lon="5.75458">
        <ele>796</ele>
        <time>2017-11-22T03:00:28Z</time>
      </trkpt>
      <trkpt lat="44.80182" lon="5.75448">
        <ele>794</ele>
        <time>2017-11-22T03:00:48Z</time>
      </trkpt>
      <trkpt lat="44.80201" lon="5.75438">
        <ele>795</ele>
        <time>2017-11-22T03:00:56Z</time>
      </trkpt>
      <trkpt lat="44.80218" lon="5.75423">
        <ele>795</ele>
        <time>2017-11-22T03:00:58Z</time>
      </trkpt>
      <trkpt lat="44.8026" lon="5.75381">
        <ele>801</ele>
        <time>2017-11-22T03:01:06Z</time>
      </trkpt>
      <trkpt lat="44.8028" lon="5.75351">
        <ele>802</ele>
        <time>2017-11-22T03:01:23Z</time>
      </trkpt>
      <trkpt lat="44.80318" lon="5.7526">
        <ele>803</ele>
        <time>2017-11-22T03:01:38Z</time>
      </trkpt>
      <trkpt lat="44.80339" lon="5.75205">
        <ele>810</ele>
        <time>2017-11-22T03:01:41Z</time>
      </trkpt>
      <trkpt lat="44.8035" lon="5.7518">
        <ele>807</ele>
        <time>2017-11-22T03:01:49Z</time>
      </trkpt>
      <trkpt lat="44.80363" lon="5.75157">
        <ele>804</ele>
        <time>2017-11-22T03:01:54Z</time>
      </trkpt>
      <trkpt lat="44.80394" lon="5.7512">
        <ele>807</ele>
        <time>2017-11-22T03:02:00Z</time>
      </trkpt>
      <trkpt lat="44.80407" lon="5.75099">
        <ele>808</ele>
        <time>2017-11-22T03:02:04Z</time>
      </trkpt>
      <trkpt lat="44.80419" lon="5.75075">
        <ele>811</ele>
        <time>2017-11-22T03:02:24Z</time>
      </trkpt>
      <trkpt lat="44.80432" lon="5.75042">
        <ele>811</ele>
        <time>2017-11-22T03:02:29Z</time>
      </trkpt>
      <trkpt lat="44.80443" lon="5.75022">
        <ele>810</ele>
        <time>2017-11-22T03:02:34Z</time>
      </trkpt>
      <trkpt lat="44.80455" lon="5.75007">
        <ele>811</ele>
        <time>2017-11-22T03:02:42Z</time>
      </trkpt>
      <trkpt lat="44.80469" lon="5.74993">
        <ele>807</ele>
        <time>2017-11-22T03:02:44Z</time>
      </trkpt>
      <trkpt lat="44.80497" lon="5.74973">
        <ele>809</ele>
        <time>2017-11-22T03:02:48Z</time>
      </trkpt>
      <trkpt lat="44.80511" lon="5.74967">
        <ele>815</ele>
        <time>2017-11-22T03:02:53Z</time>
      </trkpt>
      <trkpt lat="44.80524" lon="5.74966">
        <ele>815</ele>
        <time>2017-11-22T03:03:09Z</time>
      </trkpt>
      <trkpt lat="44.80537" lon="5.74967">
        <ele>815</ele>
        <time>2017-11-22T03:03:27Z</time>
      </trkpt>
      <trkpt lat="44.80551" lon="5.74972">
        <ele>816</ele>
        <time>2017-11-22T03:03:35Z</time>
      </trkpt>
      <trkpt lat="44.80576" lon="5.74983">
        <ele>817</ele>
        <time>2017-11-22T03:03:54Z</time>
      </trkpt>
      <trkpt lat="44.80586" lon="5.74987">
        <ele>818</ele>
        <time>2017-11-22T03:04:00Z</time>
      </trkpt>
      <trkpt lat="44.80594" lon="5.74987">
        <ele>818</ele>
        <time>2017-11-22T03:04:04Z</time>
      </trkpt>
      <trkpt lat="44.80607" lon="5.74982">
        <ele>818</ele>
        <time>2017-11-22T03:04:15Z</time>
      </trkpt>
      <trkpt lat="44.80618" lon="5.74974">
        <ele>818</ele>
        <time>2017-11-22T03:04:27Z</time>
      </trkpt>
      <trkpt lat="44.80637" lon="5.74956">
        <ele>818</ele>
        <time>2017-11-22T03:04:32Z</time>
      </trkpt>
      <trkpt lat="44.80678" lon="5.74911">
        <ele>817</ele>
        <time>2017-11-22T03:04:41Z</time>
      </trkpt>
      <trkpt lat="44.80723" lon="5.74871">
        <ele>816</ele>
        <time>2017-11-22T03:05:01Z</time>
      </trkpt>
      <trkpt lat="44.80759" lon="5.74844">
        <ele>815</ele>
        <time>2017-11-22T03:05:05Z</time>
      </trkpt>
      <trkpt lat="44.80778" lon="5.74835">
        <ele>814</ele>
        <time>2017-11-22T03:05:18Z</time>
      </trkpt>
      <trkpt lat="44.80812" lon="5.74823">
        <ele>810</ele>
        <time>2017-11-22T03:05:23Z</time>
      </trkpt>
      <trkpt lat="44.80836" lon="5.74815">
        <ele>808</ele>
        <time>2017-11-22T03:05:32Z</time>
      </trkpt>
      <trkpt lat="44.80863" lon="5.7481">
        <ele>806</ele>
        <time>2017-11-22T03:05:40Z</time>
      </trkpt>
      <trkpt lat="44.809" lon="5.74808">
        <ele>806</ele>
        <time>2017-11-22T03:05:53Z</time>
      </trkpt>
      <trkpt lat="44.80915" lon="5.7481">
        <ele>806</ele>
        <time>2017-11-22T03:06:11Z</time>
      </trkpt>
      <trkpt lat="44.8093" lon="5.74817">
        <ele>802</ele>
        <time>2017-11-22T03:06:19Z</time>
      </trkpt>
      <trkpt lat="44.81014" lon="5.74875">
        <ele>799</ele>
        <time>2017-11-22T03:06:23Z</time>
      </trkpt>
      <trkpt lat="44.81043" lon="5.74897">
        <ele>799</ele>
        <time>2017-11-22T03:06:31Z</time>
      </trkpt>
      <trkpt lat="44.81056" lon="5.74906">
        <ele>798</ele>
        <time>2017-11-22T03:06:33Z</time>
      </trkpt>
      <trkpt lat="44.8107" lon="5.7491">
        <ele>797</ele>
        <time>2017-11-22T03:06:37Z</time>
      </trkpt>
      <trkpt lat="44.81084" lon="5.74908">
        <ele>796</ele>
        <time>2017-11-22T03:06:56Z</time>
      </trkpt>
      <trkpt lat="44.81099" lon="5.74899">
        <ele>795</ele>
        <time>2017-11-22T03:07:14Z</time>
      </trkpt>
      <trkpt lat="44.81123" lon="5.7488">
        <ele>794</ele>
        <time>2017-11-22T03:07:34Z</time>
      </trkpt>
      <trkpt lat="44.81157" lon="5.7486">
        <ele>792</ele>
        <time>2017-11-22T03:07:46Z</time>
      </trkpt>
      <trkpt lat="44.81191" lon="5.74845">
        <ele>791</ele>
        <time>2017-11-22T03:08:02Z</time>
      </trkpt>
      <trkpt lat="44.81222" lon="5.74828">
        <ele>787</ele>
        <time>2017-11-22T03:08:16Z</time>
      </trkpt>
      <trkpt lat="44.81241" lon="5.74818">
        <ele>787</ele>
        <time>2017-11-22T03:08:27Z</time>
      </trkpt>
      <trkpt lat="44.8125" lon="5.74815">
        <ele>787</ele>
        <time>2017-11-22T03:08:41Z</time>
      </trkpt>
      <trkpt lat="44.81259" lon="5.74816">
        <ele>785</ele>
        <time>2017-11-22T03:08:57Z</time>
      </trkpt>
      <trkpt lat="44.81269" lon="5.74822">
        <ele>785</ele>
        <time>2017-11-22T03:09:05Z</time>
      </trkpt>
      <trkpt lat="44.81284" lon="5.7484">
        <ele>786</ele>
        <time>2017-11-22T03:09:20Z</time>
      </trkpt>
      <trkpt lat="44.81297" lon="5.74861">
        <ele>786</ele>
        <time>2017-11-22T03:09:39Z</time>
      </trkpt>
      <trkpt lat="44.81309" lon="5.74885">
        <ele>786</ele>
        <time>2017-11-22T03:09:53Z</time>
      </trkpt>
      <trkpt lat="44.8132" lon="5.74916">
        <ele>785</ele>
        <time>2017-11-22T03:09:56Z</time>
      </trkpt>
      <trkpt lat="44.81358" lon="5.75043">
        <ele>779</ele>
        <time>2017-11-22T03:10:16Z</time>
      </trkpt>
      <trkpt lat="44.81365" lon="5.75064">
        <ele>779</ele>
        <time>2017-11-22T03:10:36Z</time>
      </trkpt>
      <trkpt lat="44.81372" lon="5.75079">
        <ele>778</ele>
        <time>2017-11-22T03:10:42Z</time>
      </trkpt>
      <trkpt lat="44.81381" lon="5.75091">
        <ele>779</ele>
        <time>2017-11-22T03:10:54Z</time>
      </trkpt>
      <trkpt lat="44.81393" lon="5.75099">
        <ele>778</ele>
        <time>2017-11-22T03:11:12Z</time>
      </trkpt>
      <trkpt lat="44.81407" lon="5.75104">
        <ele>777</ele>
        <time>2017-11-22T03:11:21Z</time>
      </trkpt>
      <trkpt lat="44.81415" lon="5.75105">
        <ele>777</ele>
        <time>2017-11-22T03:11:41Z</time>
      </trkpt>
      <trkpt lat="44.81444" lon="5.75103">
        <ele>775</ele>
        <time>2017-11-22T03:11:43Z</time>
      </trkpt>
      <trkpt lat="44.81479" lon="5.75098">
        <ele>775</ele>
        <time>2017-11-22T03:11:54Z</time>
      </trkpt>
      <trkpt lat="44.81506" lon="5.75095">
        <ele>775</ele>
        <time>2017-11-22T03:11:59Z</time>
      </trkpt>
      <trkpt lat="44.81576" lon="5.75081">
        <ele>775</ele>
        <time>2017-11-22T03:12:14Z</time>
      </trkpt>
      <trkpt lat="44.81636" lon="5.75069">
        <ele>776</ele>
        <time>2017-11-22T03:12:27Z</time>
      </trkpt>
      <trkpt lat="44.81682" lon="5.75056">
        <ele>778</ele>
        <time>2017-11-22T03:12:34Z</time>
      </trkpt>
      <trkpt lat="44.81691" lon="5.75051">
        <ele>778</ele>
        <time>2017-11-22T03:12:41Z</time>
      </trkpt>
      <trkpt lat="44.81687" lon="5.75038">
        <ele>777</ele>
        <time>2017-11-22T03:12:55Z</time>
      </trkpt>
      <trkpt lat="44.81687" lon="5.75037">
        <ele>777</ele>
        <time>2017-11-22T03:13:02Z</time>
      </trkpt>
    </trkseg>
  </trk>
</gpx>